<?xml version="1.0" encoding="UTF-8" standalone="no" ?>
<gpx xmlns="http://www.topografix.com/GPX/1/1" xmlns:xsi="http://www.w3.org/2001/XMLSchema-instance" xsi:schemaLocation="http://www.topografix.com/GPX/1/1 http://www.topografix.com/GPX/1/1/gpx.xsd" version="1.1" creator="VisuGPX - https://www.visugpx.com">
  <metadata>
    <name>VTT départ lac de saint Cassien boucle (poupy)</name>
    <desc><![CDATA[départ lac de Saint cassien préparation 100km de LACHENS .]]></desc>
  </metadata>
  <trk>
    <name><![CDATA[2014-04-21-01]]></name>
    <trkseg>
      <trkpt lat="43.55228" lon="6.79385">
        <ele>160.3</ele>
        <time>2014-04-21T07:45:55Z</time>
      </trkpt>
      <trkpt lat="43.55228" lon="6.79385">
        <ele>160.3</ele>
        <time>2014-04-21T07:45:56Z</time>
      </trkpt>
      <trkpt lat="43.55234" lon="6.79374">
        <ele>162.3</ele>
        <time>2014-04-21T07:54:10Z</time>
      </trkpt>
      <trkpt lat="43.55239" lon="6.79364">
        <ele>163.3</ele>
        <time>2014-04-21T07:54:16Z</time>
      </trkpt>
      <trkpt lat="43.55244" lon="6.79352">
        <ele>165.3</ele>
        <time>2014-04-21T07:54:21Z</time>
      </trkpt>
      <trkpt lat="43.55251" lon="6.79339">
        <ele>165.3</ele>
        <time>2014-04-21T07:54:26Z</time>
      </trkpt>
      <trkpt lat="43.55259" lon="6.79326">
        <ele>164.3</ele>
        <time>2014-04-21T07:54:29Z</time>
      </trkpt>
      <trkpt lat="43.55268" lon="6.79316">
        <ele>163.3</ele>
        <time>2014-04-21T07:54:31Z</time>
      </trkpt>
      <trkpt lat="43.55279" lon="6.79307">
        <ele>162.3</ele>
        <time>2014-04-21T07:54:33Z</time>
      </trkpt>
      <trkpt lat="43.5529" lon="6.79299">
        <ele>162.3</ele>
        <time>2014-04-21T07:54:35Z</time>
      </trkpt>
      <trkpt lat="43.553" lon="6.79292">
        <ele>162.3</ele>
        <time>2014-04-21T07:54:37Z</time>
      </trkpt>
      <trkpt lat="43.5531" lon="6.79289">
        <ele>163.3</ele>
        <time>2014-04-21T07:54:39Z</time>
      </trkpt>
      <trkpt lat="43.55322" lon="6.79286">
        <ele>162.3</ele>
        <time>2014-04-21T07:54:42Z</time>
      </trkpt>
      <trkpt lat="43.55335" lon="6.79286">
        <ele>161.3</ele>
        <time>2014-04-21T07:54:45Z</time>
      </trkpt>
      <trkpt lat="43.55343" lon="6.79295">
        <ele>161.3</ele>
        <time>2014-04-21T07:54:48Z</time>
      </trkpt>
      <trkpt lat="43.5535" lon="6.79304">
        <ele>161.3</ele>
        <time>2014-04-21T07:54:51Z</time>
      </trkpt>
      <trkpt lat="43.55359" lon="6.79313">
        <ele>162.3</ele>
        <time>2014-04-21T07:54:54Z</time>
      </trkpt>
      <trkpt lat="43.55371" lon="6.79315">
        <ele>161.3</ele>
        <time>2014-04-21T07:54:57Z</time>
      </trkpt>
      <trkpt lat="43.5538" lon="6.79313">
        <ele>162.3</ele>
        <time>2014-04-21T07:55:00Z</time>
      </trkpt>
      <trkpt lat="43.55389" lon="6.79307">
        <ele>162.3</ele>
        <time>2014-04-21T07:55:04Z</time>
      </trkpt>
      <trkpt lat="43.55396" lon="6.79296">
        <ele>162.3</ele>
        <time>2014-04-21T07:55:08Z</time>
      </trkpt>
      <trkpt lat="43.55401" lon="6.79283">
        <ele>162.3</ele>
        <time>2014-04-21T07:55:11Z</time>
      </trkpt>
      <trkpt lat="43.55406" lon="6.79268">
        <ele>161.3</ele>
        <time>2014-04-21T07:55:14Z</time>
      </trkpt>
      <trkpt lat="43.55411" lon="6.79255">
        <ele>161.3</ele>
        <time>2014-04-21T07:55:16Z</time>
      </trkpt>
      <trkpt lat="43.55417" lon="6.79246">
        <ele>161.3</ele>
        <time>2014-04-21T07:55:18Z</time>
      </trkpt>
      <trkpt lat="43.55425" lon="6.79239">
        <ele>160.3</ele>
        <time>2014-04-21T07:55:20Z</time>
      </trkpt>
      <trkpt lat="43.55439" lon="6.7924">
        <ele>159.3</ele>
        <time>2014-04-21T07:55:23Z</time>
      </trkpt>
      <trkpt lat="43.55448" lon="6.79243">
        <ele>159.3</ele>
        <time>2014-04-21T07:55:25Z</time>
      </trkpt>
      <trkpt lat="43.55456" lon="6.79246">
        <ele>159.3</ele>
        <time>2014-04-21T07:55:27Z</time>
      </trkpt>
      <trkpt lat="43.55466" lon="6.79245">
        <ele>159.3</ele>
        <time>2014-04-21T07:55:29Z</time>
      </trkpt>
      <trkpt lat="43.55475" lon="6.7924">
        <ele>158.3</ele>
        <time>2014-04-21T07:55:31Z</time>
      </trkpt>
      <trkpt lat="43.55484" lon="6.79235">
        <ele>158.3</ele>
        <time>2014-04-21T07:55:33Z</time>
      </trkpt>
      <trkpt lat="43.55492" lon="6.79222">
        <ele>159.3</ele>
        <time>2014-04-21T07:55:36Z</time>
      </trkpt>
      <trkpt lat="43.55493" lon="6.79205">
        <ele>159.3</ele>
        <time>2014-04-21T07:55:39Z</time>
      </trkpt>
      <trkpt lat="43.55493" lon="6.79189">
        <ele>159.3</ele>
        <time>2014-04-21T07:55:42Z</time>
      </trkpt>
      <trkpt lat="43.55494" lon="6.79177">
        <ele>160.3</ele>
        <time>2014-04-21T07:55:45Z</time>
      </trkpt>
      <trkpt lat="43.55499" lon="6.79166">
        <ele>160.3</ele>
        <time>2014-04-21T07:55:48Z</time>
      </trkpt>
      <trkpt lat="43.55509" lon="6.79156">
        <ele>159.3</ele>
        <time>2014-04-21T07:55:51Z</time>
      </trkpt>
      <trkpt lat="43.5552" lon="6.79147">
        <ele>160.3</ele>
        <time>2014-04-21T07:55:54Z</time>
      </trkpt>
      <trkpt lat="43.55531" lon="6.79143">
        <ele>161.3</ele>
        <time>2014-04-21T07:55:58Z</time>
      </trkpt>
      <trkpt lat="43.55541" lon="6.79145">
        <ele>161.3</ele>
        <time>2014-04-21T07:56:02Z</time>
      </trkpt>
      <trkpt lat="43.5555" lon="6.79138">
        <ele>161.3</ele>
        <time>2014-04-21T07:56:07Z</time>
      </trkpt>
      <trkpt lat="43.55554" lon="6.79122">
        <ele>161.3</ele>
        <time>2014-04-21T07:56:11Z</time>
      </trkpt>
      <trkpt lat="43.55557" lon="6.79095">
        <ele>162.3</ele>
        <time>2014-04-21T07:56:17Z</time>
      </trkpt>
      <trkpt lat="43.55561" lon="6.79081">
        <ele>161.3</ele>
        <time>2014-04-21T07:56:20Z</time>
      </trkpt>
      <trkpt lat="43.55564" lon="6.79065">
        <ele>161.3</ele>
        <time>2014-04-21T07:56:23Z</time>
      </trkpt>
      <trkpt lat="43.55568" lon="6.79048">
        <ele>162.3</ele>
        <time>2014-04-21T07:56:26Z</time>
      </trkpt>
      <trkpt lat="43.55572" lon="6.79031">
        <ele>162.3</ele>
        <time>2014-04-21T07:56:29Z</time>
      </trkpt>
      <trkpt lat="43.55577" lon="6.79015">
        <ele>162.3</ele>
        <time>2014-04-21T07:56:32Z</time>
      </trkpt>
      <trkpt lat="43.55583" lon="6.79">
        <ele>162.3</ele>
        <time>2014-04-21T07:56:35Z</time>
      </trkpt>
      <trkpt lat="43.5559" lon="6.78986">
        <ele>162.3</ele>
        <time>2014-04-21T07:56:38Z</time>
      </trkpt>
      <trkpt lat="43.55597" lon="6.78972">
        <ele>163.3</ele>
        <time>2014-04-21T07:56:41Z</time>
      </trkpt>
      <trkpt lat="43.55603" lon="6.7896">
        <ele>162.3</ele>
        <time>2014-04-21T07:56:44Z</time>
      </trkpt>
      <trkpt lat="43.55609" lon="6.78947">
        <ele>162.3</ele>
        <time>2014-04-21T07:56:47Z</time>
      </trkpt>
      <trkpt lat="43.55617" lon="6.78934">
        <ele>162.3</ele>
        <time>2014-04-21T07:56:50Z</time>
      </trkpt>
      <trkpt lat="43.55626" lon="6.78922">
        <ele>162.3</ele>
        <time>2014-04-21T07:56:53Z</time>
      </trkpt>
      <trkpt lat="43.55635" lon="6.78911">
        <ele>162.3</ele>
        <time>2014-04-21T07:56:56Z</time>
      </trkpt>
      <trkpt lat="43.55645" lon="6.789">
        <ele>161.3</ele>
        <time>2014-04-21T07:56:59Z</time>
      </trkpt>
      <trkpt lat="43.55655" lon="6.78894">
        <ele>161.3</ele>
        <time>2014-04-21T07:57:02Z</time>
      </trkpt>
      <trkpt lat="43.55666" lon="6.78888">
        <ele>161.3</ele>
        <time>2014-04-21T07:57:05Z</time>
      </trkpt>
      <trkpt lat="43.55676" lon="6.7888">
        <ele>161.3</ele>
        <time>2014-04-21T07:57:08Z</time>
      </trkpt>
      <trkpt lat="43.55687" lon="6.78873">
        <ele>161.3</ele>
        <time>2014-04-21T07:57:11Z</time>
      </trkpt>
      <trkpt lat="43.55698" lon="6.78865">
        <ele>162.3</ele>
        <time>2014-04-21T07:57:14Z</time>
      </trkpt>
      <trkpt lat="43.55709" lon="6.78843">
        <ele>163.3</ele>
        <time>2014-04-21T07:57:20Z</time>
      </trkpt>
      <trkpt lat="43.55709" lon="6.78828">
        <ele>163.3</ele>
        <time>2014-04-21T07:57:23Z</time>
      </trkpt>
      <trkpt lat="43.55707" lon="6.78813">
        <ele>163.3</ele>
        <time>2014-04-21T07:57:26Z</time>
      </trkpt>
      <trkpt lat="43.55704" lon="6.78798">
        <ele>163.3</ele>
        <time>2014-04-21T07:57:29Z</time>
      </trkpt>
      <trkpt lat="43.55704" lon="6.78784">
        <ele>164.3</ele>
        <time>2014-04-21T07:57:32Z</time>
      </trkpt>
      <trkpt lat="43.55712" lon="6.78776">
        <ele>165.3</ele>
        <time>2014-04-21T07:57:35Z</time>
      </trkpt>
      <trkpt lat="43.55723" lon="6.78779">
        <ele>165.3</ele>
        <time>2014-04-21T07:57:38Z</time>
      </trkpt>
      <trkpt lat="43.55733" lon="6.7878">
        <ele>166.3</ele>
        <time>2014-04-21T07:57:41Z</time>
      </trkpt>
      <trkpt lat="43.55742" lon="6.78781">
        <ele>166.3</ele>
        <time>2014-04-21T07:57:44Z</time>
      </trkpt>
      <trkpt lat="43.55752" lon="6.78781">
        <ele>166.3</ele>
        <time>2014-04-21T07:57:47Z</time>
      </trkpt>
      <trkpt lat="43.55762" lon="6.7878">
        <ele>166.3</ele>
        <time>2014-04-21T07:57:50Z</time>
      </trkpt>
      <trkpt lat="43.55774" lon="6.78777">
        <ele>165.3</ele>
        <time>2014-04-21T07:57:53Z</time>
      </trkpt>
      <trkpt lat="43.55786" lon="6.78773">
        <ele>165.3</ele>
        <time>2014-04-21T07:57:56Z</time>
      </trkpt>
      <trkpt lat="43.55797" lon="6.78768">
        <ele>165.3</ele>
        <time>2014-04-21T07:57:59Z</time>
      </trkpt>
      <trkpt lat="43.55808" lon="6.78768">
        <ele>164.3</ele>
        <time>2014-04-21T07:58:02Z</time>
      </trkpt>
      <trkpt lat="43.5582" lon="6.78772">
        <ele>164.3</ele>
        <time>2014-04-21T07:58:05Z</time>
      </trkpt>
      <trkpt lat="43.55831" lon="6.7878">
        <ele>164.3</ele>
        <time>2014-04-21T07:58:08Z</time>
      </trkpt>
      <trkpt lat="43.55841" lon="6.78789">
        <ele>165.3</ele>
        <time>2014-04-21T07:58:11Z</time>
      </trkpt>
      <trkpt lat="43.5585" lon="6.78794">
        <ele>166.3</ele>
        <time>2014-04-21T07:58:14Z</time>
      </trkpt>
      <trkpt lat="43.55864" lon="6.78817">
        <ele>166.3</ele>
        <time>2014-04-21T07:58:20Z</time>
      </trkpt>
      <trkpt lat="43.55869" lon="6.7883">
        <ele>165.3</ele>
        <time>2014-04-21T07:58:22Z</time>
      </trkpt>
      <trkpt lat="43.55875" lon="6.78841">
        <ele>166.3</ele>
        <time>2014-04-21T07:58:24Z</time>
      </trkpt>
      <trkpt lat="43.55883" lon="6.7885">
        <ele>165.3</ele>
        <time>2014-04-21T07:58:26Z</time>
      </trkpt>
      <trkpt lat="43.55891" lon="6.78856">
        <ele>164.3</ele>
        <time>2014-04-21T07:58:28Z</time>
      </trkpt>
      <trkpt lat="43.55902" lon="6.78858">
        <ele>162.3</ele>
        <time>2014-04-21T07:58:30Z</time>
      </trkpt>
      <trkpt lat="43.55916" lon="6.78855">
        <ele>160.3</ele>
        <time>2014-04-21T07:58:32Z</time>
      </trkpt>
      <trkpt lat="43.55932" lon="6.7885">
        <ele>159.3</ele>
        <time>2014-04-21T07:58:34Z</time>
      </trkpt>
      <trkpt lat="43.55945" lon="6.78854">
        <ele>160.3</ele>
        <time>2014-04-21T07:58:36Z</time>
      </trkpt>
      <trkpt lat="43.55953" lon="6.78861">
        <ele>162.3</ele>
        <time>2014-04-21T07:58:38Z</time>
      </trkpt>
      <trkpt lat="43.55961" lon="6.78868">
        <ele>163.3</ele>
        <time>2014-04-21T07:58:41Z</time>
      </trkpt>
      <trkpt lat="43.5597" lon="6.78873">
        <ele>163.3</ele>
        <time>2014-04-21T07:58:44Z</time>
      </trkpt>
      <trkpt lat="43.55981" lon="6.78877">
        <ele>163.3</ele>
        <time>2014-04-21T07:58:48Z</time>
      </trkpt>
      <trkpt lat="43.5599" lon="6.7888">
        <ele>165.3</ele>
        <time>2014-04-21T07:58:51Z</time>
      </trkpt>
      <trkpt lat="43.55999" lon="6.78886">
        <ele>165.3</ele>
        <time>2014-04-21T07:58:54Z</time>
      </trkpt>
      <trkpt lat="43.56007" lon="6.78893">
        <ele>166.3</ele>
        <time>2014-04-21T07:58:57Z</time>
      </trkpt>
      <trkpt lat="43.56016" lon="6.78899">
        <ele>166.3</ele>
        <time>2014-04-21T07:59:00Z</time>
      </trkpt>
      <trkpt lat="43.56025" lon="6.78904">
        <ele>166.3</ele>
        <time>2014-04-21T07:59:03Z</time>
      </trkpt>
      <trkpt lat="43.56034" lon="6.78907">
        <ele>167.3</ele>
        <time>2014-04-21T07:59:06Z</time>
      </trkpt>
      <trkpt lat="43.56042" lon="6.78905">
        <ele>166.3</ele>
        <time>2014-04-21T07:59:09Z</time>
      </trkpt>
      <trkpt lat="43.56052" lon="6.78899">
        <ele>165.3</ele>
        <time>2014-04-21T07:59:12Z</time>
      </trkpt>
      <trkpt lat="43.56064" lon="6.78891">
        <ele>164.3</ele>
        <time>2014-04-21T07:59:15Z</time>
      </trkpt>
      <trkpt lat="43.56081" lon="6.78898">
        <ele>164.3</ele>
        <time>2014-04-21T07:59:19Z</time>
      </trkpt>
      <trkpt lat="43.56086" lon="6.7891">
        <ele>164.3</ele>
        <time>2014-04-21T07:59:21Z</time>
      </trkpt>
      <trkpt lat="43.56089" lon="6.78922">
        <ele>164.3</ele>
        <time>2014-04-21T07:59:23Z</time>
      </trkpt>
      <trkpt lat="43.56096" lon="6.78937">
        <ele>165.3</ele>
        <time>2014-04-21T07:59:26Z</time>
      </trkpt>
      <trkpt lat="43.56103" lon="6.78948">
        <ele>165.3</ele>
        <time>2014-04-21T07:59:29Z</time>
      </trkpt>
      <trkpt lat="43.5611" lon="6.7896">
        <ele>165.3</ele>
        <time>2014-04-21T07:59:32Z</time>
      </trkpt>
      <trkpt lat="43.56117" lon="6.78971">
        <ele>165.3</ele>
        <time>2014-04-21T07:59:35Z</time>
      </trkpt>
      <trkpt lat="43.56124" lon="6.78982">
        <ele>166.3</ele>
        <time>2014-04-21T07:59:38Z</time>
      </trkpt>
      <trkpt lat="43.56129" lon="6.78993">
        <ele>166.3</ele>
        <time>2014-04-21T07:59:41Z</time>
      </trkpt>
      <trkpt lat="43.56134" lon="6.79007">
        <ele>165.3</ele>
        <time>2014-04-21T07:59:44Z</time>
      </trkpt>
      <trkpt lat="43.56136" lon="6.79022">
        <ele>163.3</ele>
        <time>2014-04-21T07:59:46Z</time>
      </trkpt>
      <trkpt lat="43.56137" lon="6.79039">
        <ele>162.3</ele>
        <time>2014-04-21T07:59:48Z</time>
      </trkpt>
      <trkpt lat="43.5614" lon="6.79057">
        <ele>160.3</ele>
        <time>2014-04-21T07:59:50Z</time>
      </trkpt>
      <trkpt lat="43.56148" lon="6.79071">
        <ele>160.3</ele>
        <time>2014-04-21T07:59:52Z</time>
      </trkpt>
      <trkpt lat="43.56159" lon="6.79081">
        <ele>161.3</ele>
        <time>2014-04-21T07:59:54Z</time>
      </trkpt>
      <trkpt lat="43.56169" lon="6.79087">
        <ele>161.3</ele>
        <time>2014-04-21T07:59:56Z</time>
      </trkpt>
      <trkpt lat="43.56179" lon="6.79088">
        <ele>161.3</ele>
        <time>2014-04-21T07:59:58Z</time>
      </trkpt>
      <trkpt lat="43.56189" lon="6.79087">
        <ele>159.3</ele>
        <time>2014-04-21T08:00:00Z</time>
      </trkpt>
      <trkpt lat="43.56199" lon="6.79086">
        <ele>158.3</ele>
        <time>2014-04-21T08:00:02Z</time>
      </trkpt>
      <trkpt lat="43.56209" lon="6.79085">
        <ele>157.3</ele>
        <time>2014-04-21T08:00:04Z</time>
      </trkpt>
      <trkpt lat="43.56219" lon="6.79084">
        <ele>157.3</ele>
        <time>2014-04-21T08:00:06Z</time>
      </trkpt>
      <trkpt lat="43.56229" lon="6.79081">
        <ele>156.3</ele>
        <time>2014-04-21T08:00:08Z</time>
      </trkpt>
      <trkpt lat="43.56239" lon="6.79077">
        <ele>155.3</ele>
        <time>2014-04-21T08:00:10Z</time>
      </trkpt>
      <trkpt lat="43.5625" lon="6.79071">
        <ele>154.3</ele>
        <time>2014-04-21T08:00:12Z</time>
      </trkpt>
      <trkpt lat="43.56262" lon="6.79066">
        <ele>153.3</ele>
        <time>2014-04-21T08:00:14Z</time>
      </trkpt>
      <trkpt lat="43.56273" lon="6.79061">
        <ele>153.3</ele>
        <time>2014-04-21T08:00:16Z</time>
      </trkpt>
      <trkpt lat="43.56295" lon="6.79055">
        <ele>153.3</ele>
        <time>2014-04-21T08:00:20Z</time>
      </trkpt>
      <trkpt lat="43.56304" lon="6.79052">
        <ele>153.3</ele>
        <time>2014-04-21T08:00:22Z</time>
      </trkpt>
      <trkpt lat="43.56315" lon="6.79052">
        <ele>153.3</ele>
        <time>2014-04-21T08:00:25Z</time>
      </trkpt>
      <trkpt lat="43.56326" lon="6.79049">
        <ele>154.3</ele>
        <time>2014-04-21T08:00:28Z</time>
      </trkpt>
      <trkpt lat="43.56337" lon="6.79045">
        <ele>154.3</ele>
        <time>2014-04-21T08:00:31Z</time>
      </trkpt>
      <trkpt lat="43.56348" lon="6.7904">
        <ele>154.3</ele>
        <time>2014-04-21T08:00:34Z</time>
      </trkpt>
      <trkpt lat="43.56357" lon="6.7903">
        <ele>155.3</ele>
        <time>2014-04-21T08:00:37Z</time>
      </trkpt>
      <trkpt lat="43.56365" lon="6.79019">
        <ele>155.3</ele>
        <time>2014-04-21T08:00:40Z</time>
      </trkpt>
      <trkpt lat="43.56376" lon="6.79009">
        <ele>155.3</ele>
        <time>2014-04-21T08:00:43Z</time>
      </trkpt>
      <trkpt lat="43.56388" lon="6.79011">
        <ele>156.3</ele>
        <time>2014-04-21T08:00:46Z</time>
      </trkpt>
      <trkpt lat="43.56399" lon="6.79016">
        <ele>156.3</ele>
        <time>2014-04-21T08:00:49Z</time>
      </trkpt>
      <trkpt lat="43.56411" lon="6.79018">
        <ele>155.3</ele>
        <time>2014-04-21T08:00:52Z</time>
      </trkpt>
      <trkpt lat="43.56422" lon="6.79021">
        <ele>156.3</ele>
        <time>2014-04-21T08:00:55Z</time>
      </trkpt>
      <trkpt lat="43.56434" lon="6.79024">
        <ele>156.3</ele>
        <time>2014-04-21T08:00:58Z</time>
      </trkpt>
      <trkpt lat="43.56444" lon="6.79032">
        <ele>157.3</ele>
        <time>2014-04-21T08:01:01Z</time>
      </trkpt>
      <trkpt lat="43.56449" lon="6.79043">
        <ele>157.3</ele>
        <time>2014-04-21T08:01:04Z</time>
      </trkpt>
      <trkpt lat="43.56453" lon="6.79056">
        <ele>157.3</ele>
        <time>2014-04-21T08:01:07Z</time>
      </trkpt>
      <trkpt lat="43.56459" lon="6.7907">
        <ele>158.3</ele>
        <time>2014-04-21T08:01:10Z</time>
      </trkpt>
      <trkpt lat="43.56466" lon="6.79084">
        <ele>157.3</ele>
        <time>2014-04-21T08:01:13Z</time>
      </trkpt>
      <trkpt lat="43.56471" lon="6.79099">
        <ele>158.3</ele>
        <time>2014-04-21T08:01:16Z</time>
      </trkpt>
      <trkpt lat="43.5647" lon="6.79114">
        <ele>158.3</ele>
        <time>2014-04-21T08:01:19Z</time>
      </trkpt>
      <trkpt lat="43.56474" lon="6.79141">
        <ele>160.3</ele>
        <time>2014-04-21T08:01:25Z</time>
      </trkpt>
      <trkpt lat="43.56478" lon="6.79153">
        <ele>160.3</ele>
        <time>2014-04-21T08:01:28Z</time>
      </trkpt>
      <trkpt lat="43.56487" lon="6.79159">
        <ele>160.3</ele>
        <time>2014-04-21T08:01:31Z</time>
      </trkpt>
      <trkpt lat="43.56498" lon="6.79156">
        <ele>159.3</ele>
        <time>2014-04-21T08:01:34Z</time>
      </trkpt>
      <trkpt lat="43.56509" lon="6.7915">
        <ele>159.3</ele>
        <time>2014-04-21T08:01:37Z</time>
      </trkpt>
      <trkpt lat="43.5652" lon="6.79146">
        <ele>159.3</ele>
        <time>2014-04-21T08:01:40Z</time>
      </trkpt>
      <trkpt lat="43.56532" lon="6.79144">
        <ele>159.3</ele>
        <time>2014-04-21T08:01:43Z</time>
      </trkpt>
      <trkpt lat="43.56543" lon="6.79144">
        <ele>159.3</ele>
        <time>2014-04-21T08:01:46Z</time>
      </trkpt>
      <trkpt lat="43.56554" lon="6.79146">
        <ele>159.3</ele>
        <time>2014-04-21T08:01:49Z</time>
      </trkpt>
      <trkpt lat="43.56566" lon="6.79147">
        <ele>159.3</ele>
        <time>2014-04-21T08:01:52Z</time>
      </trkpt>
      <trkpt lat="43.56578" lon="6.79149">
        <ele>159.3</ele>
        <time>2014-04-21T08:01:55Z</time>
      </trkpt>
      <trkpt lat="43.56588" lon="6.79157">
        <ele>160.3</ele>
        <time>2014-04-21T08:01:58Z</time>
      </trkpt>
      <trkpt lat="43.56597" lon="6.79167">
        <ele>160.3</ele>
        <time>2014-04-21T08:02:01Z</time>
      </trkpt>
      <trkpt lat="43.56605" lon="6.79175">
        <ele>161.3</ele>
        <time>2014-04-21T08:02:04Z</time>
      </trkpt>
      <trkpt lat="43.56614" lon="6.79182">
        <ele>161.3</ele>
        <time>2014-04-21T08:02:07Z</time>
      </trkpt>
      <trkpt lat="43.56623" lon="6.7919">
        <ele>162.3</ele>
        <time>2014-04-21T08:02:10Z</time>
      </trkpt>
      <trkpt lat="43.56632" lon="6.79198">
        <ele>161.3</ele>
        <time>2014-04-21T08:02:13Z</time>
      </trkpt>
      <trkpt lat="43.56641" lon="6.79207">
        <ele>161.3</ele>
        <time>2014-04-21T08:02:16Z</time>
      </trkpt>
      <trkpt lat="43.56651" lon="6.79215">
        <ele>160.3</ele>
        <time>2014-04-21T08:02:18Z</time>
      </trkpt>
      <trkpt lat="43.56662" lon="6.79223">
        <ele>159.3</ele>
        <time>2014-04-21T08:02:20Z</time>
      </trkpt>
      <trkpt lat="43.56681" lon="6.79236">
        <ele>160.3</ele>
        <time>2014-04-21T08:02:24Z</time>
      </trkpt>
      <trkpt lat="43.5669" lon="6.79241">
        <ele>160.3</ele>
        <time>2014-04-21T08:02:26Z</time>
      </trkpt>
      <trkpt lat="43.56703" lon="6.79242">
        <ele>160.3</ele>
        <time>2014-04-21T08:02:29Z</time>
      </trkpt>
      <trkpt lat="43.56716" lon="6.79238">
        <ele>159.3</ele>
        <time>2014-04-21T08:02:32Z</time>
      </trkpt>
      <trkpt lat="43.56725" lon="6.79234">
        <ele>158.3</ele>
        <time>2014-04-21T08:02:34Z</time>
      </trkpt>
      <trkpt lat="43.56735" lon="6.79233">
        <ele>157.3</ele>
        <time>2014-04-21T08:02:36Z</time>
      </trkpt>
      <trkpt lat="43.56744" lon="6.79242">
        <ele>157.3</ele>
        <time>2014-04-21T08:02:39Z</time>
      </trkpt>
      <trkpt lat="43.56746" lon="6.79255">
        <ele>157.3</ele>
        <time>2014-04-21T08:02:42Z</time>
      </trkpt>
      <trkpt lat="43.56745" lon="6.7927">
        <ele>157.3</ele>
        <time>2014-04-21T08:02:45Z</time>
      </trkpt>
      <trkpt lat="43.56745" lon="6.79287">
        <ele>156.3</ele>
        <time>2014-04-21T08:02:48Z</time>
      </trkpt>
      <trkpt lat="43.56748" lon="6.79304">
        <ele>156.3</ele>
        <time>2014-04-21T08:02:51Z</time>
      </trkpt>
      <trkpt lat="43.56761" lon="6.7931">
        <ele>155.3</ele>
        <time>2014-04-21T08:02:54Z</time>
      </trkpt>
      <trkpt lat="43.56769" lon="6.79318">
        <ele>155.3</ele>
        <time>2014-04-21T08:02:56Z</time>
      </trkpt>
      <trkpt lat="43.56773" lon="6.79333">
        <ele>155.3</ele>
        <time>2014-04-21T08:02:59Z</time>
      </trkpt>
      <trkpt lat="43.5678" lon="6.79345">
        <ele>156.3</ele>
        <time>2014-04-21T08:03:02Z</time>
      </trkpt>
      <trkpt lat="43.56791" lon="6.79352">
        <ele>156.3</ele>
        <time>2014-04-21T08:03:05Z</time>
      </trkpt>
      <trkpt lat="43.56801" lon="6.79351">
        <ele>155.3</ele>
        <time>2014-04-21T08:03:07Z</time>
      </trkpt>
      <trkpt lat="43.56811" lon="6.7935">
        <ele>155.3</ele>
        <time>2014-04-21T08:03:09Z</time>
      </trkpt>
      <trkpt lat="43.56823" lon="6.7935">
        <ele>154.3</ele>
        <time>2014-04-21T08:03:12Z</time>
      </trkpt>
      <trkpt lat="43.56833" lon="6.79354">
        <ele>155.3</ele>
        <time>2014-04-21T08:03:15Z</time>
      </trkpt>
      <trkpt lat="43.56842" lon="6.79356">
        <ele>156.3</ele>
        <time>2014-04-21T08:03:18Z</time>
      </trkpt>
      <trkpt lat="43.56852" lon="6.79354">
        <ele>156.3</ele>
        <time>2014-04-21T08:03:21Z</time>
      </trkpt>
      <trkpt lat="43.56871" lon="6.79351">
        <ele>157.3</ele>
        <time>2014-04-21T08:03:27Z</time>
      </trkpt>
      <trkpt lat="43.56881" lon="6.79348">
        <ele>157.3</ele>
        <time>2014-04-21T08:03:31Z</time>
      </trkpt>
      <trkpt lat="43.56891" lon="6.79344">
        <ele>158.3</ele>
        <time>2014-04-21T08:03:35Z</time>
      </trkpt>
      <trkpt lat="43.56901" lon="6.7934">
        <ele>158.3</ele>
        <time>2014-04-21T08:03:39Z</time>
      </trkpt>
      <trkpt lat="43.56911" lon="6.79334">
        <ele>159.3</ele>
        <time>2014-04-21T08:03:43Z</time>
      </trkpt>
      <trkpt lat="43.56921" lon="6.7933">
        <ele>159.3</ele>
        <time>2014-04-21T08:03:47Z</time>
      </trkpt>
      <trkpt lat="43.56931" lon="6.79326">
        <ele>160.3</ele>
        <time>2014-04-21T08:03:51Z</time>
      </trkpt>
      <trkpt lat="43.5694" lon="6.7932">
        <ele>161.3</ele>
        <time>2014-04-21T08:03:55Z</time>
      </trkpt>
      <trkpt lat="43.56948" lon="6.79311">
        <ele>162.3</ele>
        <time>2014-04-21T08:03:59Z</time>
      </trkpt>
      <trkpt lat="43.56958" lon="6.79305">
        <ele>162.3</ele>
        <time>2014-04-21T08:04:04Z</time>
      </trkpt>
      <trkpt lat="43.56967" lon="6.79313">
        <ele>163.3</ele>
        <time>2014-04-21T08:04:08Z</time>
      </trkpt>
      <trkpt lat="43.56976" lon="6.79316">
        <ele>163.3</ele>
        <time>2014-04-21T08:04:11Z</time>
      </trkpt>
      <trkpt lat="43.56985" lon="6.79314">
        <ele>163.3</ele>
        <time>2014-04-21T08:04:14Z</time>
      </trkpt>
      <trkpt lat="43.56992" lon="6.79307">
        <ele>164.3</ele>
        <time>2014-04-21T08:04:17Z</time>
      </trkpt>
      <trkpt lat="43.56996" lon="6.79295">
        <ele>164.3</ele>
        <time>2014-04-21T08:04:20Z</time>
      </trkpt>
      <trkpt lat="43.56996" lon="6.79281">
        <ele>164.3</ele>
        <time>2014-04-21T08:04:23Z</time>
      </trkpt>
      <trkpt lat="43.56997" lon="6.79255">
        <ele>164.3</ele>
        <time>2014-04-21T08:04:29Z</time>
      </trkpt>
      <trkpt lat="43.57005" lon="6.79246">
        <ele>165.3</ele>
        <time>2014-04-21T08:04:33Z</time>
      </trkpt>
      <trkpt lat="43.57014" lon="6.79252">
        <ele>166.3</ele>
        <time>2014-04-21T08:04:36Z</time>
      </trkpt>
      <trkpt lat="43.57021" lon="6.79262">
        <ele>166.3</ele>
        <time>2014-04-21T08:04:39Z</time>
      </trkpt>
      <trkpt lat="43.5703" lon="6.79271">
        <ele>166.3</ele>
        <time>2014-04-21T08:04:42Z</time>
      </trkpt>
      <trkpt lat="43.57039" lon="6.79279">
        <ele>166.3</ele>
        <time>2014-04-21T08:04:45Z</time>
      </trkpt>
      <trkpt lat="43.57048" lon="6.79285">
        <ele>166.3</ele>
        <time>2014-04-21T08:04:48Z</time>
      </trkpt>
      <trkpt lat="43.57057" lon="6.79291">
        <ele>166.3</ele>
        <time>2014-04-21T08:04:51Z</time>
      </trkpt>
      <trkpt lat="43.57066" lon="6.79296">
        <ele>166.3</ele>
        <time>2014-04-21T08:04:54Z</time>
      </trkpt>
      <trkpt lat="43.57075" lon="6.79301">
        <ele>165.3</ele>
        <time>2014-04-21T08:04:57Z</time>
      </trkpt>
      <trkpt lat="43.57084" lon="6.79305">
        <ele>165.3</ele>
        <time>2014-04-21T08:05:00Z</time>
      </trkpt>
      <trkpt lat="43.57093" lon="6.7931">
        <ele>165.3</ele>
        <time>2014-04-21T08:05:03Z</time>
      </trkpt>
      <trkpt lat="43.57102" lon="6.79316">
        <ele>165.3</ele>
        <time>2014-04-21T08:05:06Z</time>
      </trkpt>
      <trkpt lat="43.57111" lon="6.79321">
        <ele>165.3</ele>
        <time>2014-04-21T08:05:09Z</time>
      </trkpt>
      <trkpt lat="43.57121" lon="6.79324">
        <ele>165.3</ele>
        <time>2014-04-21T08:05:12Z</time>
      </trkpt>
      <trkpt lat="43.57131" lon="6.79324">
        <ele>165.3</ele>
        <time>2014-04-21T08:05:15Z</time>
      </trkpt>
      <trkpt lat="43.57141" lon="6.79323">
        <ele>164.3</ele>
        <time>2014-04-21T08:05:18Z</time>
      </trkpt>
      <trkpt lat="43.57152" lon="6.79322">
        <ele>164.3</ele>
        <time>2014-04-21T08:05:21Z</time>
      </trkpt>
      <trkpt lat="43.57161" lon="6.79328">
        <ele>165.3</ele>
        <time>2014-04-21T08:05:24Z</time>
      </trkpt>
      <trkpt lat="43.5717" lon="6.79356">
        <ele>168.3</ele>
        <time>2014-04-21T08:05:32Z</time>
      </trkpt>
      <trkpt lat="43.57179" lon="6.79364">
        <ele>168.3</ele>
        <time>2014-04-21T08:05:36Z</time>
      </trkpt>
      <trkpt lat="43.57189" lon="6.79368">
        <ele>168.3</ele>
        <time>2014-04-21T08:05:40Z</time>
      </trkpt>
      <trkpt lat="43.57198" lon="6.79371">
        <ele>167.3</ele>
        <time>2014-04-21T08:05:44Z</time>
      </trkpt>
      <trkpt lat="43.57208" lon="6.79372">
        <ele>167.3</ele>
        <time>2014-04-21T08:05:48Z</time>
      </trkpt>
      <trkpt lat="43.57217" lon="6.79372">
        <ele>167.3</ele>
        <time>2014-04-21T08:05:54Z</time>
      </trkpt>
      <trkpt lat="43.57224" lon="6.79363">
        <ele>168.3</ele>
        <time>2014-04-21T08:08:28Z</time>
      </trkpt>
      <trkpt lat="43.57239" lon="6.79348">
        <ele>169.3</ele>
        <time>2014-04-21T08:08:36Z</time>
      </trkpt>
      <trkpt lat="43.5725" lon="6.79351">
        <ele>168.3</ele>
        <time>2014-04-21T08:08:41Z</time>
      </trkpt>
      <trkpt lat="43.57257" lon="6.79361">
        <ele>167.3</ele>
        <time>2014-04-21T08:08:45Z</time>
      </trkpt>
      <trkpt lat="43.57266" lon="6.79372">
        <ele>167.3</ele>
        <time>2014-04-21T08:08:48Z</time>
      </trkpt>
      <trkpt lat="43.57273" lon="6.79379">
        <ele>166.3</ele>
        <time>2014-04-21T08:08:51Z</time>
      </trkpt>
      <trkpt lat="43.57282" lon="6.79388">
        <ele>166.3</ele>
        <time>2014-04-21T08:08:55Z</time>
      </trkpt>
      <trkpt lat="43.57289" lon="6.79397">
        <ele>167.3</ele>
        <time>2014-04-21T08:08:58Z</time>
      </trkpt>
      <trkpt lat="43.57294" lon="6.79409">
        <ele>167.3</ele>
        <time>2014-04-21T08:09:01Z</time>
      </trkpt>
      <trkpt lat="43.57299" lon="6.79422">
        <ele>168.3</ele>
        <time>2014-04-21T08:09:04Z</time>
      </trkpt>
      <trkpt lat="43.57302" lon="6.79434">
        <ele>168.3</ele>
        <time>2014-04-21T08:09:07Z</time>
      </trkpt>
      <trkpt lat="43.57305" lon="6.79446">
        <ele>168.3</ele>
        <time>2014-04-21T08:09:10Z</time>
      </trkpt>
      <trkpt lat="43.57307" lon="6.79458">
        <ele>168.3</ele>
        <time>2014-04-21T08:09:13Z</time>
      </trkpt>
      <trkpt lat="43.5731" lon="6.7947">
        <ele>167.3</ele>
        <time>2014-04-21T08:09:16Z</time>
      </trkpt>
      <trkpt lat="43.57318" lon="6.79477">
        <ele>167.3</ele>
        <time>2014-04-21T08:09:19Z</time>
      </trkpt>
      <trkpt lat="43.5733" lon="6.79475">
        <ele>165.3</ele>
        <time>2014-04-21T08:09:22Z</time>
      </trkpt>
      <trkpt lat="43.57339" lon="6.79466">
        <ele>165.3</ele>
        <time>2014-04-21T08:09:24Z</time>
      </trkpt>
      <trkpt lat="43.57348" lon="6.79457">
        <ele>164.3</ele>
        <time>2014-04-21T08:09:27Z</time>
      </trkpt>
      <trkpt lat="43.57356" lon="6.79449">
        <ele>163.3</ele>
        <time>2014-04-21T08:09:29Z</time>
      </trkpt>
      <trkpt lat="43.5738" lon="6.79452">
        <ele>163.3</ele>
        <time>2014-04-21T08:09:35Z</time>
      </trkpt>
      <trkpt lat="43.57391" lon="6.79457">
        <ele>163.3</ele>
        <time>2014-04-21T08:09:38Z</time>
      </trkpt>
      <trkpt lat="43.57402" lon="6.79463">
        <ele>164.3</ele>
        <time>2014-04-21T08:09:41Z</time>
      </trkpt>
      <trkpt lat="43.57412" lon="6.79463">
        <ele>165.3</ele>
        <time>2014-04-21T08:09:44Z</time>
      </trkpt>
      <trkpt lat="43.57421" lon="6.79453">
        <ele>165.3</ele>
        <time>2014-04-21T08:09:47Z</time>
      </trkpt>
      <trkpt lat="43.57427" lon="6.79441">
        <ele>164.3</ele>
        <time>2014-04-21T08:09:50Z</time>
      </trkpt>
      <trkpt lat="43.57434" lon="6.7943">
        <ele>163.3</ele>
        <time>2014-04-21T08:09:54Z</time>
      </trkpt>
      <trkpt lat="43.5744" lon="6.7944">
        <ele>162.3</ele>
        <time>2014-04-21T08:09:58Z</time>
      </trkpt>
      <trkpt lat="43.57436" lon="6.79453">
        <ele>164.3</ele>
        <time>2014-04-21T08:10:01Z</time>
      </trkpt>
      <trkpt lat="43.57434" lon="6.79468">
        <ele>163.3</ele>
        <time>2014-04-21T08:10:04Z</time>
      </trkpt>
      <trkpt lat="43.57435" lon="6.79484">
        <ele>162.3</ele>
        <time>2014-04-21T08:10:07Z</time>
      </trkpt>
      <trkpt lat="43.57437" lon="6.795">
        <ele>163.3</ele>
        <time>2014-04-21T08:10:10Z</time>
      </trkpt>
      <trkpt lat="43.57438" lon="6.79515">
        <ele>164.3</ele>
        <time>2014-04-21T08:10:13Z</time>
      </trkpt>
      <trkpt lat="43.57439" lon="6.7953">
        <ele>164.3</ele>
        <time>2014-04-21T08:10:16Z</time>
      </trkpt>
      <trkpt lat="43.57442" lon="6.79542">
        <ele>164.3</ele>
        <time>2014-04-21T08:10:19Z</time>
      </trkpt>
      <trkpt lat="43.57448" lon="6.79553">
        <ele>164.3</ele>
        <time>2014-04-21T08:10:22Z</time>
      </trkpt>
      <trkpt lat="43.57456" lon="6.79562">
        <ele>164.3</ele>
        <time>2014-04-21T08:10:25Z</time>
      </trkpt>
      <trkpt lat="43.57464" lon="6.79573">
        <ele>165.3</ele>
        <time>2014-04-21T08:10:28Z</time>
      </trkpt>
      <trkpt lat="43.57471" lon="6.79584">
        <ele>167.3</ele>
        <time>2014-04-21T08:10:30Z</time>
      </trkpt>
      <trkpt lat="43.57485" lon="6.79612">
        <ele>167.3</ele>
        <time>2014-04-21T08:10:36Z</time>
      </trkpt>
      <trkpt lat="43.5749" lon="6.79624">
        <ele>166.3</ele>
        <time>2014-04-21T08:10:39Z</time>
      </trkpt>
      <trkpt lat="43.57496" lon="6.79636">
        <ele>166.3</ele>
        <time>2014-04-21T08:10:42Z</time>
      </trkpt>
      <trkpt lat="43.57502" lon="6.79648">
        <ele>168.3</ele>
        <time>2014-04-21T08:10:45Z</time>
      </trkpt>
      <trkpt lat="43.57507" lon="6.79659">
        <ele>167.3</ele>
        <time>2014-04-21T08:10:48Z</time>
      </trkpt>
      <trkpt lat="43.57512" lon="6.79669">
        <ele>164.3</ele>
        <time>2014-04-21T08:10:51Z</time>
      </trkpt>
      <trkpt lat="43.5752" lon="6.7968">
        <ele>164.3</ele>
        <time>2014-04-21T08:10:55Z</time>
      </trkpt>
      <trkpt lat="43.57531" lon="6.79686">
        <ele>164.3</ele>
        <time>2014-04-21T08:10:59Z</time>
      </trkpt>
      <trkpt lat="43.5754" lon="6.79684">
        <ele>162.3</ele>
        <time>2014-04-21T08:11:02Z</time>
      </trkpt>
      <trkpt lat="43.57551" lon="6.79676">
        <ele>162.3</ele>
        <time>2014-04-21T08:11:05Z</time>
      </trkpt>
      <trkpt lat="43.57562" lon="6.79668">
        <ele>161.3</ele>
        <time>2014-04-21T08:11:07Z</time>
      </trkpt>
      <trkpt lat="43.57571" lon="6.7966">
        <ele>160.3</ele>
        <time>2014-04-21T08:11:09Z</time>
      </trkpt>
      <trkpt lat="43.57582" lon="6.79661">
        <ele>160.3</ele>
        <time>2014-04-21T08:11:11Z</time>
      </trkpt>
      <trkpt lat="43.57587" lon="6.79671">
        <ele>159.3</ele>
        <time>2014-04-21T08:11:14Z</time>
      </trkpt>
      <trkpt lat="43.57585" lon="6.79686">
        <ele>162.3</ele>
        <time>2014-04-21T08:11:18Z</time>
      </trkpt>
      <trkpt lat="43.57585" lon="6.79701">
        <ele>162.3</ele>
        <time>2014-04-21T08:11:21Z</time>
      </trkpt>
      <trkpt lat="43.57587" lon="6.79717">
        <ele>162.3</ele>
        <time>2014-04-21T08:11:25Z</time>
      </trkpt>
      <trkpt lat="43.57591" lon="6.79732">
        <ele>163.3</ele>
        <time>2014-04-21T08:11:29Z</time>
      </trkpt>
      <trkpt lat="43.57596" lon="6.79746">
        <ele>165.3</ele>
        <time>2014-04-21T08:11:33Z</time>
      </trkpt>
      <trkpt lat="43.5761" lon="6.79771">
        <ele>167.3</ele>
        <time>2014-04-21T08:11:41Z</time>
      </trkpt>
      <trkpt lat="43.57619" lon="6.79778">
        <ele>167.3</ele>
        <time>2014-04-21T08:11:44Z</time>
      </trkpt>
      <trkpt lat="43.5763" lon="6.79781">
        <ele>168.3</ele>
        <time>2014-04-21T08:11:47Z</time>
      </trkpt>
      <trkpt lat="43.57645" lon="6.79782">
        <ele>167.3</ele>
        <time>2014-04-21T08:11:50Z</time>
      </trkpt>
      <trkpt lat="43.57657" lon="6.79781">
        <ele>167.3</ele>
        <time>2014-04-21T08:11:53Z</time>
      </trkpt>
      <trkpt lat="43.57668" lon="6.79781">
        <ele>167.3</ele>
        <time>2014-04-21T08:11:56Z</time>
      </trkpt>
      <trkpt lat="43.57677" lon="6.79789">
        <ele>170.3</ele>
        <time>2014-04-21T08:11:59Z</time>
      </trkpt>
      <trkpt lat="43.5768" lon="6.79801">
        <ele>170.3</ele>
        <time>2014-04-21T08:12:02Z</time>
      </trkpt>
      <trkpt lat="43.5768" lon="6.79814">
        <ele>171.3</ele>
        <time>2014-04-21T08:12:05Z</time>
      </trkpt>
      <trkpt lat="43.57677" lon="6.79827">
        <ele>170.3</ele>
        <time>2014-04-21T08:12:08Z</time>
      </trkpt>
      <trkpt lat="43.57676" lon="6.79843">
        <ele>170.3</ele>
        <time>2014-04-21T08:12:12Z</time>
      </trkpt>
      <trkpt lat="43.57676" lon="6.79856">
        <ele>169.3</ele>
        <time>2014-04-21T08:12:15Z</time>
      </trkpt>
      <trkpt lat="43.57678" lon="6.79868">
        <ele>169.3</ele>
        <time>2014-04-21T08:12:18Z</time>
      </trkpt>
      <trkpt lat="43.57683" lon="6.7988">
        <ele>168.3</ele>
        <time>2014-04-21T08:12:21Z</time>
      </trkpt>
      <trkpt lat="43.57689" lon="6.79891">
        <ele>167.3</ele>
        <time>2014-04-21T08:12:24Z</time>
      </trkpt>
      <trkpt lat="43.57698" lon="6.799">
        <ele>166.3</ele>
        <time>2014-04-21T08:12:27Z</time>
      </trkpt>
      <trkpt lat="43.57708" lon="6.79907">
        <ele>167.3</ele>
        <time>2014-04-21T08:12:30Z</time>
      </trkpt>
      <trkpt lat="43.57717" lon="6.79912">
        <ele>169.3</ele>
        <time>2014-04-21T08:12:33Z</time>
      </trkpt>
      <trkpt lat="43.57726" lon="6.79916">
        <ele>170.3</ele>
        <time>2014-04-21T08:12:36Z</time>
      </trkpt>
      <trkpt lat="43.57747" lon="6.79918">
        <ele>169.3</ele>
        <time>2014-04-21T08:12:43Z</time>
      </trkpt>
      <trkpt lat="43.57757" lon="6.79921">
        <ele>168.3</ele>
        <time>2014-04-21T08:12:47Z</time>
      </trkpt>
      <trkpt lat="43.57769" lon="6.79921">
        <ele>169.3</ele>
        <time>2014-04-21T08:12:51Z</time>
      </trkpt>
      <trkpt lat="43.57778" lon="6.79921">
        <ele>169.3</ele>
        <time>2014-04-21T08:12:54Z</time>
      </trkpt>
      <trkpt lat="43.57788" lon="6.79922">
        <ele>170.3</ele>
        <time>2014-04-21T08:12:57Z</time>
      </trkpt>
      <trkpt lat="43.57797" lon="6.79925">
        <ele>169.3</ele>
        <time>2014-04-21T08:13:00Z</time>
      </trkpt>
      <trkpt lat="43.57807" lon="6.79928">
        <ele>171.3</ele>
        <time>2014-04-21T08:13:03Z</time>
      </trkpt>
      <trkpt lat="43.57817" lon="6.79928">
        <ele>171.3</ele>
        <time>2014-04-21T08:13:06Z</time>
      </trkpt>
      <trkpt lat="43.57827" lon="6.7993">
        <ele>172.3</ele>
        <time>2014-04-21T08:13:09Z</time>
      </trkpt>
      <trkpt lat="43.57838" lon="6.79933">
        <ele>170.3</ele>
        <time>2014-04-21T08:13:12Z</time>
      </trkpt>
      <trkpt lat="43.57853" lon="6.79933">
        <ele>169.3</ele>
        <time>2014-04-21T08:13:14Z</time>
      </trkpt>
      <trkpt lat="43.57866" lon="6.79929">
        <ele>167.3</ele>
        <time>2014-04-21T08:13:16Z</time>
      </trkpt>
      <trkpt lat="43.57879" lon="6.79925">
        <ele>165.3</ele>
        <time>2014-04-21T08:13:18Z</time>
      </trkpt>
      <trkpt lat="43.57891" lon="6.79921">
        <ele>166.3</ele>
        <time>2014-04-21T08:13:20Z</time>
      </trkpt>
      <trkpt lat="43.57903" lon="6.79915">
        <ele>166.3</ele>
        <time>2014-04-21T08:13:22Z</time>
      </trkpt>
      <trkpt lat="43.57915" lon="6.79907">
        <ele>165.3</ele>
        <time>2014-04-21T08:13:24Z</time>
      </trkpt>
      <trkpt lat="43.57926" lon="6.799">
        <ele>163.3</ele>
        <time>2014-04-21T08:13:26Z</time>
      </trkpt>
      <trkpt lat="43.57938" lon="6.79891">
        <ele>162.3</ele>
        <time>2014-04-21T08:13:28Z</time>
      </trkpt>
      <trkpt lat="43.57952" lon="6.79883">
        <ele>160.3</ele>
        <time>2014-04-21T08:13:30Z</time>
      </trkpt>
      <trkpt lat="43.57965" lon="6.79874">
        <ele>159.3</ele>
        <time>2014-04-21T08:13:32Z</time>
      </trkpt>
      <trkpt lat="43.57979" lon="6.79867">
        <ele>158.3</ele>
        <time>2014-04-21T08:13:34Z</time>
      </trkpt>
      <trkpt lat="43.57994" lon="6.79859">
        <ele>161.3</ele>
        <time>2014-04-21T08:13:36Z</time>
      </trkpt>
      <trkpt lat="43.58007" lon="6.79852">
        <ele>161.3</ele>
        <time>2014-04-21T08:13:38Z</time>
      </trkpt>
      <trkpt lat="43.5803" lon="6.7983">
        <ele>158.3</ele>
        <time>2014-04-21T08:13:42Z</time>
      </trkpt>
      <trkpt lat="43.58041" lon="6.79816">
        <ele>158.3</ele>
        <time>2014-04-21T08:13:44Z</time>
      </trkpt>
      <trkpt lat="43.58049" lon="6.79803">
        <ele>157.3</ele>
        <time>2014-04-21T08:13:46Z</time>
      </trkpt>
      <trkpt lat="43.58058" lon="6.79789">
        <ele>157.3</ele>
        <time>2014-04-21T08:13:48Z</time>
      </trkpt>
      <trkpt lat="43.58066" lon="6.79774">
        <ele>157.3</ele>
        <time>2014-04-21T08:13:50Z</time>
      </trkpt>
      <trkpt lat="43.58072" lon="6.79758">
        <ele>156.3</ele>
        <time>2014-04-21T08:13:52Z</time>
      </trkpt>
      <trkpt lat="43.58075" lon="6.79743">
        <ele>153.3</ele>
        <time>2014-04-21T08:13:54Z</time>
      </trkpt>
      <trkpt lat="43.58077" lon="6.79728">
        <ele>154.3</ele>
        <time>2014-04-21T08:13:56Z</time>
      </trkpt>
      <trkpt lat="43.58079" lon="6.79714">
        <ele>155.3</ele>
        <time>2014-04-21T08:13:58Z</time>
      </trkpt>
      <trkpt lat="43.58077" lon="6.797">
        <ele>157.3</ele>
        <time>2014-04-21T08:14:01Z</time>
      </trkpt>
      <trkpt lat="43.58074" lon="6.79686">
        <ele>157.3</ele>
        <time>2014-04-21T08:14:04Z</time>
      </trkpt>
      <trkpt lat="43.5807" lon="6.79669">
        <ele>157.3</ele>
        <time>2014-04-21T08:14:07Z</time>
      </trkpt>
      <trkpt lat="43.58064" lon="6.79656">
        <ele>156.3</ele>
        <time>2014-04-21T08:14:10Z</time>
      </trkpt>
      <trkpt lat="43.58058" lon="6.79642">
        <ele>155.3</ele>
        <time>2014-04-21T08:14:13Z</time>
      </trkpt>
      <trkpt lat="43.58052" lon="6.79627">
        <ele>156.3</ele>
        <time>2014-04-21T08:14:16Z</time>
      </trkpt>
      <trkpt lat="43.58044" lon="6.79615">
        <ele>157.3</ele>
        <time>2014-04-21T08:14:19Z</time>
      </trkpt>
      <trkpt lat="43.58034" lon="6.79604">
        <ele>157.3</ele>
        <time>2014-04-21T08:14:22Z</time>
      </trkpt>
      <trkpt lat="43.58023" lon="6.79595">
        <ele>155.3</ele>
        <time>2014-04-21T08:14:25Z</time>
      </trkpt>
      <trkpt lat="43.58015" lon="6.7959">
        <ele>155.3</ele>
        <time>2014-04-21T08:14:27Z</time>
      </trkpt>
      <trkpt lat="43.58005" lon="6.79583">
        <ele>155.3</ele>
        <time>2014-04-21T08:14:30Z</time>
      </trkpt>
      <trkpt lat="43.57997" lon="6.79576">
        <ele>155.3</ele>
        <time>2014-04-21T08:14:33Z</time>
      </trkpt>
      <trkpt lat="43.57991" lon="6.79563">
        <ele>155.3</ele>
        <time>2014-04-21T08:14:37Z</time>
      </trkpt>
      <trkpt lat="43.57997" lon="6.7955">
        <ele>154.3</ele>
        <time>2014-04-21T08:14:41Z</time>
      </trkpt>
      <trkpt lat="43.58015" lon="6.79541">
        <ele>153.3</ele>
        <time>2014-04-21T08:14:47Z</time>
      </trkpt>
      <trkpt lat="43.58025" lon="6.79536">
        <ele>154.3</ele>
        <time>2014-04-21T08:14:50Z</time>
      </trkpt>
      <trkpt lat="43.58033" lon="6.79526">
        <ele>153.3</ele>
        <time>2014-04-21T08:14:53Z</time>
      </trkpt>
      <trkpt lat="43.58037" lon="6.79513">
        <ele>154.3</ele>
        <time>2014-04-21T08:14:56Z</time>
      </trkpt>
      <trkpt lat="43.58036" lon="6.79498">
        <ele>155.3</ele>
        <time>2014-04-21T08:14:59Z</time>
      </trkpt>
      <trkpt lat="43.58032" lon="6.79484">
        <ele>158.3</ele>
        <time>2014-04-21T08:15:02Z</time>
      </trkpt>
      <trkpt lat="43.58028" lon="6.79469">
        <ele>157.3</ele>
        <time>2014-04-21T08:15:05Z</time>
      </trkpt>
      <trkpt lat="43.58023" lon="6.79448">
        <ele>156.3</ele>
        <time>2014-04-21T08:15:08Z</time>
      </trkpt>
      <trkpt lat="43.58018" lon="6.79431">
        <ele>156.3</ele>
        <time>2014-04-21T08:15:11Z</time>
      </trkpt>
      <trkpt lat="43.58017" lon="6.79417">
        <ele>155.3</ele>
        <time>2014-04-21T08:15:13Z</time>
      </trkpt>
      <trkpt lat="43.58023" lon="6.79405">
        <ele>155.3</ele>
        <time>2014-04-21T08:15:15Z</time>
      </trkpt>
      <trkpt lat="43.58032" lon="6.79403">
        <ele>156.3</ele>
        <time>2014-04-21T08:15:17Z</time>
      </trkpt>
      <trkpt lat="43.58038" lon="6.79413">
        <ele>157.3</ele>
        <time>2014-04-21T08:15:19Z</time>
      </trkpt>
      <trkpt lat="43.58047" lon="6.79423">
        <ele>157.3</ele>
        <time>2014-04-21T08:15:22Z</time>
      </trkpt>
      <trkpt lat="43.58057" lon="6.79433">
        <ele>157.3</ele>
        <time>2014-04-21T08:15:25Z</time>
      </trkpt>
      <trkpt lat="43.58066" lon="6.79442">
        <ele>158.3</ele>
        <time>2014-04-21T08:15:28Z</time>
      </trkpt>
      <trkpt lat="43.58074" lon="6.7945">
        <ele>159.3</ele>
        <time>2014-04-21T08:15:31Z</time>
      </trkpt>
      <trkpt lat="43.58082" lon="6.79457">
        <ele>160.3</ele>
        <time>2014-04-21T08:15:34Z</time>
      </trkpt>
      <trkpt lat="43.5809" lon="6.79465">
        <ele>162.3</ele>
        <time>2014-04-21T08:15:37Z</time>
      </trkpt>
      <trkpt lat="43.58098" lon="6.79472">
        <ele>163.3</ele>
        <time>2014-04-21T08:15:40Z</time>
      </trkpt>
      <trkpt lat="43.58105" lon="6.79483">
        <ele>163.3</ele>
        <time>2014-04-21T08:15:44Z</time>
      </trkpt>
      <trkpt lat="43.5812" lon="6.79502">
        <ele>168.3</ele>
        <time>2014-04-21T08:15:52Z</time>
      </trkpt>
      <trkpt lat="43.58126" lon="6.79511">
        <ele>168.3</ele>
        <time>2014-04-21T08:15:56Z</time>
      </trkpt>
      <trkpt lat="43.58137" lon="6.79515">
        <ele>168.3</ele>
        <time>2014-04-21T08:16:01Z</time>
      </trkpt>
      <trkpt lat="43.58147" lon="6.79519">
        <ele>168.3</ele>
        <time>2014-04-21T08:16:06Z</time>
      </trkpt>
      <trkpt lat="43.58156" lon="6.79519">
        <ele>169.3</ele>
        <time>2014-04-21T08:16:10Z</time>
      </trkpt>
      <trkpt lat="43.58166" lon="6.79515">
        <ele>169.3</ele>
        <time>2014-04-21T08:16:14Z</time>
      </trkpt>
      <trkpt lat="43.58175" lon="6.79508">
        <ele>171.3</ele>
        <time>2014-04-21T08:16:18Z</time>
      </trkpt>
      <trkpt lat="43.58183" lon="6.79499">
        <ele>173.3</ele>
        <time>2014-04-21T08:16:22Z</time>
      </trkpt>
      <trkpt lat="43.58191" lon="6.79491">
        <ele>172.3</ele>
        <time>2014-04-21T08:16:26Z</time>
      </trkpt>
      <trkpt lat="43.582" lon="6.79485">
        <ele>172.3</ele>
        <time>2014-04-21T08:16:30Z</time>
      </trkpt>
      <trkpt lat="43.58209" lon="6.79478">
        <ele>172.3</ele>
        <time>2014-04-21T08:16:34Z</time>
      </trkpt>
      <trkpt lat="43.58218" lon="6.7947">
        <ele>173.3</ele>
        <time>2014-04-21T08:16:38Z</time>
      </trkpt>
      <trkpt lat="43.58225" lon="6.79463">
        <ele>174.3</ele>
        <time>2014-04-21T08:16:42Z</time>
      </trkpt>
      <trkpt lat="43.58234" lon="6.79454">
        <ele>174.3</ele>
        <time>2014-04-21T08:16:47Z</time>
      </trkpt>
      <trkpt lat="43.58247" lon="6.79433">
        <ele>171.3</ele>
        <time>2014-04-21T08:16:55Z</time>
      </trkpt>
      <trkpt lat="43.58254" lon="6.79423">
        <ele>170.3</ele>
        <time>2014-04-21T08:16:59Z</time>
      </trkpt>
      <trkpt lat="43.58261" lon="6.79413">
        <ele>169.3</ele>
        <time>2014-04-21T08:17:03Z</time>
      </trkpt>
      <trkpt lat="43.58266" lon="6.79399">
        <ele>171.3</ele>
        <time>2014-04-21T08:17:07Z</time>
      </trkpt>
      <trkpt lat="43.58267" lon="6.79384">
        <ele>168.3</ele>
        <time>2014-04-21T08:17:11Z</time>
      </trkpt>
      <trkpt lat="43.5826" lon="6.79371">
        <ele>167.3</ele>
        <time>2014-04-21T08:17:14Z</time>
      </trkpt>
      <trkpt lat="43.58254" lon="6.79356">
        <ele>167.3</ele>
        <time>2014-04-21T08:17:16Z</time>
      </trkpt>
      <trkpt lat="43.58256" lon="6.79344">
        <ele>166.3</ele>
        <time>2014-04-21T08:17:18Z</time>
      </trkpt>
      <trkpt lat="43.58263" lon="6.79334">
        <ele>166.3</ele>
        <time>2014-04-21T08:17:20Z</time>
      </trkpt>
      <trkpt lat="43.58273" lon="6.7933">
        <ele>166.3</ele>
        <time>2014-04-21T08:17:22Z</time>
      </trkpt>
      <trkpt lat="43.58285" lon="6.79326">
        <ele>164.3</ele>
        <time>2014-04-21T08:17:24Z</time>
      </trkpt>
      <trkpt lat="43.58299" lon="6.79322">
        <ele>164.3</ele>
        <time>2014-04-21T08:17:26Z</time>
      </trkpt>
      <trkpt lat="43.58312" lon="6.79314">
        <ele>165.3</ele>
        <time>2014-04-21T08:17:28Z</time>
      </trkpt>
      <trkpt lat="43.5832" lon="6.79303">
        <ele>165.3</ele>
        <time>2014-04-21T08:17:30Z</time>
      </trkpt>
      <trkpt lat="43.58325" lon="6.79289">
        <ele>165.3</ele>
        <time>2014-04-21T08:17:32Z</time>
      </trkpt>
      <trkpt lat="43.58326" lon="6.79273">
        <ele>166.3</ele>
        <time>2014-04-21T08:17:34Z</time>
      </trkpt>
      <trkpt lat="43.58323" lon="6.79258">
        <ele>164.3</ele>
        <time>2014-04-21T08:17:36Z</time>
      </trkpt>
      <trkpt lat="43.58319" lon="6.79245">
        <ele>164.3</ele>
        <time>2014-04-21T08:17:38Z</time>
      </trkpt>
      <trkpt lat="43.5831" lon="6.79241">
        <ele>166.3</ele>
        <time>2014-04-21T08:17:40Z</time>
      </trkpt>
      <trkpt lat="43.58296" lon="6.79235">
        <ele>163.3</ele>
        <time>2014-04-21T08:17:43Z</time>
      </trkpt>
      <trkpt lat="43.58285" lon="6.79233">
        <ele>163.3</ele>
        <time>2014-04-21T08:17:45Z</time>
      </trkpt>
      <trkpt lat="43.58273" lon="6.79233">
        <ele>161.3</ele>
        <time>2014-04-21T08:17:47Z</time>
      </trkpt>
      <trkpt lat="43.5826" lon="6.79234">
        <ele>160.3</ele>
        <time>2014-04-21T08:17:49Z</time>
      </trkpt>
      <trkpt lat="43.58238" lon="6.7922">
        <ele>160.3</ele>
        <time>2014-04-21T08:17:53Z</time>
      </trkpt>
      <trkpt lat="43.58242" lon="6.79204">
        <ele>160.3</ele>
        <time>2014-04-21T08:17:56Z</time>
      </trkpt>
      <trkpt lat="43.58247" lon="6.79191">
        <ele>158.3</ele>
        <time>2014-04-21T08:17:59Z</time>
      </trkpt>
      <trkpt lat="43.58252" lon="6.79177">
        <ele>161.3</ele>
        <time>2014-04-21T08:18:02Z</time>
      </trkpt>
      <trkpt lat="43.58254" lon="6.79163">
        <ele>161.3</ele>
        <time>2014-04-21T08:18:05Z</time>
      </trkpt>
      <trkpt lat="43.58252" lon="6.7915">
        <ele>160.3</ele>
        <time>2014-04-21T08:18:08Z</time>
      </trkpt>
      <trkpt lat="43.58245" lon="6.79137">
        <ele>160.3</ele>
        <time>2014-04-21T08:18:11Z</time>
      </trkpt>
      <trkpt lat="43.58235" lon="6.79133">
        <ele>160.3</ele>
        <time>2014-04-21T08:18:14Z</time>
      </trkpt>
      <trkpt lat="43.58225" lon="6.79129">
        <ele>161.3</ele>
        <time>2014-04-21T08:18:17Z</time>
      </trkpt>
      <trkpt lat="43.58215" lon="6.79126">
        <ele>164.3</ele>
        <time>2014-04-21T08:18:20Z</time>
      </trkpt>
      <trkpt lat="43.58205" lon="6.79125">
        <ele>162.3</ele>
        <time>2014-04-21T08:18:23Z</time>
      </trkpt>
      <trkpt lat="43.58193" lon="6.79122">
        <ele>161.3</ele>
        <time>2014-04-21T08:18:26Z</time>
      </trkpt>
      <trkpt lat="43.58182" lon="6.79119">
        <ele>158.3</ele>
        <time>2014-04-21T08:18:29Z</time>
      </trkpt>
      <trkpt lat="43.58171" lon="6.79114">
        <ele>157.3</ele>
        <time>2014-04-21T08:18:31Z</time>
      </trkpt>
      <trkpt lat="43.58163" lon="6.79109">
        <ele>155.3</ele>
        <time>2014-04-21T08:18:33Z</time>
      </trkpt>
      <trkpt lat="43.58154" lon="6.79101">
        <ele>154.3</ele>
        <time>2014-04-21T08:18:35Z</time>
      </trkpt>
      <trkpt lat="43.58143" lon="6.79102">
        <ele>154.3</ele>
        <time>2014-04-21T08:18:37Z</time>
      </trkpt>
      <trkpt lat="43.58131" lon="6.79105">
        <ele>154.3</ele>
        <time>2014-04-21T08:18:39Z</time>
      </trkpt>
      <trkpt lat="43.58122" lon="6.79102">
        <ele>154.3</ele>
        <time>2014-04-21T08:18:41Z</time>
      </trkpt>
      <trkpt lat="43.58116" lon="6.79086">
        <ele>156.3</ele>
        <time>2014-04-21T08:18:44Z</time>
      </trkpt>
      <trkpt lat="43.58114" lon="6.79073">
        <ele>158.3</ele>
        <time>2014-04-21T08:18:47Z</time>
      </trkpt>
      <trkpt lat="43.5811" lon="6.79061">
        <ele>160.3</ele>
        <time>2014-04-21T08:18:50Z</time>
      </trkpt>
      <trkpt lat="43.58094" lon="6.79044">
        <ele>160.3</ele>
        <time>2014-04-21T08:18:57Z</time>
      </trkpt>
      <trkpt lat="43.58083" lon="6.7904">
        <ele>158.3</ele>
        <time>2014-04-21T08:19:00Z</time>
      </trkpt>
      <trkpt lat="43.58072" lon="6.79037">
        <ele>158.3</ele>
        <time>2014-04-21T08:19:02Z</time>
      </trkpt>
      <trkpt lat="43.5806" lon="6.7903">
        <ele>159.3</ele>
        <time>2014-04-21T08:19:05Z</time>
      </trkpt>
      <trkpt lat="43.58059" lon="6.79016">
        <ele>162.3</ele>
        <time>2014-04-21T08:19:08Z</time>
      </trkpt>
      <trkpt lat="43.58062" lon="6.79001">
        <ele>161.3</ele>
        <time>2014-04-21T08:19:11Z</time>
      </trkpt>
      <trkpt lat="43.58062" lon="6.78988">
        <ele>161.3</ele>
        <time>2014-04-21T08:19:14Z</time>
      </trkpt>
      <trkpt lat="43.58058" lon="6.78976">
        <ele>161.3</ele>
        <time>2014-04-21T08:19:17Z</time>
      </trkpt>
      <trkpt lat="43.58051" lon="6.78966">
        <ele>162.3</ele>
        <time>2014-04-21T08:19:20Z</time>
      </trkpt>
      <trkpt lat="43.58043" lon="6.78957">
        <ele>162.3</ele>
        <time>2014-04-21T08:19:23Z</time>
      </trkpt>
      <trkpt lat="43.58035" lon="6.78947">
        <ele>162.3</ele>
        <time>2014-04-21T08:19:26Z</time>
      </trkpt>
      <trkpt lat="43.58024" lon="6.78937">
        <ele>160.3</ele>
        <time>2014-04-21T08:19:29Z</time>
      </trkpt>
      <trkpt lat="43.58012" lon="6.78929">
        <ele>159.3</ele>
        <time>2014-04-21T08:19:32Z</time>
      </trkpt>
      <trkpt lat="43.58" lon="6.78923">
        <ele>158.3</ele>
        <time>2014-04-21T08:19:35Z</time>
      </trkpt>
      <trkpt lat="43.57988" lon="6.78917">
        <ele>157.3</ele>
        <time>2014-04-21T08:19:38Z</time>
      </trkpt>
      <trkpt lat="43.57976" lon="6.78914">
        <ele>157.3</ele>
        <time>2014-04-21T08:19:40Z</time>
      </trkpt>
      <trkpt lat="43.57965" lon="6.78911">
        <ele>155.3</ele>
        <time>2014-04-21T08:19:42Z</time>
      </trkpt>
      <trkpt lat="43.57956" lon="6.78902">
        <ele>155.3</ele>
        <time>2014-04-21T08:19:44Z</time>
      </trkpt>
      <trkpt lat="43.57955" lon="6.78889">
        <ele>155.3</ele>
        <time>2014-04-21T08:19:46Z</time>
      </trkpt>
      <trkpt lat="43.57961" lon="6.78874">
        <ele>156.3</ele>
        <time>2014-04-21T08:19:49Z</time>
      </trkpt>
      <trkpt lat="43.57968" lon="6.7886">
        <ele>157.3</ele>
        <time>2014-04-21T08:19:52Z</time>
      </trkpt>
      <trkpt lat="43.57968" lon="6.78829">
        <ele>155.3</ele>
        <time>2014-04-21T08:19:58Z</time>
      </trkpt>
      <trkpt lat="43.57966" lon="6.78814">
        <ele>156.3</ele>
        <time>2014-04-21T08:20:01Z</time>
      </trkpt>
      <trkpt lat="43.57962" lon="6.788">
        <ele>158.3</ele>
        <time>2014-04-21T08:20:04Z</time>
      </trkpt>
      <trkpt lat="43.57959" lon="6.78785">
        <ele>161.3</ele>
        <time>2014-04-21T08:20:07Z</time>
      </trkpt>
      <trkpt lat="43.57956" lon="6.78767">
        <ele>161.3</ele>
        <time>2014-04-21T08:20:10Z</time>
      </trkpt>
      <trkpt lat="43.57953" lon="6.78751">
        <ele>163.3</ele>
        <time>2014-04-21T08:20:12Z</time>
      </trkpt>
      <trkpt lat="43.5795" lon="6.78736">
        <ele>161.3</ele>
        <time>2014-04-21T08:20:14Z</time>
      </trkpt>
      <trkpt lat="43.57947" lon="6.78722">
        <ele>158.3</ele>
        <time>2014-04-21T08:20:16Z</time>
      </trkpt>
      <trkpt lat="43.57944" lon="6.78704">
        <ele>155.3</ele>
        <time>2014-04-21T08:20:18Z</time>
      </trkpt>
      <trkpt lat="43.57947" lon="6.78687">
        <ele>155.3</ele>
        <time>2014-04-21T08:20:20Z</time>
      </trkpt>
      <trkpt lat="43.57955" lon="6.7868">
        <ele>153.3</ele>
        <time>2014-04-21T08:20:22Z</time>
      </trkpt>
      <trkpt lat="43.57968" lon="6.78687">
        <ele>153.3</ele>
        <time>2014-04-21T08:20:25Z</time>
      </trkpt>
      <trkpt lat="43.57975" lon="6.78697">
        <ele>155.3</ele>
        <time>2014-04-21T08:20:27Z</time>
      </trkpt>
      <trkpt lat="43.57978" lon="6.78714">
        <ele>157.3</ele>
        <time>2014-04-21T08:20:30Z</time>
      </trkpt>
      <trkpt lat="43.57982" lon="6.78728">
        <ele>158.3</ele>
        <time>2014-04-21T08:20:33Z</time>
      </trkpt>
      <trkpt lat="43.57986" lon="6.78739">
        <ele>157.3</ele>
        <time>2014-04-21T08:20:36Z</time>
      </trkpt>
      <trkpt lat="43.57993" lon="6.78751">
        <ele>157.3</ele>
        <time>2014-04-21T08:20:39Z</time>
      </trkpt>
      <trkpt lat="43.57999" lon="6.78764">
        <ele>155.3</ele>
        <time>2014-04-21T08:20:42Z</time>
      </trkpt>
      <trkpt lat="43.58006" lon="6.78777">
        <ele>154.3</ele>
        <time>2014-04-21T08:20:45Z</time>
      </trkpt>
      <trkpt lat="43.58013" lon="6.78792">
        <ele>153.3</ele>
        <time>2014-04-21T08:20:48Z</time>
      </trkpt>
      <trkpt lat="43.58016" lon="6.78805">
        <ele>152.3</ele>
        <time>2014-04-21T08:20:50Z</time>
      </trkpt>
      <trkpt lat="43.5802" lon="6.78819">
        <ele>153.3</ele>
        <time>2014-04-21T08:20:53Z</time>
      </trkpt>
      <trkpt lat="43.58033" lon="6.7884">
        <ele>153.3</ele>
        <time>2014-04-21T08:21:01Z</time>
      </trkpt>
      <trkpt lat="43.58041" lon="6.78845">
        <ele>153.3</ele>
        <time>2014-04-21T08:21:05Z</time>
      </trkpt>
      <trkpt lat="43.58051" lon="6.78848">
        <ele>155.3</ele>
        <time>2014-04-21T08:21:09Z</time>
      </trkpt>
      <trkpt lat="43.58061" lon="6.78851">
        <ele>156.3</ele>
        <time>2014-04-21T08:21:13Z</time>
      </trkpt>
      <trkpt lat="43.5807" lon="6.78856">
        <ele>158.3</ele>
        <time>2014-04-21T08:21:17Z</time>
      </trkpt>
      <trkpt lat="43.58079" lon="6.78863">
        <ele>159.3</ele>
        <time>2014-04-21T08:21:21Z</time>
      </trkpt>
      <trkpt lat="43.58088" lon="6.7887">
        <ele>158.3</ele>
        <time>2014-04-21T08:21:25Z</time>
      </trkpt>
      <trkpt lat="43.58097" lon="6.78875">
        <ele>159.3</ele>
        <time>2014-04-21T08:21:29Z</time>
      </trkpt>
      <trkpt lat="43.58107" lon="6.78878">
        <ele>162.3</ele>
        <time>2014-04-21T08:21:33Z</time>
      </trkpt>
      <trkpt lat="43.58117" lon="6.78876">
        <ele>162.3</ele>
        <time>2014-04-21T08:21:37Z</time>
      </trkpt>
      <trkpt lat="43.58126" lon="6.78868">
        <ele>162.3</ele>
        <time>2014-04-21T08:21:41Z</time>
      </trkpt>
      <trkpt lat="43.5813" lon="6.78857">
        <ele>161.3</ele>
        <time>2014-04-21T08:21:45Z</time>
      </trkpt>
      <trkpt lat="43.58133" lon="6.78845">
        <ele>162.3</ele>
        <time>2014-04-21T08:21:49Z</time>
      </trkpt>
      <trkpt lat="43.58135" lon="6.78832">
        <ele>162.3</ele>
        <time>2014-04-21T08:21:53Z</time>
      </trkpt>
      <trkpt lat="43.58142" lon="6.78807">
        <ele>168.3</ele>
        <time>2014-04-21T08:22:04Z</time>
      </trkpt>
      <trkpt lat="43.58148" lon="6.78796">
        <ele>169.3</ele>
        <time>2014-04-21T08:25:11Z</time>
      </trkpt>
      <trkpt lat="43.58156" lon="6.78772">
        <ele>167.3</ele>
        <time>2014-04-21T08:25:21Z</time>
      </trkpt>
      <trkpt lat="43.58159" lon="6.7876">
        <ele>167.3</ele>
        <time>2014-04-21T08:25:25Z</time>
      </trkpt>
      <trkpt lat="43.58163" lon="6.78748">
        <ele>169.3</ele>
        <time>2014-04-21T08:25:29Z</time>
      </trkpt>
      <trkpt lat="43.58167" lon="6.78737">
        <ele>167.3</ele>
        <time>2014-04-21T08:25:33Z</time>
      </trkpt>
      <trkpt lat="43.58173" lon="6.78725">
        <ele>167.3</ele>
        <time>2014-04-21T08:25:37Z</time>
      </trkpt>
      <trkpt lat="43.5818" lon="6.78715">
        <ele>171.3</ele>
        <time>2014-04-21T08:25:41Z</time>
      </trkpt>
      <trkpt lat="43.58187" lon="6.78705">
        <ele>174.3</ele>
        <time>2014-04-21T08:25:45Z</time>
      </trkpt>
      <trkpt lat="43.58192" lon="6.78692">
        <ele>171.3</ele>
        <time>2014-04-21T08:25:49Z</time>
      </trkpt>
      <trkpt lat="43.58197" lon="6.78678">
        <ele>173.3</ele>
        <time>2014-04-21T08:25:53Z</time>
      </trkpt>
      <trkpt lat="43.58202" lon="6.78664">
        <ele>169.3</ele>
        <time>2014-04-21T08:25:57Z</time>
      </trkpt>
      <trkpt lat="43.58205" lon="6.78652">
        <ele>169.3</ele>
        <time>2014-04-21T08:26:00Z</time>
      </trkpt>
      <trkpt lat="43.58208" lon="6.78638">
        <ele>168.3</ele>
        <time>2014-04-21T08:26:03Z</time>
      </trkpt>
      <trkpt lat="43.5821" lon="6.78623">
        <ele>167.3</ele>
        <time>2014-04-21T08:26:06Z</time>
      </trkpt>
      <trkpt lat="43.58212" lon="6.78609">
        <ele>167.3</ele>
        <time>2014-04-21T08:26:09Z</time>
      </trkpt>
      <trkpt lat="43.58213" lon="6.78595">
        <ele>168.3</ele>
        <time>2014-04-21T08:26:12Z</time>
      </trkpt>
      <trkpt lat="43.58214" lon="6.78568">
        <ele>166.3</ele>
        <time>2014-04-21T08:26:18Z</time>
      </trkpt>
      <trkpt lat="43.58217" lon="6.78553">
        <ele>166.3</ele>
        <time>2014-04-21T08:26:21Z</time>
      </trkpt>
      <trkpt lat="43.58219" lon="6.7854">
        <ele>163.3</ele>
        <time>2014-04-21T08:26:24Z</time>
      </trkpt>
      <trkpt lat="43.5822" lon="6.78528">
        <ele>168.3</ele>
        <time>2014-04-21T08:26:27Z</time>
      </trkpt>
      <trkpt lat="43.58221" lon="6.78511">
        <ele>169.3</ele>
        <time>2014-04-21T08:26:31Z</time>
      </trkpt>
      <trkpt lat="43.58222" lon="6.78498">
        <ele>169.3</ele>
        <time>2014-04-21T08:26:34Z</time>
      </trkpt>
      <trkpt lat="43.58222" lon="6.78485">
        <ele>168.3</ele>
        <time>2014-04-21T08:26:37Z</time>
      </trkpt>
      <trkpt lat="43.58222" lon="6.78472">
        <ele>169.3</ele>
        <time>2014-04-21T08:26:40Z</time>
      </trkpt>
      <trkpt lat="43.58223" lon="6.78459">
        <ele>169.3</ele>
        <time>2014-04-21T08:26:43Z</time>
      </trkpt>
      <trkpt lat="43.58224" lon="6.78446">
        <ele>168.3</ele>
        <time>2014-04-21T08:26:46Z</time>
      </trkpt>
      <trkpt lat="43.58227" lon="6.78433">
        <ele>167.3</ele>
        <time>2014-04-21T08:26:49Z</time>
      </trkpt>
      <trkpt lat="43.5823" lon="6.78421">
        <ele>165.3</ele>
        <time>2014-04-21T08:26:52Z</time>
      </trkpt>
      <trkpt lat="43.58237" lon="6.78412">
        <ele>165.3</ele>
        <time>2014-04-21T08:26:55Z</time>
      </trkpt>
      <trkpt lat="43.58247" lon="6.7841">
        <ele>166.3</ele>
        <time>2014-04-21T08:26:58Z</time>
      </trkpt>
      <trkpt lat="43.58256" lon="6.78415">
        <ele>166.3</ele>
        <time>2014-04-21T08:27:01Z</time>
      </trkpt>
      <trkpt lat="43.58266" lon="6.7842">
        <ele>166.3</ele>
        <time>2014-04-21T08:27:04Z</time>
      </trkpt>
      <trkpt lat="43.58276" lon="6.78417">
        <ele>167.3</ele>
        <time>2014-04-21T08:27:07Z</time>
      </trkpt>
      <trkpt lat="43.58284" lon="6.78406">
        <ele>168.3</ele>
        <time>2014-04-21T08:27:10Z</time>
      </trkpt>
      <trkpt lat="43.58288" lon="6.7839">
        <ele>169.3</ele>
        <time>2014-04-21T08:27:13Z</time>
      </trkpt>
      <trkpt lat="43.58281" lon="6.78361">
        <ele>170.3</ele>
        <time>2014-04-21T08:27:19Z</time>
      </trkpt>
      <trkpt lat="43.58277" lon="6.78348">
        <ele>171.3</ele>
        <time>2014-04-21T08:27:22Z</time>
      </trkpt>
      <trkpt lat="43.58272" lon="6.78334">
        <ele>170.3</ele>
        <time>2014-04-21T08:27:25Z</time>
      </trkpt>
      <trkpt lat="43.58268" lon="6.78319">
        <ele>172.3</ele>
        <time>2014-04-21T08:27:28Z</time>
      </trkpt>
      <trkpt lat="43.58265" lon="6.78305">
        <ele>172.3</ele>
        <time>2014-04-21T08:27:31Z</time>
      </trkpt>
      <trkpt lat="43.58263" lon="6.7829">
        <ele>173.3</ele>
        <time>2014-04-21T08:27:34Z</time>
      </trkpt>
      <trkpt lat="43.58262" lon="6.78276">
        <ele>173.3</ele>
        <time>2014-04-21T08:27:37Z</time>
      </trkpt>
      <trkpt lat="43.58261" lon="6.7826">
        <ele>170.3</ele>
        <time>2014-04-21T08:27:40Z</time>
      </trkpt>
      <trkpt lat="43.5826" lon="6.78245">
        <ele>169.3</ele>
        <time>2014-04-21T08:27:43Z</time>
      </trkpt>
      <trkpt lat="43.58262" lon="6.7823">
        <ele>167.3</ele>
        <time>2014-04-21T08:27:46Z</time>
      </trkpt>
      <trkpt lat="43.58266" lon="6.78217">
        <ele>168.3</ele>
        <time>2014-04-21T08:27:49Z</time>
      </trkpt>
      <trkpt lat="43.58272" lon="6.78204">
        <ele>168.3</ele>
        <time>2014-04-21T08:27:52Z</time>
      </trkpt>
      <trkpt lat="43.58276" lon="6.78191">
        <ele>167.3</ele>
        <time>2014-04-21T08:27:55Z</time>
      </trkpt>
      <trkpt lat="43.5828" lon="6.78176">
        <ele>165.3</ele>
        <time>2014-04-21T08:27:58Z</time>
      </trkpt>
      <trkpt lat="43.58288" lon="6.78163">
        <ele>163.3</ele>
        <time>2014-04-21T08:28:01Z</time>
      </trkpt>
      <trkpt lat="43.58295" lon="6.78149">
        <ele>162.3</ele>
        <time>2014-04-21T08:28:04Z</time>
      </trkpt>
      <trkpt lat="43.583" lon="6.78135">
        <ele>161.3</ele>
        <time>2014-04-21T08:28:07Z</time>
      </trkpt>
      <trkpt lat="43.58299" lon="6.7812">
        <ele>161.3</ele>
        <time>2014-04-21T08:28:10Z</time>
      </trkpt>
      <trkpt lat="43.58296" lon="6.78105">
        <ele>162.3</ele>
        <time>2014-04-21T08:28:13Z</time>
      </trkpt>
      <trkpt lat="43.58289" lon="6.78093">
        <ele>160.3</ele>
        <time>2014-04-21T08:28:16Z</time>
      </trkpt>
      <trkpt lat="43.58267" lon="6.78086">
        <ele>156.3</ele>
        <time>2014-04-21T08:28:22Z</time>
      </trkpt>
      <trkpt lat="43.58255" lon="6.78086">
        <ele>156.3</ele>
        <time>2014-04-21T08:28:24Z</time>
      </trkpt>
      <trkpt lat="43.58248" lon="6.78071">
        <ele>160.3</ele>
        <time>2014-04-21T08:28:27Z</time>
      </trkpt>
      <trkpt lat="43.58246" lon="6.78053">
        <ele>159.3</ele>
        <time>2014-04-21T08:28:30Z</time>
      </trkpt>
      <trkpt lat="43.58244" lon="6.78036">
        <ele>159.3</ele>
        <time>2014-04-21T08:28:33Z</time>
      </trkpt>
      <trkpt lat="43.5824" lon="6.78022">
        <ele>162.3</ele>
        <time>2014-04-21T08:28:36Z</time>
      </trkpt>
      <trkpt lat="43.58234" lon="6.78008">
        <ele>165.3</ele>
        <time>2014-04-21T08:28:40Z</time>
      </trkpt>
      <trkpt lat="43.5823" lon="6.77993">
        <ele>165.3</ele>
        <time>2014-04-21T08:28:44Z</time>
      </trkpt>
      <trkpt lat="43.58222" lon="6.77983">
        <ele>162.3</ele>
        <time>2014-04-21T08:28:48Z</time>
      </trkpt>
      <trkpt lat="43.58212" lon="6.77983">
        <ele>165.3</ele>
        <time>2014-04-21T08:28:52Z</time>
      </trkpt>
      <trkpt lat="43.58202" lon="6.77978">
        <ele>168.3</ele>
        <time>2014-04-21T08:28:57Z</time>
      </trkpt>
      <trkpt lat="43.58195" lon="6.77971">
        <ele>171.3</ele>
        <time>2014-04-21T08:29:02Z</time>
      </trkpt>
      <trkpt lat="43.58192" lon="6.77958">
        <ele>169.3</ele>
        <time>2014-04-21T08:29:06Z</time>
      </trkpt>
      <trkpt lat="43.5819" lon="6.77945">
        <ele>170.3</ele>
        <time>2014-04-21T08:29:10Z</time>
      </trkpt>
      <trkpt lat="43.5819" lon="6.7793">
        <ele>172.3</ele>
        <time>2014-04-21T08:29:15Z</time>
      </trkpt>
      <trkpt lat="43.58188" lon="6.77916">
        <ele>174.3</ele>
        <time>2014-04-21T08:29:19Z</time>
      </trkpt>
      <trkpt lat="43.58175" lon="6.77896">
        <ele>175.3</ele>
        <time>2014-04-21T08:29:28Z</time>
      </trkpt>
      <trkpt lat="43.58172" lon="6.77884">
        <ele>177.3</ele>
        <time>2014-04-21T08:29:32Z</time>
      </trkpt>
      <trkpt lat="43.5817" lon="6.77869">
        <ele>176.3</ele>
        <time>2014-04-21T08:29:36Z</time>
      </trkpt>
      <trkpt lat="43.58171" lon="6.77856">
        <ele>175.3</ele>
        <time>2014-04-21T08:29:39Z</time>
      </trkpt>
      <trkpt lat="43.58172" lon="6.7784">
        <ele>177.3</ele>
        <time>2014-04-21T08:29:42Z</time>
      </trkpt>
      <trkpt lat="43.58171" lon="6.77828">
        <ele>176.3</ele>
        <time>2014-04-21T08:29:44Z</time>
      </trkpt>
      <trkpt lat="43.58167" lon="6.77811">
        <ele>175.3</ele>
        <time>2014-04-21T08:29:46Z</time>
      </trkpt>
      <trkpt lat="43.58164" lon="6.77795">
        <ele>176.3</ele>
        <time>2014-04-21T08:29:49Z</time>
      </trkpt>
      <trkpt lat="43.58169" lon="6.7778">
        <ele>172.3</ele>
        <time>2014-04-21T08:29:53Z</time>
      </trkpt>
      <trkpt lat="43.5817" lon="6.77764">
        <ele>172.3</ele>
        <time>2014-04-21T08:29:56Z</time>
      </trkpt>
      <trkpt lat="43.5817" lon="6.77749">
        <ele>172.3</ele>
        <time>2014-04-21T08:29:59Z</time>
      </trkpt>
      <trkpt lat="43.58173" lon="6.77733">
        <ele>170.3</ele>
        <time>2014-04-21T08:30:02Z</time>
      </trkpt>
      <trkpt lat="43.58174" lon="6.77718">
        <ele>172.3</ele>
        <time>2014-04-21T08:30:04Z</time>
      </trkpt>
      <trkpt lat="43.58178" lon="6.77703">
        <ele>172.3</ele>
        <time>2014-04-21T08:30:06Z</time>
      </trkpt>
      <trkpt lat="43.58181" lon="6.77687">
        <ele>172.3</ele>
        <time>2014-04-21T08:30:08Z</time>
      </trkpt>
      <trkpt lat="43.58182" lon="6.77668">
        <ele>170.3</ele>
        <time>2014-04-21T08:30:10Z</time>
      </trkpt>
      <trkpt lat="43.58186" lon="6.77652">
        <ele>170.3</ele>
        <time>2014-04-21T08:30:12Z</time>
      </trkpt>
      <trkpt lat="43.58192" lon="6.77638">
        <ele>168.3</ele>
        <time>2014-04-21T08:30:14Z</time>
      </trkpt>
      <trkpt lat="43.58197" lon="6.77624">
        <ele>166.3</ele>
        <time>2014-04-21T08:30:16Z</time>
      </trkpt>
      <trkpt lat="43.58206" lon="6.77609">
        <ele>168.3</ele>
        <time>2014-04-21T08:30:18Z</time>
      </trkpt>
      <trkpt lat="43.58212" lon="6.77593">
        <ele>169.3</ele>
        <time>2014-04-21T08:30:20Z</time>
      </trkpt>
      <trkpt lat="43.58227" lon="6.7756">
        <ele>168.3</ele>
        <time>2014-04-21T08:30:24Z</time>
      </trkpt>
      <trkpt lat="43.58235" lon="6.77542">
        <ele>166.3</ele>
        <time>2014-04-21T08:30:26Z</time>
      </trkpt>
      <trkpt lat="43.5824" lon="6.77523">
        <ele>166.3</ele>
        <time>2014-04-21T08:30:28Z</time>
      </trkpt>
      <trkpt lat="43.58245" lon="6.77505">
        <ele>165.3</ele>
        <time>2014-04-21T08:30:30Z</time>
      </trkpt>
      <trkpt lat="43.5825" lon="6.77486">
        <ele>163.3</ele>
        <time>2014-04-21T08:30:32Z</time>
      </trkpt>
      <trkpt lat="43.58256" lon="6.77467">
        <ele>161.3</ele>
        <time>2014-04-21T08:30:34Z</time>
      </trkpt>
      <trkpt lat="43.58263" lon="6.77448">
        <ele>159.3</ele>
        <time>2014-04-21T08:30:36Z</time>
      </trkpt>
      <trkpt lat="43.58263" lon="6.77431">
        <ele>158.3</ele>
        <time>2014-04-21T08:30:38Z</time>
      </trkpt>
      <trkpt lat="43.58254" lon="6.77421">
        <ele>156.3</ele>
        <time>2014-04-21T08:30:40Z</time>
      </trkpt>
      <trkpt lat="43.58243" lon="6.77414">
        <ele>155.3</ele>
        <time>2014-04-21T08:30:42Z</time>
      </trkpt>
      <trkpt lat="43.58232" lon="6.77406">
        <ele>152.3</ele>
        <time>2014-04-21T08:30:44Z</time>
      </trkpt>
      <trkpt lat="43.58233" lon="6.77388">
        <ele>152.3</ele>
        <time>2014-04-21T08:30:46Z</time>
      </trkpt>
      <trkpt lat="43.58236" lon="6.77373">
        <ele>151.3</ele>
        <time>2014-04-21T08:30:48Z</time>
      </trkpt>
      <trkpt lat="43.58246" lon="6.77362">
        <ele>152.3</ele>
        <time>2014-04-21T08:30:51Z</time>
      </trkpt>
      <trkpt lat="43.58255" lon="6.7735">
        <ele>148.3</ele>
        <time>2014-04-21T08:30:55Z</time>
      </trkpt>
      <trkpt lat="43.58263" lon="6.77344">
        <ele>149.3</ele>
        <time>2014-04-21T08:30:57Z</time>
      </trkpt>
      <trkpt lat="43.58274" lon="6.77338">
        <ele>152.3</ele>
        <time>2014-04-21T08:31:02Z</time>
      </trkpt>
      <trkpt lat="43.58281" lon="6.7733">
        <ele>150.3</ele>
        <time>2014-04-21T08:31:05Z</time>
      </trkpt>
      <trkpt lat="43.58286" lon="6.77316">
        <ele>151.3</ele>
        <time>2014-04-21T08:31:09Z</time>
      </trkpt>
      <trkpt lat="43.58283" lon="6.77301">
        <ele>151.3</ele>
        <time>2014-04-21T08:31:13Z</time>
      </trkpt>
      <trkpt lat="43.58277" lon="6.77287">
        <ele>152.3</ele>
        <time>2014-04-21T08:31:17Z</time>
      </trkpt>
      <trkpt lat="43.5827" lon="6.77273">
        <ele>149.3</ele>
        <time>2014-04-21T08:31:21Z</time>
      </trkpt>
      <trkpt lat="43.58244" lon="6.77255">
        <ele>146.3</ele>
        <time>2014-04-21T08:31:27Z</time>
      </trkpt>
      <trkpt lat="43.58234" lon="6.77251">
        <ele>146.3</ele>
        <time>2014-04-21T08:31:30Z</time>
      </trkpt>
      <trkpt lat="43.58223" lon="6.77252">
        <ele>140.3</ele>
        <time>2014-04-21T08:31:33Z</time>
      </trkpt>
      <trkpt lat="43.58213" lon="6.77252">
        <ele>141.3</ele>
        <time>2014-04-21T08:31:35Z</time>
      </trkpt>
      <trkpt lat="43.58202" lon="6.77249">
        <ele>144.3</ele>
        <time>2014-04-21T08:31:38Z</time>
      </trkpt>
      <trkpt lat="43.58192" lon="6.77242">
        <ele>144.3</ele>
        <time>2014-04-21T08:31:41Z</time>
      </trkpt>
      <trkpt lat="43.58182" lon="6.77237">
        <ele>146.3</ele>
        <time>2014-04-21T08:31:44Z</time>
      </trkpt>
      <trkpt lat="43.5817" lon="6.77237">
        <ele>145.3</ele>
        <time>2014-04-21T08:31:48Z</time>
      </trkpt>
      <trkpt lat="43.5816" lon="6.77238">
        <ele>143.3</ele>
        <time>2014-04-21T08:31:51Z</time>
      </trkpt>
      <trkpt lat="43.58149" lon="6.77238">
        <ele>144.3</ele>
        <time>2014-04-21T08:31:54Z</time>
      </trkpt>
      <trkpt lat="43.58131" lon="6.77237">
        <ele>145.3</ele>
        <time>2014-04-21T08:31:57Z</time>
      </trkpt>
      <trkpt lat="43.5812" lon="6.77236">
        <ele>144.3</ele>
        <time>2014-04-21T08:31:59Z</time>
      </trkpt>
      <trkpt lat="43.58109" lon="6.77234">
        <ele>142.3</ele>
        <time>2014-04-21T08:32:01Z</time>
      </trkpt>
      <trkpt lat="43.58098" lon="6.77232">
        <ele>140.3</ele>
        <time>2014-04-21T08:32:03Z</time>
      </trkpt>
      <trkpt lat="43.58085" lon="6.77227">
        <ele>136.3</ele>
        <time>2014-04-21T08:32:06Z</time>
      </trkpt>
      <trkpt lat="43.58073" lon="6.77219">
        <ele>136.3</ele>
        <time>2014-04-21T08:32:09Z</time>
      </trkpt>
      <trkpt lat="43.58063" lon="6.77213">
        <ele>139.3</ele>
        <time>2014-04-21T08:32:12Z</time>
      </trkpt>
      <trkpt lat="43.58056" lon="6.77201">
        <ele>139.3</ele>
        <time>2014-04-21T08:32:15Z</time>
      </trkpt>
      <trkpt lat="43.58054" lon="6.77183">
        <ele>138.3</ele>
        <time>2014-04-21T08:32:18Z</time>
      </trkpt>
      <trkpt lat="43.58059" lon="6.77169">
        <ele>137.3</ele>
        <time>2014-04-21T08:32:21Z</time>
      </trkpt>
      <trkpt lat="43.58077" lon="6.77152">
        <ele>147.3</ele>
        <time>2014-04-21T08:32:30Z</time>
      </trkpt>
      <trkpt lat="43.58086" lon="6.77148">
        <ele>148.3</ele>
        <time>2014-04-21T08:32:33Z</time>
      </trkpt>
      <trkpt lat="43.58095" lon="6.77149">
        <ele>151.3</ele>
        <time>2014-04-21T08:32:36Z</time>
      </trkpt>
      <trkpt lat="43.58104" lon="6.77157">
        <ele>152.3</ele>
        <time>2014-04-21T08:32:40Z</time>
      </trkpt>
      <trkpt lat="43.58112" lon="6.77164">
        <ele>155.3</ele>
        <time>2014-04-21T08:32:43Z</time>
      </trkpt>
      <trkpt lat="43.58123" lon="6.77171">
        <ele>156.3</ele>
        <time>2014-04-21T08:32:46Z</time>
      </trkpt>
      <trkpt lat="43.58134" lon="6.77173">
        <ele>158.3</ele>
        <time>2014-04-21T08:32:49Z</time>
      </trkpt>
      <trkpt lat="43.58145" lon="6.77171">
        <ele>158.3</ele>
        <time>2014-04-21T08:32:52Z</time>
      </trkpt>
      <trkpt lat="43.58156" lon="6.77172">
        <ele>154.3</ele>
        <time>2014-04-21T08:32:55Z</time>
      </trkpt>
      <trkpt lat="43.58166" lon="6.77171">
        <ele>158.3</ele>
        <time>2014-04-21T08:32:58Z</time>
      </trkpt>
      <trkpt lat="43.58176" lon="6.77169">
        <ele>164.3</ele>
        <time>2014-04-21T08:33:01Z</time>
      </trkpt>
      <trkpt lat="43.58187" lon="6.77172">
        <ele>166.3</ele>
        <time>2014-04-21T08:33:04Z</time>
      </trkpt>
      <trkpt lat="43.58197" lon="6.77178">
        <ele>164.3</ele>
        <time>2014-04-21T08:33:07Z</time>
      </trkpt>
      <trkpt lat="43.58207" lon="6.77185">
        <ele>165.3</ele>
        <time>2014-04-21T08:33:10Z</time>
      </trkpt>
      <trkpt lat="43.58217" lon="6.77193">
        <ele>165.3</ele>
        <time>2014-04-21T08:33:13Z</time>
      </trkpt>
      <trkpt lat="43.58228" lon="6.77199">
        <ele>162.3</ele>
        <time>2014-04-21T08:33:16Z</time>
      </trkpt>
      <trkpt lat="43.58239" lon="6.77201">
        <ele>162.3</ele>
        <time>2014-04-21T08:33:19Z</time>
      </trkpt>
      <trkpt lat="43.5825" lon="6.772">
        <ele>166.3</ele>
        <time>2014-04-21T08:33:23Z</time>
      </trkpt>
      <trkpt lat="43.58273" lon="6.77195">
        <ele>163.3</ele>
        <time>2014-04-21T08:33:31Z</time>
      </trkpt>
      <trkpt lat="43.58284" lon="6.77192">
        <ele>163.3</ele>
        <time>2014-04-21T08:33:35Z</time>
      </trkpt>
      <trkpt lat="43.58293" lon="6.7719">
        <ele>162.3</ele>
        <time>2014-04-21T08:33:39Z</time>
      </trkpt>
      <trkpt lat="43.58302" lon="6.77187">
        <ele>160.3</ele>
        <time>2014-04-21T08:33:43Z</time>
      </trkpt>
      <trkpt lat="43.58313" lon="6.77185">
        <ele>160.3</ele>
        <time>2014-04-21T08:33:48Z</time>
      </trkpt>
      <trkpt lat="43.58323" lon="6.7718">
        <ele>163.3</ele>
        <time>2014-04-21T08:33:53Z</time>
      </trkpt>
      <trkpt lat="43.58334" lon="6.7718">
        <ele>162.3</ele>
        <time>2014-04-21T08:33:58Z</time>
      </trkpt>
      <trkpt lat="43.58343" lon="6.77182">
        <ele>160.3</ele>
        <time>2014-04-21T08:34:06Z</time>
      </trkpt>
      <trkpt lat="43.58334" lon="6.77176">
        <ele>167.3</ele>
        <time>2014-04-21T08:34:31Z</time>
      </trkpt>
      <trkpt lat="43.58314" lon="6.77173">
        <ele>167.3</ele>
        <time>2014-04-21T08:34:43Z</time>
      </trkpt>
      <trkpt lat="43.58304" lon="6.77175">
        <ele>168.3</ele>
        <time>2014-04-21T08:34:49Z</time>
      </trkpt>
      <trkpt lat="43.58294" lon="6.77172">
        <ele>168.3</ele>
        <time>2014-04-21T08:34:55Z</time>
      </trkpt>
      <trkpt lat="43.58284" lon="6.7717">
        <ele>166.3</ele>
        <time>2014-04-21T08:35:01Z</time>
      </trkpt>
      <trkpt lat="43.58275" lon="6.77164">
        <ele>167.3</ele>
        <time>2014-04-21T08:35:07Z</time>
      </trkpt>
      <trkpt lat="43.58275" lon="6.77151">
        <ele>170.3</ele>
        <time>2014-04-21T08:35:12Z</time>
      </trkpt>
      <trkpt lat="43.58278" lon="6.77138">
        <ele>172.3</ele>
        <time>2014-04-21T08:35:17Z</time>
      </trkpt>
      <trkpt lat="43.58278" lon="6.77124">
        <ele>174.3</ele>
        <time>2014-04-21T08:35:23Z</time>
      </trkpt>
      <trkpt lat="43.58277" lon="6.7711">
        <ele>175.3</ele>
        <time>2014-04-21T08:35:29Z</time>
      </trkpt>
      <trkpt lat="43.58276" lon="6.77097">
        <ele>178.3</ele>
        <time>2014-04-21T08:35:34Z</time>
      </trkpt>
      <trkpt lat="43.58265" lon="6.77075">
        <ele>180.3</ele>
        <time>2014-04-21T08:35:45Z</time>
      </trkpt>
      <trkpt lat="43.58258" lon="6.77064">
        <ele>185.3</ele>
        <time>2014-04-21T08:35:51Z</time>
      </trkpt>
      <trkpt lat="43.58251" lon="6.77055">
        <ele>184.3</ele>
        <time>2014-04-21T08:35:56Z</time>
      </trkpt>
      <trkpt lat="43.58243" lon="6.77046">
        <ele>184.3</ele>
        <time>2014-04-21T08:36:00Z</time>
      </trkpt>
      <trkpt lat="43.58234" lon="6.77037">
        <ele>182.3</ele>
        <time>2014-04-21T08:36:03Z</time>
      </trkpt>
      <trkpt lat="43.58227" lon="6.77028">
        <ele>182.3</ele>
        <time>2014-04-21T08:36:06Z</time>
      </trkpt>
      <trkpt lat="43.58219" lon="6.7702">
        <ele>180.3</ele>
        <time>2014-04-21T08:36:09Z</time>
      </trkpt>
      <trkpt lat="43.58212" lon="6.77011">
        <ele>179.3</ele>
        <time>2014-04-21T08:36:12Z</time>
      </trkpt>
      <trkpt lat="43.58204" lon="6.77">
        <ele>177.3</ele>
        <time>2014-04-21T08:36:15Z</time>
      </trkpt>
      <trkpt lat="43.58196" lon="6.76988">
        <ele>178.3</ele>
        <time>2014-04-21T08:36:18Z</time>
      </trkpt>
      <trkpt lat="43.58187" lon="6.76979">
        <ele>178.3</ele>
        <time>2014-04-21T08:36:21Z</time>
      </trkpt>
      <trkpt lat="43.5818" lon="6.76966">
        <ele>180.3</ele>
        <time>2014-04-21T08:36:24Z</time>
      </trkpt>
      <trkpt lat="43.58175" lon="6.76951">
        <ele>180.3</ele>
        <time>2014-04-21T08:36:27Z</time>
      </trkpt>
      <trkpt lat="43.58171" lon="6.76937">
        <ele>182.3</ele>
        <time>2014-04-21T08:36:30Z</time>
      </trkpt>
      <trkpt lat="43.58169" lon="6.76922">
        <ele>182.3</ele>
        <time>2014-04-21T08:36:33Z</time>
      </trkpt>
      <trkpt lat="43.58165" lon="6.76908">
        <ele>182.3</ele>
        <time>2014-04-21T08:36:36Z</time>
      </trkpt>
      <trkpt lat="43.58154" lon="6.76884">
        <ele>180.3</ele>
        <time>2014-04-21T08:36:42Z</time>
      </trkpt>
      <trkpt lat="43.58151" lon="6.7687">
        <ele>181.3</ele>
        <time>2014-04-21T08:36:45Z</time>
      </trkpt>
      <trkpt lat="43.58149" lon="6.76855">
        <ele>181.3</ele>
        <time>2014-04-21T08:36:48Z</time>
      </trkpt>
      <trkpt lat="43.58147" lon="6.76839">
        <ele>181.3</ele>
        <time>2014-04-21T08:36:50Z</time>
      </trkpt>
      <trkpt lat="43.58145" lon="6.76825">
        <ele>181.3</ele>
        <time>2014-04-21T08:36:52Z</time>
      </trkpt>
      <trkpt lat="43.58143" lon="6.7681">
        <ele>180.3</ele>
        <time>2014-04-21T08:36:54Z</time>
      </trkpt>
      <trkpt lat="43.58139" lon="6.76794">
        <ele>178.3</ele>
        <time>2014-04-21T08:36:56Z</time>
      </trkpt>
      <trkpt lat="43.58137" lon="6.76779">
        <ele>178.3</ele>
        <time>2014-04-21T08:36:58Z</time>
      </trkpt>
      <trkpt lat="43.58134" lon="6.76759">
        <ele>178.3</ele>
        <time>2014-04-21T08:37:00Z</time>
      </trkpt>
      <trkpt lat="43.58129" lon="6.7674">
        <ele>177.3</ele>
        <time>2014-04-21T08:37:02Z</time>
      </trkpt>
      <trkpt lat="43.58123" lon="6.76724">
        <ele>176.3</ele>
        <time>2014-04-21T08:37:04Z</time>
      </trkpt>
      <trkpt lat="43.58118" lon="6.76706">
        <ele>175.3</ele>
        <time>2014-04-21T08:37:06Z</time>
      </trkpt>
      <trkpt lat="43.58112" lon="6.76692">
        <ele>173.3</ele>
        <time>2014-04-21T08:37:08Z</time>
      </trkpt>
      <trkpt lat="43.58105" lon="6.76682">
        <ele>174.3</ele>
        <time>2014-04-21T08:37:10Z</time>
      </trkpt>
      <trkpt lat="43.58096" lon="6.76674">
        <ele>173.3</ele>
        <time>2014-04-21T08:37:13Z</time>
      </trkpt>
      <trkpt lat="43.58084" lon="6.7667">
        <ele>174.3</ele>
        <time>2014-04-21T08:37:16Z</time>
      </trkpt>
      <trkpt lat="43.58074" lon="6.76663">
        <ele>174.3</ele>
        <time>2014-04-21T08:37:20Z</time>
      </trkpt>
      <trkpt lat="43.58065" lon="6.76657">
        <ele>174.3</ele>
        <time>2014-04-21T08:37:23Z</time>
      </trkpt>
      <trkpt lat="43.58055" lon="6.76653">
        <ele>172.3</ele>
        <time>2014-04-21T08:37:25Z</time>
      </trkpt>
      <trkpt lat="43.58045" lon="6.7665">
        <ele>171.3</ele>
        <time>2014-04-21T08:37:27Z</time>
      </trkpt>
      <trkpt lat="43.58034" lon="6.76642">
        <ele>171.3</ele>
        <time>2014-04-21T08:37:30Z</time>
      </trkpt>
      <trkpt lat="43.58027" lon="6.76632">
        <ele>171.3</ele>
        <time>2014-04-21T08:37:32Z</time>
      </trkpt>
      <trkpt lat="43.58018" lon="6.76625">
        <ele>170.3</ele>
        <time>2014-04-21T08:37:34Z</time>
      </trkpt>
      <trkpt lat="43.58009" lon="6.76613">
        <ele>169.3</ele>
        <time>2014-04-21T08:37:37Z</time>
      </trkpt>
      <trkpt lat="43.5799" lon="6.76591">
        <ele>170.3</ele>
        <time>2014-04-21T08:37:43Z</time>
      </trkpt>
      <trkpt lat="43.57979" lon="6.7658">
        <ele>168.3</ele>
        <time>2014-04-21T08:37:46Z</time>
      </trkpt>
      <trkpt lat="43.57972" lon="6.76572">
        <ele>168.3</ele>
        <time>2014-04-21T08:37:48Z</time>
      </trkpt>
      <trkpt lat="43.57964" lon="6.76564">
        <ele>167.3</ele>
        <time>2014-04-21T08:37:50Z</time>
      </trkpt>
      <trkpt lat="43.57955" lon="6.76557">
        <ele>166.3</ele>
        <time>2014-04-21T08:37:52Z</time>
      </trkpt>
      <trkpt lat="43.57944" lon="6.76555">
        <ele>168.3</ele>
        <time>2014-04-21T08:37:54Z</time>
      </trkpt>
      <trkpt lat="43.57929" lon="6.76558">
        <ele>166.3</ele>
        <time>2014-04-21T08:37:56Z</time>
      </trkpt>
      <trkpt lat="43.57918" lon="6.76555">
        <ele>168.3</ele>
        <time>2014-04-21T08:37:58Z</time>
      </trkpt>
      <trkpt lat="43.57905" lon="6.76554">
        <ele>169.3</ele>
        <time>2014-04-21T08:38:00Z</time>
      </trkpt>
      <trkpt lat="43.57891" lon="6.7655">
        <ele>169.3</ele>
        <time>2014-04-21T08:38:02Z</time>
      </trkpt>
      <trkpt lat="43.57881" lon="6.7654">
        <ele>171.3</ele>
        <time>2014-04-21T08:38:04Z</time>
      </trkpt>
      <trkpt lat="43.5787" lon="6.76529">
        <ele>171.3</ele>
        <time>2014-04-21T08:38:06Z</time>
      </trkpt>
      <trkpt lat="43.57858" lon="6.7652">
        <ele>172.3</ele>
        <time>2014-04-21T08:38:08Z</time>
      </trkpt>
      <trkpt lat="43.57851" lon="6.76502">
        <ele>171.3</ele>
        <time>2014-04-21T08:38:10Z</time>
      </trkpt>
      <trkpt lat="43.57843" lon="6.76485">
        <ele>172.3</ele>
        <time>2014-04-21T08:38:12Z</time>
      </trkpt>
      <trkpt lat="43.57836" lon="6.76467">
        <ele>171.3</ele>
        <time>2014-04-21T08:38:14Z</time>
      </trkpt>
      <trkpt lat="43.5783" lon="6.76447">
        <ele>170.3</ele>
        <time>2014-04-21T08:38:16Z</time>
      </trkpt>
      <trkpt lat="43.57823" lon="6.76428">
        <ele>170.3</ele>
        <time>2014-04-21T08:38:18Z</time>
      </trkpt>
      <trkpt lat="43.57814" lon="6.76415">
        <ele>170.3</ele>
        <time>2014-04-21T08:38:20Z</time>
      </trkpt>
      <trkpt lat="43.57808" lon="6.76399">
        <ele>171.3</ele>
        <time>2014-04-21T08:38:22Z</time>
      </trkpt>
      <trkpt lat="43.57803" lon="6.76384">
        <ele>171.3</ele>
        <time>2014-04-21T08:38:24Z</time>
      </trkpt>
      <trkpt lat="43.57801" lon="6.7637">
        <ele>169.3</ele>
        <time>2014-04-21T08:38:26Z</time>
      </trkpt>
      <trkpt lat="43.57798" lon="6.76358">
        <ele>168.3</ele>
        <time>2014-04-21T08:38:28Z</time>
      </trkpt>
      <trkpt lat="43.57799" lon="6.76342">
        <ele>168.3</ele>
        <time>2014-04-21T08:38:30Z</time>
      </trkpt>
      <trkpt lat="43.57798" lon="6.76328">
        <ele>166.3</ele>
        <time>2014-04-21T08:38:32Z</time>
      </trkpt>
      <trkpt lat="43.57796" lon="6.76316">
        <ele>167.3</ele>
        <time>2014-04-21T08:38:34Z</time>
      </trkpt>
      <trkpt lat="43.57794" lon="6.76299">
        <ele>169.3</ele>
        <time>2014-04-21T08:38:37Z</time>
      </trkpt>
      <trkpt lat="43.57791" lon="6.76268">
        <ele>165.3</ele>
        <time>2014-04-21T08:38:42Z</time>
      </trkpt>
      <trkpt lat="43.57792" lon="6.76256">
        <ele>164.3</ele>
        <time>2014-04-21T08:38:44Z</time>
      </trkpt>
      <trkpt lat="43.57791" lon="6.76237">
        <ele>163.3</ele>
        <time>2014-04-21T08:38:47Z</time>
      </trkpt>
      <trkpt lat="43.57788" lon="6.76224">
        <ele>161.3</ele>
        <time>2014-04-21T08:38:50Z</time>
      </trkpt>
      <trkpt lat="43.57786" lon="6.76211">
        <ele>162.3</ele>
        <time>2014-04-21T08:38:53Z</time>
      </trkpt>
      <trkpt lat="43.57782" lon="6.76194">
        <ele>164.3</ele>
        <time>2014-04-21T08:38:56Z</time>
      </trkpt>
      <trkpt lat="43.57774" lon="6.7618">
        <ele>168.3</ele>
        <time>2014-04-21T08:38:59Z</time>
      </trkpt>
      <trkpt lat="43.57767" lon="6.76167">
        <ele>168.3</ele>
        <time>2014-04-21T08:39:01Z</time>
      </trkpt>
      <trkpt lat="43.57759" lon="6.7616">
        <ele>170.3</ele>
        <time>2014-04-21T08:39:03Z</time>
      </trkpt>
      <trkpt lat="43.57751" lon="6.76151">
        <ele>170.3</ele>
        <time>2014-04-21T08:39:05Z</time>
      </trkpt>
      <trkpt lat="43.57746" lon="6.76141">
        <ele>169.3</ele>
        <time>2014-04-21T08:39:07Z</time>
      </trkpt>
      <trkpt lat="43.57738" lon="6.76133">
        <ele>170.3</ele>
        <time>2014-04-21T08:39:09Z</time>
      </trkpt>
      <trkpt lat="43.57728" lon="6.76123">
        <ele>171.3</ele>
        <time>2014-04-21T08:39:12Z</time>
      </trkpt>
      <trkpt lat="43.57718" lon="6.76112">
        <ele>172.3</ele>
        <time>2014-04-21T08:39:15Z</time>
      </trkpt>
      <trkpt lat="43.5771" lon="6.76102">
        <ele>171.3</ele>
        <time>2014-04-21T08:39:18Z</time>
      </trkpt>
      <trkpt lat="43.57701" lon="6.7609">
        <ele>170.3</ele>
        <time>2014-04-21T08:39:21Z</time>
      </trkpt>
      <trkpt lat="43.57693" lon="6.76077">
        <ele>168.3</ele>
        <time>2014-04-21T08:39:23Z</time>
      </trkpt>
      <trkpt lat="43.57685" lon="6.76062">
        <ele>166.3</ele>
        <time>2014-04-21T08:39:25Z</time>
      </trkpt>
      <trkpt lat="43.57681" lon="6.76045">
        <ele>164.3</ele>
        <time>2014-04-21T08:39:27Z</time>
      </trkpt>
      <trkpt lat="43.57681" lon="6.76032">
        <ele>164.3</ele>
        <time>2014-04-21T08:39:29Z</time>
      </trkpt>
      <trkpt lat="43.57683" lon="6.76017">
        <ele>162.3</ele>
        <time>2014-04-21T08:39:32Z</time>
      </trkpt>
      <trkpt lat="43.57682" lon="6.76001">
        <ele>164.3</ele>
        <time>2014-04-21T08:39:35Z</time>
      </trkpt>
      <trkpt lat="43.57678" lon="6.75987">
        <ele>168.3</ele>
        <time>2014-04-21T08:39:39Z</time>
      </trkpt>
      <trkpt lat="43.57673" lon="6.75958">
        <ele>169.3</ele>
        <time>2014-04-21T08:39:46Z</time>
      </trkpt>
      <trkpt lat="43.57672" lon="6.75942">
        <ele>169.3</ele>
        <time>2014-04-21T08:39:50Z</time>
      </trkpt>
      <trkpt lat="43.5767" lon="6.75929">
        <ele>169.3</ele>
        <time>2014-04-21T08:39:53Z</time>
      </trkpt>
      <trkpt lat="43.57667" lon="6.75916">
        <ele>169.3</ele>
        <time>2014-04-21T08:39:56Z</time>
      </trkpt>
      <trkpt lat="43.57662" lon="6.75896">
        <ele>168.3</ele>
        <time>2014-04-21T08:39:59Z</time>
      </trkpt>
      <trkpt lat="43.57657" lon="6.75882">
        <ele>171.3</ele>
        <time>2014-04-21T08:40:02Z</time>
      </trkpt>
      <trkpt lat="43.57655" lon="6.75866">
        <ele>171.3</ele>
        <time>2014-04-21T08:40:05Z</time>
      </trkpt>
      <trkpt lat="43.57652" lon="6.75851">
        <ele>171.3</ele>
        <time>2014-04-21T08:40:08Z</time>
      </trkpt>
      <trkpt lat="43.57646" lon="6.7584">
        <ele>170.3</ele>
        <time>2014-04-21T08:40:11Z</time>
      </trkpt>
      <trkpt lat="43.57637" lon="6.75835">
        <ele>174.3</ele>
        <time>2014-04-21T08:40:15Z</time>
      </trkpt>
      <trkpt lat="43.57632" lon="6.75845">
        <ele>173.3</ele>
        <time>2014-04-21T08:40:20Z</time>
      </trkpt>
      <trkpt lat="43.57634" lon="6.75858">
        <ele>171.3</ele>
        <time>2014-04-21T08:40:26Z</time>
      </trkpt>
      <trkpt lat="43.57635" lon="6.75872">
        <ele>175.3</ele>
        <time>2014-04-21T08:40:36Z</time>
      </trkpt>
      <trkpt lat="43.57638" lon="6.75885">
        <ele>175.3</ele>
        <time>2014-04-21T08:40:43Z</time>
      </trkpt>
      <trkpt lat="43.57632" lon="6.75909">
        <ele>177.3</ele>
        <time>2014-04-21T08:40:57Z</time>
      </trkpt>
      <trkpt lat="43.57626" lon="6.75919">
        <ele>175.3</ele>
        <time>2014-04-21T08:41:04Z</time>
      </trkpt>
      <trkpt lat="43.57616" lon="6.7592">
        <ele>177.3</ele>
        <time>2014-04-21T08:41:11Z</time>
      </trkpt>
      <trkpt lat="43.57606" lon="6.75916">
        <ele>177.3</ele>
        <time>2014-04-21T08:41:17Z</time>
      </trkpt>
      <trkpt lat="43.57601" lon="6.75906">
        <ele>180.3</ele>
        <time>2014-04-21T08:41:23Z</time>
      </trkpt>
      <trkpt lat="43.57598" lon="6.75893">
        <ele>183.3</ele>
        <time>2014-04-21T08:41:30Z</time>
      </trkpt>
      <trkpt lat="43.57593" lon="6.75881">
        <ele>184.3</ele>
        <time>2014-04-21T08:41:37Z</time>
      </trkpt>
      <trkpt lat="43.57583" lon="6.75885">
        <ele>189.3</ele>
        <time>2014-04-21T08:41:46Z</time>
      </trkpt>
      <trkpt lat="43.57575" lon="6.75909">
        <ele>191.3</ele>
        <time>2014-04-21T08:42:02Z</time>
      </trkpt>
      <trkpt lat="43.57568" lon="6.75917">
        <ele>191.3</ele>
        <time>2014-04-21T08:42:08Z</time>
      </trkpt>
      <trkpt lat="43.57559" lon="6.75921">
        <ele>192.3</ele>
        <time>2014-04-21T08:42:14Z</time>
      </trkpt>
      <trkpt lat="43.5755" lon="6.75925">
        <ele>193.3</ele>
        <time>2014-04-21T08:42:20Z</time>
      </trkpt>
      <trkpt lat="43.57541" lon="6.7593">
        <ele>194.3</ele>
        <time>2014-04-21T08:42:26Z</time>
      </trkpt>
      <trkpt lat="43.57531" lon="6.75929">
        <ele>194.3</ele>
        <time>2014-04-21T08:42:32Z</time>
      </trkpt>
      <trkpt lat="43.57523" lon="6.75921">
        <ele>194.3</ele>
        <time>2014-04-21T08:42:37Z</time>
      </trkpt>
      <trkpt lat="43.57517" lon="6.7591">
        <ele>197.3</ele>
        <time>2014-04-21T08:42:42Z</time>
      </trkpt>
      <trkpt lat="43.57512" lon="6.75899">
        <ele>199.3</ele>
        <time>2014-04-21T08:42:47Z</time>
      </trkpt>
      <trkpt lat="43.57498" lon="6.7588">
        <ele>201.3</ele>
        <time>2014-04-21T08:42:58Z</time>
      </trkpt>
      <trkpt lat="43.57495" lon="6.75868">
        <ele>204.3</ele>
        <time>2014-04-21T08:43:03Z</time>
      </trkpt>
      <trkpt lat="43.57493" lon="6.75854">
        <ele>205.3</ele>
        <time>2014-04-21T08:43:09Z</time>
      </trkpt>
      <trkpt lat="43.57494" lon="6.75841">
        <ele>207.3</ele>
        <time>2014-04-21T08:43:14Z</time>
      </trkpt>
      <trkpt lat="43.57492" lon="6.75828">
        <ele>206.3</ele>
        <time>2014-04-21T08:43:20Z</time>
      </trkpt>
      <trkpt lat="43.57488" lon="6.75815">
        <ele>205.3</ele>
        <time>2014-04-21T08:43:26Z</time>
      </trkpt>
      <trkpt lat="43.57484" lon="6.75804">
        <ele>206.3</ele>
        <time>2014-04-21T08:43:32Z</time>
      </trkpt>
      <trkpt lat="43.57478" lon="6.75793">
        <ele>207.3</ele>
        <time>2014-04-21T08:43:39Z</time>
      </trkpt>
      <trkpt lat="43.57472" lon="6.75783">
        <ele>205.3</ele>
        <time>2014-04-21T08:43:45Z</time>
      </trkpt>
      <trkpt lat="43.57465" lon="6.75774">
        <ele>206.3</ele>
        <time>2014-04-21T08:43:50Z</time>
      </trkpt>
      <trkpt lat="43.57452" lon="6.75753">
        <ele>205.3</ele>
        <time>2014-04-21T08:44:00Z</time>
      </trkpt>
      <trkpt lat="43.57447" lon="6.75743">
        <ele>205.3</ele>
        <time>2014-04-21T08:44:05Z</time>
      </trkpt>
      <trkpt lat="43.5744" lon="6.75732">
        <ele>207.3</ele>
        <time>2014-04-21T08:44:11Z</time>
      </trkpt>
      <trkpt lat="43.57432" lon="6.75724">
        <ele>207.3</ele>
        <time>2014-04-21T08:44:17Z</time>
      </trkpt>
      <trkpt lat="43.57423" lon="6.75718">
        <ele>206.3</ele>
        <time>2014-04-21T08:44:23Z</time>
      </trkpt>
      <trkpt lat="43.57415" lon="6.7571">
        <ele>207.3</ele>
        <time>2014-04-21T08:44:29Z</time>
      </trkpt>
      <trkpt lat="43.57409" lon="6.75699">
        <ele>205.3</ele>
        <time>2014-04-21T08:44:35Z</time>
      </trkpt>
      <trkpt lat="43.57401" lon="6.75689">
        <ele>208.3</ele>
        <time>2014-04-21T08:44:42Z</time>
      </trkpt>
      <trkpt lat="43.57393" lon="6.75679">
        <ele>211.3</ele>
        <time>2014-04-21T08:44:48Z</time>
      </trkpt>
      <trkpt lat="43.57387" lon="6.7567">
        <ele>212.3</ele>
        <time>2014-04-21T08:44:53Z</time>
      </trkpt>
      <trkpt lat="43.57374" lon="6.75652">
        <ele>217.3</ele>
        <time>2014-04-21T08:45:03Z</time>
      </trkpt>
      <trkpt lat="43.57366" lon="6.75643">
        <ele>217.3</ele>
        <time>2014-04-21T08:45:09Z</time>
      </trkpt>
      <trkpt lat="43.5736" lon="6.75632">
        <ele>219.3</ele>
        <time>2014-04-21T08:45:16Z</time>
      </trkpt>
      <trkpt lat="43.57354" lon="6.75622">
        <ele>218.3</ele>
        <time>2014-04-21T08:45:22Z</time>
      </trkpt>
      <trkpt lat="43.57349" lon="6.75612">
        <ele>218.3</ele>
        <time>2014-04-21T08:45:28Z</time>
      </trkpt>
      <trkpt lat="43.57342" lon="6.75603">
        <ele>220.3</ele>
        <time>2014-04-21T08:45:34Z</time>
      </trkpt>
      <trkpt lat="43.57335" lon="6.75595">
        <ele>220.3</ele>
        <time>2014-04-21T08:45:40Z</time>
      </trkpt>
      <trkpt lat="43.57328" lon="6.75586">
        <ele>221.3</ele>
        <time>2014-04-21T08:45:46Z</time>
      </trkpt>
      <trkpt lat="43.5732" lon="6.75577">
        <ele>220.3</ele>
        <time>2014-04-21T08:45:53Z</time>
      </trkpt>
      <trkpt lat="43.57314" lon="6.75565">
        <ele>219.3</ele>
        <time>2014-04-21T08:46:00Z</time>
      </trkpt>
      <trkpt lat="43.57321" lon="6.75555">
        <ele>222.3</ele>
        <time>2014-04-21T08:46:19Z</time>
      </trkpt>
      <trkpt lat="43.57326" lon="6.7557">
        <ele>222.3</ele>
        <time>2014-04-21T08:46:22Z</time>
      </trkpt>
      <trkpt lat="43.57332" lon="6.75583">
        <ele>221.3</ele>
        <time>2014-04-21T08:46:25Z</time>
      </trkpt>
      <trkpt lat="43.57337" lon="6.75593">
        <ele>222.3</ele>
        <time>2014-04-21T08:46:28Z</time>
      </trkpt>
      <trkpt lat="43.57326" lon="6.75588">
        <ele>219.3</ele>
        <time>2014-04-21T08:46:35Z</time>
      </trkpt>
      <trkpt lat="43.57318" lon="6.75577">
        <ele>220.3</ele>
        <time>2014-04-21T08:46:40Z</time>
      </trkpt>
      <trkpt lat="43.57313" lon="6.75565">
        <ele>222.3</ele>
        <time>2014-04-21T08:46:45Z</time>
      </trkpt>
      <trkpt lat="43.57312" lon="6.75551">
        <ele>222.3</ele>
        <time>2014-04-21T08:46:50Z</time>
      </trkpt>
      <trkpt lat="43.57309" lon="6.75538">
        <ele>224.3</ele>
        <time>2014-04-21T08:46:55Z</time>
      </trkpt>
      <trkpt lat="43.57306" lon="6.75525">
        <ele>225.3</ele>
        <time>2014-04-21T08:47:00Z</time>
      </trkpt>
      <trkpt lat="43.57301" lon="6.75513">
        <ele>226.3</ele>
        <time>2014-04-21T08:47:05Z</time>
      </trkpt>
      <trkpt lat="43.57292" lon="6.75488">
        <ele>227.3</ele>
        <time>2014-04-21T08:47:17Z</time>
      </trkpt>
      <trkpt lat="43.57293" lon="6.75474">
        <ele>228.3</ele>
        <time>2014-04-21T08:47:23Z</time>
      </trkpt>
      <trkpt lat="43.57299" lon="6.75463">
        <ele>230.3</ele>
        <time>2014-04-21T08:47:30Z</time>
      </trkpt>
      <trkpt lat="43.57307" lon="6.75453">
        <ele>229.3</ele>
        <time>2014-04-21T08:47:36Z</time>
      </trkpt>
      <trkpt lat="43.57312" lon="6.7544">
        <ele>229.3</ele>
        <time>2014-04-21T08:47:42Z</time>
      </trkpt>
      <trkpt lat="43.57315" lon="6.75427">
        <ele>229.3</ele>
        <time>2014-04-21T08:47:48Z</time>
      </trkpt>
      <trkpt lat="43.57317" lon="6.75414">
        <ele>230.3</ele>
        <time>2014-04-21T08:47:54Z</time>
      </trkpt>
      <trkpt lat="43.57317" lon="6.75401">
        <ele>231.3</ele>
        <time>2014-04-21T08:48:00Z</time>
      </trkpt>
      <trkpt lat="43.57316" lon="6.75387">
        <ele>233.3</ele>
        <time>2014-04-21T08:48:06Z</time>
      </trkpt>
      <trkpt lat="43.57315" lon="6.75362">
        <ele>237.3</ele>
        <time>2014-04-21T08:48:18Z</time>
      </trkpt>
      <trkpt lat="43.57313" lon="6.75349">
        <ele>239.3</ele>
        <time>2014-04-21T08:48:24Z</time>
      </trkpt>
      <trkpt lat="43.57314" lon="6.75336">
        <ele>241.3</ele>
        <time>2014-04-21T08:48:30Z</time>
      </trkpt>
      <trkpt lat="43.57313" lon="6.75324">
        <ele>242.3</ele>
        <time>2014-04-21T08:48:36Z</time>
      </trkpt>
      <trkpt lat="43.57304" lon="6.7532">
        <ele>245.3</ele>
        <time>2014-04-21T08:48:42Z</time>
      </trkpt>
      <trkpt lat="43.57295" lon="6.75326">
        <ele>247.3</ele>
        <time>2014-04-21T08:48:51Z</time>
      </trkpt>
      <trkpt lat="43.57287" lon="6.75317">
        <ele>247.3</ele>
        <time>2014-04-21T08:48:59Z</time>
      </trkpt>
      <trkpt lat="43.57283" lon="6.75305">
        <ele>248.3</ele>
        <time>2014-04-21T08:49:04Z</time>
      </trkpt>
      <trkpt lat="43.57283" lon="6.75292">
        <ele>249.3</ele>
        <time>2014-04-21T08:49:09Z</time>
      </trkpt>
      <trkpt lat="43.57285" lon="6.75266">
        <ele>251.3</ele>
        <time>2014-04-21T08:49:19Z</time>
      </trkpt>
      <trkpt lat="43.57283" lon="6.75252">
        <ele>252.3</ele>
        <time>2014-04-21T08:49:24Z</time>
      </trkpt>
      <trkpt lat="43.57282" lon="6.75238">
        <ele>253.3</ele>
        <time>2014-04-21T08:49:29Z</time>
      </trkpt>
      <trkpt lat="43.57281" lon="6.75224">
        <ele>253.3</ele>
        <time>2014-04-21T08:49:34Z</time>
      </trkpt>
      <trkpt lat="43.57277" lon="6.75211">
        <ele>253.3</ele>
        <time>2014-04-21T08:49:39Z</time>
      </trkpt>
      <trkpt lat="43.57274" lon="6.75197">
        <ele>254.3</ele>
        <time>2014-04-21T08:49:44Z</time>
      </trkpt>
      <trkpt lat="43.5727" lon="6.75184">
        <ele>254.3</ele>
        <time>2014-04-21T08:49:49Z</time>
      </trkpt>
      <trkpt lat="43.57266" lon="6.75171">
        <ele>253.3</ele>
        <time>2014-04-21T08:49:54Z</time>
      </trkpt>
      <trkpt lat="43.57262" lon="6.75159">
        <ele>254.3</ele>
        <time>2014-04-21T08:49:59Z</time>
      </trkpt>
      <trkpt lat="43.57257" lon="6.75148">
        <ele>255.3</ele>
        <time>2014-04-21T08:50:04Z</time>
      </trkpt>
      <trkpt lat="43.57252" lon="6.75137">
        <ele>258.3</ele>
        <time>2014-04-21T08:50:09Z</time>
      </trkpt>
      <trkpt lat="43.57247" lon="6.75125">
        <ele>260.3</ele>
        <time>2014-04-21T08:50:14Z</time>
      </trkpt>
      <trkpt lat="43.57236" lon="6.751">
        <ele>257.3</ele>
        <time>2014-04-21T08:50:24Z</time>
      </trkpt>
      <trkpt lat="43.57231" lon="6.75087">
        <ele>259.3</ele>
        <time>2014-04-21T08:50:29Z</time>
      </trkpt>
      <trkpt lat="43.57227" lon="6.75073">
        <ele>258.3</ele>
        <time>2014-04-21T08:50:34Z</time>
      </trkpt>
      <trkpt lat="43.57224" lon="6.75061">
        <ele>260.3</ele>
        <time>2014-04-21T08:50:39Z</time>
      </trkpt>
      <trkpt lat="43.5722" lon="6.75049">
        <ele>261.3</ele>
        <time>2014-04-21T08:50:44Z</time>
      </trkpt>
      <trkpt lat="43.57214" lon="6.75037">
        <ele>261.3</ele>
        <time>2014-04-21T08:50:49Z</time>
      </trkpt>
      <trkpt lat="43.5721" lon="6.75026">
        <ele>262.3</ele>
        <time>2014-04-21T08:50:54Z</time>
      </trkpt>
      <trkpt lat="43.57204" lon="6.75014">
        <ele>261.3</ele>
        <time>2014-04-21T08:50:59Z</time>
      </trkpt>
      <trkpt lat="43.57201" lon="6.75001">
        <ele>260.3</ele>
        <time>2014-04-21T08:51:04Z</time>
      </trkpt>
      <trkpt lat="43.57199" lon="6.74988">
        <ele>264.3</ele>
        <time>2014-04-21T08:51:09Z</time>
      </trkpt>
      <trkpt lat="43.57195" lon="6.74976">
        <ele>265.3</ele>
        <time>2014-04-21T08:51:14Z</time>
      </trkpt>
      <trkpt lat="43.57183" lon="6.74955">
        <ele>268.3</ele>
        <time>2014-04-21T08:51:24Z</time>
      </trkpt>
      <trkpt lat="43.57178" lon="6.74944">
        <ele>270.3</ele>
        <time>2014-04-21T08:51:29Z</time>
      </trkpt>
      <trkpt lat="43.57174" lon="6.74932">
        <ele>269.3</ele>
        <time>2014-04-21T08:51:34Z</time>
      </trkpt>
      <trkpt lat="43.57171" lon="6.7492">
        <ele>272.3</ele>
        <time>2014-04-21T08:51:39Z</time>
      </trkpt>
      <trkpt lat="43.57172" lon="6.74907">
        <ele>273.3</ele>
        <time>2014-04-21T08:51:44Z</time>
      </trkpt>
      <trkpt lat="43.57171" lon="6.74894">
        <ele>275.3</ele>
        <time>2014-04-21T08:51:49Z</time>
      </trkpt>
      <trkpt lat="43.57167" lon="6.74881">
        <ele>276.3</ele>
        <time>2014-04-21T08:51:55Z</time>
      </trkpt>
      <trkpt lat="43.57161" lon="6.74871">
        <ele>278.3</ele>
        <time>2014-04-21T08:52:02Z</time>
      </trkpt>
      <trkpt lat="43.57151" lon="6.74871">
        <ele>272.3</ele>
        <time>2014-04-21T08:56:19Z</time>
      </trkpt>
      <trkpt lat="43.57134" lon="6.74883">
        <ele>275.3</ele>
        <time>2014-04-21T08:56:30Z</time>
      </trkpt>
      <trkpt lat="43.57125" lon="6.74884">
        <ele>275.3</ele>
        <time>2014-04-21T08:56:34Z</time>
      </trkpt>
      <trkpt lat="43.57115" lon="6.74883">
        <ele>276.3</ele>
        <time>2014-04-21T08:56:38Z</time>
      </trkpt>
      <trkpt lat="43.57106" lon="6.74881">
        <ele>276.3</ele>
        <time>2014-04-21T08:56:42Z</time>
      </trkpt>
      <trkpt lat="43.57096" lon="6.74879">
        <ele>277.3</ele>
        <time>2014-04-21T08:56:46Z</time>
      </trkpt>
      <trkpt lat="43.57086" lon="6.74879">
        <ele>280.3</ele>
        <time>2014-04-21T08:56:51Z</time>
      </trkpt>
      <trkpt lat="43.57075" lon="6.74878">
        <ele>280.3</ele>
        <time>2014-04-21T08:56:56Z</time>
      </trkpt>
      <trkpt lat="43.57064" lon="6.74875">
        <ele>282.3</ele>
        <time>2014-04-21T08:57:01Z</time>
      </trkpt>
      <trkpt lat="43.57055" lon="6.74871">
        <ele>282.3</ele>
        <time>2014-04-21T08:57:06Z</time>
      </trkpt>
      <trkpt lat="43.57045" lon="6.74866">
        <ele>285.3</ele>
        <time>2014-04-21T08:57:12Z</time>
      </trkpt>
      <trkpt lat="43.57037" lon="6.74859">
        <ele>284.3</ele>
        <time>2014-04-21T08:57:18Z</time>
      </trkpt>
      <trkpt lat="43.57029" lon="6.74854">
        <ele>284.3</ele>
        <time>2014-04-21T08:57:29Z</time>
      </trkpt>
      <trkpt lat="43.57019" lon="6.74895">
        <ele>276.3</ele>
        <time>2014-04-21T09:04:21Z</time>
      </trkpt>
      <trkpt lat="43.57013" lon="6.7491">
        <ele>276.3</ele>
        <time>2014-04-21T09:04:23Z</time>
      </trkpt>
      <trkpt lat="43.57009" lon="6.74922">
        <ele>276.3</ele>
        <time>2014-04-21T09:04:25Z</time>
      </trkpt>
      <trkpt lat="43.57003" lon="6.74939">
        <ele>275.3</ele>
        <time>2014-04-21T09:04:28Z</time>
      </trkpt>
      <trkpt lat="43.56999" lon="6.7495">
        <ele>275.3</ele>
        <time>2014-04-21T09:04:30Z</time>
      </trkpt>
      <trkpt lat="43.56994" lon="6.74962">
        <ele>273.3</ele>
        <time>2014-04-21T09:04:32Z</time>
      </trkpt>
      <trkpt lat="43.56983" lon="6.74978">
        <ele>271.3</ele>
        <time>2014-04-21T09:04:34Z</time>
      </trkpt>
      <trkpt lat="43.56972" lon="6.74989">
        <ele>270.3</ele>
        <time>2014-04-21T09:04:36Z</time>
      </trkpt>
      <trkpt lat="43.5696" lon="6.74998">
        <ele>270.3</ele>
        <time>2014-04-21T09:04:38Z</time>
      </trkpt>
      <trkpt lat="43.56948" lon="6.75002">
        <ele>270.3</ele>
        <time>2014-04-21T09:04:40Z</time>
      </trkpt>
      <trkpt lat="43.56937" lon="6.75004">
        <ele>270.3</ele>
        <time>2014-04-21T09:04:42Z</time>
      </trkpt>
      <trkpt lat="43.56925" lon="6.75005">
        <ele>270.3</ele>
        <time>2014-04-21T09:04:44Z</time>
      </trkpt>
      <trkpt lat="43.56915" lon="6.75007">
        <ele>271.3</ele>
        <time>2014-04-21T09:04:46Z</time>
      </trkpt>
      <trkpt lat="43.56903" lon="6.75007">
        <ele>270.3</ele>
        <time>2014-04-21T09:04:48Z</time>
      </trkpt>
      <trkpt lat="43.56892" lon="6.75003">
        <ele>269.3</ele>
        <time>2014-04-21T09:04:50Z</time>
      </trkpt>
      <trkpt lat="43.56881" lon="6.74994">
        <ele>268.3</ele>
        <time>2014-04-21T09:04:52Z</time>
      </trkpt>
      <trkpt lat="43.56871" lon="6.74981">
        <ele>269.3</ele>
        <time>2014-04-21T09:04:54Z</time>
      </trkpt>
      <trkpt lat="43.56861" lon="6.74966">
        <ele>267.3</ele>
        <time>2014-04-21T09:04:56Z</time>
      </trkpt>
      <trkpt lat="43.56854" lon="6.74955">
        <ele>266.3</ele>
        <time>2014-04-21T09:04:58Z</time>
      </trkpt>
      <trkpt lat="43.5684" lon="6.74955">
        <ele>264.3</ele>
        <time>2014-04-21T09:05:01Z</time>
      </trkpt>
      <trkpt lat="43.56834" lon="6.74966">
        <ele>262.3</ele>
        <time>2014-04-21T09:05:03Z</time>
      </trkpt>
      <trkpt lat="43.56834" lon="6.74979">
        <ele>262.3</ele>
        <time>2014-04-21T09:05:05Z</time>
      </trkpt>
      <trkpt lat="43.56838" lon="6.74991">
        <ele>262.3</ele>
        <time>2014-04-21T09:05:07Z</time>
      </trkpt>
      <trkpt lat="43.56846" lon="6.74999">
        <ele>262.3</ele>
        <time>2014-04-21T09:05:09Z</time>
      </trkpt>
      <trkpt lat="43.56853" lon="6.75008">
        <ele>261.3</ele>
        <time>2014-04-21T09:05:11Z</time>
      </trkpt>
      <trkpt lat="43.56859" lon="6.75021">
        <ele>260.3</ele>
        <time>2014-04-21T09:05:13Z</time>
      </trkpt>
      <trkpt lat="43.56865" lon="6.75037">
        <ele>259.3</ele>
        <time>2014-04-21T09:05:15Z</time>
      </trkpt>
      <trkpt lat="43.5687" lon="6.75055">
        <ele>258.3</ele>
        <time>2014-04-21T09:05:17Z</time>
      </trkpt>
      <trkpt lat="43.56882" lon="6.75082">
        <ele>256.3</ele>
        <time>2014-04-21T09:05:21Z</time>
      </trkpt>
      <trkpt lat="43.56892" lon="6.75091">
        <ele>254.3</ele>
        <time>2014-04-21T09:05:23Z</time>
      </trkpt>
      <trkpt lat="43.56899" lon="6.75103">
        <ele>253.3</ele>
        <time>2014-04-21T09:05:25Z</time>
      </trkpt>
      <trkpt lat="43.56902" lon="6.75116">
        <ele>251.3</ele>
        <time>2014-04-21T09:05:27Z</time>
      </trkpt>
      <trkpt lat="43.56905" lon="6.75128">
        <ele>250.3</ele>
        <time>2014-04-21T09:05:29Z</time>
      </trkpt>
      <trkpt lat="43.56905" lon="6.75141">
        <ele>249.3</ele>
        <time>2014-04-21T09:05:31Z</time>
      </trkpt>
      <trkpt lat="43.56901" lon="6.75153">
        <ele>246.3</ele>
        <time>2014-04-21T09:05:33Z</time>
      </trkpt>
      <trkpt lat="43.56893" lon="6.75163">
        <ele>246.3</ele>
        <time>2014-04-21T09:05:35Z</time>
      </trkpt>
      <trkpt lat="43.56883" lon="6.75174">
        <ele>245.3</ele>
        <time>2014-04-21T09:05:37Z</time>
      </trkpt>
      <trkpt lat="43.56873" lon="6.75186">
        <ele>244.3</ele>
        <time>2014-04-21T09:05:39Z</time>
      </trkpt>
      <trkpt lat="43.56861" lon="6.75198">
        <ele>242.3</ele>
        <time>2014-04-21T09:05:41Z</time>
      </trkpt>
      <trkpt lat="43.56848" lon="6.75208">
        <ele>243.3</ele>
        <time>2014-04-21T09:05:43Z</time>
      </trkpt>
      <trkpt lat="43.56834" lon="6.75213">
        <ele>244.3</ele>
        <time>2014-04-21T09:05:45Z</time>
      </trkpt>
      <trkpt lat="43.5682" lon="6.75214">
        <ele>243.3</ele>
        <time>2014-04-21T09:05:47Z</time>
      </trkpt>
      <trkpt lat="43.56808" lon="6.75212">
        <ele>242.3</ele>
        <time>2014-04-21T09:05:49Z</time>
      </trkpt>
      <trkpt lat="43.56796" lon="6.75211">
        <ele>242.3</ele>
        <time>2014-04-21T09:05:51Z</time>
      </trkpt>
      <trkpt lat="43.56786" lon="6.7521">
        <ele>243.3</ele>
        <time>2014-04-21T09:05:53Z</time>
      </trkpt>
      <trkpt lat="43.56774" lon="6.75212">
        <ele>243.3</ele>
        <time>2014-04-21T09:05:56Z</time>
      </trkpt>
      <trkpt lat="43.56765" lon="6.7521">
        <ele>247.3</ele>
        <time>2014-04-21T09:05:59Z</time>
      </trkpt>
      <trkpt lat="43.56754" lon="6.75211">
        <ele>251.3</ele>
        <time>2014-04-21T09:06:04Z</time>
      </trkpt>
      <trkpt lat="43.56744" lon="6.75214">
        <ele>252.3</ele>
        <time>2014-04-21T09:06:08Z</time>
      </trkpt>
      <trkpt lat="43.56733" lon="6.75218">
        <ele>250.3</ele>
        <time>2014-04-21T09:06:12Z</time>
      </trkpt>
      <trkpt lat="43.56723" lon="6.75219">
        <ele>249.3</ele>
        <time>2014-04-21T09:06:16Z</time>
      </trkpt>
      <trkpt lat="43.56714" lon="6.7522">
        <ele>249.3</ele>
        <time>2014-04-21T09:06:20Z</time>
      </trkpt>
      <trkpt lat="43.56695" lon="6.7522">
        <ele>253.3</ele>
        <time>2014-04-21T09:06:28Z</time>
      </trkpt>
      <trkpt lat="43.56684" lon="6.75221">
        <ele>252.3</ele>
        <time>2014-04-21T09:06:32Z</time>
      </trkpt>
      <trkpt lat="43.56673" lon="6.75222">
        <ele>250.3</ele>
        <time>2014-04-21T09:06:36Z</time>
      </trkpt>
      <trkpt lat="43.56662" lon="6.75222">
        <ele>250.3</ele>
        <time>2014-04-21T09:06:40Z</time>
      </trkpt>
      <trkpt lat="43.56652" lon="6.75224">
        <ele>250.3</ele>
        <time>2014-04-21T09:06:43Z</time>
      </trkpt>
      <trkpt lat="43.56642" lon="6.75224">
        <ele>250.3</ele>
        <time>2014-04-21T09:06:44Z</time>
      </trkpt>
      <trkpt lat="43.5663" lon="6.75225">
        <ele>247.3</ele>
        <time>2014-04-21T09:06:46Z</time>
      </trkpt>
      <trkpt lat="43.56619" lon="6.75229">
        <ele>246.3</ele>
        <time>2014-04-21T09:06:48Z</time>
      </trkpt>
      <trkpt lat="43.56615" lon="6.75241">
        <ele>245.3</ele>
        <time>2014-04-21T09:06:50Z</time>
      </trkpt>
      <trkpt lat="43.56617" lon="6.75255">
        <ele>244.3</ele>
        <time>2014-04-21T09:06:52Z</time>
      </trkpt>
      <trkpt lat="43.56622" lon="6.75271">
        <ele>245.3</ele>
        <time>2014-04-21T09:06:54Z</time>
      </trkpt>
      <trkpt lat="43.56623" lon="6.7529">
        <ele>243.3</ele>
        <time>2014-04-21T09:06:56Z</time>
      </trkpt>
      <trkpt lat="43.56618" lon="6.75305">
        <ele>242.3</ele>
        <time>2014-04-21T09:06:58Z</time>
      </trkpt>
      <trkpt lat="43.5661" lon="6.75314">
        <ele>241.3</ele>
        <time>2014-04-21T09:07:00Z</time>
      </trkpt>
      <trkpt lat="43.56603" lon="6.75321">
        <ele>241.3</ele>
        <time>2014-04-21T09:07:02Z</time>
      </trkpt>
      <trkpt lat="43.56593" lon="6.75331">
        <ele>242.3</ele>
        <time>2014-04-21T09:07:05Z</time>
      </trkpt>
      <trkpt lat="43.56587" lon="6.75343">
        <ele>244.3</ele>
        <time>2014-04-21T09:07:09Z</time>
      </trkpt>
      <trkpt lat="43.56588" lon="6.75357">
        <ele>245.3</ele>
        <time>2014-04-21T09:07:13Z</time>
      </trkpt>
      <trkpt lat="43.56593" lon="6.7537">
        <ele>244.3</ele>
        <time>2014-04-21T09:07:17Z</time>
      </trkpt>
      <trkpt lat="43.56598" lon="6.75381">
        <ele>243.3</ele>
        <time>2014-04-21T09:07:21Z</time>
      </trkpt>
      <trkpt lat="43.56602" lon="6.75408">
        <ele>245.3</ele>
        <time>2014-04-21T09:07:30Z</time>
      </trkpt>
      <trkpt lat="43.56602" lon="6.75422">
        <ele>248.3</ele>
        <time>2014-04-21T09:07:35Z</time>
      </trkpt>
      <trkpt lat="43.56599" lon="6.75434">
        <ele>248.3</ele>
        <time>2014-04-21T09:07:40Z</time>
      </trkpt>
      <trkpt lat="43.56593" lon="6.75444">
        <ele>249.3</ele>
        <time>2014-04-21T09:07:45Z</time>
      </trkpt>
      <trkpt lat="43.56584" lon="6.75453">
        <ele>252.3</ele>
        <time>2014-04-21T09:07:50Z</time>
      </trkpt>
      <trkpt lat="43.56579" lon="6.75466">
        <ele>255.3</ele>
        <time>2014-04-21T09:07:55Z</time>
      </trkpt>
      <trkpt lat="43.56579" lon="6.75481">
        <ele>255.3</ele>
        <time>2014-04-21T09:08:00Z</time>
      </trkpt>
      <trkpt lat="43.56582" lon="6.75496">
        <ele>254.3</ele>
        <time>2014-04-21T09:08:05Z</time>
      </trkpt>
      <trkpt lat="43.56583" lon="6.75508">
        <ele>254.3</ele>
        <time>2014-04-21T09:08:09Z</time>
      </trkpt>
      <trkpt lat="43.56584" lon="6.75523">
        <ele>259.3</ele>
        <time>2014-04-21T09:08:14Z</time>
      </trkpt>
      <trkpt lat="43.56581" lon="6.75536">
        <ele>262.3</ele>
        <time>2014-04-21T09:08:19Z</time>
      </trkpt>
      <trkpt lat="43.56576" lon="6.75548">
        <ele>262.3</ele>
        <time>2014-04-21T09:08:24Z</time>
      </trkpt>
      <trkpt lat="43.5657" lon="6.75572">
        <ele>265.3</ele>
        <time>2014-04-21T09:08:34Z</time>
      </trkpt>
      <trkpt lat="43.56567" lon="6.75586">
        <ele>270.3</ele>
        <time>2014-04-21T09:08:41Z</time>
      </trkpt>
      <trkpt lat="43.5657" lon="6.75601">
        <ele>268.3</ele>
        <time>2014-04-21T09:08:46Z</time>
      </trkpt>
      <trkpt lat="43.56572" lon="6.75616">
        <ele>265.3</ele>
        <time>2014-04-21T09:08:51Z</time>
      </trkpt>
      <trkpt lat="43.5657" lon="6.7563">
        <ele>266.3</ele>
        <time>2014-04-21T09:08:55Z</time>
      </trkpt>
      <trkpt lat="43.56568" lon="6.75643">
        <ele>267.3</ele>
        <time>2014-04-21T09:08:59Z</time>
      </trkpt>
      <trkpt lat="43.56565" lon="6.75657">
        <ele>268.3</ele>
        <time>2014-04-21T09:09:04Z</time>
      </trkpt>
      <trkpt lat="43.56559" lon="6.75668">
        <ele>267.3</ele>
        <time>2014-04-21T09:09:09Z</time>
      </trkpt>
      <trkpt lat="43.56552" lon="6.75679">
        <ele>265.3</ele>
        <time>2014-04-21T09:09:13Z</time>
      </trkpt>
      <trkpt lat="43.56538" lon="6.75694">
        <ele>265.3</ele>
        <time>2014-04-21T09:09:15Z</time>
      </trkpt>
      <trkpt lat="43.56528" lon="6.757">
        <ele>263.3</ele>
        <time>2014-04-21T09:09:17Z</time>
      </trkpt>
      <trkpt lat="43.56518" lon="6.75704">
        <ele>263.3</ele>
        <time>2014-04-21T09:09:19Z</time>
      </trkpt>
      <trkpt lat="43.56507" lon="6.75704">
        <ele>263.3</ele>
        <time>2014-04-21T09:09:21Z</time>
      </trkpt>
      <trkpt lat="43.56496" lon="6.75705">
        <ele>263.3</ele>
        <time>2014-04-21T09:09:23Z</time>
      </trkpt>
      <trkpt lat="43.56482" lon="6.75706">
        <ele>261.3</ele>
        <time>2014-04-21T09:09:25Z</time>
      </trkpt>
      <trkpt lat="43.56455" lon="6.75707">
        <ele>260.3</ele>
        <time>2014-04-21T09:09:29Z</time>
      </trkpt>
      <trkpt lat="43.56442" lon="6.75714">
        <ele>259.3</ele>
        <time>2014-04-21T09:09:31Z</time>
      </trkpt>
      <trkpt lat="43.5643" lon="6.75722">
        <ele>259.3</ele>
        <time>2014-04-21T09:09:33Z</time>
      </trkpt>
      <trkpt lat="43.5642" lon="6.75732">
        <ele>260.3</ele>
        <time>2014-04-21T09:09:35Z</time>
      </trkpt>
      <trkpt lat="43.56411" lon="6.75741">
        <ele>260.3</ele>
        <time>2014-04-21T09:09:37Z</time>
      </trkpt>
      <trkpt lat="43.56403" lon="6.75749">
        <ele>261.3</ele>
        <time>2014-04-21T09:09:39Z</time>
      </trkpt>
      <trkpt lat="43.56393" lon="6.75761">
        <ele>261.3</ele>
        <time>2014-04-21T09:09:42Z</time>
      </trkpt>
      <trkpt lat="43.56386" lon="6.75773">
        <ele>262.3</ele>
        <time>2014-04-21T09:09:45Z</time>
      </trkpt>
      <trkpt lat="43.5638" lon="6.75787">
        <ele>263.3</ele>
        <time>2014-04-21T09:09:48Z</time>
      </trkpt>
      <trkpt lat="43.56374" lon="6.75798">
        <ele>262.3</ele>
        <time>2014-04-21T09:09:51Z</time>
      </trkpt>
      <trkpt lat="43.56368" lon="6.75812">
        <ele>262.3</ele>
        <time>2014-04-21T09:09:54Z</time>
      </trkpt>
      <trkpt lat="43.56363" lon="6.75826">
        <ele>262.3</ele>
        <time>2014-04-21T09:09:57Z</time>
      </trkpt>
      <trkpt lat="43.56359" lon="6.7584">
        <ele>262.3</ele>
        <time>2014-04-21T09:10:00Z</time>
      </trkpt>
      <trkpt lat="43.56354" lon="6.75855">
        <ele>261.3</ele>
        <time>2014-04-21T09:10:03Z</time>
      </trkpt>
      <trkpt lat="43.56351" lon="6.7587">
        <ele>263.3</ele>
        <time>2014-04-21T09:10:06Z</time>
      </trkpt>
      <trkpt lat="43.56347" lon="6.75884">
        <ele>263.3</ele>
        <time>2014-04-21T09:10:09Z</time>
      </trkpt>
      <trkpt lat="43.56341" lon="6.75897">
        <ele>265.3</ele>
        <time>2014-04-21T09:10:12Z</time>
      </trkpt>
      <trkpt lat="43.56334" lon="6.75905">
        <ele>266.3</ele>
        <time>2014-04-21T09:10:15Z</time>
      </trkpt>
      <trkpt lat="43.56327" lon="6.75914">
        <ele>267.3</ele>
        <time>2014-04-21T09:10:19Z</time>
      </trkpt>
      <trkpt lat="43.56319" lon="6.75924">
        <ele>268.3</ele>
        <time>2014-04-21T09:10:24Z</time>
      </trkpt>
      <trkpt lat="43.56311" lon="6.75933">
        <ele>268.3</ele>
        <time>2014-04-21T09:10:29Z</time>
      </trkpt>
      <trkpt lat="43.56292" lon="6.75945">
        <ele>270.3</ele>
        <time>2014-04-21T09:10:39Z</time>
      </trkpt>
      <trkpt lat="43.56282" lon="6.75946">
        <ele>273.3</ele>
        <time>2014-04-21T09:10:44Z</time>
      </trkpt>
      <trkpt lat="43.56272" lon="6.75948">
        <ele>275.3</ele>
        <time>2014-04-21T09:10:49Z</time>
      </trkpt>
      <trkpt lat="43.56264" lon="6.75942">
        <ele>275.3</ele>
        <time>2014-04-21T09:10:55Z</time>
      </trkpt>
      <trkpt lat="43.56259" lon="6.75929">
        <ele>277.3</ele>
        <time>2014-04-21T09:11:01Z</time>
      </trkpt>
      <trkpt lat="43.56253" lon="6.75918">
        <ele>278.3</ele>
        <time>2014-04-21T09:11:08Z</time>
      </trkpt>
      <trkpt lat="43.56243" lon="6.75922">
        <ele>277.3</ele>
        <time>2014-04-21T09:13:44Z</time>
      </trkpt>
      <trkpt lat="43.56221" lon="6.75928">
        <ele>276.3</ele>
        <time>2014-04-21T09:13:49Z</time>
      </trkpt>
      <trkpt lat="43.56209" lon="6.75934">
        <ele>276.3</ele>
        <time>2014-04-21T09:13:51Z</time>
      </trkpt>
      <trkpt lat="43.56198" lon="6.75942">
        <ele>274.3</ele>
        <time>2014-04-21T09:13:53Z</time>
      </trkpt>
      <trkpt lat="43.56185" lon="6.75946">
        <ele>273.3</ele>
        <time>2014-04-21T09:13:55Z</time>
      </trkpt>
      <trkpt lat="43.56169" lon="6.75947">
        <ele>272.3</ele>
        <time>2014-04-21T09:13:57Z</time>
      </trkpt>
      <trkpt lat="43.56153" lon="6.75944">
        <ele>272.3</ele>
        <time>2014-04-21T09:13:59Z</time>
      </trkpt>
      <trkpt lat="43.56139" lon="6.75935">
        <ele>271.3</ele>
        <time>2014-04-21T09:14:01Z</time>
      </trkpt>
      <trkpt lat="43.56126" lon="6.75926">
        <ele>271.3</ele>
        <time>2014-04-21T09:14:03Z</time>
      </trkpt>
      <trkpt lat="43.56115" lon="6.75914">
        <ele>272.3</ele>
        <time>2014-04-21T09:14:05Z</time>
      </trkpt>
      <trkpt lat="43.56105" lon="6.75902">
        <ele>272.3</ele>
        <time>2014-04-21T09:14:07Z</time>
      </trkpt>
      <trkpt lat="43.56098" lon="6.7589">
        <ele>273.3</ele>
        <time>2014-04-21T09:14:09Z</time>
      </trkpt>
      <trkpt lat="43.56091" lon="6.75877">
        <ele>274.3</ele>
        <time>2014-04-21T09:14:11Z</time>
      </trkpt>
      <trkpt lat="43.56085" lon="6.75865">
        <ele>274.3</ele>
        <time>2014-04-21T09:14:13Z</time>
      </trkpt>
      <trkpt lat="43.56078" lon="6.75856">
        <ele>275.3</ele>
        <time>2014-04-21T09:14:15Z</time>
      </trkpt>
      <trkpt lat="43.56071" lon="6.75846">
        <ele>275.3</ele>
        <time>2014-04-21T09:14:17Z</time>
      </trkpt>
      <trkpt lat="43.56064" lon="6.75836">
        <ele>275.3</ele>
        <time>2014-04-21T09:14:19Z</time>
      </trkpt>
      <trkpt lat="43.56056" lon="6.75828">
        <ele>276.3</ele>
        <time>2014-04-21T09:14:21Z</time>
      </trkpt>
      <trkpt lat="43.56048" lon="6.75819">
        <ele>277.3</ele>
        <time>2014-04-21T09:14:23Z</time>
      </trkpt>
      <trkpt lat="43.56038" lon="6.75811">
        <ele>277.3</ele>
        <time>2014-04-21T09:14:25Z</time>
      </trkpt>
      <trkpt lat="43.56028" lon="6.75806">
        <ele>275.3</ele>
        <time>2014-04-21T09:14:27Z</time>
      </trkpt>
      <trkpt lat="43.56017" lon="6.758">
        <ele>275.3</ele>
        <time>2014-04-21T09:14:29Z</time>
      </trkpt>
      <trkpt lat="43.56006" lon="6.75802">
        <ele>272.3</ele>
        <time>2014-04-21T09:14:31Z</time>
      </trkpt>
      <trkpt lat="43.55997" lon="6.75808">
        <ele>271.3</ele>
        <time>2014-04-21T09:14:33Z</time>
      </trkpt>
      <trkpt lat="43.55989" lon="6.75824">
        <ele>271.3</ele>
        <time>2014-04-21T09:14:35Z</time>
      </trkpt>
      <trkpt lat="43.55985" lon="6.75845">
        <ele>266.3</ele>
        <time>2014-04-21T09:14:37Z</time>
      </trkpt>
      <trkpt lat="43.55981" lon="6.75866">
        <ele>265.3</ele>
        <time>2014-04-21T09:14:39Z</time>
      </trkpt>
      <trkpt lat="43.55978" lon="6.75888">
        <ele>263.3</ele>
        <time>2014-04-21T09:14:41Z</time>
      </trkpt>
      <trkpt lat="43.55976" lon="6.759">
        <ele>262.3</ele>
        <time>2014-04-21T09:14:42Z</time>
      </trkpt>
      <trkpt lat="43.55972" lon="6.75923">
        <ele>262.3</ele>
        <time>2014-04-21T09:14:44Z</time>
      </trkpt>
      <trkpt lat="43.55961" lon="6.75966">
        <ele>260.3</ele>
        <time>2014-04-21T09:14:48Z</time>
      </trkpt>
      <trkpt lat="43.55957" lon="6.75977">
        <ele>260.3</ele>
        <time>2014-04-21T09:14:49Z</time>
      </trkpt>
      <trkpt lat="43.5595" lon="6.75999">
        <ele>259.3</ele>
        <time>2014-04-21T09:14:51Z</time>
      </trkpt>
      <trkpt lat="43.55943" lon="6.7602">
        <ele>257.3</ele>
        <time>2014-04-21T09:14:53Z</time>
      </trkpt>
      <trkpt lat="43.55935" lon="6.76038">
        <ele>254.3</ele>
        <time>2014-04-21T09:14:55Z</time>
      </trkpt>
      <trkpt lat="43.55924" lon="6.76049">
        <ele>253.3</ele>
        <time>2014-04-21T09:14:57Z</time>
      </trkpt>
      <trkpt lat="43.55912" lon="6.7605">
        <ele>251.3</ele>
        <time>2014-04-21T09:14:59Z</time>
      </trkpt>
      <trkpt lat="43.55902" lon="6.76037">
        <ele>251.3</ele>
        <time>2014-04-21T09:15:01Z</time>
      </trkpt>
      <trkpt lat="43.55891" lon="6.76023">
        <ele>250.3</ele>
        <time>2014-04-21T09:15:03Z</time>
      </trkpt>
      <trkpt lat="43.5588" lon="6.76007">
        <ele>248.3</ele>
        <time>2014-04-21T09:15:05Z</time>
      </trkpt>
      <trkpt lat="43.55866" lon="6.76">
        <ele>247.3</ele>
        <time>2014-04-21T09:15:07Z</time>
      </trkpt>
      <trkpt lat="43.55854" lon="6.76003">
        <ele>247.3</ele>
        <time>2014-04-21T09:15:09Z</time>
      </trkpt>
      <trkpt lat="43.55846" lon="6.76011">
        <ele>247.3</ele>
        <time>2014-04-21T09:15:11Z</time>
      </trkpt>
      <trkpt lat="43.55839" lon="6.76026">
        <ele>247.3</ele>
        <time>2014-04-21T09:15:14Z</time>
      </trkpt>
      <trkpt lat="43.55831" lon="6.7604">
        <ele>248.3</ele>
        <time>2014-04-21T09:15:17Z</time>
      </trkpt>
      <trkpt lat="43.55824" lon="6.76053">
        <ele>249.3</ele>
        <time>2014-04-21T09:15:20Z</time>
      </trkpt>
      <trkpt lat="43.55816" lon="6.76062">
        <ele>248.3</ele>
        <time>2014-04-21T09:15:23Z</time>
      </trkpt>
      <trkpt lat="43.55806" lon="6.76067">
        <ele>250.3</ele>
        <time>2014-04-21T09:15:27Z</time>
      </trkpt>
      <trkpt lat="43.55795" lon="6.76066">
        <ele>250.3</ele>
        <time>2014-04-21T09:15:31Z</time>
      </trkpt>
      <trkpt lat="43.55786" lon="6.76061">
        <ele>251.3</ele>
        <time>2014-04-21T09:15:34Z</time>
      </trkpt>
      <trkpt lat="43.55777" lon="6.76053">
        <ele>254.3</ele>
        <time>2014-04-21T09:15:37Z</time>
      </trkpt>
      <trkpt lat="43.55769" lon="6.76045">
        <ele>253.3</ele>
        <time>2014-04-21T09:15:40Z</time>
      </trkpt>
      <trkpt lat="43.55761" lon="6.76037">
        <ele>253.3</ele>
        <time>2014-04-21T09:15:43Z</time>
      </trkpt>
      <trkpt lat="43.55753" lon="6.7603">
        <ele>254.3</ele>
        <time>2014-04-21T09:15:46Z</time>
      </trkpt>
      <trkpt lat="43.55735" lon="6.7601">
        <ele>256.3</ele>
        <time>2014-04-21T09:15:54Z</time>
      </trkpt>
      <trkpt lat="43.55726" lon="6.76002">
        <ele>257.3</ele>
        <time>2014-04-21T09:15:58Z</time>
      </trkpt>
      <trkpt lat="43.55716" lon="6.75995">
        <ele>256.3</ele>
        <time>2014-04-21T09:16:02Z</time>
      </trkpt>
      <trkpt lat="43.55708" lon="6.75988">
        <ele>254.3</ele>
        <time>2014-04-21T09:16:06Z</time>
      </trkpt>
      <trkpt lat="43.557" lon="6.7598">
        <ele>257.3</ele>
        <time>2014-04-21T09:16:10Z</time>
      </trkpt>
      <trkpt lat="43.5569" lon="6.75981">
        <ele>257.3</ele>
        <time>2014-04-21T09:16:14Z</time>
      </trkpt>
      <trkpt lat="43.5568" lon="6.75985">
        <ele>259.3</ele>
        <time>2014-04-21T09:16:18Z</time>
      </trkpt>
      <trkpt lat="43.55669" lon="6.75987">
        <ele>262.3</ele>
        <time>2014-04-21T09:16:23Z</time>
      </trkpt>
      <trkpt lat="43.55659" lon="6.75989">
        <ele>263.3</ele>
        <time>2014-04-21T09:16:27Z</time>
      </trkpt>
      <trkpt lat="43.55649" lon="6.75989">
        <ele>262.3</ele>
        <time>2014-04-21T09:16:31Z</time>
      </trkpt>
      <trkpt lat="43.55637" lon="6.75991">
        <ele>265.3</ele>
        <time>2014-04-21T09:16:35Z</time>
      </trkpt>
      <trkpt lat="43.55626" lon="6.75995">
        <ele>265.3</ele>
        <time>2014-04-21T09:16:39Z</time>
      </trkpt>
      <trkpt lat="43.55616" lon="6.76">
        <ele>266.3</ele>
        <time>2014-04-21T09:16:43Z</time>
      </trkpt>
      <trkpt lat="43.55605" lon="6.76002">
        <ele>267.3</ele>
        <time>2014-04-21T09:16:47Z</time>
      </trkpt>
      <trkpt lat="43.55585" lon="6.76002">
        <ele>265.3</ele>
        <time>2014-04-21T09:16:55Z</time>
      </trkpt>
      <trkpt lat="43.55575" lon="6.76005">
        <ele>264.3</ele>
        <time>2014-04-21T09:16:58Z</time>
      </trkpt>
      <trkpt lat="43.55566" lon="6.76011">
        <ele>265.3</ele>
        <time>2014-04-21T09:17:01Z</time>
      </trkpt>
      <trkpt lat="43.55558" lon="6.7602">
        <ele>264.3</ele>
        <time>2014-04-21T09:17:04Z</time>
      </trkpt>
      <trkpt lat="43.55552" lon="6.76034">
        <ele>264.3</ele>
        <time>2014-04-21T09:17:07Z</time>
      </trkpt>
      <trkpt lat="43.55549" lon="6.76056">
        <ele>263.3</ele>
        <time>2014-04-21T09:17:10Z</time>
      </trkpt>
      <trkpt lat="43.55549" lon="6.76069">
        <ele>263.3</ele>
        <time>2014-04-21T09:17:12Z</time>
      </trkpt>
      <trkpt lat="43.55551" lon="6.76083">
        <ele>263.3</ele>
        <time>2014-04-21T09:17:14Z</time>
      </trkpt>
      <trkpt lat="43.55552" lon="6.761">
        <ele>262.3</ele>
        <time>2014-04-21T09:17:16Z</time>
      </trkpt>
      <trkpt lat="43.5555" lon="6.76118">
        <ele>259.3</ele>
        <time>2014-04-21T09:17:18Z</time>
      </trkpt>
      <trkpt lat="43.55545" lon="6.76139">
        <ele>258.3</ele>
        <time>2014-04-21T09:17:20Z</time>
      </trkpt>
      <trkpt lat="43.55538" lon="6.76157">
        <ele>257.3</ele>
        <time>2014-04-21T09:17:22Z</time>
      </trkpt>
      <trkpt lat="43.55528" lon="6.76173">
        <ele>257.3</ele>
        <time>2014-04-21T09:17:24Z</time>
      </trkpt>
      <trkpt lat="43.55513" lon="6.76184">
        <ele>256.3</ele>
        <time>2014-04-21T09:17:26Z</time>
      </trkpt>
      <trkpt lat="43.55502" lon="6.76194">
        <ele>254.3</ele>
        <time>2014-04-21T09:17:28Z</time>
      </trkpt>
      <trkpt lat="43.55491" lon="6.76208">
        <ele>253.3</ele>
        <time>2014-04-21T09:17:30Z</time>
      </trkpt>
      <trkpt lat="43.55479" lon="6.76216">
        <ele>253.3</ele>
        <time>2014-04-21T09:17:32Z</time>
      </trkpt>
      <trkpt lat="43.55466" lon="6.76217">
        <ele>251.3</ele>
        <time>2014-04-21T09:17:34Z</time>
      </trkpt>
      <trkpt lat="43.55452" lon="6.76211">
        <ele>249.3</ele>
        <time>2014-04-21T09:17:36Z</time>
      </trkpt>
      <trkpt lat="43.55436" lon="6.76205">
        <ele>248.3</ele>
        <time>2014-04-21T09:17:38Z</time>
      </trkpt>
      <trkpt lat="43.5542" lon="6.762">
        <ele>246.3</ele>
        <time>2014-04-21T09:17:40Z</time>
      </trkpt>
      <trkpt lat="43.55405" lon="6.76198">
        <ele>245.3</ele>
        <time>2014-04-21T09:17:42Z</time>
      </trkpt>
      <trkpt lat="43.55391" lon="6.762">
        <ele>244.3</ele>
        <time>2014-04-21T09:17:44Z</time>
      </trkpt>
      <trkpt lat="43.55377" lon="6.76204">
        <ele>242.3</ele>
        <time>2014-04-21T09:17:46Z</time>
      </trkpt>
      <trkpt lat="43.55363" lon="6.7621">
        <ele>241.3</ele>
        <time>2014-04-21T09:17:48Z</time>
      </trkpt>
      <trkpt lat="43.55338" lon="6.76234">
        <ele>239.3</ele>
        <time>2014-04-21T09:17:52Z</time>
      </trkpt>
      <trkpt lat="43.55328" lon="6.76251">
        <ele>239.3</ele>
        <time>2014-04-21T09:17:54Z</time>
      </trkpt>
      <trkpt lat="43.55319" lon="6.7627">
        <ele>237.3</ele>
        <time>2014-04-21T09:17:56Z</time>
      </trkpt>
      <trkpt lat="43.55316" lon="6.76282">
        <ele>236.3</ele>
        <time>2014-04-21T09:17:57Z</time>
      </trkpt>
      <trkpt lat="43.55309" lon="6.76303">
        <ele>235.3</ele>
        <time>2014-04-21T09:17:59Z</time>
      </trkpt>
      <trkpt lat="43.55304" lon="6.76323">
        <ele>235.3</ele>
        <time>2014-04-21T09:18:01Z</time>
      </trkpt>
      <trkpt lat="43.55302" lon="6.76343">
        <ele>233.3</ele>
        <time>2014-04-21T09:18:03Z</time>
      </trkpt>
      <trkpt lat="43.55299" lon="6.76366">
        <ele>232.3</ele>
        <time>2014-04-21T09:18:05Z</time>
      </trkpt>
      <trkpt lat="43.55295" lon="6.76386">
        <ele>233.3</ele>
        <time>2014-04-21T09:18:07Z</time>
      </trkpt>
      <trkpt lat="43.55289" lon="6.76408">
        <ele>232.3</ele>
        <time>2014-04-21T09:18:09Z</time>
      </trkpt>
      <trkpt lat="43.55279" lon="6.76426">
        <ele>231.3</ele>
        <time>2014-04-21T09:18:11Z</time>
      </trkpt>
      <trkpt lat="43.55263" lon="6.76434">
        <ele>229.3</ele>
        <time>2014-04-21T09:18:13Z</time>
      </trkpt>
      <trkpt lat="43.55246" lon="6.76436">
        <ele>229.3</ele>
        <time>2014-04-21T09:18:15Z</time>
      </trkpt>
      <trkpt lat="43.55237" lon="6.76437">
        <ele>229.3</ele>
        <time>2014-04-21T09:18:16Z</time>
      </trkpt>
      <trkpt lat="43.55222" lon="6.76445">
        <ele>227.3</ele>
        <time>2014-04-21T09:18:18Z</time>
      </trkpt>
      <trkpt lat="43.55208" lon="6.76458">
        <ele>226.3</ele>
        <time>2014-04-21T09:18:20Z</time>
      </trkpt>
      <trkpt lat="43.55196" lon="6.76476">
        <ele>224.3</ele>
        <time>2014-04-21T09:18:22Z</time>
      </trkpt>
      <trkpt lat="43.55188" lon="6.76483">
        <ele>222.3</ele>
        <time>2014-04-21T09:18:23Z</time>
      </trkpt>
      <trkpt lat="43.55181" lon="6.76492">
        <ele>222.3</ele>
        <time>2014-04-21T09:18:24Z</time>
      </trkpt>
      <trkpt lat="43.55173" lon="6.76499">
        <ele>222.3</ele>
        <time>2014-04-21T09:18:25Z</time>
      </trkpt>
      <trkpt lat="43.55161" lon="6.76512">
        <ele>219.3</ele>
        <time>2014-04-21T09:18:27Z</time>
      </trkpt>
      <trkpt lat="43.55153" lon="6.76525">
        <ele>218.3</ele>
        <time>2014-04-21T09:18:29Z</time>
      </trkpt>
      <trkpt lat="43.55151" lon="6.7654">
        <ele>215.3</ele>
        <time>2014-04-21T09:18:32Z</time>
      </trkpt>
      <trkpt lat="43.55157" lon="6.76554">
        <ele>213.3</ele>
        <time>2014-04-21T09:18:35Z</time>
      </trkpt>
      <trkpt lat="43.55162" lon="6.76567">
        <ele>213.3</ele>
        <time>2014-04-21T09:18:37Z</time>
      </trkpt>
      <trkpt lat="43.55166" lon="6.76581">
        <ele>212.3</ele>
        <time>2014-04-21T09:18:39Z</time>
      </trkpt>
      <trkpt lat="43.55167" lon="6.76599">
        <ele>211.3</ele>
        <time>2014-04-21T09:18:41Z</time>
      </trkpt>
      <trkpt lat="43.55166" lon="6.76617">
        <ele>210.3</ele>
        <time>2014-04-21T09:18:43Z</time>
      </trkpt>
      <trkpt lat="43.55167" lon="6.76634">
        <ele>209.3</ele>
        <time>2014-04-21T09:18:45Z</time>
      </trkpt>
      <trkpt lat="43.55168" lon="6.76651">
        <ele>209.3</ele>
        <time>2014-04-21T09:18:47Z</time>
      </trkpt>
      <trkpt lat="43.5517" lon="6.7667">
        <ele>209.3</ele>
        <time>2014-04-21T09:18:49Z</time>
      </trkpt>
      <trkpt lat="43.55176" lon="6.76703">
        <ele>206.3</ele>
        <time>2014-04-21T09:18:53Z</time>
      </trkpt>
      <trkpt lat="43.55177" lon="6.76716">
        <ele>205.3</ele>
        <time>2014-04-21T09:18:55Z</time>
      </trkpt>
      <trkpt lat="43.55183" lon="6.76726">
        <ele>204.3</ele>
        <time>2014-04-21T09:18:58Z</time>
      </trkpt>
      <trkpt lat="43.55196" lon="6.76724">
        <ele>202.3</ele>
        <time>2014-04-21T09:19:01Z</time>
      </trkpt>
      <trkpt lat="43.55206" lon="6.76719">
        <ele>202.3</ele>
        <time>2014-04-21T09:19:03Z</time>
      </trkpt>
      <trkpt lat="43.55216" lon="6.76713">
        <ele>199.3</ele>
        <time>2014-04-21T09:19:05Z</time>
      </trkpt>
      <trkpt lat="43.55225" lon="6.76714">
        <ele>199.3</ele>
        <time>2014-04-21T09:19:07Z</time>
      </trkpt>
      <trkpt lat="43.55232" lon="6.76724">
        <ele>199.3</ele>
        <time>2014-04-21T09:19:09Z</time>
      </trkpt>
      <trkpt lat="43.55234" lon="6.7674">
        <ele>198.3</ele>
        <time>2014-04-21T09:19:11Z</time>
      </trkpt>
      <trkpt lat="43.55238" lon="6.76756">
        <ele>198.3</ele>
        <time>2014-04-21T09:19:13Z</time>
      </trkpt>
      <trkpt lat="43.55243" lon="6.76778">
        <ele>197.3</ele>
        <time>2014-04-21T09:19:15Z</time>
      </trkpt>
      <trkpt lat="43.55248" lon="6.76798">
        <ele>197.3</ele>
        <time>2014-04-21T09:19:17Z</time>
      </trkpt>
      <trkpt lat="43.55251" lon="6.76816">
        <ele>196.3</ele>
        <time>2014-04-21T09:19:19Z</time>
      </trkpt>
      <trkpt lat="43.55254" lon="6.76832">
        <ele>194.3</ele>
        <time>2014-04-21T09:19:21Z</time>
      </trkpt>
      <trkpt lat="43.55257" lon="6.76848">
        <ele>193.3</ele>
        <time>2014-04-21T09:19:23Z</time>
      </trkpt>
      <trkpt lat="43.55263" lon="6.7686">
        <ele>192.3</ele>
        <time>2014-04-21T09:19:25Z</time>
      </trkpt>
      <trkpt lat="43.55274" lon="6.76868">
        <ele>191.3</ele>
        <time>2014-04-21T09:19:28Z</time>
      </trkpt>
      <trkpt lat="43.55286" lon="6.76862">
        <ele>189.3</ele>
        <time>2014-04-21T09:19:31Z</time>
      </trkpt>
      <trkpt lat="43.55293" lon="6.76854">
        <ele>188.3</ele>
        <time>2014-04-21T09:19:33Z</time>
      </trkpt>
      <trkpt lat="43.55303" lon="6.76848">
        <ele>188.3</ele>
        <time>2014-04-21T09:19:35Z</time>
      </trkpt>
      <trkpt lat="43.55313" lon="6.76842">
        <ele>187.3</ele>
        <time>2014-04-21T09:19:37Z</time>
      </trkpt>
      <trkpt lat="43.55325" lon="6.76836">
        <ele>185.3</ele>
        <time>2014-04-21T09:19:39Z</time>
      </trkpt>
      <trkpt lat="43.55335" lon="6.76827">
        <ele>185.3</ele>
        <time>2014-04-21T09:19:41Z</time>
      </trkpt>
      <trkpt lat="43.55342" lon="6.76815">
        <ele>185.3</ele>
        <time>2014-04-21T09:19:43Z</time>
      </trkpt>
      <trkpt lat="43.5535" lon="6.76801">
        <ele>185.3</ele>
        <time>2014-04-21T09:19:45Z</time>
      </trkpt>
      <trkpt lat="43.55361" lon="6.76788">
        <ele>185.3</ele>
        <time>2014-04-21T09:19:47Z</time>
      </trkpt>
      <trkpt lat="43.55371" lon="6.76781">
        <ele>183.3</ele>
        <time>2014-04-21T09:19:49Z</time>
      </trkpt>
      <trkpt lat="43.55381" lon="6.76782">
        <ele>183.3</ele>
        <time>2014-04-21T09:19:51Z</time>
      </trkpt>
      <trkpt lat="43.55393" lon="6.76801">
        <ele>177.3</ele>
        <time>2014-04-21T09:19:55Z</time>
      </trkpt>
      <trkpt lat="43.55397" lon="6.76818">
        <ele>177.3</ele>
        <time>2014-04-21T09:19:57Z</time>
      </trkpt>
      <trkpt lat="43.55399" lon="6.76836">
        <ele>176.3</ele>
        <time>2014-04-21T09:19:59Z</time>
      </trkpt>
      <trkpt lat="43.554" lon="6.76854">
        <ele>175.3</ele>
        <time>2014-04-21T09:20:01Z</time>
      </trkpt>
      <trkpt lat="43.554" lon="6.76873">
        <ele>173.3</ele>
        <time>2014-04-21T09:20:03Z</time>
      </trkpt>
      <trkpt lat="43.55395" lon="6.76893">
        <ele>172.3</ele>
        <time>2014-04-21T09:20:05Z</time>
      </trkpt>
      <trkpt lat="43.5539" lon="6.76911">
        <ele>170.3</ele>
        <time>2014-04-21T09:20:07Z</time>
      </trkpt>
      <trkpt lat="43.55387" lon="6.76929">
        <ele>168.3</ele>
        <time>2014-04-21T09:20:09Z</time>
      </trkpt>
      <trkpt lat="43.55382" lon="6.7694">
        <ele>167.3</ele>
        <time>2014-04-21T09:20:11Z</time>
      </trkpt>
      <trkpt lat="43.5537" lon="6.76947">
        <ele>168.3</ele>
        <time>2014-04-21T09:20:14Z</time>
      </trkpt>
      <trkpt lat="43.55357" lon="6.7695">
        <ele>167.3</ele>
        <time>2014-04-21T09:20:17Z</time>
      </trkpt>
      <trkpt lat="43.55346" lon="6.76958">
        <ele>161.3</ele>
        <time>2014-04-21T09:20:21Z</time>
      </trkpt>
      <trkpt lat="43.55339" lon="6.76968">
        <ele>160.3</ele>
        <time>2014-04-21T09:20:25Z</time>
      </trkpt>
      <trkpt lat="43.55333" lon="6.7698">
        <ele>159.3</ele>
        <time>2014-04-21T09:20:29Z</time>
      </trkpt>
      <trkpt lat="43.55333" lon="6.76995">
        <ele>159.3</ele>
        <time>2014-04-21T09:20:33Z</time>
      </trkpt>
      <trkpt lat="43.5533" lon="6.77011">
        <ele>160.3</ele>
        <time>2014-04-21T09:20:36Z</time>
      </trkpt>
      <trkpt lat="43.55327" lon="6.77028">
        <ele>158.3</ele>
        <time>2014-04-21T09:20:38Z</time>
      </trkpt>
      <trkpt lat="43.55324" lon="6.77043">
        <ele>156.3</ele>
        <time>2014-04-21T09:20:40Z</time>
      </trkpt>
      <trkpt lat="43.55321" lon="6.77061">
        <ele>157.3</ele>
        <time>2014-04-21T09:20:42Z</time>
      </trkpt>
      <trkpt lat="43.55318" lon="6.77075">
        <ele>158.3</ele>
        <time>2014-04-21T09:20:44Z</time>
      </trkpt>
      <trkpt lat="43.55321" lon="6.77089">
        <ele>158.3</ele>
        <time>2014-04-21T09:20:47Z</time>
      </trkpt>
      <trkpt lat="43.5533" lon="6.77101">
        <ele>156.3</ele>
        <time>2014-04-21T09:20:50Z</time>
      </trkpt>
      <trkpt lat="43.55339" lon="6.77106">
        <ele>156.3</ele>
        <time>2014-04-21T09:20:52Z</time>
      </trkpt>
      <trkpt lat="43.55359" lon="6.77117">
        <ele>154.3</ele>
        <time>2014-04-21T09:20:56Z</time>
      </trkpt>
      <trkpt lat="43.5537" lon="6.77125">
        <ele>154.3</ele>
        <time>2014-04-21T09:20:58Z</time>
      </trkpt>
      <trkpt lat="43.55376" lon="6.77138">
        <ele>154.3</ele>
        <time>2014-04-21T09:21:00Z</time>
      </trkpt>
      <trkpt lat="43.55377" lon="6.77154">
        <ele>152.3</ele>
        <time>2014-04-21T09:21:02Z</time>
      </trkpt>
      <trkpt lat="43.55376" lon="6.77174">
        <ele>151.3</ele>
        <time>2014-04-21T09:21:04Z</time>
      </trkpt>
      <trkpt lat="43.55381" lon="6.77193">
        <ele>151.3</ele>
        <time>2014-04-21T09:21:06Z</time>
      </trkpt>
      <trkpt lat="43.55386" lon="6.77208">
        <ele>150.3</ele>
        <time>2014-04-21T09:21:08Z</time>
      </trkpt>
      <trkpt lat="43.55391" lon="6.77223">
        <ele>149.3</ele>
        <time>2014-04-21T09:21:10Z</time>
      </trkpt>
      <trkpt lat="43.55397" lon="6.77239">
        <ele>148.3</ele>
        <time>2014-04-21T09:21:12Z</time>
      </trkpt>
      <trkpt lat="43.55404" lon="6.77252">
        <ele>143.3</ele>
        <time>2014-04-21T09:21:14Z</time>
      </trkpt>
      <trkpt lat="43.55412" lon="6.77264">
        <ele>142.3</ele>
        <time>2014-04-21T09:21:16Z</time>
      </trkpt>
      <trkpt lat="43.55422" lon="6.77275">
        <ele>142.3</ele>
        <time>2014-04-21T09:21:18Z</time>
      </trkpt>
      <trkpt lat="43.55434" lon="6.77284">
        <ele>141.3</ele>
        <time>2014-04-21T09:21:20Z</time>
      </trkpt>
      <trkpt lat="43.55447" lon="6.77291">
        <ele>141.3</ele>
        <time>2014-04-21T09:21:22Z</time>
      </trkpt>
      <trkpt lat="43.55462" lon="6.77297">
        <ele>140.3</ele>
        <time>2014-04-21T09:21:24Z</time>
      </trkpt>
      <trkpt lat="43.55477" lon="6.77296">
        <ele>139.3</ele>
        <time>2014-04-21T09:21:26Z</time>
      </trkpt>
      <trkpt lat="43.55488" lon="6.773">
        <ele>138.3</ele>
        <time>2014-04-21T09:21:28Z</time>
      </trkpt>
      <trkpt lat="43.55498" lon="6.77308">
        <ele>136.3</ele>
        <time>2014-04-21T09:21:30Z</time>
      </trkpt>
      <trkpt lat="43.55506" lon="6.77316">
        <ele>135.3</ele>
        <time>2014-04-21T09:21:32Z</time>
      </trkpt>
      <trkpt lat="43.55516" lon="6.7732">
        <ele>133.3</ele>
        <time>2014-04-21T09:21:34Z</time>
      </trkpt>
      <trkpt lat="43.55525" lon="6.77319">
        <ele>131.3</ele>
        <time>2014-04-21T09:21:36Z</time>
      </trkpt>
      <trkpt lat="43.55533" lon="6.77325">
        <ele>131.3</ele>
        <time>2014-04-21T09:21:40Z</time>
      </trkpt>
      <trkpt lat="43.55526" lon="6.77336">
        <ele>131.3</ele>
        <time>2014-04-21T09:21:46Z</time>
      </trkpt>
      <trkpt lat="43.55516" lon="6.77338">
        <ele>130.3</ele>
        <time>2014-04-21T09:21:51Z</time>
      </trkpt>
      <trkpt lat="43.55506" lon="6.77332">
        <ele>130.3</ele>
        <time>2014-04-21T09:21:55Z</time>
      </trkpt>
      <trkpt lat="43.55486" lon="6.77327">
        <ele>129.3</ele>
        <time>2014-04-21T09:22:01Z</time>
      </trkpt>
      <trkpt lat="43.55471" lon="6.7734">
        <ele>127.3</ele>
        <time>2014-04-21T09:22:04Z</time>
      </trkpt>
      <trkpt lat="43.55462" lon="6.77344">
        <ele>126.3</ele>
        <time>2014-04-21T09:22:06Z</time>
      </trkpt>
      <trkpt lat="43.5545" lon="6.77345">
        <ele>126.3</ele>
        <time>2014-04-21T09:22:08Z</time>
      </trkpt>
      <trkpt lat="43.55437" lon="6.77345">
        <ele>125.3</ele>
        <time>2014-04-21T09:22:10Z</time>
      </trkpt>
      <trkpt lat="43.55424" lon="6.77344">
        <ele>124.3</ele>
        <time>2014-04-21T09:22:12Z</time>
      </trkpt>
      <trkpt lat="43.55414" lon="6.77348">
        <ele>125.3</ele>
        <time>2014-04-21T09:22:14Z</time>
      </trkpt>
      <trkpt lat="43.55406" lon="6.77357">
        <ele>125.3</ele>
        <time>2014-04-21T09:22:16Z</time>
      </trkpt>
      <trkpt lat="43.55396" lon="6.77367">
        <ele>123.3</ele>
        <time>2014-04-21T09:22:19Z</time>
      </trkpt>
      <trkpt lat="43.55385" lon="6.77367">
        <ele>121.3</ele>
        <time>2014-04-21T09:22:22Z</time>
      </trkpt>
      <trkpt lat="43.5538" lon="6.77354">
        <ele>121.3</ele>
        <time>2014-04-21T09:22:27Z</time>
      </trkpt>
      <trkpt lat="43.55371" lon="6.7735">
        <ele>118.3</ele>
        <time>2014-04-21T09:22:30Z</time>
      </trkpt>
      <trkpt lat="43.5536" lon="6.77358">
        <ele>119.3</ele>
        <time>2014-04-21T09:22:32Z</time>
      </trkpt>
      <trkpt lat="43.55352" lon="6.77366">
        <ele>119.3</ele>
        <time>2014-04-21T09:22:34Z</time>
      </trkpt>
      <trkpt lat="43.5534" lon="6.77369">
        <ele>120.3</ele>
        <time>2014-04-21T09:22:36Z</time>
      </trkpt>
      <trkpt lat="43.55328" lon="6.77368">
        <ele>118.3</ele>
        <time>2014-04-21T09:22:38Z</time>
      </trkpt>
      <trkpt lat="43.55314" lon="6.77369">
        <ele>114.3</ele>
        <time>2014-04-21T09:22:40Z</time>
      </trkpt>
      <trkpt lat="43.55302" lon="6.77378">
        <ele>111.3</ele>
        <time>2014-04-21T09:22:42Z</time>
      </trkpt>
      <trkpt lat="43.5529" lon="6.77389">
        <ele>109.3</ele>
        <time>2014-04-21T09:22:44Z</time>
      </trkpt>
      <trkpt lat="43.55279" lon="6.77398">
        <ele>108.3</ele>
        <time>2014-04-21T09:22:46Z</time>
      </trkpt>
      <trkpt lat="43.55268" lon="6.77406">
        <ele>106.3</ele>
        <time>2014-04-21T09:22:48Z</time>
      </trkpt>
      <trkpt lat="43.55258" lon="6.77414">
        <ele>106.3</ele>
        <time>2014-04-21T09:22:50Z</time>
      </trkpt>
      <trkpt lat="43.55249" lon="6.77417">
        <ele>104.3</ele>
        <time>2014-04-21T09:22:54Z</time>
      </trkpt>
      <trkpt lat="43.55241" lon="6.77407">
        <ele>107.3</ele>
        <time>2014-04-21T09:29:06Z</time>
      </trkpt>
      <trkpt lat="43.55224" lon="6.77393">
        <ele>111.3</ele>
        <time>2014-04-21T09:29:14Z</time>
      </trkpt>
      <trkpt lat="43.55214" lon="6.77384">
        <ele>110.3</ele>
        <time>2014-04-21T09:29:18Z</time>
      </trkpt>
      <trkpt lat="43.55206" lon="6.77376">
        <ele>111.3</ele>
        <time>2014-04-21T09:29:21Z</time>
      </trkpt>
      <trkpt lat="43.55198" lon="6.77368">
        <ele>108.3</ele>
        <time>2014-04-21T09:29:24Z</time>
      </trkpt>
      <trkpt lat="43.55185" lon="6.77353">
        <ele>108.3</ele>
        <time>2014-04-21T09:29:27Z</time>
      </trkpt>
      <trkpt lat="43.55171" lon="6.77341">
        <ele>106.3</ele>
        <time>2014-04-21T09:29:30Z</time>
      </trkpt>
      <trkpt lat="43.55162" lon="6.77331">
        <ele>108.3</ele>
        <time>2014-04-21T09:29:32Z</time>
      </trkpt>
      <trkpt lat="43.55156" lon="6.77319">
        <ele>108.3</ele>
        <time>2014-04-21T09:29:34Z</time>
      </trkpt>
      <trkpt lat="43.5515" lon="6.77308">
        <ele>106.3</ele>
        <time>2014-04-21T09:29:36Z</time>
      </trkpt>
      <trkpt lat="43.55142" lon="6.77296">
        <ele>107.3</ele>
        <time>2014-04-21T09:29:38Z</time>
      </trkpt>
      <trkpt lat="43.55133" lon="6.77289">
        <ele>109.3</ele>
        <time>2014-04-21T09:29:40Z</time>
      </trkpt>
      <trkpt lat="43.55125" lon="6.77284">
        <ele>107.3</ele>
        <time>2014-04-21T09:29:42Z</time>
      </trkpt>
      <trkpt lat="43.55111" lon="6.77277">
        <ele>106.3</ele>
        <time>2014-04-21T09:29:45Z</time>
      </trkpt>
      <trkpt lat="43.55102" lon="6.77273">
        <ele>106.3</ele>
        <time>2014-04-21T09:29:47Z</time>
      </trkpt>
      <trkpt lat="43.55093" lon="6.77268">
        <ele>104.3</ele>
        <time>2014-04-21T09:29:49Z</time>
      </trkpt>
      <trkpt lat="43.55082" lon="6.77258">
        <ele>101.3</ele>
        <time>2014-04-21T09:29:52Z</time>
      </trkpt>
      <trkpt lat="43.55074" lon="6.77245">
        <ele>101.3</ele>
        <time>2014-04-21T09:29:55Z</time>
      </trkpt>
      <trkpt lat="43.55066" lon="6.77234">
        <ele>102.3</ele>
        <time>2014-04-21T09:29:58Z</time>
      </trkpt>
      <trkpt lat="43.5506" lon="6.77223">
        <ele>102.3</ele>
        <time>2014-04-21T09:30:02Z</time>
      </trkpt>
      <trkpt lat="43.55053" lon="6.7721">
        <ele>103.3</ele>
        <time>2014-04-21T09:30:06Z</time>
      </trkpt>
      <trkpt lat="43.55051" lon="6.77195">
        <ele>108.3</ele>
        <time>2014-04-21T09:30:10Z</time>
      </trkpt>
      <trkpt lat="43.55053" lon="6.77167">
        <ele>109.3</ele>
        <time>2014-04-21T09:30:17Z</time>
      </trkpt>
      <trkpt lat="43.55056" lon="6.77151">
        <ele>109.3</ele>
        <time>2014-04-21T09:30:21Z</time>
      </trkpt>
      <trkpt lat="43.5506" lon="6.77138">
        <ele>111.3</ele>
        <time>2014-04-21T09:30:25Z</time>
      </trkpt>
      <trkpt lat="43.55066" lon="6.77125">
        <ele>113.3</ele>
        <time>2014-04-21T09:30:29Z</time>
      </trkpt>
      <trkpt lat="43.55071" lon="6.77112">
        <ele>111.3</ele>
        <time>2014-04-21T09:30:33Z</time>
      </trkpt>
      <trkpt lat="43.55078" lon="6.77101">
        <ele>112.3</ele>
        <time>2014-04-21T09:30:37Z</time>
      </trkpt>
      <trkpt lat="43.55085" lon="6.77092">
        <ele>112.3</ele>
        <time>2014-04-21T09:30:41Z</time>
      </trkpt>
      <trkpt lat="43.55089" lon="6.7708">
        <ele>114.3</ele>
        <time>2014-04-21T09:30:45Z</time>
      </trkpt>
      <trkpt lat="43.55083" lon="6.77068">
        <ele>113.3</ele>
        <time>2014-04-21T09:30:49Z</time>
      </trkpt>
      <trkpt lat="43.55073" lon="6.77061">
        <ele>113.3</ele>
        <time>2014-04-21T09:30:53Z</time>
      </trkpt>
      <trkpt lat="43.55063" lon="6.77059">
        <ele>114.3</ele>
        <time>2014-04-21T09:30:57Z</time>
      </trkpt>
      <trkpt lat="43.55052" lon="6.77064">
        <ele>116.3</ele>
        <time>2014-04-21T09:31:01Z</time>
      </trkpt>
      <trkpt lat="43.55042" lon="6.77069">
        <ele>117.3</ele>
        <time>2014-04-21T09:31:05Z</time>
      </trkpt>
      <trkpt lat="43.55031" lon="6.77065">
        <ele>120.3</ele>
        <time>2014-04-21T09:31:09Z</time>
      </trkpt>
      <trkpt lat="43.55022" lon="6.77056">
        <ele>121.3</ele>
        <time>2014-04-21T09:31:12Z</time>
      </trkpt>
      <trkpt lat="43.55007" lon="6.7703">
        <ele>117.3</ele>
        <time>2014-04-21T09:31:18Z</time>
      </trkpt>
      <trkpt lat="43.55002" lon="6.77016">
        <ele>119.3</ele>
        <time>2014-04-21T09:31:20Z</time>
      </trkpt>
      <trkpt lat="43.5499" lon="6.77009">
        <ele>119.3</ele>
        <time>2014-04-21T09:31:23Z</time>
      </trkpt>
      <trkpt lat="43.54981" lon="6.77005">
        <ele>118.3</ele>
        <time>2014-04-21T09:31:25Z</time>
      </trkpt>
      <trkpt lat="43.5497" lon="6.77001">
        <ele>116.3</ele>
        <time>2014-04-21T09:31:27Z</time>
      </trkpt>
      <trkpt lat="43.5496" lon="6.76996">
        <ele>116.3</ele>
        <time>2014-04-21T09:31:29Z</time>
      </trkpt>
      <trkpt lat="43.54952" lon="6.76989">
        <ele>112.3</ele>
        <time>2014-04-21T09:31:31Z</time>
      </trkpt>
      <trkpt lat="43.54943" lon="6.76976">
        <ele>113.3</ele>
        <time>2014-04-21T09:31:33Z</time>
      </trkpt>
      <trkpt lat="43.54935" lon="6.76961">
        <ele>111.3</ele>
        <time>2014-04-21T09:31:35Z</time>
      </trkpt>
      <trkpt lat="43.54928" lon="6.76945">
        <ele>112.3</ele>
        <time>2014-04-21T09:31:37Z</time>
      </trkpt>
      <trkpt lat="43.54923" lon="6.7693">
        <ele>111.3</ele>
        <time>2014-04-21T09:31:39Z</time>
      </trkpt>
      <trkpt lat="43.5492" lon="6.76914">
        <ele>109.3</ele>
        <time>2014-04-21T09:31:41Z</time>
      </trkpt>
      <trkpt lat="43.54917" lon="6.76898">
        <ele>107.3</ele>
        <time>2014-04-21T09:31:43Z</time>
      </trkpt>
      <trkpt lat="43.54916" lon="6.76882">
        <ele>106.3</ele>
        <time>2014-04-21T09:31:45Z</time>
      </trkpt>
      <trkpt lat="43.54916" lon="6.76865">
        <ele>106.3</ele>
        <time>2014-04-21T09:31:47Z</time>
      </trkpt>
      <trkpt lat="43.54915" lon="6.76852">
        <ele>106.3</ele>
        <time>2014-04-21T09:31:49Z</time>
      </trkpt>
      <trkpt lat="43.54907" lon="6.76845">
        <ele>105.3</ele>
        <time>2014-04-21T09:31:51Z</time>
      </trkpt>
      <trkpt lat="43.54895" lon="6.76839">
        <ele>106.3</ele>
        <time>2014-04-21T09:31:53Z</time>
      </trkpt>
      <trkpt lat="43.54883" lon="6.76834">
        <ele>107.3</ele>
        <time>2014-04-21T09:31:55Z</time>
      </trkpt>
      <trkpt lat="43.54874" lon="6.76838">
        <ele>105.3</ele>
        <time>2014-04-21T09:31:57Z</time>
      </trkpt>
      <trkpt lat="43.54867" lon="6.76847">
        <ele>106.3</ele>
        <time>2014-04-21T09:31:59Z</time>
      </trkpt>
      <trkpt lat="43.54863" lon="6.76861">
        <ele>106.3</ele>
        <time>2014-04-21T09:32:01Z</time>
      </trkpt>
      <trkpt lat="43.54859" lon="6.76875">
        <ele>103.3</ele>
        <time>2014-04-21T09:32:03Z</time>
      </trkpt>
      <trkpt lat="43.54855" lon="6.76888">
        <ele>105.3</ele>
        <time>2014-04-21T09:32:05Z</time>
      </trkpt>
      <trkpt lat="43.54851" lon="6.76903">
        <ele>104.3</ele>
        <time>2014-04-21T09:32:07Z</time>
      </trkpt>
      <trkpt lat="43.54847" lon="6.76918">
        <ele>104.3</ele>
        <time>2014-04-21T09:32:09Z</time>
      </trkpt>
      <trkpt lat="43.54844" lon="6.76933">
        <ele>104.3</ele>
        <time>2014-04-21T09:32:11Z</time>
      </trkpt>
      <trkpt lat="43.5484" lon="6.76949">
        <ele>108.3</ele>
        <time>2014-04-21T09:32:13Z</time>
      </trkpt>
      <trkpt lat="43.5483" lon="6.76982">
        <ele>109.3</ele>
        <time>2014-04-21T09:32:17Z</time>
      </trkpt>
      <trkpt lat="43.54827" lon="6.76999">
        <ele>110.3</ele>
        <time>2014-04-21T09:32:19Z</time>
      </trkpt>
      <trkpt lat="43.5482" lon="6.77015">
        <ele>106.3</ele>
        <time>2014-04-21T09:32:21Z</time>
      </trkpt>
      <trkpt lat="43.5482" lon="6.77031">
        <ele>106.3</ele>
        <time>2014-04-21T09:32:23Z</time>
      </trkpt>
      <trkpt lat="43.54815" lon="6.77045">
        <ele>104.3</ele>
        <time>2014-04-21T09:32:25Z</time>
      </trkpt>
      <trkpt lat="43.54814" lon="6.77059">
        <ele>109.3</ele>
        <time>2014-04-21T09:32:28Z</time>
      </trkpt>
      <trkpt lat="43.54811" lon="6.77071">
        <ele>110.3</ele>
        <time>2014-04-21T09:32:30Z</time>
      </trkpt>
      <trkpt lat="43.54809" lon="6.77085">
        <ele>112.3</ele>
        <time>2014-04-21T09:32:33Z</time>
      </trkpt>
      <trkpt lat="43.54804" lon="6.77098">
        <ele>112.3</ele>
        <time>2014-04-21T09:32:35Z</time>
      </trkpt>
      <trkpt lat="43.54795" lon="6.7711">
        <ele>113.3</ele>
        <time>2014-04-21T09:32:38Z</time>
      </trkpt>
      <trkpt lat="43.54788" lon="6.7712">
        <ele>112.3</ele>
        <time>2014-04-21T09:32:40Z</time>
      </trkpt>
      <trkpt lat="43.54779" lon="6.77132">
        <ele>110.3</ele>
        <time>2014-04-21T09:32:43Z</time>
      </trkpt>
      <trkpt lat="43.54771" lon="6.77139">
        <ele>113.3</ele>
        <time>2014-04-21T09:32:47Z</time>
      </trkpt>
      <trkpt lat="43.54762" lon="6.77137">
        <ele>114.3</ele>
        <time>2014-04-21T09:32:54Z</time>
      </trkpt>
      <trkpt lat="43.54757" lon="6.7715">
        <ele>115.3</ele>
        <time>2014-04-21T09:33:07Z</time>
      </trkpt>
      <trkpt lat="43.54751" lon="6.77159">
        <ele>112.3</ele>
        <time>2014-04-21T09:33:12Z</time>
      </trkpt>
      <trkpt lat="43.54742" lon="6.77163">
        <ele>111.3</ele>
        <time>2014-04-21T09:33:18Z</time>
      </trkpt>
      <trkpt lat="43.54724" lon="6.77171">
        <ele>110.3</ele>
        <time>2014-04-21T09:33:38Z</time>
      </trkpt>
      <trkpt lat="43.54715" lon="6.77172">
        <ele>112.3</ele>
        <time>2014-04-21T09:34:48Z</time>
      </trkpt>
      <trkpt lat="43.54716" lon="6.77148">
        <ele>117.3</ele>
        <time>2014-04-21T09:34:58Z</time>
      </trkpt>
      <trkpt lat="43.54723" lon="6.77136">
        <ele>117.3</ele>
        <time>2014-04-21T09:35:03Z</time>
      </trkpt>
      <trkpt lat="43.54728" lon="6.77123">
        <ele>116.3</ele>
        <time>2014-04-21T09:35:08Z</time>
      </trkpt>
      <trkpt lat="43.54729" lon="6.7711">
        <ele>114.3</ele>
        <time>2014-04-21T09:35:13Z</time>
      </trkpt>
      <trkpt lat="43.54731" lon="6.77097">
        <ele>116.3</ele>
        <time>2014-04-21T09:35:19Z</time>
      </trkpt>
      <trkpt lat="43.54736" lon="6.77084">
        <ele>123.3</ele>
        <time>2014-04-21T09:35:25Z</time>
      </trkpt>
      <trkpt lat="43.5474" lon="6.77072">
        <ele>127.3</ele>
        <time>2014-04-21T09:35:30Z</time>
      </trkpt>
      <trkpt lat="43.54738" lon="6.77059">
        <ele>125.3</ele>
        <time>2014-04-21T09:35:35Z</time>
      </trkpt>
      <trkpt lat="43.54731" lon="6.77048">
        <ele>121.3</ele>
        <time>2014-04-21T09:35:40Z</time>
      </trkpt>
      <trkpt lat="43.54723" lon="6.77042">
        <ele>120.3</ele>
        <time>2014-04-21T09:35:45Z</time>
      </trkpt>
      <trkpt lat="43.54714" lon="6.77035">
        <ele>118.3</ele>
        <time>2014-04-21T09:35:51Z</time>
      </trkpt>
      <trkpt lat="43.54695" lon="6.77034">
        <ele>120.3</ele>
        <time>2014-04-21T09:36:02Z</time>
      </trkpt>
      <trkpt lat="43.54685" lon="6.77036">
        <ele>121.3</ele>
        <time>2014-04-21T09:36:08Z</time>
      </trkpt>
      <trkpt lat="43.54675" lon="6.77038">
        <ele>126.3</ele>
        <time>2014-04-21T09:36:14Z</time>
      </trkpt>
      <trkpt lat="43.54665" lon="6.77044">
        <ele>129.3</ele>
        <time>2014-04-21T09:36:20Z</time>
      </trkpt>
      <trkpt lat="43.54659" lon="6.77054">
        <ele>127.3</ele>
        <time>2014-04-21T09:36:25Z</time>
      </trkpt>
      <trkpt lat="43.54652" lon="6.77063">
        <ele>126.3</ele>
        <time>2014-04-21T09:36:30Z</time>
      </trkpt>
      <trkpt lat="43.54644" lon="6.77071">
        <ele>131.3</ele>
        <time>2014-04-21T09:36:35Z</time>
      </trkpt>
      <trkpt lat="43.54636" lon="6.77081">
        <ele>132.3</ele>
        <time>2014-04-21T09:36:40Z</time>
      </trkpt>
      <trkpt lat="43.54629" lon="6.7709">
        <ele>132.3</ele>
        <time>2014-04-21T09:36:45Z</time>
      </trkpt>
      <trkpt lat="43.5462" lon="6.77095">
        <ele>133.3</ele>
        <time>2014-04-21T09:36:50Z</time>
      </trkpt>
      <trkpt lat="43.54612" lon="6.77088">
        <ele>133.3</ele>
        <time>2014-04-21T09:36:55Z</time>
      </trkpt>
      <trkpt lat="43.54605" lon="6.77061">
        <ele>133.3</ele>
        <time>2014-04-21T09:37:06Z</time>
      </trkpt>
      <trkpt lat="43.54602" lon="6.77047">
        <ele>134.3</ele>
        <time>2014-04-21T09:37:11Z</time>
      </trkpt>
      <trkpt lat="43.546" lon="6.77034">
        <ele>135.3</ele>
        <time>2014-04-21T09:37:16Z</time>
      </trkpt>
      <trkpt lat="43.54597" lon="6.77022">
        <ele>136.3</ele>
        <time>2014-04-21T09:37:21Z</time>
      </trkpt>
      <trkpt lat="43.54591" lon="6.7701">
        <ele>136.3</ele>
        <time>2014-04-21T09:37:26Z</time>
      </trkpt>
      <trkpt lat="43.54585" lon="6.77">
        <ele>138.3</ele>
        <time>2014-04-21T09:37:31Z</time>
      </trkpt>
      <trkpt lat="43.54588" lon="6.76985">
        <ele>141.3</ele>
        <time>2014-04-21T09:37:37Z</time>
      </trkpt>
      <trkpt lat="43.54593" lon="6.76973">
        <ele>140.3</ele>
        <time>2014-04-21T09:37:42Z</time>
      </trkpt>
      <trkpt lat="43.54598" lon="6.76959">
        <ele>139.3</ele>
        <time>2014-04-21T09:37:47Z</time>
      </trkpt>
      <trkpt lat="43.54599" lon="6.76946">
        <ele>141.3</ele>
        <time>2014-04-21T09:37:52Z</time>
      </trkpt>
      <trkpt lat="43.546" lon="6.76933">
        <ele>143.3</ele>
        <time>2014-04-21T09:37:57Z</time>
      </trkpt>
      <trkpt lat="43.54589" lon="6.76912">
        <ele>144.3</ele>
        <time>2014-04-21T09:38:07Z</time>
      </trkpt>
      <trkpt lat="43.54584" lon="6.76899">
        <ele>146.3</ele>
        <time>2014-04-21T09:38:13Z</time>
      </trkpt>
      <trkpt lat="43.54577" lon="6.76888">
        <ele>151.3</ele>
        <time>2014-04-21T09:38:20Z</time>
      </trkpt>
      <trkpt lat="43.54571" lon="6.76877">
        <ele>154.3</ele>
        <time>2014-04-21T09:38:25Z</time>
      </trkpt>
      <trkpt lat="43.54565" lon="6.76867">
        <ele>154.3</ele>
        <time>2014-04-21T09:38:30Z</time>
      </trkpt>
      <trkpt lat="43.54558" lon="6.76859">
        <ele>156.3</ele>
        <time>2014-04-21T09:38:34Z</time>
      </trkpt>
      <trkpt lat="43.54551" lon="6.7685">
        <ele>152.3</ele>
        <time>2014-04-21T09:38:38Z</time>
      </trkpt>
      <trkpt lat="43.54556" lon="6.76836">
        <ele>158.3</ele>
        <time>2014-04-21T09:38:44Z</time>
      </trkpt>
      <trkpt lat="43.54565" lon="6.76835">
        <ele>159.3</ele>
        <time>2014-04-21T09:38:48Z</time>
      </trkpt>
      <trkpt lat="43.54575" lon="6.76838">
        <ele>162.3</ele>
        <time>2014-04-21T09:38:52Z</time>
      </trkpt>
      <trkpt lat="43.54585" lon="6.76836">
        <ele>162.3</ele>
        <time>2014-04-21T09:38:56Z</time>
      </trkpt>
      <trkpt lat="43.54593" lon="6.7683">
        <ele>161.3</ele>
        <time>2014-04-21T09:39:00Z</time>
      </trkpt>
      <trkpt lat="43.54601" lon="6.76807">
        <ele>161.3</ele>
        <time>2014-04-21T09:39:08Z</time>
      </trkpt>
      <trkpt lat="43.54602" lon="6.76794">
        <ele>162.3</ele>
        <time>2014-04-21T09:39:12Z</time>
      </trkpt>
      <trkpt lat="43.54601" lon="6.76781">
        <ele>163.3</ele>
        <time>2014-04-21T09:39:16Z</time>
      </trkpt>
      <trkpt lat="43.546" lon="6.76768">
        <ele>163.3</ele>
        <time>2014-04-21T09:39:20Z</time>
      </trkpt>
      <trkpt lat="43.54598" lon="6.76756">
        <ele>163.3</ele>
        <time>2014-04-21T09:39:24Z</time>
      </trkpt>
      <trkpt lat="43.54597" lon="6.76741">
        <ele>166.3</ele>
        <time>2014-04-21T09:39:29Z</time>
      </trkpt>
      <trkpt lat="43.54595" lon="6.76727">
        <ele>165.3</ele>
        <time>2014-04-21T09:39:33Z</time>
      </trkpt>
      <trkpt lat="43.54593" lon="6.76714">
        <ele>164.3</ele>
        <time>2014-04-21T09:39:37Z</time>
      </trkpt>
      <trkpt lat="43.54588" lon="6.76703">
        <ele>165.3</ele>
        <time>2014-04-21T09:39:41Z</time>
      </trkpt>
      <trkpt lat="43.54582" lon="6.76694">
        <ele>166.3</ele>
        <time>2014-04-21T09:39:45Z</time>
      </trkpt>
      <trkpt lat="43.54575" lon="6.76685">
        <ele>169.3</ele>
        <time>2014-04-21T09:39:49Z</time>
      </trkpt>
      <trkpt lat="43.54567" lon="6.76677">
        <ele>171.3</ele>
        <time>2014-04-21T09:39:53Z</time>
      </trkpt>
      <trkpt lat="43.54562" lon="6.76666">
        <ele>172.3</ele>
        <time>2014-04-21T09:39:58Z</time>
      </trkpt>
      <trkpt lat="43.54556" lon="6.76654">
        <ele>172.3</ele>
        <time>2014-04-21T09:40:03Z</time>
      </trkpt>
      <trkpt lat="43.54538" lon="6.76639">
        <ele>177.3</ele>
        <time>2014-04-21T09:40:13Z</time>
      </trkpt>
      <trkpt lat="43.54533" lon="6.76628">
        <ele>182.3</ele>
        <time>2014-04-21T09:40:19Z</time>
      </trkpt>
      <trkpt lat="43.54542" lon="6.76621">
        <ele>183.3</ele>
        <time>2014-04-21T09:40:24Z</time>
      </trkpt>
      <trkpt lat="43.54551" lon="6.76622">
        <ele>179.3</ele>
        <time>2014-04-21T09:40:29Z</time>
      </trkpt>
      <trkpt lat="43.5456" lon="6.76618">
        <ele>175.3</ele>
        <time>2014-04-21T09:40:35Z</time>
      </trkpt>
      <trkpt lat="43.5457" lon="6.76616">
        <ele>178.3</ele>
        <time>2014-04-21T09:40:42Z</time>
      </trkpt>
      <trkpt lat="43.54578" lon="6.76607">
        <ele>176.3</ele>
        <time>2014-04-21T09:40:48Z</time>
      </trkpt>
      <trkpt lat="43.54583" lon="6.76595">
        <ele>178.3</ele>
        <time>2014-04-21T09:40:54Z</time>
      </trkpt>
      <trkpt lat="43.54585" lon="6.76582">
        <ele>178.3</ele>
        <time>2014-04-21T09:40:59Z</time>
      </trkpt>
      <trkpt lat="43.54588" lon="6.76567">
        <ele>180.3</ele>
        <time>2014-04-21T09:41:04Z</time>
      </trkpt>
      <trkpt lat="43.54588" lon="6.7654">
        <ele>181.3</ele>
        <time>2014-04-21T09:41:13Z</time>
      </trkpt>
      <trkpt lat="43.54588" lon="6.76527">
        <ele>182.3</ele>
        <time>2014-04-21T09:41:17Z</time>
      </trkpt>
      <trkpt lat="43.54586" lon="6.76513">
        <ele>186.3</ele>
        <time>2014-04-21T09:41:22Z</time>
      </trkpt>
      <trkpt lat="43.54583" lon="6.76499">
        <ele>188.3</ele>
        <time>2014-04-21T09:41:27Z</time>
      </trkpt>
      <trkpt lat="43.54577" lon="6.7649">
        <ele>187.3</ele>
        <time>2014-04-21T09:41:31Z</time>
      </trkpt>
      <trkpt lat="43.54567" lon="6.76482">
        <ele>190.3</ele>
        <time>2014-04-21T09:41:36Z</time>
      </trkpt>
      <trkpt lat="43.5456" lon="6.76474">
        <ele>188.3</ele>
        <time>2014-04-21T09:41:41Z</time>
      </trkpt>
      <trkpt lat="43.54567" lon="6.76464">
        <ele>189.3</ele>
        <time>2014-04-21T09:41:47Z</time>
      </trkpt>
      <trkpt lat="43.54577" lon="6.76461">
        <ele>191.3</ele>
        <time>2014-04-21T09:41:52Z</time>
      </trkpt>
      <trkpt lat="43.54587" lon="6.76457">
        <ele>193.3</ele>
        <time>2014-04-21T09:41:57Z</time>
      </trkpt>
      <trkpt lat="43.54594" lon="6.76445">
        <ele>194.3</ele>
        <time>2014-04-21T09:42:02Z</time>
      </trkpt>
      <trkpt lat="43.54594" lon="6.7643">
        <ele>195.3</ele>
        <time>2014-04-21T09:42:07Z</time>
      </trkpt>
      <trkpt lat="43.54584" lon="6.76406">
        <ele>199.3</ele>
        <time>2014-04-21T09:42:16Z</time>
      </trkpt>
      <trkpt lat="43.54577" lon="6.76398">
        <ele>201.3</ele>
        <time>2014-04-21T09:42:20Z</time>
      </trkpt>
      <trkpt lat="43.54573" lon="6.76384">
        <ele>205.3</ele>
        <time>2014-04-21T09:42:25Z</time>
      </trkpt>
      <trkpt lat="43.54582" lon="6.76375">
        <ele>205.3</ele>
        <time>2014-04-21T09:42:30Z</time>
      </trkpt>
      <trkpt lat="43.54591" lon="6.76375">
        <ele>205.3</ele>
        <time>2014-04-21T09:42:34Z</time>
      </trkpt>
      <trkpt lat="43.546" lon="6.76372">
        <ele>206.3</ele>
        <time>2014-04-21T09:42:38Z</time>
      </trkpt>
      <trkpt lat="43.5461" lon="6.76372">
        <ele>206.3</ele>
        <time>2014-04-21T09:42:42Z</time>
      </trkpt>
      <trkpt lat="43.54617" lon="6.76361">
        <ele>206.3</ele>
        <time>2014-04-21T09:42:47Z</time>
      </trkpt>
      <trkpt lat="43.54615" lon="6.76348">
        <ele>206.3</ele>
        <time>2014-04-21T09:42:51Z</time>
      </trkpt>
      <trkpt lat="43.54612" lon="6.76333">
        <ele>207.3</ele>
        <time>2014-04-21T09:42:56Z</time>
      </trkpt>
      <trkpt lat="43.54606" lon="6.7632">
        <ele>208.3</ele>
        <time>2014-04-21T09:43:01Z</time>
      </trkpt>
      <trkpt lat="43.54599" lon="6.76309">
        <ele>208.3</ele>
        <time>2014-04-21T09:43:05Z</time>
      </trkpt>
      <trkpt lat="43.54592" lon="6.76297">
        <ele>208.3</ele>
        <time>2014-04-21T09:43:09Z</time>
      </trkpt>
      <trkpt lat="43.54581" lon="6.76273">
        <ele>210.3</ele>
        <time>2014-04-21T09:43:17Z</time>
      </trkpt>
      <trkpt lat="43.54576" lon="6.7626">
        <ele>210.3</ele>
        <time>2014-04-21T09:43:21Z</time>
      </trkpt>
      <trkpt lat="43.5457" lon="6.76247">
        <ele>210.3</ele>
        <time>2014-04-21T09:43:25Z</time>
      </trkpt>
      <trkpt lat="43.54564" lon="6.76235">
        <ele>210.3</ele>
        <time>2014-04-21T09:43:29Z</time>
      </trkpt>
      <trkpt lat="43.5456" lon="6.76222">
        <ele>211.3</ele>
        <time>2014-04-21T09:43:32Z</time>
      </trkpt>
      <trkpt lat="43.54555" lon="6.76211">
        <ele>212.3</ele>
        <time>2014-04-21T09:43:35Z</time>
      </trkpt>
      <trkpt lat="43.54549" lon="6.76201">
        <ele>212.3</ele>
        <time>2014-04-21T09:43:38Z</time>
      </trkpt>
      <trkpt lat="43.54541" lon="6.76189">
        <ele>212.3</ele>
        <time>2014-04-21T09:43:42Z</time>
      </trkpt>
      <trkpt lat="43.54534" lon="6.76177">
        <ele>213.3</ele>
        <time>2014-04-21T09:43:46Z</time>
      </trkpt>
      <trkpt lat="43.54528" lon="6.76165">
        <ele>214.3</ele>
        <time>2014-04-21T09:43:50Z</time>
      </trkpt>
      <trkpt lat="43.54521" lon="6.76153">
        <ele>216.3</ele>
        <time>2014-04-21T09:43:54Z</time>
      </trkpt>
      <trkpt lat="43.54513" lon="6.76142">
        <ele>216.3</ele>
        <time>2014-04-21T09:43:58Z</time>
      </trkpt>
      <trkpt lat="43.54505" lon="6.76135">
        <ele>219.3</ele>
        <time>2014-04-21T09:44:02Z</time>
      </trkpt>
      <trkpt lat="43.54497" lon="6.76126">
        <ele>219.3</ele>
        <time>2014-04-21T09:44:06Z</time>
      </trkpt>
      <trkpt lat="43.54493" lon="6.7611">
        <ele>222.3</ele>
        <time>2014-04-21T09:44:10Z</time>
      </trkpt>
      <trkpt lat="43.54498" lon="6.76082">
        <ele>227.3</ele>
        <time>2014-04-21T09:44:17Z</time>
      </trkpt>
      <trkpt lat="43.54506" lon="6.76075">
        <ele>227.3</ele>
        <time>2014-04-21T09:44:21Z</time>
      </trkpt>
      <trkpt lat="43.54516" lon="6.7608">
        <ele>226.3</ele>
        <time>2014-04-21T09:44:25Z</time>
      </trkpt>
      <trkpt lat="43.54526" lon="6.76077">
        <ele>227.3</ele>
        <time>2014-04-21T09:44:30Z</time>
      </trkpt>
      <trkpt lat="43.54537" lon="6.76077">
        <ele>229.3</ele>
        <time>2014-04-21T09:44:34Z</time>
      </trkpt>
      <trkpt lat="43.54548" lon="6.76076">
        <ele>228.3</ele>
        <time>2014-04-21T09:44:38Z</time>
      </trkpt>
      <trkpt lat="43.54559" lon="6.76078">
        <ele>228.3</ele>
        <time>2014-04-21T09:44:42Z</time>
      </trkpt>
      <trkpt lat="43.5457" lon="6.7608">
        <ele>228.3</ele>
        <time>2014-04-21T09:44:46Z</time>
      </trkpt>
      <trkpt lat="43.54581" lon="6.76078">
        <ele>229.3</ele>
        <time>2014-04-21T09:44:50Z</time>
      </trkpt>
      <trkpt lat="43.54592" lon="6.76075">
        <ele>232.3</ele>
        <time>2014-04-21T09:44:54Z</time>
      </trkpt>
      <trkpt lat="43.54601" lon="6.76065">
        <ele>233.3</ele>
        <time>2014-04-21T09:44:58Z</time>
      </trkpt>
      <trkpt lat="43.54605" lon="6.7605">
        <ele>233.3</ele>
        <time>2014-04-21T09:45:02Z</time>
      </trkpt>
      <trkpt lat="43.54605" lon="6.76035">
        <ele>233.3</ele>
        <time>2014-04-21T09:45:06Z</time>
      </trkpt>
      <trkpt lat="43.54601" lon="6.76021">
        <ele>234.3</ele>
        <time>2014-04-21T09:45:10Z</time>
      </trkpt>
      <trkpt lat="43.54595" lon="6.76008">
        <ele>234.3</ele>
        <time>2014-04-21T09:45:14Z</time>
      </trkpt>
      <trkpt lat="43.54584" lon="6.75985">
        <ele>236.3</ele>
        <time>2014-04-21T09:45:21Z</time>
      </trkpt>
      <trkpt lat="43.54578" lon="6.75973">
        <ele>238.3</ele>
        <time>2014-04-21T09:45:25Z</time>
      </trkpt>
      <trkpt lat="43.54572" lon="6.75962">
        <ele>238.3</ele>
        <time>2014-04-21T09:45:29Z</time>
      </trkpt>
      <trkpt lat="43.54564" lon="6.75956">
        <ele>237.3</ele>
        <time>2014-04-21T09:45:34Z</time>
      </trkpt>
      <trkpt lat="43.54559" lon="6.75946">
        <ele>240.3</ele>
        <time>2014-04-21T09:45:38Z</time>
      </trkpt>
      <trkpt lat="43.54557" lon="6.75931">
        <ele>241.3</ele>
        <time>2014-04-21T09:45:42Z</time>
      </trkpt>
      <trkpt lat="43.54559" lon="6.75916">
        <ele>242.3</ele>
        <time>2014-04-21T09:45:46Z</time>
      </trkpt>
      <trkpt lat="43.54564" lon="6.75904">
        <ele>244.3</ele>
        <time>2014-04-21T09:45:50Z</time>
      </trkpt>
      <trkpt lat="43.54571" lon="6.75892">
        <ele>245.3</ele>
        <time>2014-04-21T09:45:55Z</time>
      </trkpt>
      <trkpt lat="43.54576" lon="6.75878">
        <ele>246.3</ele>
        <time>2014-04-21T09:46:00Z</time>
      </trkpt>
      <trkpt lat="43.5458" lon="6.75865">
        <ele>248.3</ele>
        <time>2014-04-21T09:46:05Z</time>
      </trkpt>
      <trkpt lat="43.54583" lon="6.75851">
        <ele>248.3</ele>
        <time>2014-04-21T09:46:10Z</time>
      </trkpt>
      <trkpt lat="43.54583" lon="6.75839">
        <ele>248.3</ele>
        <time>2014-04-21T09:46:14Z</time>
      </trkpt>
      <trkpt lat="43.54578" lon="6.75824">
        <ele>248.3</ele>
        <time>2014-04-21T09:46:19Z</time>
      </trkpt>
      <trkpt lat="43.54569" lon="6.75802">
        <ele>253.3</ele>
        <time>2014-04-21T09:46:27Z</time>
      </trkpt>
      <trkpt lat="43.54564" lon="6.75789">
        <ele>253.3</ele>
        <time>2014-04-21T09:46:32Z</time>
      </trkpt>
      <trkpt lat="43.54558" lon="6.75778">
        <ele>253.3</ele>
        <time>2014-04-21T09:46:36Z</time>
      </trkpt>
      <trkpt lat="43.5455" lon="6.75769">
        <ele>253.3</ele>
        <time>2014-04-21T09:46:40Z</time>
      </trkpt>
      <trkpt lat="43.54543" lon="6.75759">
        <ele>253.3</ele>
        <time>2014-04-21T09:46:44Z</time>
      </trkpt>
      <trkpt lat="43.54537" lon="6.7575">
        <ele>252.3</ele>
        <time>2014-04-21T09:46:48Z</time>
      </trkpt>
      <trkpt lat="43.54532" lon="6.75738">
        <ele>251.3</ele>
        <time>2014-04-21T09:46:52Z</time>
      </trkpt>
      <trkpt lat="43.54533" lon="6.75723">
        <ele>253.3</ele>
        <time>2014-04-21T09:46:56Z</time>
      </trkpt>
      <trkpt lat="43.54534" lon="6.75708">
        <ele>255.3</ele>
        <time>2014-04-21T09:47:00Z</time>
      </trkpt>
      <trkpt lat="43.54532" lon="6.75694">
        <ele>255.3</ele>
        <time>2014-04-21T09:47:04Z</time>
      </trkpt>
      <trkpt lat="43.54526" lon="6.7568">
        <ele>255.3</ele>
        <time>2014-04-21T09:47:08Z</time>
      </trkpt>
      <trkpt lat="43.54521" lon="6.7567">
        <ele>255.3</ele>
        <time>2014-04-21T09:47:11Z</time>
      </trkpt>
      <trkpt lat="43.54514" lon="6.75657">
        <ele>256.3</ele>
        <time>2014-04-21T09:47:15Z</time>
      </trkpt>
      <trkpt lat="43.54507" lon="6.75645">
        <ele>258.3</ele>
        <time>2014-04-21T09:47:19Z</time>
      </trkpt>
      <trkpt lat="43.54504" lon="6.75631">
        <ele>261.3</ele>
        <time>2014-04-21T09:47:24Z</time>
      </trkpt>
      <trkpt lat="43.54523" lon="6.75617">
        <ele>263.3</ele>
        <time>2014-04-21T09:47:33Z</time>
      </trkpt>
      <trkpt lat="43.54534" lon="6.7561">
        <ele>261.3</ele>
        <time>2014-04-21T09:47:37Z</time>
      </trkpt>
      <trkpt lat="43.54542" lon="6.75601">
        <ele>258.3</ele>
        <time>2014-04-21T09:47:40Z</time>
      </trkpt>
      <trkpt lat="43.54549" lon="6.75591">
        <ele>258.3</ele>
        <time>2014-04-21T09:47:43Z</time>
      </trkpt>
      <trkpt lat="43.54555" lon="6.75582">
        <ele>259.3</ele>
        <time>2014-04-21T09:47:46Z</time>
      </trkpt>
      <trkpt lat="43.54561" lon="6.75571">
        <ele>259.3</ele>
        <time>2014-04-21T09:47:49Z</time>
      </trkpt>
      <trkpt lat="43.54571" lon="6.75565">
        <ele>260.3</ele>
        <time>2014-04-21T09:47:53Z</time>
      </trkpt>
      <trkpt lat="43.5458" lon="6.75573">
        <ele>260.3</ele>
        <time>2014-04-21T09:47:57Z</time>
      </trkpt>
      <trkpt lat="43.54589" lon="6.75582">
        <ele>261.3</ele>
        <time>2014-04-21T09:48:01Z</time>
      </trkpt>
      <trkpt lat="43.54599" lon="6.75584">
        <ele>264.3</ele>
        <time>2014-04-21T09:48:05Z</time>
      </trkpt>
      <trkpt lat="43.54609" lon="6.75575">
        <ele>265.3</ele>
        <time>2014-04-21T09:48:09Z</time>
      </trkpt>
      <trkpt lat="43.54616" lon="6.75564">
        <ele>265.3</ele>
        <time>2014-04-21T09:48:12Z</time>
      </trkpt>
      <trkpt lat="43.54622" lon="6.75551">
        <ele>265.3</ele>
        <time>2014-04-21T09:48:15Z</time>
      </trkpt>
      <trkpt lat="43.54626" lon="6.75538">
        <ele>266.3</ele>
        <time>2014-04-21T09:48:18Z</time>
      </trkpt>
      <trkpt lat="43.54628" lon="6.75524">
        <ele>267.3</ele>
        <time>2014-04-21T09:48:21Z</time>
      </trkpt>
      <trkpt lat="43.54631" lon="6.7551">
        <ele>268.3</ele>
        <time>2014-04-21T09:48:24Z</time>
      </trkpt>
      <trkpt lat="43.54634" lon="6.75497">
        <ele>269.3</ele>
        <time>2014-04-21T09:48:27Z</time>
      </trkpt>
      <trkpt lat="43.54634" lon="6.75471">
        <ele>269.3</ele>
        <time>2014-04-21T09:48:34Z</time>
      </trkpt>
      <trkpt lat="43.54629" lon="6.75457">
        <ele>270.3</ele>
        <time>2014-04-21T09:48:39Z</time>
      </trkpt>
      <trkpt lat="43.54624" lon="6.75446">
        <ele>272.3</ele>
        <time>2014-04-21T09:48:43Z</time>
      </trkpt>
      <trkpt lat="43.54616" lon="6.75434">
        <ele>272.3</ele>
        <time>2014-04-21T09:48:47Z</time>
      </trkpt>
      <trkpt lat="43.54608" lon="6.75423">
        <ele>272.3</ele>
        <time>2014-04-21T09:48:51Z</time>
      </trkpt>
      <trkpt lat="43.54598" lon="6.75415">
        <ele>273.3</ele>
        <time>2014-04-21T09:48:55Z</time>
      </trkpt>
      <trkpt lat="43.54588" lon="6.75408">
        <ele>273.3</ele>
        <time>2014-04-21T09:48:59Z</time>
      </trkpt>
      <trkpt lat="43.54579" lon="6.754">
        <ele>273.3</ele>
        <time>2014-04-21T09:49:04Z</time>
      </trkpt>
      <trkpt lat="43.54572" lon="6.75392">
        <ele>274.3</ele>
        <time>2014-04-21T09:49:08Z</time>
      </trkpt>
      <trkpt lat="43.54565" lon="6.75383">
        <ele>274.3</ele>
        <time>2014-04-21T09:49:12Z</time>
      </trkpt>
      <trkpt lat="43.54558" lon="6.75372">
        <ele>276.3</ele>
        <time>2014-04-21T09:49:16Z</time>
      </trkpt>
      <trkpt lat="43.54552" lon="6.75359">
        <ele>278.3</ele>
        <time>2014-04-21T09:49:20Z</time>
      </trkpt>
      <trkpt lat="43.54547" lon="6.75346">
        <ele>282.3</ele>
        <time>2014-04-21T09:49:24Z</time>
      </trkpt>
      <trkpt lat="43.54545" lon="6.75334">
        <ele>284.3</ele>
        <time>2014-04-21T09:49:28Z</time>
      </trkpt>
      <trkpt lat="43.5456" lon="6.75314">
        <ele>284.3</ele>
        <time>2014-04-21T09:49:35Z</time>
      </trkpt>
      <trkpt lat="43.54569" lon="6.75309">
        <ele>284.3</ele>
        <time>2014-04-21T09:49:38Z</time>
      </trkpt>
      <trkpt lat="43.54578" lon="6.75307">
        <ele>284.3</ele>
        <time>2014-04-21T09:49:41Z</time>
      </trkpt>
      <trkpt lat="43.54589" lon="6.75306">
        <ele>284.3</ele>
        <time>2014-04-21T09:49:45Z</time>
      </trkpt>
      <trkpt lat="43.54599" lon="6.75304">
        <ele>283.3</ele>
        <time>2014-04-21T09:49:49Z</time>
      </trkpt>
      <trkpt lat="43.5461" lon="6.75302">
        <ele>284.3</ele>
        <time>2014-04-21T09:49:53Z</time>
      </trkpt>
      <trkpt lat="43.5462" lon="6.75297">
        <ele>284.3</ele>
        <time>2014-04-21T09:49:57Z</time>
      </trkpt>
      <trkpt lat="43.54632" lon="6.75293">
        <ele>284.3</ele>
        <time>2014-04-21T09:50:01Z</time>
      </trkpt>
      <trkpt lat="43.54642" lon="6.75287">
        <ele>285.3</ele>
        <time>2014-04-21T09:50:05Z</time>
      </trkpt>
      <trkpt lat="43.5465" lon="6.75276">
        <ele>287.3</ele>
        <time>2014-04-21T09:50:09Z</time>
      </trkpt>
      <trkpt lat="43.54656" lon="6.75262">
        <ele>287.3</ele>
        <time>2014-04-21T09:50:13Z</time>
      </trkpt>
      <trkpt lat="43.5466" lon="6.7525">
        <ele>286.3</ele>
        <time>2014-04-21T09:50:16Z</time>
      </trkpt>
      <trkpt lat="43.54663" lon="6.75239">
        <ele>288.3</ele>
        <time>2014-04-21T09:50:19Z</time>
      </trkpt>
      <trkpt lat="43.54666" lon="6.75223">
        <ele>288.3</ele>
        <time>2014-04-21T09:50:23Z</time>
      </trkpt>
      <trkpt lat="43.54668" lon="6.7521">
        <ele>288.3</ele>
        <time>2014-04-21T09:50:26Z</time>
      </trkpt>
      <trkpt lat="43.54668" lon="6.75197">
        <ele>288.3</ele>
        <time>2014-04-21T09:50:29Z</time>
      </trkpt>
      <trkpt lat="43.54665" lon="6.75171">
        <ele>289.3</ele>
        <time>2014-04-21T09:50:35Z</time>
      </trkpt>
      <trkpt lat="43.54661" lon="6.7516">
        <ele>289.3</ele>
        <time>2014-04-21T09:50:38Z</time>
      </trkpt>
      <trkpt lat="43.54653" lon="6.75148">
        <ele>290.3</ele>
        <time>2014-04-21T09:50:42Z</time>
      </trkpt>
      <trkpt lat="43.54644" lon="6.7514">
        <ele>292.3</ele>
        <time>2014-04-21T09:50:46Z</time>
      </trkpt>
      <trkpt lat="43.54635" lon="6.75133">
        <ele>294.3</ele>
        <time>2014-04-21T09:50:50Z</time>
      </trkpt>
      <trkpt lat="43.54627" lon="6.75124">
        <ele>296.3</ele>
        <time>2014-04-21T09:50:54Z</time>
      </trkpt>
      <trkpt lat="43.5462" lon="6.75113">
        <ele>296.3</ele>
        <time>2014-04-21T09:50:58Z</time>
      </trkpt>
      <trkpt lat="43.54611" lon="6.75103">
        <ele>299.3</ele>
        <time>2014-04-21T09:51:02Z</time>
      </trkpt>
      <trkpt lat="43.54605" lon="6.75088">
        <ele>302.3</ele>
        <time>2014-04-21T09:51:06Z</time>
      </trkpt>
      <trkpt lat="43.54601" lon="6.75078">
        <ele>304.3</ele>
        <time>2014-04-21T09:51:09Z</time>
      </trkpt>
      <trkpt lat="43.54594" lon="6.75068">
        <ele>302.3</ele>
        <time>2014-04-21T09:51:12Z</time>
      </trkpt>
      <trkpt lat="43.54588" lon="6.75054">
        <ele>301.3</ele>
        <time>2014-04-21T09:51:16Z</time>
      </trkpt>
      <trkpt lat="43.54586" lon="6.75041">
        <ele>302.3</ele>
        <time>2014-04-21T09:51:19Z</time>
      </trkpt>
      <trkpt lat="43.54587" lon="6.75028">
        <ele>303.3</ele>
        <time>2014-04-21T09:51:22Z</time>
      </trkpt>
      <trkpt lat="43.54581" lon="6.74998">
        <ele>300.3</ele>
        <time>2014-04-21T09:51:25Z</time>
      </trkpt>
      <trkpt lat="43.54578" lon="6.74983">
        <ele>297.3</ele>
        <time>2014-04-21T09:51:27Z</time>
      </trkpt>
      <trkpt lat="43.54574" lon="6.7497">
        <ele>297.3</ele>
        <time>2014-04-21T09:51:29Z</time>
      </trkpt>
      <trkpt lat="43.54567" lon="6.74937">
        <ele>299.3</ele>
        <time>2014-04-21T09:51:33Z</time>
      </trkpt>
      <trkpt lat="43.54567" lon="6.74924">
        <ele>298.3</ele>
        <time>2014-04-21T09:51:35Z</time>
      </trkpt>
      <trkpt lat="43.5457" lon="6.74911">
        <ele>299.3</ele>
        <time>2014-04-21T09:51:37Z</time>
      </trkpt>
      <trkpt lat="43.54569" lon="6.74896">
        <ele>298.3</ele>
        <time>2014-04-21T09:51:39Z</time>
      </trkpt>
      <trkpt lat="43.5457" lon="6.7488">
        <ele>299.3</ele>
        <time>2014-04-21T09:51:41Z</time>
      </trkpt>
      <trkpt lat="43.54572" lon="6.74866">
        <ele>299.3</ele>
        <time>2014-04-21T09:51:43Z</time>
      </trkpt>
      <trkpt lat="43.54574" lon="6.74853">
        <ele>297.3</ele>
        <time>2014-04-21T09:51:46Z</time>
      </trkpt>
      <trkpt lat="43.54587" lon="6.74849">
        <ele>295.3</ele>
        <time>2014-04-21T09:51:49Z</time>
      </trkpt>
      <trkpt lat="43.54601" lon="6.74849">
        <ele>295.3</ele>
        <time>2014-04-21T09:51:52Z</time>
      </trkpt>
      <trkpt lat="43.54613" lon="6.74849">
        <ele>297.3</ele>
        <time>2014-04-21T09:51:54Z</time>
      </trkpt>
      <trkpt lat="43.54624" lon="6.7485">
        <ele>300.3</ele>
        <time>2014-04-21T09:51:56Z</time>
      </trkpt>
      <trkpt lat="43.54636" lon="6.74846">
        <ele>300.3</ele>
        <time>2014-04-21T09:51:58Z</time>
      </trkpt>
      <trkpt lat="43.54646" lon="6.74839">
        <ele>300.3</ele>
        <time>2014-04-21T09:52:00Z</time>
      </trkpt>
      <trkpt lat="43.54656" lon="6.74832">
        <ele>299.3</ele>
        <time>2014-04-21T09:52:02Z</time>
      </trkpt>
      <trkpt lat="43.54665" lon="6.74823">
        <ele>298.3</ele>
        <time>2014-04-21T09:52:04Z</time>
      </trkpt>
      <trkpt lat="43.54674" lon="6.74815">
        <ele>298.3</ele>
        <time>2014-04-21T09:52:06Z</time>
      </trkpt>
      <trkpt lat="43.54683" lon="6.74807">
        <ele>297.3</ele>
        <time>2014-04-21T09:52:08Z</time>
      </trkpt>
      <trkpt lat="43.54692" lon="6.74797">
        <ele>296.3</ele>
        <time>2014-04-21T09:52:10Z</time>
      </trkpt>
      <trkpt lat="43.54701" lon="6.7479">
        <ele>296.3</ele>
        <time>2014-04-21T09:52:12Z</time>
      </trkpt>
      <trkpt lat="43.54711" lon="6.74785">
        <ele>297.3</ele>
        <time>2014-04-21T09:52:14Z</time>
      </trkpt>
      <trkpt lat="43.54721" lon="6.74781">
        <ele>297.3</ele>
        <time>2014-04-21T09:52:16Z</time>
      </trkpt>
      <trkpt lat="43.54731" lon="6.74778">
        <ele>297.3</ele>
        <time>2014-04-21T09:52:18Z</time>
      </trkpt>
      <trkpt lat="43.54744" lon="6.74774">
        <ele>297.3</ele>
        <time>2014-04-21T09:52:21Z</time>
      </trkpt>
      <trkpt lat="43.54754" lon="6.74773">
        <ele>297.3</ele>
        <time>2014-04-21T09:52:23Z</time>
      </trkpt>
      <trkpt lat="43.54765" lon="6.74775">
        <ele>297.3</ele>
        <time>2014-04-21T09:52:25Z</time>
      </trkpt>
      <trkpt lat="43.54777" lon="6.74774">
        <ele>297.3</ele>
        <time>2014-04-21T09:52:27Z</time>
      </trkpt>
      <trkpt lat="43.5479" lon="6.74773">
        <ele>296.3</ele>
        <time>2014-04-21T09:52:29Z</time>
      </trkpt>
      <trkpt lat="43.54799" lon="6.74774">
        <ele>297.3</ele>
        <time>2014-04-21T09:52:31Z</time>
      </trkpt>
      <trkpt lat="43.54783" lon="6.74759">
        <ele>301.3</ele>
        <time>2014-04-21T10:10:40Z</time>
      </trkpt>
      <trkpt lat="43.54773" lon="6.74757">
        <ele>303.3</ele>
        <time>2014-04-21T10:10:45Z</time>
      </trkpt>
      <trkpt lat="43.54765" lon="6.74752">
        <ele>303.3</ele>
        <time>2014-04-21T10:10:50Z</time>
      </trkpt>
      <trkpt lat="43.54758" lon="6.74744">
        <ele>304.3</ele>
        <time>2014-04-21T10:10:55Z</time>
      </trkpt>
      <trkpt lat="43.54753" lon="6.74732">
        <ele>304.3</ele>
        <time>2014-04-21T10:11:00Z</time>
      </trkpt>
      <trkpt lat="43.54751" lon="6.7472">
        <ele>306.3</ele>
        <time>2014-04-21T10:11:05Z</time>
      </trkpt>
      <trkpt lat="43.54747" lon="6.74707">
        <ele>307.3</ele>
        <time>2014-04-21T10:11:11Z</time>
      </trkpt>
      <trkpt lat="43.54743" lon="6.74693">
        <ele>309.3</ele>
        <time>2014-04-21T10:11:17Z</time>
      </trkpt>
      <trkpt lat="43.54739" lon="6.74681">
        <ele>309.3</ele>
        <time>2014-04-21T10:11:23Z</time>
      </trkpt>
      <trkpt lat="43.54735" lon="6.74669">
        <ele>310.3</ele>
        <time>2014-04-21T10:11:29Z</time>
      </trkpt>
      <trkpt lat="43.54725" lon="6.74643">
        <ele>311.3</ele>
        <time>2014-04-21T10:11:41Z</time>
      </trkpt>
      <trkpt lat="43.5472" lon="6.74632">
        <ele>313.3</ele>
        <time>2014-04-21T10:11:46Z</time>
      </trkpt>
      <trkpt lat="43.54714" lon="6.74621">
        <ele>315.3</ele>
        <time>2014-04-21T10:11:51Z</time>
      </trkpt>
      <trkpt lat="43.54706" lon="6.74614">
        <ele>316.3</ele>
        <time>2014-04-21T10:11:56Z</time>
      </trkpt>
      <trkpt lat="43.54697" lon="6.74619">
        <ele>313.3</ele>
        <time>2014-04-21T10:12:01Z</time>
      </trkpt>
      <trkpt lat="43.54691" lon="6.74628">
        <ele>315.3</ele>
        <time>2014-04-21T10:12:05Z</time>
      </trkpt>
      <trkpt lat="43.54685" lon="6.74639">
        <ele>318.3</ele>
        <time>2014-04-21T10:12:10Z</time>
      </trkpt>
      <trkpt lat="43.54683" lon="6.74654">
        <ele>318.3</ele>
        <time>2014-04-21T10:12:16Z</time>
      </trkpt>
      <trkpt lat="43.54682" lon="6.74667">
        <ele>318.3</ele>
        <time>2014-04-21T10:12:21Z</time>
      </trkpt>
      <trkpt lat="43.54681" lon="6.74679">
        <ele>320.3</ele>
        <time>2014-04-21T10:12:26Z</time>
      </trkpt>
      <trkpt lat="43.54679" lon="6.74693">
        <ele>320.3</ele>
        <time>2014-04-21T10:12:31Z</time>
      </trkpt>
      <trkpt lat="43.54671" lon="6.7472">
        <ele>321.3</ele>
        <time>2014-04-21T10:12:39Z</time>
      </trkpt>
      <trkpt lat="43.54664" lon="6.7473">
        <ele>321.3</ele>
        <time>2014-04-21T10:12:43Z</time>
      </trkpt>
      <trkpt lat="43.54656" lon="6.74739">
        <ele>322.3</ele>
        <time>2014-04-21T10:12:47Z</time>
      </trkpt>
      <trkpt lat="43.54647" lon="6.74745">
        <ele>323.3</ele>
        <time>2014-04-21T10:12:53Z</time>
      </trkpt>
      <trkpt lat="43.54638" lon="6.74749">
        <ele>324.3</ele>
        <time>2014-04-21T10:12:58Z</time>
      </trkpt>
      <trkpt lat="43.54628" lon="6.7475">
        <ele>325.3</ele>
        <time>2014-04-21T10:13:04Z</time>
      </trkpt>
      <trkpt lat="43.5462" lon="6.74745">
        <ele>325.3</ele>
        <time>2014-04-21T10:13:10Z</time>
      </trkpt>
      <trkpt lat="43.54611" lon="6.74738">
        <ele>327.3</ele>
        <time>2014-04-21T10:13:17Z</time>
      </trkpt>
      <trkpt lat="43.546" lon="6.74738">
        <ele>326.3</ele>
        <time>2014-04-21T10:13:24Z</time>
      </trkpt>
      <trkpt lat="43.54592" lon="6.74747">
        <ele>327.3</ele>
        <time>2014-04-21T10:13:30Z</time>
      </trkpt>
      <trkpt lat="43.54586" lon="6.74757">
        <ele>330.3</ele>
        <time>2014-04-21T10:13:36Z</time>
      </trkpt>
      <trkpt lat="43.54567" lon="6.74763">
        <ele>333.3</ele>
        <time>2014-04-21T10:13:47Z</time>
      </trkpt>
      <trkpt lat="43.54557" lon="6.74764">
        <ele>334.3</ele>
        <time>2014-04-21T10:13:52Z</time>
      </trkpt>
      <trkpt lat="43.54548" lon="6.74765">
        <ele>334.3</ele>
        <time>2014-04-21T10:13:57Z</time>
      </trkpt>
      <trkpt lat="43.54538" lon="6.74768">
        <ele>334.3</ele>
        <time>2014-04-21T10:14:02Z</time>
      </trkpt>
      <trkpt lat="43.54528" lon="6.74771">
        <ele>333.3</ele>
        <time>2014-04-21T10:14:08Z</time>
      </trkpt>
      <trkpt lat="43.54526" lon="6.74783">
        <ele>333.3</ele>
        <time>2014-04-21T10:14:31Z</time>
      </trkpt>
      <trkpt lat="43.54522" lon="6.74796">
        <ele>333.3</ele>
        <time>2014-04-21T10:14:38Z</time>
      </trkpt>
      <trkpt lat="43.54514" lon="6.74819">
        <ele>334.3</ele>
        <time>2014-04-21T10:14:51Z</time>
      </trkpt>
      <trkpt lat="43.54508" lon="6.7483">
        <ele>336.3</ele>
        <time>2014-04-21T10:14:57Z</time>
      </trkpt>
      <trkpt lat="43.54503" lon="6.74842">
        <ele>337.3</ele>
        <time>2014-04-21T10:15:02Z</time>
      </trkpt>
      <trkpt lat="43.54502" lon="6.74857">
        <ele>334.3</ele>
        <time>2014-04-21T10:15:05Z</time>
      </trkpt>
      <trkpt lat="43.54501" lon="6.7487">
        <ele>335.3</ele>
        <time>2014-04-21T10:15:07Z</time>
      </trkpt>
      <trkpt lat="43.545" lon="6.74885">
        <ele>337.3</ele>
        <time>2014-04-21T10:15:10Z</time>
      </trkpt>
      <trkpt lat="43.54499" lon="6.74899">
        <ele>336.3</ele>
        <time>2014-04-21T10:15:13Z</time>
      </trkpt>
      <trkpt lat="43.545" lon="6.74916">
        <ele>335.3</ele>
        <time>2014-04-21T10:15:15Z</time>
      </trkpt>
      <trkpt lat="43.545" lon="6.74929">
        <ele>334.3</ele>
        <time>2014-04-21T10:15:17Z</time>
      </trkpt>
      <trkpt lat="43.545" lon="6.74944">
        <ele>334.3</ele>
        <time>2014-04-21T10:15:19Z</time>
      </trkpt>
      <trkpt lat="43.54501" lon="6.74959">
        <ele>334.3</ele>
        <time>2014-04-21T10:15:21Z</time>
      </trkpt>
      <trkpt lat="43.54501" lon="6.74976">
        <ele>333.3</ele>
        <time>2014-04-21T10:15:23Z</time>
      </trkpt>
      <trkpt lat="43.54498" lon="6.74991">
        <ele>333.3</ele>
        <time>2014-04-21T10:15:25Z</time>
      </trkpt>
      <trkpt lat="43.54495" lon="6.75006">
        <ele>332.3</ele>
        <time>2014-04-21T10:15:27Z</time>
      </trkpt>
      <trkpt lat="43.54495" lon="6.75022">
        <ele>334.3</ele>
        <time>2014-04-21T10:15:29Z</time>
      </trkpt>
      <trkpt lat="43.54493" lon="6.75036">
        <ele>334.3</ele>
        <time>2014-04-21T10:15:31Z</time>
      </trkpt>
      <trkpt lat="43.54491" lon="6.75053">
        <ele>336.3</ele>
        <time>2014-04-21T10:15:34Z</time>
      </trkpt>
      <trkpt lat="43.54489" lon="6.75067">
        <ele>338.3</ele>
        <time>2014-04-21T10:15:37Z</time>
      </trkpt>
      <trkpt lat="43.54487" lon="6.75081">
        <ele>339.3</ele>
        <time>2014-04-21T10:15:41Z</time>
      </trkpt>
      <trkpt lat="43.5448" lon="6.75107">
        <ele>340.3</ele>
        <time>2014-04-21T10:15:49Z</time>
      </trkpt>
      <trkpt lat="43.54476" lon="6.75119">
        <ele>342.3</ele>
        <time>2014-04-21T10:15:53Z</time>
      </trkpt>
      <trkpt lat="43.54475" lon="6.75132">
        <ele>342.3</ele>
        <time>2014-04-21T10:15:57Z</time>
      </trkpt>
      <trkpt lat="43.54478" lon="6.75143">
        <ele>340.3</ele>
        <time>2014-04-21T10:16:01Z</time>
      </trkpt>
      <trkpt lat="43.54479" lon="6.75156">
        <ele>343.3</ele>
        <time>2014-04-21T10:16:07Z</time>
      </trkpt>
      <trkpt lat="43.54469" lon="6.75156">
        <ele>342.3</ele>
        <time>2014-04-21T10:16:11Z</time>
      </trkpt>
      <trkpt lat="43.5446" lon="6.75154">
        <ele>343.3</ele>
        <time>2014-04-21T10:16:14Z</time>
      </trkpt>
      <trkpt lat="43.54451" lon="6.75159">
        <ele>342.3</ele>
        <time>2014-04-21T10:16:17Z</time>
      </trkpt>
      <trkpt lat="43.54444" lon="6.75168">
        <ele>341.3</ele>
        <time>2014-04-21T10:16:20Z</time>
      </trkpt>
      <trkpt lat="43.54434" lon="6.75176">
        <ele>341.3</ele>
        <time>2014-04-21T10:16:24Z</time>
      </trkpt>
      <trkpt lat="43.54427" lon="6.75184">
        <ele>344.3</ele>
        <time>2014-04-21T10:16:29Z</time>
      </trkpt>
      <trkpt lat="43.54418" lon="6.75182">
        <ele>347.3</ele>
        <time>2014-04-21T10:16:38Z</time>
      </trkpt>
      <trkpt lat="43.54408" lon="6.75187">
        <ele>347.3</ele>
        <time>2014-04-21T10:16:46Z</time>
      </trkpt>
      <trkpt lat="43.54387" lon="6.75192">
        <ele>342.3</ele>
        <time>2014-04-21T10:16:56Z</time>
      </trkpt>
      <trkpt lat="43.54378" lon="6.75196">
        <ele>341.3</ele>
        <time>2014-04-21T10:16:59Z</time>
      </trkpt>
      <trkpt lat="43.54368" lon="6.75203">
        <ele>339.3</ele>
        <time>2014-04-21T10:17:03Z</time>
      </trkpt>
      <trkpt lat="43.5436" lon="6.75209">
        <ele>340.3</ele>
        <time>2014-04-21T10:17:07Z</time>
      </trkpt>
      <trkpt lat="43.54351" lon="6.75214">
        <ele>342.3</ele>
        <time>2014-04-21T10:19:12Z</time>
      </trkpt>
      <trkpt lat="43.54334" lon="6.75208">
        <ele>343.3</ele>
        <time>2014-04-21T10:19:32Z</time>
      </trkpt>
      <trkpt lat="43.54327" lon="6.75198">
        <ele>338.3</ele>
        <time>2014-04-21T10:19:38Z</time>
      </trkpt>
      <trkpt lat="43.54316" lon="6.75193">
        <ele>337.3</ele>
        <time>2014-04-21T10:19:40Z</time>
      </trkpt>
      <trkpt lat="43.54306" lon="6.75193">
        <ele>335.3</ele>
        <time>2014-04-21T10:19:41Z</time>
      </trkpt>
      <trkpt lat="43.54291" lon="6.75193">
        <ele>335.3</ele>
        <time>2014-04-21T10:19:43Z</time>
      </trkpt>
      <trkpt lat="43.54276" lon="6.75192">
        <ele>334.3</ele>
        <time>2014-04-21T10:19:45Z</time>
      </trkpt>
      <trkpt lat="43.54263" lon="6.75193">
        <ele>332.3</ele>
        <time>2014-04-21T10:19:47Z</time>
      </trkpt>
      <trkpt lat="43.54248" lon="6.75195">
        <ele>333.3</ele>
        <time>2014-04-21T10:19:49Z</time>
      </trkpt>
      <trkpt lat="43.54232" lon="6.75199">
        <ele>332.3</ele>
        <time>2014-04-21T10:19:51Z</time>
      </trkpt>
      <trkpt lat="43.54215" lon="6.75202">
        <ele>332.3</ele>
        <time>2014-04-21T10:19:53Z</time>
      </trkpt>
      <trkpt lat="43.54201" lon="6.75207">
        <ele>331.3</ele>
        <time>2014-04-21T10:19:55Z</time>
      </trkpt>
      <trkpt lat="43.54187" lon="6.7521">
        <ele>331.3</ele>
        <time>2014-04-21T10:19:57Z</time>
      </trkpt>
      <trkpt lat="43.54174" lon="6.75216">
        <ele>330.3</ele>
        <time>2014-04-21T10:19:59Z</time>
      </trkpt>
      <trkpt lat="43.54162" lon="6.75225">
        <ele>328.3</ele>
        <time>2014-04-21T10:20:01Z</time>
      </trkpt>
      <trkpt lat="43.54153" lon="6.7524">
        <ele>327.3</ele>
        <time>2014-04-21T10:20:03Z</time>
      </trkpt>
      <trkpt lat="43.54142" lon="6.75251">
        <ele>326.3</ele>
        <time>2014-04-21T10:20:05Z</time>
      </trkpt>
      <trkpt lat="43.54134" lon="6.75263">
        <ele>326.3</ele>
        <time>2014-04-21T10:20:07Z</time>
      </trkpt>
      <trkpt lat="43.54123" lon="6.7527">
        <ele>324.3</ele>
        <time>2014-04-21T10:20:09Z</time>
      </trkpt>
      <trkpt lat="43.54111" lon="6.75268">
        <ele>322.3</ele>
        <time>2014-04-21T10:20:11Z</time>
      </trkpt>
      <trkpt lat="43.54095" lon="6.75263">
        <ele>322.3</ele>
        <time>2014-04-21T10:20:13Z</time>
      </trkpt>
      <trkpt lat="43.54062" lon="6.75246">
        <ele>321.3</ele>
        <time>2014-04-21T10:20:17Z</time>
      </trkpt>
      <trkpt lat="43.54048" lon="6.75237">
        <ele>319.3</ele>
        <time>2014-04-21T10:20:19Z</time>
      </trkpt>
      <trkpt lat="43.54033" lon="6.75234">
        <ele>317.3</ele>
        <time>2014-04-21T10:20:21Z</time>
      </trkpt>
      <trkpt lat="43.54018" lon="6.7524">
        <ele>316.3</ele>
        <time>2014-04-21T10:20:23Z</time>
      </trkpt>
      <trkpt lat="43.54004" lon="6.75252">
        <ele>317.3</ele>
        <time>2014-04-21T10:20:25Z</time>
      </trkpt>
      <trkpt lat="43.53992" lon="6.75261">
        <ele>316.3</ele>
        <time>2014-04-21T10:20:27Z</time>
      </trkpt>
      <trkpt lat="43.5398" lon="6.75266">
        <ele>315.3</ele>
        <time>2014-04-21T10:20:29Z</time>
      </trkpt>
      <trkpt lat="43.53968" lon="6.75269">
        <ele>314.3</ele>
        <time>2014-04-21T10:20:31Z</time>
      </trkpt>
      <trkpt lat="43.53954" lon="6.75272">
        <ele>311.3</ele>
        <time>2014-04-21T10:20:33Z</time>
      </trkpt>
      <trkpt lat="43.53939" lon="6.75273">
        <ele>310.3</ele>
        <time>2014-04-21T10:20:35Z</time>
      </trkpt>
      <trkpt lat="43.53925" lon="6.75271">
        <ele>308.3</ele>
        <time>2014-04-21T10:20:37Z</time>
      </trkpt>
      <trkpt lat="43.53912" lon="6.75266">
        <ele>308.3</ele>
        <time>2014-04-21T10:20:39Z</time>
      </trkpt>
      <trkpt lat="43.53901" lon="6.7526">
        <ele>308.3</ele>
        <time>2014-04-21T10:20:41Z</time>
      </trkpt>
      <trkpt lat="43.53889" lon="6.75254">
        <ele>308.3</ele>
        <time>2014-04-21T10:20:43Z</time>
      </trkpt>
      <trkpt lat="43.53879" lon="6.75246">
        <ele>308.3</ele>
        <time>2014-04-21T10:20:45Z</time>
      </trkpt>
      <trkpt lat="43.53874" lon="6.75235">
        <ele>308.3</ele>
        <time>2014-04-21T10:20:47Z</time>
      </trkpt>
      <trkpt lat="43.53866" lon="6.75225">
        <ele>308.3</ele>
        <time>2014-04-21T10:20:49Z</time>
      </trkpt>
      <trkpt lat="43.53862" lon="6.75212">
        <ele>307.3</ele>
        <time>2014-04-21T10:20:51Z</time>
      </trkpt>
      <trkpt lat="43.53857" lon="6.752">
        <ele>307.3</ele>
        <time>2014-04-21T10:20:53Z</time>
      </trkpt>
      <trkpt lat="43.53852" lon="6.75188">
        <ele>306.3</ele>
        <time>2014-04-21T10:20:55Z</time>
      </trkpt>
      <trkpt lat="43.53846" lon="6.75175">
        <ele>306.3</ele>
        <time>2014-04-21T10:20:57Z</time>
      </trkpt>
      <trkpt lat="43.53841" lon="6.75161">
        <ele>306.3</ele>
        <time>2014-04-21T10:20:59Z</time>
      </trkpt>
      <trkpt lat="43.5384" lon="6.75143">
        <ele>305.3</ele>
        <time>2014-04-21T10:21:01Z</time>
      </trkpt>
      <trkpt lat="43.53844" lon="6.75128">
        <ele>304.3</ele>
        <time>2014-04-21T10:21:03Z</time>
      </trkpt>
      <trkpt lat="43.53853" lon="6.75111">
        <ele>303.3</ele>
        <time>2014-04-21T10:21:05Z</time>
      </trkpt>
      <trkpt lat="43.53861" lon="6.75094">
        <ele>302.3</ele>
        <time>2014-04-21T10:21:07Z</time>
      </trkpt>
      <trkpt lat="43.53864" lon="6.75076">
        <ele>300.3</ele>
        <time>2014-04-21T10:21:09Z</time>
      </trkpt>
      <trkpt lat="43.53862" lon="6.75054">
        <ele>298.3</ele>
        <time>2014-04-21T10:21:11Z</time>
      </trkpt>
      <trkpt lat="43.53854" lon="6.75039">
        <ele>297.3</ele>
        <time>2014-04-21T10:21:13Z</time>
      </trkpt>
      <trkpt lat="43.53842" lon="6.7503">
        <ele>295.3</ele>
        <time>2014-04-21T10:21:15Z</time>
      </trkpt>
      <trkpt lat="43.53816" lon="6.75032">
        <ele>294.3</ele>
        <time>2014-04-21T10:21:19Z</time>
      </trkpt>
      <trkpt lat="43.53802" lon="6.75033">
        <ele>293.3</ele>
        <time>2014-04-21T10:21:22Z</time>
      </trkpt>
      <trkpt lat="43.53791" lon="6.75023">
        <ele>292.3</ele>
        <time>2014-04-21T10:21:25Z</time>
      </trkpt>
      <trkpt lat="43.53783" lon="6.75013">
        <ele>292.3</ele>
        <time>2014-04-21T10:21:27Z</time>
      </trkpt>
      <trkpt lat="43.53774" lon="6.75006">
        <ele>292.3</ele>
        <time>2014-04-21T10:21:29Z</time>
      </trkpt>
      <trkpt lat="43.53762" lon="6.74997">
        <ele>292.3</ele>
        <time>2014-04-21T10:21:31Z</time>
      </trkpt>
      <trkpt lat="43.5375" lon="6.74986">
        <ele>292.3</ele>
        <time>2014-04-21T10:21:33Z</time>
      </trkpt>
      <trkpt lat="43.53739" lon="6.74972">
        <ele>289.3</ele>
        <time>2014-04-21T10:21:35Z</time>
      </trkpt>
      <trkpt lat="43.53728" lon="6.74957">
        <ele>289.3</ele>
        <time>2014-04-21T10:21:37Z</time>
      </trkpt>
      <trkpt lat="43.53717" lon="6.74941">
        <ele>290.3</ele>
        <time>2014-04-21T10:21:39Z</time>
      </trkpt>
      <trkpt lat="43.53709" lon="6.74926">
        <ele>291.3</ele>
        <time>2014-04-21T10:21:41Z</time>
      </trkpt>
      <trkpt lat="43.53698" lon="6.74916">
        <ele>291.3</ele>
        <time>2014-04-21T10:21:43Z</time>
      </trkpt>
      <trkpt lat="43.53688" lon="6.74909">
        <ele>290.3</ele>
        <time>2014-04-21T10:21:45Z</time>
      </trkpt>
      <trkpt lat="43.53679" lon="6.74904">
        <ele>289.3</ele>
        <time>2014-04-21T10:21:47Z</time>
      </trkpt>
      <trkpt lat="43.53667" lon="6.74898">
        <ele>288.3</ele>
        <time>2014-04-21T10:21:49Z</time>
      </trkpt>
      <trkpt lat="43.53654" lon="6.74893">
        <ele>289.3</ele>
        <time>2014-04-21T10:21:51Z</time>
      </trkpt>
      <trkpt lat="43.5364" lon="6.74891">
        <ele>287.3</ele>
        <time>2014-04-21T10:21:53Z</time>
      </trkpt>
      <trkpt lat="43.53623" lon="6.7489">
        <ele>285.3</ele>
        <time>2014-04-21T10:21:55Z</time>
      </trkpt>
      <trkpt lat="43.53605" lon="6.74889">
        <ele>284.3</ele>
        <time>2014-04-21T10:21:57Z</time>
      </trkpt>
      <trkpt lat="43.53596" lon="6.74889">
        <ele>284.3</ele>
        <time>2014-04-21T10:21:58Z</time>
      </trkpt>
      <trkpt lat="43.53579" lon="6.74888">
        <ele>283.3</ele>
        <time>2014-04-21T10:22:00Z</time>
      </trkpt>
      <trkpt lat="43.53563" lon="6.74882">
        <ele>283.3</ele>
        <time>2014-04-21T10:22:02Z</time>
      </trkpt>
      <trkpt lat="43.53549" lon="6.74875">
        <ele>282.3</ele>
        <time>2014-04-21T10:22:04Z</time>
      </trkpt>
      <trkpt lat="43.5354" lon="6.74867">
        <ele>283.3</ele>
        <time>2014-04-21T10:22:06Z</time>
      </trkpt>
      <trkpt lat="43.53528" lon="6.74859">
        <ele>287.3</ele>
        <time>2014-04-21T10:22:09Z</time>
      </trkpt>
      <trkpt lat="43.5352" lon="6.74852">
        <ele>287.3</ele>
        <time>2014-04-21T10:22:15Z</time>
      </trkpt>
      <trkpt lat="43.5351" lon="6.74845">
        <ele>288.3</ele>
        <time>2014-04-21T10:22:20Z</time>
      </trkpt>
      <trkpt lat="43.53494" lon="6.74835">
        <ele>289.3</ele>
        <time>2014-04-21T10:22:30Z</time>
      </trkpt>
      <trkpt lat="43.53483" lon="6.74832">
        <ele>289.3</ele>
        <time>2014-04-21T10:22:35Z</time>
      </trkpt>
      <trkpt lat="43.53474" lon="6.74831">
        <ele>289.3</ele>
        <time>2014-04-21T10:22:39Z</time>
      </trkpt>
      <trkpt lat="43.53463" lon="6.74829">
        <ele>288.3</ele>
        <time>2014-04-21T10:22:44Z</time>
      </trkpt>
      <trkpt lat="43.53453" lon="6.74827">
        <ele>288.3</ele>
        <time>2014-04-21T10:22:49Z</time>
      </trkpt>
      <trkpt lat="43.53447" lon="6.74816">
        <ele>287.3</ele>
        <time>2014-04-21T10:22:54Z</time>
      </trkpt>
      <trkpt lat="43.5345" lon="6.74802">
        <ele>287.3</ele>
        <time>2014-04-21T10:22:59Z</time>
      </trkpt>
      <trkpt lat="43.53449" lon="6.74787">
        <ele>287.3</ele>
        <time>2014-04-21T10:23:03Z</time>
      </trkpt>
      <trkpt lat="43.53442" lon="6.74772">
        <ele>286.3</ele>
        <time>2014-04-21T10:23:06Z</time>
      </trkpt>
      <trkpt lat="43.53429" lon="6.74764">
        <ele>288.3</ele>
        <time>2014-04-21T10:23:08Z</time>
      </trkpt>
      <trkpt lat="43.53418" lon="6.74766">
        <ele>287.3</ele>
        <time>2014-04-21T10:23:10Z</time>
      </trkpt>
      <trkpt lat="43.53408" lon="6.74768">
        <ele>285.3</ele>
        <time>2014-04-21T10:23:12Z</time>
      </trkpt>
      <trkpt lat="43.53399" lon="6.74772">
        <ele>286.3</ele>
        <time>2014-04-21T10:23:14Z</time>
      </trkpt>
      <trkpt lat="43.53389" lon="6.74779">
        <ele>288.3</ele>
        <time>2014-04-21T10:23:16Z</time>
      </trkpt>
      <trkpt lat="43.53376" lon="6.74783">
        <ele>286.3</ele>
        <time>2014-04-21T10:23:18Z</time>
      </trkpt>
      <trkpt lat="43.53365" lon="6.74787">
        <ele>286.3</ele>
        <time>2014-04-21T10:23:20Z</time>
      </trkpt>
      <trkpt lat="43.53354" lon="6.74791">
        <ele>285.3</ele>
        <time>2014-04-21T10:23:22Z</time>
      </trkpt>
      <trkpt lat="43.53331" lon="6.74807">
        <ele>287.3</ele>
        <time>2014-04-21T10:23:27Z</time>
      </trkpt>
      <trkpt lat="43.53318" lon="6.7481">
        <ele>285.3</ele>
        <time>2014-04-21T10:23:30Z</time>
      </trkpt>
      <trkpt lat="43.53305" lon="6.74808">
        <ele>284.3</ele>
        <time>2014-04-21T10:23:32Z</time>
      </trkpt>
      <trkpt lat="43.5329" lon="6.74806">
        <ele>286.3</ele>
        <time>2014-04-21T10:23:34Z</time>
      </trkpt>
      <trkpt lat="43.53273" lon="6.74801">
        <ele>284.3</ele>
        <time>2014-04-21T10:23:36Z</time>
      </trkpt>
      <trkpt lat="43.53258" lon="6.74795">
        <ele>281.3</ele>
        <time>2014-04-21T10:23:38Z</time>
      </trkpt>
      <trkpt lat="43.53242" lon="6.74786">
        <ele>278.3</ele>
        <time>2014-04-21T10:23:40Z</time>
      </trkpt>
      <trkpt lat="43.53233" lon="6.7478">
        <ele>277.3</ele>
        <time>2014-04-21T10:23:41Z</time>
      </trkpt>
      <trkpt lat="43.53219" lon="6.7477">
        <ele>275.3</ele>
        <time>2014-04-21T10:23:43Z</time>
      </trkpt>
      <trkpt lat="43.53204" lon="6.74761">
        <ele>275.3</ele>
        <time>2014-04-21T10:23:45Z</time>
      </trkpt>
      <trkpt lat="43.53191" lon="6.74754">
        <ele>275.3</ele>
        <time>2014-04-21T10:23:47Z</time>
      </trkpt>
      <trkpt lat="43.53181" lon="6.74748">
        <ele>276.3</ele>
        <time>2014-04-21T10:23:49Z</time>
      </trkpt>
      <trkpt lat="43.53172" lon="6.74745">
        <ele>277.3</ele>
        <time>2014-04-21T10:23:51Z</time>
      </trkpt>
      <trkpt lat="43.53162" lon="6.74742">
        <ele>276.3</ele>
        <time>2014-04-21T10:23:54Z</time>
      </trkpt>
      <trkpt lat="43.5315" lon="6.74738">
        <ele>277.3</ele>
        <time>2014-04-21T10:23:58Z</time>
      </trkpt>
      <trkpt lat="43.53142" lon="6.74729">
        <ele>277.3</ele>
        <time>2014-04-21T10:24:02Z</time>
      </trkpt>
      <trkpt lat="43.53134" lon="6.74719">
        <ele>274.3</ele>
        <time>2014-04-21T10:24:06Z</time>
      </trkpt>
      <trkpt lat="43.53126" lon="6.74709">
        <ele>273.3</ele>
        <time>2014-04-21T10:24:10Z</time>
      </trkpt>
      <trkpt lat="43.53119" lon="6.747">
        <ele>276.3</ele>
        <time>2014-04-21T10:24:14Z</time>
      </trkpt>
      <trkpt lat="43.53114" lon="6.74689">
        <ele>277.3</ele>
        <time>2014-04-21T10:24:18Z</time>
      </trkpt>
      <trkpt lat="43.53109" lon="6.74677">
        <ele>277.3</ele>
        <time>2014-04-21T10:24:23Z</time>
      </trkpt>
      <trkpt lat="43.5311" lon="6.74649">
        <ele>287.3</ele>
        <time>2014-04-21T10:24:36Z</time>
      </trkpt>
      <trkpt lat="43.5311" lon="6.74634">
        <ele>286.3</ele>
        <time>2014-04-21T10:24:42Z</time>
      </trkpt>
      <trkpt lat="43.53102" lon="6.74628">
        <ele>288.3</ele>
        <time>2014-04-21T10:24:47Z</time>
      </trkpt>
      <trkpt lat="43.53093" lon="6.74635">
        <ele>287.3</ele>
        <time>2014-04-21T10:24:52Z</time>
      </trkpt>
      <trkpt lat="43.53088" lon="6.74648">
        <ele>290.3</ele>
        <time>2014-04-21T10:24:58Z</time>
      </trkpt>
      <trkpt lat="43.53082" lon="6.74658">
        <ele>290.3</ele>
        <time>2014-04-21T10:25:03Z</time>
      </trkpt>
      <trkpt lat="43.53075" lon="6.74665">
        <ele>286.3</ele>
        <time>2014-04-21T10:25:10Z</time>
      </trkpt>
      <trkpt lat="43.53065" lon="6.74669">
        <ele>289.3</ele>
        <time>2014-04-21T10:25:17Z</time>
      </trkpt>
      <trkpt lat="43.53056" lon="6.74675">
        <ele>290.3</ele>
        <time>2014-04-21T10:25:23Z</time>
      </trkpt>
      <trkpt lat="43.53048" lon="6.74682">
        <ele>291.3</ele>
        <time>2014-04-21T10:25:29Z</time>
      </trkpt>
      <trkpt lat="43.53029" lon="6.74679">
        <ele>293.3</ele>
        <time>2014-04-21T10:25:40Z</time>
      </trkpt>
      <trkpt lat="43.53021" lon="6.7467">
        <ele>293.3</ele>
        <time>2014-04-21T10:25:45Z</time>
      </trkpt>
      <trkpt lat="43.53015" lon="6.74658">
        <ele>293.3</ele>
        <time>2014-04-21T10:25:50Z</time>
      </trkpt>
      <trkpt lat="43.5301" lon="6.74646">
        <ele>294.3</ele>
        <time>2014-04-21T10:25:55Z</time>
      </trkpt>
      <trkpt lat="43.53006" lon="6.74634">
        <ele>296.3</ele>
        <time>2014-04-21T10:26:00Z</time>
      </trkpt>
      <trkpt lat="43.52999" lon="6.74623">
        <ele>296.3</ele>
        <time>2014-04-21T10:26:05Z</time>
      </trkpt>
      <trkpt lat="43.52991" lon="6.74616">
        <ele>297.3</ele>
        <time>2014-04-21T10:26:09Z</time>
      </trkpt>
      <trkpt lat="43.52981" lon="6.74615">
        <ele>297.3</ele>
        <time>2014-04-21T10:26:13Z</time>
      </trkpt>
      <trkpt lat="43.52972" lon="6.74614">
        <ele>297.3</ele>
        <time>2014-04-21T10:26:17Z</time>
      </trkpt>
      <trkpt lat="43.52962" lon="6.74618">
        <ele>298.3</ele>
        <time>2014-04-21T10:26:22Z</time>
      </trkpt>
      <trkpt lat="43.52951" lon="6.74622">
        <ele>299.3</ele>
        <time>2014-04-21T10:26:27Z</time>
      </trkpt>
      <trkpt lat="43.52942" lon="6.74627">
        <ele>301.3</ele>
        <time>2014-04-21T10:26:32Z</time>
      </trkpt>
      <trkpt lat="43.52928" lon="6.74646">
        <ele>303.3</ele>
        <time>2014-04-21T10:26:43Z</time>
      </trkpt>
      <trkpt lat="43.52923" lon="6.74658">
        <ele>304.3</ele>
        <time>2014-04-21T10:26:48Z</time>
      </trkpt>
      <trkpt lat="43.5292" lon="6.74672">
        <ele>304.3</ele>
        <time>2014-04-21T10:26:54Z</time>
      </trkpt>
      <trkpt lat="43.52917" lon="6.74686">
        <ele>305.3</ele>
        <time>2014-04-21T10:27:00Z</time>
      </trkpt>
      <trkpt lat="43.5291" lon="6.74696">
        <ele>309.3</ele>
        <time>2014-04-21T10:27:06Z</time>
      </trkpt>
      <trkpt lat="43.52903" lon="6.74707">
        <ele>306.3</ele>
        <time>2014-04-21T10:27:11Z</time>
      </trkpt>
      <trkpt lat="43.52894" lon="6.74716">
        <ele>311.3</ele>
        <time>2014-04-21T10:27:16Z</time>
      </trkpt>
      <trkpt lat="43.52884" lon="6.7472">
        <ele>310.3</ele>
        <time>2014-04-21T10:27:21Z</time>
      </trkpt>
      <trkpt lat="43.52875" lon="6.74715">
        <ele>308.3</ele>
        <time>2014-04-21T10:27:25Z</time>
      </trkpt>
      <trkpt lat="43.52867" lon="6.74707">
        <ele>309.3</ele>
        <time>2014-04-21T10:27:29Z</time>
      </trkpt>
      <trkpt lat="43.52859" lon="6.74697">
        <ele>310.3</ele>
        <time>2014-04-21T10:27:34Z</time>
      </trkpt>
      <trkpt lat="43.52841" lon="6.74691">
        <ele>308.3</ele>
        <time>2014-04-21T10:27:43Z</time>
      </trkpt>
      <trkpt lat="43.52829" lon="6.74693">
        <ele>307.3</ele>
        <time>2014-04-21T10:27:47Z</time>
      </trkpt>
      <trkpt lat="43.52817" lon="6.74698">
        <ele>305.3</ele>
        <time>2014-04-21T10:27:50Z</time>
      </trkpt>
      <trkpt lat="43.52807" lon="6.74705">
        <ele>306.3</ele>
        <time>2014-04-21T10:27:52Z</time>
      </trkpt>
      <trkpt lat="43.52796" lon="6.74703">
        <ele>306.3</ele>
        <time>2014-04-21T10:27:54Z</time>
      </trkpt>
      <trkpt lat="43.52782" lon="6.74695">
        <ele>304.3</ele>
        <time>2014-04-21T10:27:56Z</time>
      </trkpt>
      <trkpt lat="43.52768" lon="6.74685">
        <ele>301.3</ele>
        <time>2014-04-21T10:27:58Z</time>
      </trkpt>
      <trkpt lat="43.52759" lon="6.7468">
        <ele>300.3</ele>
        <time>2014-04-21T10:27:59Z</time>
      </trkpt>
      <trkpt lat="43.5275" lon="6.74672">
        <ele>299.3</ele>
        <time>2014-04-21T10:28:00Z</time>
      </trkpt>
      <trkpt lat="43.52741" lon="6.74664">
        <ele>299.3</ele>
        <time>2014-04-21T10:28:01Z</time>
      </trkpt>
      <trkpt lat="43.52734" lon="6.74656">
        <ele>298.3</ele>
        <time>2014-04-21T10:28:02Z</time>
      </trkpt>
      <trkpt lat="43.52725" lon="6.74648">
        <ele>295.3</ele>
        <time>2014-04-21T10:28:03Z</time>
      </trkpt>
      <trkpt lat="43.52716" lon="6.74643">
        <ele>295.3</ele>
        <time>2014-04-21T10:28:04Z</time>
      </trkpt>
      <trkpt lat="43.52706" lon="6.7464">
        <ele>295.3</ele>
        <time>2014-04-21T10:28:05Z</time>
      </trkpt>
      <trkpt lat="43.52697" lon="6.74639">
        <ele>295.3</ele>
        <time>2014-04-21T10:28:06Z</time>
      </trkpt>
      <trkpt lat="43.5268" lon="6.74639">
        <ele>294.3</ele>
        <time>2014-04-21T10:28:08Z</time>
      </trkpt>
      <trkpt lat="43.52664" lon="6.7464">
        <ele>293.3</ele>
        <time>2014-04-21T10:28:10Z</time>
      </trkpt>
      <trkpt lat="43.52648" lon="6.7464">
        <ele>293.3</ele>
        <time>2014-04-21T10:28:12Z</time>
      </trkpt>
      <trkpt lat="43.52636" lon="6.74641">
        <ele>293.3</ele>
        <time>2014-04-21T10:28:14Z</time>
      </trkpt>
      <trkpt lat="43.52624" lon="6.74644">
        <ele>292.3</ele>
        <time>2014-04-21T10:28:16Z</time>
      </trkpt>
      <trkpt lat="43.52615" lon="6.7465">
        <ele>291.3</ele>
        <time>2014-04-21T10:28:18Z</time>
      </trkpt>
      <trkpt lat="43.52607" lon="6.74657">
        <ele>291.3</ele>
        <time>2014-04-21T10:28:20Z</time>
      </trkpt>
      <trkpt lat="43.52598" lon="6.74663">
        <ele>291.3</ele>
        <time>2014-04-21T10:28:22Z</time>
      </trkpt>
      <trkpt lat="43.5259" lon="6.74673">
        <ele>292.3</ele>
        <time>2014-04-21T10:28:24Z</time>
      </trkpt>
      <trkpt lat="43.52587" lon="6.74685">
        <ele>291.3</ele>
        <time>2014-04-21T10:28:26Z</time>
      </trkpt>
      <trkpt lat="43.52583" lon="6.74701">
        <ele>291.3</ele>
        <time>2014-04-21T10:28:29Z</time>
      </trkpt>
      <trkpt lat="43.52578" lon="6.74713">
        <ele>292.3</ele>
        <time>2014-04-21T10:28:31Z</time>
      </trkpt>
      <trkpt lat="43.52571" lon="6.74727">
        <ele>290.3</ele>
        <time>2014-04-21T10:28:34Z</time>
      </trkpt>
      <trkpt lat="43.52566" lon="6.74739">
        <ele>291.3</ele>
        <time>2014-04-21T10:28:36Z</time>
      </trkpt>
      <trkpt lat="43.52556" lon="6.74771">
        <ele>291.3</ele>
        <time>2014-04-21T10:28:42Z</time>
      </trkpt>
      <trkpt lat="43.52551" lon="6.74787">
        <ele>292.3</ele>
        <time>2014-04-21T10:28:45Z</time>
      </trkpt>
      <trkpt lat="43.52545" lon="6.74799">
        <ele>291.3</ele>
        <time>2014-04-21T10:28:48Z</time>
      </trkpt>
      <trkpt lat="43.52535" lon="6.74807">
        <ele>293.3</ele>
        <time>2014-04-21T10:28:51Z</time>
      </trkpt>
      <trkpt lat="43.52523" lon="6.74807">
        <ele>291.3</ele>
        <time>2014-04-21T10:28:53Z</time>
      </trkpt>
      <trkpt lat="43.52513" lon="6.74809">
        <ele>290.3</ele>
        <time>2014-04-21T10:28:55Z</time>
      </trkpt>
      <trkpt lat="43.52506" lon="6.74819">
        <ele>291.3</ele>
        <time>2014-04-21T10:28:57Z</time>
      </trkpt>
      <trkpt lat="43.52497" lon="6.74827">
        <ele>290.3</ele>
        <time>2014-04-21T10:28:59Z</time>
      </trkpt>
      <trkpt lat="43.52488" lon="6.74837">
        <ele>289.3</ele>
        <time>2014-04-21T10:29:01Z</time>
      </trkpt>
      <trkpt lat="43.52479" lon="6.74846">
        <ele>289.3</ele>
        <time>2014-04-21T10:29:03Z</time>
      </trkpt>
      <trkpt lat="43.52469" lon="6.74854">
        <ele>285.3</ele>
        <time>2014-04-21T10:29:05Z</time>
      </trkpt>
      <trkpt lat="43.52456" lon="6.74864">
        <ele>285.3</ele>
        <time>2014-04-21T10:29:07Z</time>
      </trkpt>
      <trkpt lat="43.52444" lon="6.74874">
        <ele>287.3</ele>
        <time>2014-04-21T10:29:09Z</time>
      </trkpt>
      <trkpt lat="43.52433" lon="6.74885">
        <ele>287.3</ele>
        <time>2014-04-21T10:29:11Z</time>
      </trkpt>
      <trkpt lat="43.52424" lon="6.74894">
        <ele>289.3</ele>
        <time>2014-04-21T10:29:13Z</time>
      </trkpt>
      <trkpt lat="43.52417" lon="6.74904">
        <ele>289.3</ele>
        <time>2014-04-21T10:29:15Z</time>
      </trkpt>
      <trkpt lat="43.52409" lon="6.74913">
        <ele>286.3</ele>
        <time>2014-04-21T10:29:21Z</time>
      </trkpt>
      <trkpt lat="43.52402" lon="6.74922">
        <ele>287.3</ele>
        <time>2014-04-21T10:34:07Z</time>
      </trkpt>
      <trkpt lat="43.52388" lon="6.74945">
        <ele>285.3</ele>
        <time>2014-04-21T10:34:12Z</time>
      </trkpt>
      <trkpt lat="43.52381" lon="6.74958">
        <ele>284.3</ele>
        <time>2014-04-21T10:34:14Z</time>
      </trkpt>
      <trkpt lat="43.52372" lon="6.74973">
        <ele>283.3</ele>
        <time>2014-04-21T10:34:16Z</time>
      </trkpt>
      <trkpt lat="43.52365" lon="6.7499">
        <ele>281.3</ele>
        <time>2014-04-21T10:34:18Z</time>
      </trkpt>
      <trkpt lat="43.52356" lon="6.75009">
        <ele>281.3</ele>
        <time>2014-04-21T10:34:20Z</time>
      </trkpt>
      <trkpt lat="43.52349" lon="6.7503">
        <ele>279.3</ele>
        <time>2014-04-21T10:34:22Z</time>
      </trkpt>
      <trkpt lat="43.52339" lon="6.75049">
        <ele>278.3</ele>
        <time>2014-04-21T10:34:24Z</time>
      </trkpt>
      <trkpt lat="43.52332" lon="6.75058">
        <ele>280.3</ele>
        <time>2014-04-21T10:34:25Z</time>
      </trkpt>
      <trkpt lat="43.52325" lon="6.75066">
        <ele>279.3</ele>
        <time>2014-04-21T10:34:26Z</time>
      </trkpt>
      <trkpt lat="43.52313" lon="6.75081">
        <ele>277.3</ele>
        <time>2014-04-21T10:34:28Z</time>
      </trkpt>
      <trkpt lat="43.523" lon="6.75097">
        <ele>275.3</ele>
        <time>2014-04-21T10:34:30Z</time>
      </trkpt>
      <trkpt lat="43.52289" lon="6.75112">
        <ele>274.3</ele>
        <time>2014-04-21T10:34:32Z</time>
      </trkpt>
      <trkpt lat="43.52279" lon="6.75124">
        <ele>274.3</ele>
        <time>2014-04-21T10:34:34Z</time>
      </trkpt>
      <trkpt lat="43.52271" lon="6.75131">
        <ele>272.3</ele>
        <time>2014-04-21T10:34:36Z</time>
      </trkpt>
      <trkpt lat="43.52261" lon="6.75134">
        <ele>271.3</ele>
        <time>2014-04-21T10:34:38Z</time>
      </trkpt>
      <trkpt lat="43.5225" lon="6.75132">
        <ele>268.3</ele>
        <time>2014-04-21T10:34:40Z</time>
      </trkpt>
      <trkpt lat="43.52242" lon="6.75121">
        <ele>264.3</ele>
        <time>2014-04-21T10:34:43Z</time>
      </trkpt>
      <trkpt lat="43.5223" lon="6.75112">
        <ele>260.3</ele>
        <time>2014-04-21T10:34:45Z</time>
      </trkpt>
      <trkpt lat="43.52218" lon="6.75098">
        <ele>256.3</ele>
        <time>2014-04-21T10:34:47Z</time>
      </trkpt>
      <trkpt lat="43.5221" lon="6.75082">
        <ele>256.3</ele>
        <time>2014-04-21T10:34:49Z</time>
      </trkpt>
      <trkpt lat="43.52208" lon="6.75064">
        <ele>257.3</ele>
        <time>2014-04-21T10:34:51Z</time>
      </trkpt>
      <trkpt lat="43.52206" lon="6.75046">
        <ele>255.3</ele>
        <time>2014-04-21T10:34:53Z</time>
      </trkpt>
      <trkpt lat="43.522" lon="6.7503">
        <ele>253.3</ele>
        <time>2014-04-21T10:34:55Z</time>
      </trkpt>
      <trkpt lat="43.52192" lon="6.75018">
        <ele>251.3</ele>
        <time>2014-04-21T10:34:57Z</time>
      </trkpt>
      <trkpt lat="43.52179" lon="6.75004">
        <ele>248.3</ele>
        <time>2014-04-21T10:34:59Z</time>
      </trkpt>
      <trkpt lat="43.52167" lon="6.74988">
        <ele>247.3</ele>
        <time>2014-04-21T10:35:01Z</time>
      </trkpt>
      <trkpt lat="43.52156" lon="6.74971">
        <ele>246.3</ele>
        <time>2014-04-21T10:35:03Z</time>
      </trkpt>
      <trkpt lat="43.52147" lon="6.74951">
        <ele>246.3</ele>
        <time>2014-04-21T10:35:05Z</time>
      </trkpt>
      <trkpt lat="43.52142" lon="6.74939">
        <ele>246.3</ele>
        <time>2014-04-21T10:35:06Z</time>
      </trkpt>
      <trkpt lat="43.52137" lon="6.74927">
        <ele>245.3</ele>
        <time>2014-04-21T10:35:07Z</time>
      </trkpt>
      <trkpt lat="43.52132" lon="6.74915">
        <ele>244.3</ele>
        <time>2014-04-21T10:35:08Z</time>
      </trkpt>
      <trkpt lat="43.52124" lon="6.74888">
        <ele>242.3</ele>
        <time>2014-04-21T10:35:10Z</time>
      </trkpt>
      <trkpt lat="43.52117" lon="6.74878">
        <ele>240.3</ele>
        <time>2014-04-21T10:35:11Z</time>
      </trkpt>
      <trkpt lat="43.52112" lon="6.74864">
        <ele>239.3</ele>
        <time>2014-04-21T10:35:12Z</time>
      </trkpt>
      <trkpt lat="43.52106" lon="6.7485">
        <ele>235.3</ele>
        <time>2014-04-21T10:35:13Z</time>
      </trkpt>
      <trkpt lat="43.521" lon="6.74837">
        <ele>233.3</ele>
        <time>2014-04-21T10:35:14Z</time>
      </trkpt>
      <trkpt lat="43.52095" lon="6.74824">
        <ele>232.3</ele>
        <time>2014-04-21T10:35:15Z</time>
      </trkpt>
      <trkpt lat="43.52087" lon="6.74803">
        <ele>231.3</ele>
        <time>2014-04-21T10:35:17Z</time>
      </trkpt>
      <trkpt lat="43.52082" lon="6.74792">
        <ele>229.3</ele>
        <time>2014-04-21T10:35:18Z</time>
      </trkpt>
      <trkpt lat="43.52078" lon="6.74771">
        <ele>228.3</ele>
        <time>2014-04-21T10:35:20Z</time>
      </trkpt>
      <trkpt lat="43.52074" lon="6.74745">
        <ele>226.3</ele>
        <time>2014-04-21T10:35:22Z</time>
      </trkpt>
      <trkpt lat="43.5207" lon="6.74733">
        <ele>225.3</ele>
        <time>2014-04-21T10:35:23Z</time>
      </trkpt>
      <trkpt lat="43.52067" lon="6.74721">
        <ele>224.3</ele>
        <time>2014-04-21T10:35:24Z</time>
      </trkpt>
      <trkpt lat="43.52064" lon="6.74708">
        <ele>222.3</ele>
        <time>2014-04-21T10:35:25Z</time>
      </trkpt>
      <trkpt lat="43.52059" lon="6.74695">
        <ele>221.3</ele>
        <time>2014-04-21T10:35:26Z</time>
      </trkpt>
      <trkpt lat="43.52053" lon="6.74684">
        <ele>221.3</ele>
        <time>2014-04-21T10:35:27Z</time>
      </trkpt>
      <trkpt lat="43.52047" lon="6.74673">
        <ele>219.3</ele>
        <time>2014-04-21T10:35:28Z</time>
      </trkpt>
      <trkpt lat="43.52043" lon="6.74659">
        <ele>218.3</ele>
        <time>2014-04-21T10:35:29Z</time>
      </trkpt>
      <trkpt lat="43.52037" lon="6.74646">
        <ele>217.3</ele>
        <time>2014-04-21T10:35:30Z</time>
      </trkpt>
      <trkpt lat="43.52031" lon="6.74634">
        <ele>216.3</ele>
        <time>2014-04-21T10:35:31Z</time>
      </trkpt>
      <trkpt lat="43.52024" lon="6.74621">
        <ele>214.3</ele>
        <time>2014-04-21T10:35:32Z</time>
      </trkpt>
      <trkpt lat="43.52017" lon="6.74609">
        <ele>212.3</ele>
        <time>2014-04-21T10:35:33Z</time>
      </trkpt>
      <trkpt lat="43.5201" lon="6.74599">
        <ele>211.3</ele>
        <time>2014-04-21T10:35:34Z</time>
      </trkpt>
      <trkpt lat="43.51999" lon="6.7458">
        <ele>208.3</ele>
        <time>2014-04-21T10:35:36Z</time>
      </trkpt>
      <trkpt lat="43.51992" lon="6.74561">
        <ele>206.3</ele>
        <time>2014-04-21T10:35:38Z</time>
      </trkpt>
      <trkpt lat="43.51985" lon="6.74543">
        <ele>204.3</ele>
        <time>2014-04-21T10:35:40Z</time>
      </trkpt>
      <trkpt lat="43.51976" lon="6.74534">
        <ele>206.3</ele>
        <time>2014-04-21T10:35:42Z</time>
      </trkpt>
      <trkpt lat="43.51963" lon="6.74532">
        <ele>205.3</ele>
        <time>2014-04-21T10:35:44Z</time>
      </trkpt>
      <trkpt lat="43.51947" lon="6.74534">
        <ele>203.3</ele>
        <time>2014-04-21T10:35:46Z</time>
      </trkpt>
      <trkpt lat="43.51929" lon="6.74542">
        <ele>199.3</ele>
        <time>2014-04-21T10:35:48Z</time>
      </trkpt>
      <trkpt lat="43.51919" lon="6.74547">
        <ele>197.3</ele>
        <time>2014-04-21T10:35:49Z</time>
      </trkpt>
      <trkpt lat="43.51905" lon="6.74555">
        <ele>198.3</ele>
        <time>2014-04-21T10:35:51Z</time>
      </trkpt>
      <trkpt lat="43.51893" lon="6.74564">
        <ele>196.3</ele>
        <time>2014-04-21T10:35:53Z</time>
      </trkpt>
      <trkpt lat="43.51886" lon="6.74579">
        <ele>194.3</ele>
        <time>2014-04-21T10:35:55Z</time>
      </trkpt>
      <trkpt lat="43.51886" lon="6.74598">
        <ele>192.3</ele>
        <time>2014-04-21T10:35:57Z</time>
      </trkpt>
      <trkpt lat="43.51891" lon="6.74617">
        <ele>191.3</ele>
        <time>2014-04-21T10:35:59Z</time>
      </trkpt>
      <trkpt lat="43.51896" lon="6.74638">
        <ele>188.3</ele>
        <time>2014-04-21T10:36:01Z</time>
      </trkpt>
      <trkpt lat="43.51899" lon="6.7465">
        <ele>188.3</ele>
        <time>2014-04-21T10:36:02Z</time>
      </trkpt>
      <trkpt lat="43.51901" lon="6.74674">
        <ele>185.3</ele>
        <time>2014-04-21T10:36:04Z</time>
      </trkpt>
      <trkpt lat="43.519" lon="6.74688">
        <ele>184.3</ele>
        <time>2014-04-21T10:36:05Z</time>
      </trkpt>
      <trkpt lat="43.51899" lon="6.74702">
        <ele>183.3</ele>
        <time>2014-04-21T10:36:06Z</time>
      </trkpt>
      <trkpt lat="43.51896" lon="6.74724">
        <ele>180.3</ele>
        <time>2014-04-21T10:36:08Z</time>
      </trkpt>
      <trkpt lat="43.51887" lon="6.74761">
        <ele>178.3</ele>
        <time>2014-04-21T10:36:12Z</time>
      </trkpt>
      <trkpt lat="43.51882" lon="6.7478">
        <ele>176.3</ele>
        <time>2014-04-21T10:36:14Z</time>
      </trkpt>
      <trkpt lat="43.51878" lon="6.74803">
        <ele>174.3</ele>
        <time>2014-04-21T10:36:16Z</time>
      </trkpt>
      <trkpt lat="43.5188" lon="6.74826">
        <ele>172.3</ele>
        <time>2014-04-21T10:36:18Z</time>
      </trkpt>
      <trkpt lat="43.51884" lon="6.74847">
        <ele>170.3</ele>
        <time>2014-04-21T10:36:20Z</time>
      </trkpt>
      <trkpt lat="43.51894" lon="6.74863">
        <ele>168.3</ele>
        <time>2014-04-21T10:36:22Z</time>
      </trkpt>
      <trkpt lat="43.51908" lon="6.74874">
        <ele>166.3</ele>
        <time>2014-04-21T10:36:24Z</time>
      </trkpt>
      <trkpt lat="43.51923" lon="6.74882">
        <ele>166.3</ele>
        <time>2014-04-21T10:36:26Z</time>
      </trkpt>
      <trkpt lat="43.51932" lon="6.74892">
        <ele>166.3</ele>
        <time>2014-04-21T10:36:28Z</time>
      </trkpt>
      <trkpt lat="43.51931" lon="6.7491">
        <ele>167.3</ele>
        <time>2014-04-21T10:36:30Z</time>
      </trkpt>
      <trkpt lat="43.51923" lon="6.74925">
        <ele>166.3</ele>
        <time>2014-04-21T10:36:32Z</time>
      </trkpt>
      <trkpt lat="43.5191" lon="6.7494">
        <ele>166.3</ele>
        <time>2014-04-21T10:36:34Z</time>
      </trkpt>
      <trkpt lat="43.51898" lon="6.74956">
        <ele>166.3</ele>
        <time>2014-04-21T10:36:36Z</time>
      </trkpt>
      <trkpt lat="43.51891" lon="6.74966">
        <ele>165.3</ele>
        <time>2014-04-21T10:36:37Z</time>
      </trkpt>
      <trkpt lat="43.51884" lon="6.74978">
        <ele>164.3</ele>
        <time>2014-04-21T10:36:38Z</time>
      </trkpt>
      <trkpt lat="43.51879" lon="6.74989">
        <ele>160.3</ele>
        <time>2014-04-21T10:36:39Z</time>
      </trkpt>
      <trkpt lat="43.51869" lon="6.75011">
        <ele>155.3</ele>
        <time>2014-04-21T10:36:41Z</time>
      </trkpt>
      <trkpt lat="43.51861" lon="6.75031">
        <ele>150.3</ele>
        <time>2014-04-21T10:36:43Z</time>
      </trkpt>
      <trkpt lat="43.51852" lon="6.75051">
        <ele>150.3</ele>
        <time>2014-04-21T10:36:45Z</time>
      </trkpt>
      <trkpt lat="43.51843" lon="6.75067">
        <ele>147.3</ele>
        <time>2014-04-21T10:36:47Z</time>
      </trkpt>
      <trkpt lat="43.51833" lon="6.75081">
        <ele>144.3</ele>
        <time>2014-04-21T10:36:49Z</time>
      </trkpt>
      <trkpt lat="43.51822" lon="6.75094">
        <ele>141.3</ele>
        <time>2014-04-21T10:36:51Z</time>
      </trkpt>
      <trkpt lat="43.51811" lon="6.75109">
        <ele>138.3</ele>
        <time>2014-04-21T10:36:53Z</time>
      </trkpt>
      <trkpt lat="43.51802" lon="6.75129">
        <ele>138.3</ele>
        <time>2014-04-21T10:36:55Z</time>
      </trkpt>
      <trkpt lat="43.51795" lon="6.75147">
        <ele>135.3</ele>
        <time>2014-04-21T10:36:57Z</time>
      </trkpt>
      <trkpt lat="43.51784" lon="6.7516">
        <ele>133.3</ele>
        <time>2014-04-21T10:36:59Z</time>
      </trkpt>
      <trkpt lat="43.51768" lon="6.75168">
        <ele>131.3</ele>
        <time>2014-04-21T10:37:01Z</time>
      </trkpt>
      <trkpt lat="43.51758" lon="6.7517">
        <ele>129.3</ele>
        <time>2014-04-21T10:37:02Z</time>
      </trkpt>
      <trkpt lat="43.51741" lon="6.75173">
        <ele>127.3</ele>
        <time>2014-04-21T10:37:04Z</time>
      </trkpt>
      <trkpt lat="43.51723" lon="6.75178">
        <ele>125.3</ele>
        <time>2014-04-21T10:37:06Z</time>
      </trkpt>
      <trkpt lat="43.51714" lon="6.75182">
        <ele>122.3</ele>
        <time>2014-04-21T10:37:07Z</time>
      </trkpt>
      <trkpt lat="43.51697" lon="6.75193">
        <ele>119.3</ele>
        <time>2014-04-21T10:37:09Z</time>
      </trkpt>
      <trkpt lat="43.51674" lon="6.75215">
        <ele>115.3</ele>
        <time>2014-04-21T10:37:13Z</time>
      </trkpt>
      <trkpt lat="43.51661" lon="6.75219">
        <ele>114.3</ele>
        <time>2014-04-21T10:37:15Z</time>
      </trkpt>
      <trkpt lat="43.51646" lon="6.75222">
        <ele>111.3</ele>
        <time>2014-04-21T10:37:17Z</time>
      </trkpt>
      <trkpt lat="43.51632" lon="6.75224">
        <ele>109.3</ele>
        <time>2014-04-21T10:37:19Z</time>
      </trkpt>
      <trkpt lat="43.51619" lon="6.75232">
        <ele>106.3</ele>
        <time>2014-04-21T10:37:21Z</time>
      </trkpt>
      <trkpt lat="43.51608" lon="6.75248">
        <ele>103.3</ele>
        <time>2014-04-21T10:37:23Z</time>
      </trkpt>
      <trkpt lat="43.51601" lon="6.75267">
        <ele>99.3</ele>
        <time>2014-04-21T10:37:25Z</time>
      </trkpt>
      <trkpt lat="43.51597" lon="6.75287">
        <ele>96.3</ele>
        <time>2014-04-21T10:37:27Z</time>
      </trkpt>
      <trkpt lat="43.51605" lon="6.753">
        <ele>95.3</ele>
        <time>2014-04-21T10:37:29Z</time>
      </trkpt>
      <trkpt lat="43.51616" lon="6.75313">
        <ele>96.3</ele>
        <time>2014-04-21T10:37:31Z</time>
      </trkpt>
      <trkpt lat="43.51626" lon="6.75322">
        <ele>94.3</ele>
        <time>2014-04-21T10:37:33Z</time>
      </trkpt>
      <trkpt lat="43.51632" lon="6.75337">
        <ele>91.3</ele>
        <time>2014-04-21T10:37:35Z</time>
      </trkpt>
      <trkpt lat="43.51631" lon="6.75353">
        <ele>87.3</ele>
        <time>2014-04-21T10:37:37Z</time>
      </trkpt>
      <trkpt lat="43.51627" lon="6.75372">
        <ele>85.3</ele>
        <time>2014-04-21T10:37:39Z</time>
      </trkpt>
      <trkpt lat="43.51627" lon="6.75387">
        <ele>84.3</ele>
        <time>2014-04-21T10:37:41Z</time>
      </trkpt>
      <trkpt lat="43.51636" lon="6.75396">
        <ele>83.3</ele>
        <time>2014-04-21T10:37:43Z</time>
      </trkpt>
      <trkpt lat="43.51648" lon="6.75396">
        <ele>82.3</ele>
        <time>2014-04-21T10:37:45Z</time>
      </trkpt>
      <trkpt lat="43.51659" lon="6.75396">
        <ele>81.3</ele>
        <time>2014-04-21T10:37:47Z</time>
      </trkpt>
      <trkpt lat="43.5167" lon="6.75407">
        <ele>81.3</ele>
        <time>2014-04-21T10:37:49Z</time>
      </trkpt>
      <trkpt lat="43.51678" lon="6.75421">
        <ele>81.3</ele>
        <time>2014-04-21T10:37:51Z</time>
      </trkpt>
      <trkpt lat="43.51686" lon="6.7544">
        <ele>80.3</ele>
        <time>2014-04-21T10:37:53Z</time>
      </trkpt>
      <trkpt lat="43.51694" lon="6.75459">
        <ele>78.3</ele>
        <time>2014-04-21T10:37:55Z</time>
      </trkpt>
      <trkpt lat="43.51699" lon="6.75478">
        <ele>79.3</ele>
        <time>2014-04-21T10:37:57Z</time>
      </trkpt>
      <trkpt lat="43.51702" lon="6.75495">
        <ele>79.3</ele>
        <time>2014-04-21T10:37:59Z</time>
      </trkpt>
      <trkpt lat="43.51697" lon="6.75512">
        <ele>78.3</ele>
        <time>2014-04-21T10:38:01Z</time>
      </trkpt>
      <trkpt lat="43.51689" lon="6.75527">
        <ele>75.3</ele>
        <time>2014-04-21T10:38:03Z</time>
      </trkpt>
      <trkpt lat="43.51677" lon="6.75543">
        <ele>71.3</ele>
        <time>2014-04-21T10:38:05Z</time>
      </trkpt>
      <trkpt lat="43.51666" lon="6.7556">
        <ele>69.3</ele>
        <time>2014-04-21T10:38:07Z</time>
      </trkpt>
      <trkpt lat="43.51653" lon="6.75573">
        <ele>67.3</ele>
        <time>2014-04-21T10:38:09Z</time>
      </trkpt>
      <trkpt lat="43.51638" lon="6.75577">
        <ele>66.3</ele>
        <time>2014-04-21T10:38:11Z</time>
      </trkpt>
      <trkpt lat="43.51604" lon="6.75576">
        <ele>61.3</ele>
        <time>2014-04-21T10:38:15Z</time>
      </trkpt>
      <trkpt lat="43.51589" lon="6.75579">
        <ele>60.3</ele>
        <time>2014-04-21T10:38:17Z</time>
      </trkpt>
      <trkpt lat="43.51581" lon="6.75591">
        <ele>60.3</ele>
        <time>2014-04-21T10:38:19Z</time>
      </trkpt>
      <trkpt lat="43.51582" lon="6.7561">
        <ele>59.3</ele>
        <time>2014-04-21T10:38:21Z</time>
      </trkpt>
      <trkpt lat="43.51587" lon="6.7563">
        <ele>58.3</ele>
        <time>2014-04-21T10:38:23Z</time>
      </trkpt>
      <trkpt lat="43.51591" lon="6.75643">
        <ele>56.3</ele>
        <time>2014-04-21T10:38:24Z</time>
      </trkpt>
      <trkpt lat="43.51595" lon="6.75663">
        <ele>54.3</ele>
        <time>2014-04-21T10:38:26Z</time>
      </trkpt>
      <trkpt lat="43.51593" lon="6.75682">
        <ele>53.3</ele>
        <time>2014-04-21T10:38:28Z</time>
      </trkpt>
      <trkpt lat="43.51587" lon="6.757">
        <ele>51.3</ele>
        <time>2014-04-21T10:38:30Z</time>
      </trkpt>
      <trkpt lat="43.51579" lon="6.75718">
        <ele>51.3</ele>
        <time>2014-04-21T10:38:32Z</time>
      </trkpt>
      <trkpt lat="43.51571" lon="6.75733">
        <ele>50.3</ele>
        <time>2014-04-21T10:38:34Z</time>
      </trkpt>
      <trkpt lat="43.51566" lon="6.75743">
        <ele>50.3</ele>
        <time>2014-04-21T10:38:36Z</time>
      </trkpt>
      <trkpt lat="43.51557" lon="6.75754">
        <ele>51.3</ele>
        <time>2014-04-21T10:38:41Z</time>
      </trkpt>
      <trkpt lat="43.51548" lon="6.75751">
        <ele>50.3</ele>
        <time>2014-04-21T10:38:46Z</time>
      </trkpt>
      <trkpt lat="43.5154" lon="6.75744">
        <ele>51.3</ele>
        <time>2014-04-21T10:38:53Z</time>
      </trkpt>
      <trkpt lat="43.51531" lon="6.75738">
        <ele>51.3</ele>
        <time>2014-04-21T10:39:03Z</time>
      </trkpt>
      <trkpt lat="43.51523" lon="6.75728">
        <ele>53.3</ele>
        <time>2014-04-21T10:39:10Z</time>
      </trkpt>
      <trkpt lat="43.51516" lon="6.75722">
        <ele>55.3</ele>
        <time>2014-04-21T10:39:17Z</time>
      </trkpt>
      <trkpt lat="43.51502" lon="6.75706">
        <ele>48.3</ele>
        <time>2014-04-21T10:43:32Z</time>
      </trkpt>
      <trkpt lat="43.51499" lon="6.75679">
        <ele>53.3</ele>
        <time>2014-04-21T10:43:42Z</time>
      </trkpt>
      <trkpt lat="43.51494" lon="6.75667">
        <ele>53.3</ele>
        <time>2014-04-21T10:43:46Z</time>
      </trkpt>
      <trkpt lat="43.51492" lon="6.75655">
        <ele>55.3</ele>
        <time>2014-04-21T10:43:50Z</time>
      </trkpt>
      <trkpt lat="43.51491" lon="6.75639">
        <ele>56.3</ele>
        <time>2014-04-21T10:43:55Z</time>
      </trkpt>
      <trkpt lat="43.5149" lon="6.75627">
        <ele>56.3</ele>
        <time>2014-04-21T10:43:59Z</time>
      </trkpt>
      <trkpt lat="43.51488" lon="6.75613">
        <ele>56.3</ele>
        <time>2014-04-21T10:44:04Z</time>
      </trkpt>
      <trkpt lat="43.51487" lon="6.756">
        <ele>55.3</ele>
        <time>2014-04-21T10:44:08Z</time>
      </trkpt>
      <trkpt lat="43.51482" lon="6.75588">
        <ele>55.3</ele>
        <time>2014-04-21T10:44:12Z</time>
      </trkpt>
      <trkpt lat="43.51474" lon="6.7558">
        <ele>55.3</ele>
        <time>2014-04-21T10:44:16Z</time>
      </trkpt>
      <trkpt lat="43.51463" lon="6.75576">
        <ele>56.3</ele>
        <time>2014-04-21T10:44:21Z</time>
      </trkpt>
      <trkpt lat="43.51453" lon="6.7558">
        <ele>55.3</ele>
        <time>2014-04-21T10:44:26Z</time>
      </trkpt>
      <trkpt lat="43.51446" lon="6.7559">
        <ele>55.3</ele>
        <time>2014-04-21T10:44:31Z</time>
      </trkpt>
      <trkpt lat="43.51439" lon="6.756">
        <ele>55.3</ele>
        <time>2014-04-21T10:44:36Z</time>
      </trkpt>
      <trkpt lat="43.51423" lon="6.75621">
        <ele>60.3</ele>
        <time>2014-04-21T10:44:46Z</time>
      </trkpt>
      <trkpt lat="43.51416" lon="6.75629">
        <ele>61.3</ele>
        <time>2014-04-21T10:44:50Z</time>
      </trkpt>
      <trkpt lat="43.51408" lon="6.75639">
        <ele>62.3</ele>
        <time>2014-04-21T10:44:55Z</time>
      </trkpt>
      <trkpt lat="43.51401" lon="6.75649">
        <ele>61.3</ele>
        <time>2014-04-21T10:45:00Z</time>
      </trkpt>
      <trkpt lat="43.51393" lon="6.75658">
        <ele>64.3</ele>
        <time>2014-04-21T10:45:05Z</time>
      </trkpt>
      <trkpt lat="43.51385" lon="6.75668">
        <ele>65.3</ele>
        <time>2014-04-21T10:45:10Z</time>
      </trkpt>
      <trkpt lat="43.51378" lon="6.75677">
        <ele>65.3</ele>
        <time>2014-04-21T10:45:15Z</time>
      </trkpt>
      <trkpt lat="43.5137" lon="6.75672">
        <ele>66.3</ele>
        <time>2014-04-21T10:45:22Z</time>
      </trkpt>
      <trkpt lat="43.51375" lon="6.75659">
        <ele>67.3</ele>
        <time>2014-04-21T10:45:27Z</time>
      </trkpt>
      <trkpt lat="43.51381" lon="6.75649">
        <ele>66.3</ele>
        <time>2014-04-21T10:45:32Z</time>
      </trkpt>
      <trkpt lat="43.51384" lon="6.75637">
        <ele>68.3</ele>
        <time>2014-04-21T10:45:37Z</time>
      </trkpt>
      <trkpt lat="43.51387" lon="6.7561">
        <ele>74.3</ele>
        <time>2014-04-21T10:45:48Z</time>
      </trkpt>
      <trkpt lat="43.51386" lon="6.75597">
        <ele>74.3</ele>
        <time>2014-04-21T10:45:53Z</time>
      </trkpt>
      <trkpt lat="43.51387" lon="6.75584">
        <ele>74.3</ele>
        <time>2014-04-21T10:45:58Z</time>
      </trkpt>
      <trkpt lat="43.51386" lon="6.7557">
        <ele>73.3</ele>
        <time>2014-04-21T10:46:03Z</time>
      </trkpt>
      <trkpt lat="43.51382" lon="6.75557">
        <ele>74.3</ele>
        <time>2014-04-21T10:46:08Z</time>
      </trkpt>
      <trkpt lat="43.51376" lon="6.75546">
        <ele>74.3</ele>
        <time>2014-04-21T10:46:13Z</time>
      </trkpt>
      <trkpt lat="43.51374" lon="6.75532">
        <ele>75.3</ele>
        <time>2014-04-21T10:46:18Z</time>
      </trkpt>
      <trkpt lat="43.51373" lon="6.75518">
        <ele>74.3</ele>
        <time>2014-04-21T10:46:23Z</time>
      </trkpt>
      <trkpt lat="43.51369" lon="6.75505">
        <ele>75.3</ele>
        <time>2014-04-21T10:46:28Z</time>
      </trkpt>
      <trkpt lat="43.51365" lon="6.75493">
        <ele>76.3</ele>
        <time>2014-04-21T10:46:33Z</time>
      </trkpt>
      <trkpt lat="43.51361" lon="6.75481">
        <ele>74.3</ele>
        <time>2014-04-21T10:46:37Z</time>
      </trkpt>
      <trkpt lat="43.51354" lon="6.7547">
        <ele>74.3</ele>
        <time>2014-04-21T10:46:42Z</time>
      </trkpt>
      <trkpt lat="43.51337" lon="6.75451">
        <ele>79.3</ele>
        <time>2014-04-21T10:46:52Z</time>
      </trkpt>
      <trkpt lat="43.51338" lon="6.75437">
        <ele>79.3</ele>
        <time>2014-04-21T10:46:57Z</time>
      </trkpt>
      <trkpt lat="43.51341" lon="6.75424">
        <ele>79.3</ele>
        <time>2014-04-21T10:47:02Z</time>
      </trkpt>
      <trkpt lat="43.51343" lon="6.7541">
        <ele>81.3</ele>
        <time>2014-04-21T10:47:07Z</time>
      </trkpt>
      <trkpt lat="43.51343" lon="6.75396">
        <ele>86.3</ele>
        <time>2014-04-21T10:47:12Z</time>
      </trkpt>
      <trkpt lat="43.5134" lon="6.75383">
        <ele>86.3</ele>
        <time>2014-04-21T10:47:17Z</time>
      </trkpt>
      <trkpt lat="43.51337" lon="6.75369">
        <ele>87.3</ele>
        <time>2014-04-21T10:47:22Z</time>
      </trkpt>
      <trkpt lat="43.51336" lon="6.75354">
        <ele>92.3</ele>
        <time>2014-04-21T10:47:27Z</time>
      </trkpt>
      <trkpt lat="43.51335" lon="6.75339">
        <ele>93.3</ele>
        <time>2014-04-21T10:47:32Z</time>
      </trkpt>
      <trkpt lat="43.51335" lon="6.75327">
        <ele>96.3</ele>
        <time>2014-04-21T10:47:36Z</time>
      </trkpt>
      <trkpt lat="43.51331" lon="6.75313">
        <ele>96.3</ele>
        <time>2014-04-21T10:47:40Z</time>
      </trkpt>
      <trkpt lat="43.51327" lon="6.75301">
        <ele>94.3</ele>
        <time>2014-04-21T10:47:44Z</time>
      </trkpt>
      <trkpt lat="43.51324" lon="6.75274">
        <ele>94.3</ele>
        <time>2014-04-21T10:47:52Z</time>
      </trkpt>
      <trkpt lat="43.51329" lon="6.75262">
        <ele>96.3</ele>
        <time>2014-04-21T10:47:56Z</time>
      </trkpt>
      <trkpt lat="43.51335" lon="6.75251">
        <ele>97.3</ele>
        <time>2014-04-21T10:48:00Z</time>
      </trkpt>
      <trkpt lat="43.51336" lon="6.75236">
        <ele>99.3</ele>
        <time>2014-04-21T10:48:04Z</time>
      </trkpt>
      <trkpt lat="43.51331" lon="6.75221">
        <ele>99.3</ele>
        <time>2014-04-21T10:48:08Z</time>
      </trkpt>
      <trkpt lat="43.51326" lon="6.7521">
        <ele>101.3</ele>
        <time>2014-04-21T10:48:11Z</time>
      </trkpt>
      <trkpt lat="43.51321" lon="6.75199">
        <ele>100.3</ele>
        <time>2014-04-21T10:48:14Z</time>
      </trkpt>
      <trkpt lat="43.51315" lon="6.75187">
        <ele>101.3</ele>
        <time>2014-04-21T10:48:18Z</time>
      </trkpt>
      <trkpt lat="43.5131" lon="6.75173">
        <ele>101.3</ele>
        <time>2014-04-21T10:48:22Z</time>
      </trkpt>
      <trkpt lat="43.51306" lon="6.7516">
        <ele>104.3</ele>
        <time>2014-04-21T10:48:26Z</time>
      </trkpt>
      <trkpt lat="43.51311" lon="6.75149">
        <ele>105.3</ele>
        <time>2014-04-21T10:48:30Z</time>
      </trkpt>
      <trkpt lat="43.51321" lon="6.75147">
        <ele>106.3</ele>
        <time>2014-04-21T10:48:34Z</time>
      </trkpt>
      <trkpt lat="43.5133" lon="6.75145">
        <ele>106.3</ele>
        <time>2014-04-21T10:48:38Z</time>
      </trkpt>
      <trkpt lat="43.5134" lon="6.75144">
        <ele>107.3</ele>
        <time>2014-04-21T10:48:42Z</time>
      </trkpt>
      <trkpt lat="43.5135" lon="6.75147">
        <ele>108.3</ele>
        <time>2014-04-21T10:48:46Z</time>
      </trkpt>
      <trkpt lat="43.5137" lon="6.75142">
        <ele>108.3</ele>
        <time>2014-04-21T10:48:54Z</time>
      </trkpt>
      <trkpt lat="43.51376" lon="6.75132">
        <ele>107.3</ele>
        <time>2014-04-21T10:48:58Z</time>
      </trkpt>
      <trkpt lat="43.51383" lon="6.75122">
        <ele>109.3</ele>
        <time>2014-04-21T10:49:02Z</time>
      </trkpt>
      <trkpt lat="43.51392" lon="6.75116">
        <ele>111.3</ele>
        <time>2014-04-21T10:49:06Z</time>
      </trkpt>
      <trkpt lat="43.51401" lon="6.75111">
        <ele>112.3</ele>
        <time>2014-04-21T10:49:10Z</time>
      </trkpt>
      <trkpt lat="43.51403" lon="6.75096">
        <ele>111.3</ele>
        <time>2014-04-21T10:49:15Z</time>
      </trkpt>
      <trkpt lat="43.51395" lon="6.75086">
        <ele>112.3</ele>
        <time>2014-04-21T10:49:19Z</time>
      </trkpt>
      <trkpt lat="43.51384" lon="6.75086">
        <ele>113.3</ele>
        <time>2014-04-21T10:49:23Z</time>
      </trkpt>
      <trkpt lat="43.51374" lon="6.75092">
        <ele>114.3</ele>
        <time>2014-04-21T10:49:27Z</time>
      </trkpt>
      <trkpt lat="43.51364" lon="6.751">
        <ele>115.3</ele>
        <time>2014-04-21T10:49:31Z</time>
      </trkpt>
      <trkpt lat="43.51355" lon="6.75107">
        <ele>116.3</ele>
        <time>2014-04-21T10:49:35Z</time>
      </trkpt>
      <trkpt lat="43.51346" lon="6.7511">
        <ele>117.3</ele>
        <time>2014-04-21T10:49:39Z</time>
      </trkpt>
      <trkpt lat="43.51335" lon="6.75111">
        <ele>119.3</ele>
        <time>2014-04-21T10:49:44Z</time>
      </trkpt>
      <trkpt lat="43.51324" lon="6.75108">
        <ele>120.3</ele>
        <time>2014-04-21T10:49:48Z</time>
      </trkpt>
      <trkpt lat="43.51301" lon="6.75104">
        <ele>124.3</ele>
        <time>2014-04-21T10:49:56Z</time>
      </trkpt>
      <trkpt lat="43.51292" lon="6.75102">
        <ele>125.3</ele>
        <time>2014-04-21T10:49:59Z</time>
      </trkpt>
      <trkpt lat="43.51283" lon="6.75099">
        <ele>125.3</ele>
        <time>2014-04-21T10:50:02Z</time>
      </trkpt>
      <trkpt lat="43.51274" lon="6.75097">
        <ele>127.3</ele>
        <time>2014-04-21T10:50:05Z</time>
      </trkpt>
      <trkpt lat="43.51262" lon="6.75094">
        <ele>128.3</ele>
        <time>2014-04-21T10:50:09Z</time>
      </trkpt>
      <trkpt lat="43.51252" lon="6.75091">
        <ele>130.3</ele>
        <time>2014-04-21T10:50:13Z</time>
      </trkpt>
      <trkpt lat="43.5124" lon="6.7509">
        <ele>130.3</ele>
        <time>2014-04-21T10:50:17Z</time>
      </trkpt>
      <trkpt lat="43.51229" lon="6.75095">
        <ele>131.3</ele>
        <time>2014-04-21T10:50:21Z</time>
      </trkpt>
      <trkpt lat="43.51228" lon="6.7511">
        <ele>132.3</ele>
        <time>2014-04-21T10:50:26Z</time>
      </trkpt>
      <trkpt lat="43.51231" lon="6.75122">
        <ele>133.3</ele>
        <time>2014-04-21T10:50:30Z</time>
      </trkpt>
      <trkpt lat="43.51234" lon="6.75134">
        <ele>134.3</ele>
        <time>2014-04-21T10:50:34Z</time>
      </trkpt>
      <trkpt lat="43.51237" lon="6.75146">
        <ele>135.3</ele>
        <time>2014-04-21T10:50:38Z</time>
      </trkpt>
      <trkpt lat="43.5124" lon="6.75161">
        <ele>136.3</ele>
        <time>2014-04-21T10:50:43Z</time>
      </trkpt>
      <trkpt lat="43.51239" lon="6.75174">
        <ele>138.3</ele>
        <time>2014-04-21T10:50:47Z</time>
      </trkpt>
      <trkpt lat="43.51237" lon="6.75187">
        <ele>140.3</ele>
        <time>2014-04-21T10:50:51Z</time>
      </trkpt>
      <trkpt lat="43.51225" lon="6.75209">
        <ele>141.3</ele>
        <time>2014-04-21T10:50:59Z</time>
      </trkpt>
      <trkpt lat="43.51216" lon="6.75215">
        <ele>141.3</ele>
        <time>2014-04-21T10:51:03Z</time>
      </trkpt>
      <trkpt lat="43.51206" lon="6.75221">
        <ele>140.3</ele>
        <time>2014-04-21T10:51:07Z</time>
      </trkpt>
      <trkpt lat="43.51197" lon="6.75228">
        <ele>141.3</ele>
        <time>2014-04-21T10:51:11Z</time>
      </trkpt>
      <trkpt lat="43.5119" lon="6.7524">
        <ele>142.3</ele>
        <time>2014-04-21T10:51:15Z</time>
      </trkpt>
      <trkpt lat="43.51183" lon="6.75253">
        <ele>144.3</ele>
        <time>2014-04-21T10:51:19Z</time>
      </trkpt>
      <trkpt lat="43.51179" lon="6.75267">
        <ele>143.3</ele>
        <time>2014-04-21T10:51:23Z</time>
      </trkpt>
      <trkpt lat="43.51175" lon="6.75279">
        <ele>143.3</ele>
        <time>2014-04-21T10:51:28Z</time>
      </trkpt>
      <trkpt lat="43.51167" lon="6.75284">
        <ele>142.3</ele>
        <time>2014-04-21T10:51:49Z</time>
      </trkpt>
      <trkpt lat="43.51162" lon="6.75294">
        <ele>137.3</ele>
        <time>2014-04-21T11:04:45Z</time>
      </trkpt>
      <trkpt lat="43.51188" lon="6.75285">
        <ele>142.3</ele>
        <time>2014-04-21T11:07:23Z</time>
      </trkpt>
      <trkpt lat="43.51199" lon="6.75291">
        <ele>142.3</ele>
        <time>2014-04-21T11:07:27Z</time>
      </trkpt>
      <trkpt lat="43.51208" lon="6.753">
        <ele>140.3</ele>
        <time>2014-04-21T11:07:30Z</time>
      </trkpt>
      <trkpt lat="43.51227" lon="6.75326">
        <ele>140.3</ele>
        <time>2014-04-21T11:07:35Z</time>
      </trkpt>
      <trkpt lat="43.51228" lon="6.75344">
        <ele>137.3</ele>
        <time>2014-04-21T11:07:37Z</time>
      </trkpt>
      <trkpt lat="43.51229" lon="6.75362">
        <ele>138.3</ele>
        <time>2014-04-21T11:07:39Z</time>
      </trkpt>
      <trkpt lat="43.51229" lon="6.7538">
        <ele>135.3</ele>
        <time>2014-04-21T11:07:41Z</time>
      </trkpt>
      <trkpt lat="43.51222" lon="6.754">
        <ele>137.3</ele>
        <time>2014-04-21T11:07:43Z</time>
      </trkpt>
      <trkpt lat="43.51215" lon="6.75418">
        <ele>136.3</ele>
        <time>2014-04-21T11:07:45Z</time>
      </trkpt>
      <trkpt lat="43.51214" lon="6.7544">
        <ele>134.3</ele>
        <time>2014-04-21T11:07:47Z</time>
      </trkpt>
      <trkpt lat="43.51219" lon="6.75464">
        <ele>133.3</ele>
        <time>2014-04-21T11:07:49Z</time>
      </trkpt>
      <trkpt lat="43.51224" lon="6.75487">
        <ele>130.3</ele>
        <time>2014-04-21T11:07:51Z</time>
      </trkpt>
      <trkpt lat="43.51225" lon="6.75509">
        <ele>128.3</ele>
        <time>2014-04-21T11:07:53Z</time>
      </trkpt>
      <trkpt lat="43.51218" lon="6.75525">
        <ele>128.3</ele>
        <time>2014-04-21T11:07:55Z</time>
      </trkpt>
      <trkpt lat="43.51202" lon="6.75536">
        <ele>125.3</ele>
        <time>2014-04-21T11:07:57Z</time>
      </trkpt>
      <trkpt lat="43.51193" lon="6.7554">
        <ele>125.3</ele>
        <time>2014-04-21T11:07:58Z</time>
      </trkpt>
      <trkpt lat="43.51184" lon="6.75543">
        <ele>125.3</ele>
        <time>2014-04-21T11:07:59Z</time>
      </trkpt>
      <trkpt lat="43.51167" lon="6.7555">
        <ele>122.3</ele>
        <time>2014-04-21T11:08:01Z</time>
      </trkpt>
      <trkpt lat="43.51152" lon="6.75551">
        <ele>122.3</ele>
        <time>2014-04-21T11:08:03Z</time>
      </trkpt>
      <trkpt lat="43.51138" lon="6.75541">
        <ele>123.3</ele>
        <time>2014-04-21T11:08:05Z</time>
      </trkpt>
      <trkpt lat="43.51135" lon="6.75522">
        <ele>120.3</ele>
        <time>2014-04-21T11:08:07Z</time>
      </trkpt>
      <trkpt lat="43.5114" lon="6.75505">
        <ele>118.3</ele>
        <time>2014-04-21T11:08:09Z</time>
      </trkpt>
      <trkpt lat="43.51146" lon="6.7549">
        <ele>118.3</ele>
        <time>2014-04-21T11:08:11Z</time>
      </trkpt>
      <trkpt lat="43.51149" lon="6.75475">
        <ele>116.3</ele>
        <time>2014-04-21T11:08:13Z</time>
      </trkpt>
      <trkpt lat="43.51145" lon="6.75458">
        <ele>116.3</ele>
        <time>2014-04-21T11:08:15Z</time>
      </trkpt>
      <trkpt lat="43.51135" lon="6.75442">
        <ele>116.3</ele>
        <time>2014-04-21T11:08:17Z</time>
      </trkpt>
      <trkpt lat="43.51125" lon="6.75424">
        <ele>115.3</ele>
        <time>2014-04-21T11:08:19Z</time>
      </trkpt>
      <trkpt lat="43.51115" lon="6.75404">
        <ele>113.3</ele>
        <time>2014-04-21T11:08:21Z</time>
      </trkpt>
      <trkpt lat="43.51112" lon="6.75392">
        <ele>112.3</ele>
        <time>2014-04-21T11:08:22Z</time>
      </trkpt>
      <trkpt lat="43.51108" lon="6.7538">
        <ele>112.3</ele>
        <time>2014-04-21T11:08:23Z</time>
      </trkpt>
      <trkpt lat="43.51107" lon="6.75366">
        <ele>111.3</ele>
        <time>2014-04-21T11:08:24Z</time>
      </trkpt>
      <trkpt lat="43.51105" lon="6.75346">
        <ele>108.3</ele>
        <time>2014-04-21T11:08:26Z</time>
      </trkpt>
      <trkpt lat="43.51102" lon="6.75334">
        <ele>106.3</ele>
        <time>2014-04-21T11:08:29Z</time>
      </trkpt>
      <trkpt lat="43.51095" lon="6.75345">
        <ele>105.3</ele>
        <time>2014-04-21T11:08:32Z</time>
      </trkpt>
      <trkpt lat="43.51089" lon="6.75382">
        <ele>104.3</ele>
        <time>2014-04-21T11:08:36Z</time>
      </trkpt>
      <trkpt lat="43.51088" lon="6.75394">
        <ele>103.3</ele>
        <time>2014-04-21T11:08:37Z</time>
      </trkpt>
      <trkpt lat="43.5109" lon="6.7542">
        <ele>101.3</ele>
        <time>2014-04-21T11:08:39Z</time>
      </trkpt>
      <trkpt lat="43.51092" lon="6.75433">
        <ele>99.3</ele>
        <time>2014-04-21T11:08:40Z</time>
      </trkpt>
      <trkpt lat="43.51092" lon="6.75453">
        <ele>97.3</ele>
        <time>2014-04-21T11:08:42Z</time>
      </trkpt>
      <trkpt lat="43.51087" lon="6.7547">
        <ele>96.3</ele>
        <time>2014-04-21T11:08:44Z</time>
      </trkpt>
      <trkpt lat="43.51075" lon="6.7548">
        <ele>96.3</ele>
        <time>2014-04-21T11:08:46Z</time>
      </trkpt>
      <trkpt lat="43.51059" lon="6.75491">
        <ele>95.3</ele>
        <time>2014-04-21T11:08:48Z</time>
      </trkpt>
      <trkpt lat="43.51046" lon="6.75508">
        <ele>93.3</ele>
        <time>2014-04-21T11:08:50Z</time>
      </trkpt>
      <trkpt lat="43.51038" lon="6.75517">
        <ele>93.3</ele>
        <time>2014-04-21T11:08:51Z</time>
      </trkpt>
      <trkpt lat="43.51029" lon="6.75527">
        <ele>91.3</ele>
        <time>2014-04-21T11:08:52Z</time>
      </trkpt>
      <trkpt lat="43.51023" lon="6.75538">
        <ele>89.3</ele>
        <time>2014-04-21T11:08:53Z</time>
      </trkpt>
      <trkpt lat="43.51016" lon="6.7555">
        <ele>87.3</ele>
        <time>2014-04-21T11:08:54Z</time>
      </trkpt>
      <trkpt lat="43.5101" lon="6.75561">
        <ele>86.3</ele>
        <time>2014-04-21T11:08:55Z</time>
      </trkpt>
      <trkpt lat="43.51006" lon="6.75572">
        <ele>85.3</ele>
        <time>2014-04-21T11:08:56Z</time>
      </trkpt>
      <trkpt lat="43.50999" lon="6.75589">
        <ele>83.3</ele>
        <time>2014-04-21T11:08:58Z</time>
      </trkpt>
      <trkpt lat="43.50992" lon="6.75601">
        <ele>82.3</ele>
        <time>2014-04-21T11:09:00Z</time>
      </trkpt>
      <trkpt lat="43.5098" lon="6.75596">
        <ele>78.3</ele>
        <time>2014-04-21T11:09:03Z</time>
      </trkpt>
      <trkpt lat="43.50976" lon="6.75579">
        <ele>76.3</ele>
        <time>2014-04-21T11:09:05Z</time>
      </trkpt>
      <trkpt lat="43.50976" lon="6.75559">
        <ele>75.3</ele>
        <time>2014-04-21T11:09:07Z</time>
      </trkpt>
      <trkpt lat="43.50975" lon="6.75537">
        <ele>73.3</ele>
        <time>2014-04-21T11:09:09Z</time>
      </trkpt>
      <trkpt lat="43.50971" lon="6.75514">
        <ele>73.3</ele>
        <time>2014-04-21T11:09:11Z</time>
      </trkpt>
      <trkpt lat="43.50967" lon="6.75489">
        <ele>72.3</ele>
        <time>2014-04-21T11:09:13Z</time>
      </trkpt>
      <trkpt lat="43.50963" lon="6.75477">
        <ele>71.3</ele>
        <time>2014-04-21T11:09:14Z</time>
      </trkpt>
      <trkpt lat="43.50955" lon="6.75454">
        <ele>69.3</ele>
        <time>2014-04-21T11:09:16Z</time>
      </trkpt>
      <trkpt lat="43.50944" lon="6.75435">
        <ele>68.3</ele>
        <time>2014-04-21T11:09:18Z</time>
      </trkpt>
      <trkpt lat="43.50929" lon="6.75422">
        <ele>68.3</ele>
        <time>2014-04-21T11:09:20Z</time>
      </trkpt>
      <trkpt lat="43.50916" lon="6.75412">
        <ele>68.3</ele>
        <time>2014-04-21T11:09:22Z</time>
      </trkpt>
      <trkpt lat="43.50903" lon="6.75403">
        <ele>69.3</ele>
        <time>2014-04-21T11:09:24Z</time>
      </trkpt>
      <trkpt lat="43.50891" lon="6.7539">
        <ele>67.3</ele>
        <time>2014-04-21T11:09:26Z</time>
      </trkpt>
      <trkpt lat="43.5088" lon="6.75377">
        <ele>66.3</ele>
        <time>2014-04-21T11:09:28Z</time>
      </trkpt>
      <trkpt lat="43.50865" lon="6.7537">
        <ele>64.3</ele>
        <time>2014-04-21T11:09:30Z</time>
      </trkpt>
      <trkpt lat="43.5085" lon="6.7537">
        <ele>61.3</ele>
        <time>2014-04-21T11:09:32Z</time>
      </trkpt>
      <trkpt lat="43.50839" lon="6.75374">
        <ele>61.3</ele>
        <time>2014-04-21T11:09:33Z</time>
      </trkpt>
      <trkpt lat="43.5082" lon="6.75379">
        <ele>61.3</ele>
        <time>2014-04-21T11:09:35Z</time>
      </trkpt>
      <trkpt lat="43.50809" lon="6.75381">
        <ele>61.3</ele>
        <time>2014-04-21T11:09:36Z</time>
      </trkpt>
      <trkpt lat="43.50798" lon="6.75382">
        <ele>60.3</ele>
        <time>2014-04-21T11:09:37Z</time>
      </trkpt>
      <trkpt lat="43.50788" lon="6.75387">
        <ele>59.3</ele>
        <time>2014-04-21T11:09:38Z</time>
      </trkpt>
      <trkpt lat="43.50778" lon="6.75394">
        <ele>57.3</ele>
        <time>2014-04-21T11:09:39Z</time>
      </trkpt>
      <trkpt lat="43.50768" lon="6.75403">
        <ele>55.3</ele>
        <time>2014-04-21T11:09:40Z</time>
      </trkpt>
      <trkpt lat="43.50759" lon="6.75414">
        <ele>53.3</ele>
        <time>2014-04-21T11:09:41Z</time>
      </trkpt>
      <trkpt lat="43.50749" lon="6.75424">
        <ele>51.3</ele>
        <time>2014-04-21T11:09:42Z</time>
      </trkpt>
      <trkpt lat="43.50739" lon="6.75434">
        <ele>50.3</ele>
        <time>2014-04-21T11:09:43Z</time>
      </trkpt>
      <trkpt lat="43.50729" lon="6.75443">
        <ele>50.3</ele>
        <time>2014-04-21T11:09:44Z</time>
      </trkpt>
      <trkpt lat="43.50721" lon="6.75448">
        <ele>48.3</ele>
        <time>2014-04-21T11:09:45Z</time>
      </trkpt>
      <trkpt lat="43.50711" lon="6.75455">
        <ele>48.3</ele>
        <time>2014-04-21T11:09:46Z</time>
      </trkpt>
      <trkpt lat="43.507" lon="6.75462">
        <ele>47.3</ele>
        <time>2014-04-21T11:09:47Z</time>
      </trkpt>
      <trkpt lat="43.50691" lon="6.75469">
        <ele>48.3</ele>
        <time>2014-04-21T11:09:48Z</time>
      </trkpt>
      <trkpt lat="43.50681" lon="6.75474">
        <ele>46.3</ele>
        <time>2014-04-21T11:09:49Z</time>
      </trkpt>
      <trkpt lat="43.50672" lon="6.75477">
        <ele>45.3</ele>
        <time>2014-04-21T11:09:50Z</time>
      </trkpt>
      <trkpt lat="43.50663" lon="6.75479">
        <ele>44.3</ele>
        <time>2014-04-21T11:09:51Z</time>
      </trkpt>
      <trkpt lat="43.50653" lon="6.7548">
        <ele>44.3</ele>
        <time>2014-04-21T11:09:52Z</time>
      </trkpt>
      <trkpt lat="43.50643" lon="6.75481">
        <ele>44.3</ele>
        <time>2014-04-21T11:09:53Z</time>
      </trkpt>
      <trkpt lat="43.50633" lon="6.75483">
        <ele>42.3</ele>
        <time>2014-04-21T11:09:54Z</time>
      </trkpt>
      <trkpt lat="43.50623" lon="6.75485">
        <ele>41.3</ele>
        <time>2014-04-21T11:09:55Z</time>
      </trkpt>
      <trkpt lat="43.50614" lon="6.75488">
        <ele>41.3</ele>
        <time>2014-04-21T11:09:56Z</time>
      </trkpt>
      <trkpt lat="43.50605" lon="6.75491">
        <ele>39.3</ele>
        <time>2014-04-21T11:09:57Z</time>
      </trkpt>
      <trkpt lat="43.50596" lon="6.75496">
        <ele>38.3</ele>
        <time>2014-04-21T11:09:58Z</time>
      </trkpt>
      <trkpt lat="43.50587" lon="6.755">
        <ele>38.3</ele>
        <time>2014-04-21T11:09:59Z</time>
      </trkpt>
      <trkpt lat="43.50571" lon="6.7551">
        <ele>38.3</ele>
        <time>2014-04-21T11:10:01Z</time>
      </trkpt>
      <trkpt lat="43.50558" lon="6.75521">
        <ele>39.3</ele>
        <time>2014-04-21T11:10:03Z</time>
      </trkpt>
      <trkpt lat="43.50547" lon="6.75531">
        <ele>38.3</ele>
        <time>2014-04-21T11:10:05Z</time>
      </trkpt>
      <trkpt lat="43.50538" lon="6.7554">
        <ele>39.3</ele>
        <time>2014-04-21T11:10:07Z</time>
      </trkpt>
      <trkpt lat="43.50529" lon="6.75547">
        <ele>38.3</ele>
        <time>2014-04-21T11:10:09Z</time>
      </trkpt>
      <trkpt lat="43.5052" lon="6.75553">
        <ele>39.3</ele>
        <time>2014-04-21T11:10:11Z</time>
      </trkpt>
      <trkpt lat="43.50511" lon="6.75563">
        <ele>36.3</ele>
        <time>2014-04-21T11:10:14Z</time>
      </trkpt>
      <trkpt lat="43.50505" lon="6.75576">
        <ele>37.3</ele>
        <time>2014-04-21T11:10:17Z</time>
      </trkpt>
      <trkpt lat="43.505" lon="6.75588">
        <ele>38.3</ele>
        <time>2014-04-21T11:10:20Z</time>
      </trkpt>
      <trkpt lat="43.50494" lon="6.75599">
        <ele>39.3</ele>
        <time>2014-04-21T11:10:23Z</time>
      </trkpt>
      <trkpt lat="43.5049" lon="6.75612">
        <ele>39.3</ele>
        <time>2014-04-21T11:10:26Z</time>
      </trkpt>
      <trkpt lat="43.50486" lon="6.75623">
        <ele>38.3</ele>
        <time>2014-04-21T11:10:29Z</time>
      </trkpt>
      <trkpt lat="43.50478" lon="6.75635">
        <ele>37.3</ele>
        <time>2014-04-21T11:10:33Z</time>
      </trkpt>
      <trkpt lat="43.50471" lon="6.75644">
        <ele>38.3</ele>
        <time>2014-04-21T11:10:36Z</time>
      </trkpt>
      <trkpt lat="43.50458" lon="6.75667">
        <ele>37.3</ele>
        <time>2014-04-21T11:10:42Z</time>
      </trkpt>
      <trkpt lat="43.50453" lon="6.7568">
        <ele>36.3</ele>
        <time>2014-04-21T11:10:45Z</time>
      </trkpt>
      <trkpt lat="43.50448" lon="6.75694">
        <ele>39.3</ele>
        <time>2014-04-21T11:10:48Z</time>
      </trkpt>
      <trkpt lat="43.50442" lon="6.75707">
        <ele>40.3</ele>
        <time>2014-04-21T11:10:51Z</time>
      </trkpt>
      <trkpt lat="43.50437" lon="6.75718">
        <ele>40.3</ele>
        <time>2014-04-21T11:10:54Z</time>
      </trkpt>
      <trkpt lat="43.50428" lon="6.7572">
        <ele>41.3</ele>
        <time>2014-04-21T11:11:01Z</time>
      </trkpt>
      <trkpt lat="43.50424" lon="6.75709">
        <ele>40.3</ele>
        <time>2014-04-21T11:11:09Z</time>
      </trkpt>
      <trkpt lat="43.50433" lon="6.75709">
        <ele>40.3</ele>
        <time>2014-04-21T11:11:20Z</time>
      </trkpt>
      <trkpt lat="43.50432" lon="6.75722">
        <ele>41.3</ele>
        <time>2014-04-21T11:11:25Z</time>
      </trkpt>
      <trkpt lat="43.50428" lon="6.75734">
        <ele>42.3</ele>
        <time>2014-04-21T11:11:29Z</time>
      </trkpt>
      <trkpt lat="43.50422" lon="6.75747">
        <ele>44.3</ele>
        <time>2014-04-21T11:11:33Z</time>
      </trkpt>
      <trkpt lat="43.50417" lon="6.75759">
        <ele>43.3</ele>
        <time>2014-04-21T11:11:36Z</time>
      </trkpt>
      <trkpt lat="43.50409" lon="6.75771">
        <ele>39.3</ele>
        <time>2014-04-21T11:11:39Z</time>
      </trkpt>
      <trkpt lat="43.50388" lon="6.75777">
        <ele>41.3</ele>
        <time>2014-04-21T11:11:45Z</time>
      </trkpt>
      <trkpt lat="43.50378" lon="6.7577">
        <ele>39.3</ele>
        <time>2014-04-21T11:11:48Z</time>
      </trkpt>
      <trkpt lat="43.50368" lon="6.75767">
        <ele>39.3</ele>
        <time>2014-04-21T11:11:51Z</time>
      </trkpt>
      <trkpt lat="43.50369" lon="6.7578">
        <ele>36.3</ele>
        <time>2014-04-21T11:12:04Z</time>
      </trkpt>
      <trkpt lat="43.50376" lon="6.7579">
        <ele>37.3</ele>
        <time>2014-04-21T11:12:09Z</time>
      </trkpt>
      <trkpt lat="43.50387" lon="6.75793">
        <ele>36.3</ele>
        <time>2014-04-21T11:12:14Z</time>
      </trkpt>
      <trkpt lat="43.50395" lon="6.75799">
        <ele>36.3</ele>
        <time>2014-04-21T11:12:17Z</time>
      </trkpt>
      <trkpt lat="43.50404" lon="6.75805">
        <ele>36.3</ele>
        <time>2014-04-21T11:12:20Z</time>
      </trkpt>
      <trkpt lat="43.50418" lon="6.75815">
        <ele>34.3</ele>
        <time>2014-04-21T11:12:22Z</time>
      </trkpt>
      <trkpt lat="43.50431" lon="6.75826">
        <ele>36.3</ele>
        <time>2014-04-21T11:12:24Z</time>
      </trkpt>
      <trkpt lat="43.50439" lon="6.75833">
        <ele>36.3</ele>
        <time>2014-04-21T11:12:26Z</time>
      </trkpt>
      <trkpt lat="43.50448" lon="6.75838">
        <ele>37.3</ele>
        <time>2014-04-21T11:12:29Z</time>
      </trkpt>
      <trkpt lat="43.50457" lon="6.75847">
        <ele>38.3</ele>
        <time>2014-04-21T11:12:34Z</time>
      </trkpt>
      <trkpt lat="43.50459" lon="6.75863">
        <ele>36.3</ele>
        <time>2014-04-21T11:12:39Z</time>
      </trkpt>
      <trkpt lat="43.50452" lon="6.75878">
        <ele>37.3</ele>
        <time>2014-04-21T11:12:41Z</time>
      </trkpt>
      <trkpt lat="43.50439" lon="6.75895">
        <ele>43.3</ele>
        <time>2014-04-21T11:12:48Z</time>
      </trkpt>
      <trkpt lat="43.50433" lon="6.75907">
        <ele>43.3</ele>
        <time>2014-04-21T11:12:53Z</time>
      </trkpt>
      <trkpt lat="43.50428" lon="6.7592">
        <ele>43.3</ele>
        <time>2014-04-21T11:12:59Z</time>
      </trkpt>
      <trkpt lat="43.50424" lon="6.75934">
        <ele>43.3</ele>
        <time>2014-04-21T11:13:04Z</time>
      </trkpt>
      <trkpt lat="43.50427" lon="6.75947">
        <ele>42.3</ele>
        <time>2014-04-21T11:13:08Z</time>
      </trkpt>
      <trkpt lat="43.50434" lon="6.75957">
        <ele>43.3</ele>
        <time>2014-04-21T11:13:13Z</time>
      </trkpt>
      <trkpt lat="43.50441" lon="6.75968">
        <ele>49.3</ele>
        <time>2014-04-21T11:13:20Z</time>
      </trkpt>
      <trkpt lat="43.50448" lon="6.75978">
        <ele>48.3</ele>
        <time>2014-04-21T11:13:25Z</time>
      </trkpt>
      <trkpt lat="43.50456" lon="6.75988">
        <ele>50.3</ele>
        <time>2014-04-21T11:13:30Z</time>
      </trkpt>
      <trkpt lat="43.50464" lon="6.75996">
        <ele>50.3</ele>
        <time>2014-04-21T11:13:35Z</time>
      </trkpt>
      <trkpt lat="43.50473" lon="6.76002">
        <ele>49.3</ele>
        <time>2014-04-21T11:13:40Z</time>
      </trkpt>
      <trkpt lat="43.50482" lon="6.76007">
        <ele>49.3</ele>
        <time>2014-04-21T11:13:44Z</time>
      </trkpt>
      <trkpt lat="43.50501" lon="6.76018">
        <ele>52.3</ele>
        <time>2014-04-21T11:13:54Z</time>
      </trkpt>
      <trkpt lat="43.5051" lon="6.76022">
        <ele>53.3</ele>
        <time>2014-04-21T11:13:59Z</time>
      </trkpt>
      <trkpt lat="43.50517" lon="6.76031">
        <ele>55.3</ele>
        <time>2014-04-21T11:14:05Z</time>
      </trkpt>
      <trkpt lat="43.50522" lon="6.76043">
        <ele>55.3</ele>
        <time>2014-04-21T11:14:11Z</time>
      </trkpt>
      <trkpt lat="43.50525" lon="6.76056">
        <ele>54.3</ele>
        <time>2014-04-21T11:14:17Z</time>
      </trkpt>
      <trkpt lat="43.50529" lon="6.76069">
        <ele>54.3</ele>
        <time>2014-04-21T11:14:23Z</time>
      </trkpt>
      <trkpt lat="43.50533" lon="6.76082">
        <ele>59.3</ele>
        <time>2014-04-21T11:14:30Z</time>
      </trkpt>
      <trkpt lat="43.50536" lon="6.76096">
        <ele>60.3</ele>
        <time>2014-04-21T11:14:36Z</time>
      </trkpt>
      <trkpt lat="43.50539" lon="6.7611">
        <ele>59.3</ele>
        <time>2014-04-21T11:14:41Z</time>
      </trkpt>
      <trkpt lat="43.50542" lon="6.76125">
        <ele>59.3</ele>
        <time>2014-04-21T11:14:46Z</time>
      </trkpt>
      <trkpt lat="43.50548" lon="6.7615">
        <ele>57.3</ele>
        <time>2014-04-21T11:14:54Z</time>
      </trkpt>
      <trkpt lat="43.5055" lon="6.76163">
        <ele>60.3</ele>
        <time>2014-04-21T11:14:58Z</time>
      </trkpt>
      <trkpt lat="43.50553" lon="6.76176">
        <ele>61.3</ele>
        <time>2014-04-21T11:15:02Z</time>
      </trkpt>
      <trkpt lat="43.50558" lon="6.76188">
        <ele>61.3</ele>
        <time>2014-04-21T11:15:06Z</time>
      </trkpt>
      <trkpt lat="43.50563" lon="6.76201">
        <ele>63.3</ele>
        <time>2014-04-21T11:15:10Z</time>
      </trkpt>
      <trkpt lat="43.50568" lon="6.76212">
        <ele>63.3</ele>
        <time>2014-04-21T11:15:14Z</time>
      </trkpt>
      <trkpt lat="43.50574" lon="6.76223">
        <ele>64.3</ele>
        <time>2014-04-21T11:15:18Z</time>
      </trkpt>
      <trkpt lat="43.50581" lon="6.76231">
        <ele>65.3</ele>
        <time>2014-04-21T11:15:22Z</time>
      </trkpt>
      <trkpt lat="43.50587" lon="6.7624">
        <ele>64.3</ele>
        <time>2014-04-21T11:15:26Z</time>
      </trkpt>
      <trkpt lat="43.50595" lon="6.76248">
        <ele>64.3</ele>
        <time>2014-04-21T11:15:30Z</time>
      </trkpt>
      <trkpt lat="43.50601" lon="6.7626">
        <ele>64.3</ele>
        <time>2014-04-21T11:15:35Z</time>
      </trkpt>
      <trkpt lat="43.50603" lon="6.76275">
        <ele>64.3</ele>
        <time>2014-04-21T11:15:40Z</time>
      </trkpt>
      <trkpt lat="43.50602" lon="6.7629">
        <ele>66.3</ele>
        <time>2014-04-21T11:15:45Z</time>
      </trkpt>
      <trkpt lat="43.50602" lon="6.76305">
        <ele>68.3</ele>
        <time>2014-04-21T11:15:50Z</time>
      </trkpt>
      <trkpt lat="43.50604" lon="6.76332">
        <ele>71.3</ele>
        <time>2014-04-21T11:15:59Z</time>
      </trkpt>
      <trkpt lat="43.50609" lon="6.76345">
        <ele>71.3</ele>
        <time>2014-04-21T11:16:03Z</time>
      </trkpt>
      <trkpt lat="43.50617" lon="6.76353">
        <ele>73.3</ele>
        <time>2014-04-21T11:16:07Z</time>
      </trkpt>
      <trkpt lat="43.50627" lon="6.76358">
        <ele>72.3</ele>
        <time>2014-04-21T11:16:12Z</time>
      </trkpt>
      <trkpt lat="43.50638" lon="6.7636">
        <ele>71.3</ele>
        <time>2014-04-21T11:16:17Z</time>
      </trkpt>
      <trkpt lat="43.50648" lon="6.76362">
        <ele>72.3</ele>
        <time>2014-04-21T11:16:22Z</time>
      </trkpt>
      <trkpt lat="43.50657" lon="6.76365">
        <ele>72.3</ele>
        <time>2014-04-21T11:16:27Z</time>
      </trkpt>
      <trkpt lat="43.50666" lon="6.76368">
        <ele>73.3</ele>
        <time>2014-04-21T11:16:32Z</time>
      </trkpt>
      <trkpt lat="43.50674" lon="6.76372">
        <ele>73.3</ele>
        <time>2014-04-21T11:16:37Z</time>
      </trkpt>
      <trkpt lat="43.50683" lon="6.76377">
        <ele>73.3</ele>
        <time>2014-04-21T11:16:42Z</time>
      </trkpt>
      <trkpt lat="43.50691" lon="6.76382">
        <ele>74.3</ele>
        <time>2014-04-21T11:16:47Z</time>
      </trkpt>
      <trkpt lat="43.507" lon="6.76388">
        <ele>74.3</ele>
        <time>2014-04-21T11:16:52Z</time>
      </trkpt>
      <trkpt lat="43.50718" lon="6.76399">
        <ele>76.3</ele>
        <time>2014-04-21T11:17:02Z</time>
      </trkpt>
      <trkpt lat="43.50726" lon="6.76406">
        <ele>76.3</ele>
        <time>2014-04-21T11:17:07Z</time>
      </trkpt>
      <trkpt lat="43.50734" lon="6.76413">
        <ele>76.3</ele>
        <time>2014-04-21T11:17:12Z</time>
      </trkpt>
      <trkpt lat="43.50744" lon="6.76419">
        <ele>77.3</ele>
        <time>2014-04-21T11:17:18Z</time>
      </trkpt>
      <trkpt lat="43.50753" lon="6.76425">
        <ele>78.3</ele>
        <time>2014-04-21T11:17:24Z</time>
      </trkpt>
      <trkpt lat="43.50757" lon="6.76437">
        <ele>79.3</ele>
        <time>2014-04-21T11:17:30Z</time>
      </trkpt>
      <trkpt lat="43.50764" lon="6.76448">
        <ele>78.3</ele>
        <time>2014-04-21T11:17:34Z</time>
      </trkpt>
      <trkpt lat="43.50773" lon="6.76457">
        <ele>77.3</ele>
        <time>2014-04-21T11:17:37Z</time>
      </trkpt>
      <trkpt lat="43.50781" lon="6.76467">
        <ele>78.3</ele>
        <time>2014-04-21T11:17:40Z</time>
      </trkpt>
      <trkpt lat="43.50786" lon="6.7648">
        <ele>79.3</ele>
        <time>2014-04-21T11:17:44Z</time>
      </trkpt>
      <trkpt lat="43.50787" lon="6.76493">
        <ele>79.3</ele>
        <time>2014-04-21T11:17:48Z</time>
      </trkpt>
      <trkpt lat="43.50788" lon="6.76506">
        <ele>78.3</ele>
        <time>2014-04-21T11:17:51Z</time>
      </trkpt>
      <trkpt lat="43.50793" lon="6.76526">
        <ele>76.3</ele>
        <time>2014-04-21T11:17:54Z</time>
      </trkpt>
      <trkpt lat="43.50805" lon="6.76556">
        <ele>73.3</ele>
        <time>2014-04-21T11:17:58Z</time>
      </trkpt>
      <trkpt lat="43.50811" lon="6.76577">
        <ele>71.3</ele>
        <time>2014-04-21T11:18:00Z</time>
      </trkpt>
      <trkpt lat="43.50812" lon="6.76601">
        <ele>71.3</ele>
        <time>2014-04-21T11:18:02Z</time>
      </trkpt>
      <trkpt lat="43.50813" lon="6.76624">
        <ele>70.3</ele>
        <time>2014-04-21T11:18:04Z</time>
      </trkpt>
      <trkpt lat="43.50811" lon="6.76645">
        <ele>69.3</ele>
        <time>2014-04-21T11:18:06Z</time>
      </trkpt>
      <trkpt lat="43.50805" lon="6.76661">
        <ele>70.3</ele>
        <time>2014-04-21T11:18:08Z</time>
      </trkpt>
      <trkpt lat="43.50799" lon="6.76673">
        <ele>71.3</ele>
        <time>2014-04-21T11:18:10Z</time>
      </trkpt>
      <trkpt lat="43.50792" lon="6.76684">
        <ele>72.3</ele>
        <time>2014-04-21T11:18:13Z</time>
      </trkpt>
      <trkpt lat="43.50793" lon="6.76697">
        <ele>73.3</ele>
        <time>2014-04-21T11:18:26Z</time>
      </trkpt>
      <trkpt lat="43.50798" lon="6.76707">
        <ele>72.3</ele>
        <time>2014-04-21T11:19:38Z</time>
      </trkpt>
      <trkpt lat="43.50808" lon="6.76729">
        <ele>73.3</ele>
        <time>2014-04-21T11:20:31Z</time>
      </trkpt>
      <trkpt lat="43.50812" lon="6.76744">
        <ele>72.3</ele>
        <time>2014-04-21T11:20:35Z</time>
      </trkpt>
      <trkpt lat="43.50817" lon="6.76758">
        <ele>72.3</ele>
        <time>2014-04-21T11:20:39Z</time>
      </trkpt>
      <trkpt lat="43.50834" lon="6.76776">
        <ele>74.3</ele>
        <time>2014-04-21T11:20:47Z</time>
      </trkpt>
      <trkpt lat="43.50843" lon="6.76779">
        <ele>76.3</ele>
        <time>2014-04-21T11:20:50Z</time>
      </trkpt>
      <trkpt lat="43.50853" lon="6.7678">
        <ele>75.3</ele>
        <time>2014-04-21T11:20:53Z</time>
      </trkpt>
      <trkpt lat="43.50863" lon="6.76781">
        <ele>71.3</ele>
        <time>2014-04-21T11:20:56Z</time>
      </trkpt>
      <trkpt lat="43.50875" lon="6.76778">
        <ele>71.3</ele>
        <time>2014-04-21T11:20:58Z</time>
      </trkpt>
      <trkpt lat="43.50888" lon="6.76778">
        <ele>71.3</ele>
        <time>2014-04-21T11:21:00Z</time>
      </trkpt>
      <trkpt lat="43.50902" lon="6.76777">
        <ele>68.3</ele>
        <time>2014-04-21T11:21:02Z</time>
      </trkpt>
      <trkpt lat="43.50918" lon="6.76779">
        <ele>67.3</ele>
        <time>2014-04-21T11:21:04Z</time>
      </trkpt>
      <trkpt lat="43.50928" lon="6.76793">
        <ele>66.3</ele>
        <time>2014-04-21T11:21:06Z</time>
      </trkpt>
      <trkpt lat="43.50937" lon="6.76805">
        <ele>67.3</ele>
        <time>2014-04-21T11:21:08Z</time>
      </trkpt>
      <trkpt lat="43.50946" lon="6.76816">
        <ele>67.3</ele>
        <time>2014-04-21T11:21:11Z</time>
      </trkpt>
      <trkpt lat="43.50956" lon="6.76827">
        <ele>67.3</ele>
        <time>2014-04-21T11:21:14Z</time>
      </trkpt>
      <trkpt lat="43.50964" lon="6.76836">
        <ele>67.3</ele>
        <time>2014-04-21T11:21:17Z</time>
      </trkpt>
      <trkpt lat="43.50974" lon="6.76844">
        <ele>67.3</ele>
        <time>2014-04-21T11:21:20Z</time>
      </trkpt>
      <trkpt lat="43.50982" lon="6.7685">
        <ele>70.3</ele>
        <time>2014-04-21T11:21:24Z</time>
      </trkpt>
      <trkpt lat="43.50989" lon="6.76859">
        <ele>72.3</ele>
        <time>2014-04-21T11:21:29Z</time>
      </trkpt>
      <trkpt lat="43.50997" lon="6.76868">
        <ele>75.3</ele>
        <time>2014-04-21T11:21:34Z</time>
      </trkpt>
      <trkpt lat="43.51005" lon="6.76877">
        <ele>75.3</ele>
        <time>2014-04-21T11:21:39Z</time>
      </trkpt>
      <trkpt lat="43.51012" lon="6.76887">
        <ele>75.3</ele>
        <time>2014-04-21T11:21:42Z</time>
      </trkpt>
      <trkpt lat="43.51027" lon="6.76903">
        <ele>74.3</ele>
        <time>2014-04-21T11:21:49Z</time>
      </trkpt>
      <trkpt lat="43.51035" lon="6.76914">
        <ele>75.3</ele>
        <time>2014-04-21T11:21:54Z</time>
      </trkpt>
      <trkpt lat="43.5104" lon="6.76924">
        <ele>73.3</ele>
        <time>2014-04-21T11:21:56Z</time>
      </trkpt>
      <trkpt lat="43.51047" lon="6.76937">
        <ele>73.3</ele>
        <time>2014-04-21T11:21:58Z</time>
      </trkpt>
      <trkpt lat="43.51055" lon="6.7695">
        <ele>73.3</ele>
        <time>2014-04-21T11:22:00Z</time>
      </trkpt>
      <trkpt lat="43.51062" lon="6.76964">
        <ele>72.3</ele>
        <time>2014-04-21T11:22:02Z</time>
      </trkpt>
      <trkpt lat="43.51072" lon="6.76973">
        <ele>72.3</ele>
        <time>2014-04-21T11:22:04Z</time>
      </trkpt>
      <trkpt lat="43.51081" lon="6.76979">
        <ele>72.3</ele>
        <time>2014-04-21T11:22:06Z</time>
      </trkpt>
      <trkpt lat="43.51089" lon="6.76985">
        <ele>74.3</ele>
        <time>2014-04-21T11:22:08Z</time>
      </trkpt>
      <trkpt lat="43.51098" lon="6.76988">
        <ele>74.3</ele>
        <time>2014-04-21T11:22:12Z</time>
      </trkpt>
      <trkpt lat="43.51108" lon="6.76995">
        <ele>74.3</ele>
        <time>2014-04-21T11:22:17Z</time>
      </trkpt>
      <trkpt lat="43.51111" lon="6.77009">
        <ele>74.3</ele>
        <time>2014-04-21T11:22:22Z</time>
      </trkpt>
      <trkpt lat="43.51113" lon="6.77022">
        <ele>75.3</ele>
        <time>2014-04-21T11:22:26Z</time>
      </trkpt>
      <trkpt lat="43.51115" lon="6.77036">
        <ele>75.3</ele>
        <time>2014-04-21T11:22:30Z</time>
      </trkpt>
      <trkpt lat="43.51116" lon="6.77051">
        <ele>75.3</ele>
        <time>2014-04-21T11:22:34Z</time>
      </trkpt>
      <trkpt lat="43.51116" lon="6.77065">
        <ele>77.3</ele>
        <time>2014-04-21T11:22:38Z</time>
      </trkpt>
      <trkpt lat="43.51115" lon="6.7708">
        <ele>79.3</ele>
        <time>2014-04-21T11:22:43Z</time>
      </trkpt>
      <trkpt lat="43.51107" lon="6.77104">
        <ele>78.3</ele>
        <time>2014-04-21T11:22:51Z</time>
      </trkpt>
      <trkpt lat="43.51101" lon="6.77117">
        <ele>80.3</ele>
        <time>2014-04-21T11:22:56Z</time>
      </trkpt>
      <trkpt lat="43.51095" lon="6.77128">
        <ele>79.3</ele>
        <time>2014-04-21T11:23:00Z</time>
      </trkpt>
      <trkpt lat="43.51092" lon="6.77148">
        <ele>80.3</ele>
        <time>2014-04-21T11:23:03Z</time>
      </trkpt>
      <trkpt lat="43.51096" lon="6.77165">
        <ele>83.3</ele>
        <time>2014-04-21T11:23:06Z</time>
      </trkpt>
      <trkpt lat="43.51103" lon="6.77174">
        <ele>82.3</ele>
        <time>2014-04-21T11:23:09Z</time>
      </trkpt>
      <trkpt lat="43.51112" lon="6.77178">
        <ele>82.3</ele>
        <time>2014-04-21T11:23:12Z</time>
      </trkpt>
      <trkpt lat="43.51122" lon="6.77178">
        <ele>84.3</ele>
        <time>2014-04-21T11:23:16Z</time>
      </trkpt>
      <trkpt lat="43.51131" lon="6.77181">
        <ele>83.3</ele>
        <time>2014-04-21T11:23:20Z</time>
      </trkpt>
      <trkpt lat="43.51141" lon="6.77189">
        <ele>80.3</ele>
        <time>2014-04-21T11:23:24Z</time>
      </trkpt>
      <trkpt lat="43.51149" lon="6.77195">
        <ele>81.3</ele>
        <time>2014-04-21T11:23:27Z</time>
      </trkpt>
      <trkpt lat="43.51158" lon="6.77201">
        <ele>82.3</ele>
        <time>2014-04-21T11:23:30Z</time>
      </trkpt>
      <trkpt lat="43.51166" lon="6.77206">
        <ele>83.3</ele>
        <time>2014-04-21T11:23:33Z</time>
      </trkpt>
      <trkpt lat="43.51174" lon="6.77214">
        <ele>84.3</ele>
        <time>2014-04-21T11:23:36Z</time>
      </trkpt>
      <trkpt lat="43.51179" lon="6.77225">
        <ele>82.3</ele>
        <time>2014-04-21T11:23:39Z</time>
      </trkpt>
      <trkpt lat="43.5118" lon="6.7724">
        <ele>80.3</ele>
        <time>2014-04-21T11:23:42Z</time>
      </trkpt>
      <trkpt lat="43.51177" lon="6.77255">
        <ele>79.3</ele>
        <time>2014-04-21T11:23:45Z</time>
      </trkpt>
      <trkpt lat="43.51178" lon="6.77287">
        <ele>77.3</ele>
        <time>2014-04-21T11:23:49Z</time>
      </trkpt>
      <trkpt lat="43.51189" lon="6.77285">
        <ele>78.3</ele>
        <time>2014-04-21T11:23:52Z</time>
      </trkpt>
      <trkpt lat="43.51198" lon="6.77283">
        <ele>78.3</ele>
        <time>2014-04-21T11:23:55Z</time>
      </trkpt>
      <trkpt lat="43.51208" lon="6.77285">
        <ele>76.3</ele>
        <time>2014-04-21T11:23:58Z</time>
      </trkpt>
      <trkpt lat="43.51215" lon="6.77292">
        <ele>75.3</ele>
        <time>2014-04-21T11:24:01Z</time>
      </trkpt>
      <trkpt lat="43.51222" lon="6.77303">
        <ele>78.3</ele>
        <time>2014-04-21T11:24:05Z</time>
      </trkpt>
      <trkpt lat="43.51225" lon="6.77319">
        <ele>78.3</ele>
        <time>2014-04-21T11:24:09Z</time>
      </trkpt>
      <trkpt lat="43.51228" lon="6.77332">
        <ele>78.3</ele>
        <time>2014-04-21T11:24:12Z</time>
      </trkpt>
      <trkpt lat="43.51231" lon="6.77345">
        <ele>79.3</ele>
        <time>2014-04-21T11:24:15Z</time>
      </trkpt>
      <trkpt lat="43.51234" lon="6.77357">
        <ele>80.3</ele>
        <time>2014-04-21T11:24:18Z</time>
      </trkpt>
      <trkpt lat="43.51237" lon="6.77369">
        <ele>80.3</ele>
        <time>2014-04-21T11:24:21Z</time>
      </trkpt>
      <trkpt lat="43.51242" lon="6.77381">
        <ele>80.3</ele>
        <time>2014-04-21T11:24:24Z</time>
      </trkpt>
      <trkpt lat="43.51248" lon="6.77391">
        <ele>81.3</ele>
        <time>2014-04-21T11:24:27Z</time>
      </trkpt>
      <trkpt lat="43.51256" lon="6.77398">
        <ele>81.3</ele>
        <time>2014-04-21T11:24:30Z</time>
      </trkpt>
      <trkpt lat="43.51265" lon="6.774">
        <ele>82.3</ele>
        <time>2014-04-21T11:24:33Z</time>
      </trkpt>
      <trkpt lat="43.51272" lon="6.77392">
        <ele>81.3</ele>
        <time>2014-04-21T11:24:36Z</time>
      </trkpt>
      <trkpt lat="43.51274" lon="6.77377">
        <ele>80.3</ele>
        <time>2014-04-21T11:24:39Z</time>
      </trkpt>
      <trkpt lat="43.51275" lon="6.77363">
        <ele>80.3</ele>
        <time>2014-04-21T11:24:42Z</time>
      </trkpt>
      <trkpt lat="43.51277" lon="6.7735">
        <ele>80.3</ele>
        <time>2014-04-21T11:24:45Z</time>
      </trkpt>
      <trkpt lat="43.5128" lon="6.77336">
        <ele>80.3</ele>
        <time>2014-04-21T11:24:48Z</time>
      </trkpt>
      <trkpt lat="43.51286" lon="6.7731">
        <ele>77.3</ele>
        <time>2014-04-21T11:24:56Z</time>
      </trkpt>
      <trkpt lat="43.51293" lon="6.77298">
        <ele>77.3</ele>
        <time>2014-04-21T11:25:03Z</time>
      </trkpt>
      <trkpt lat="43.51303" lon="6.77292">
        <ele>78.3</ele>
        <time>2014-04-21T11:25:08Z</time>
      </trkpt>
      <trkpt lat="43.51312" lon="6.77291">
        <ele>79.3</ele>
        <time>2014-04-21T11:25:13Z</time>
      </trkpt>
      <trkpt lat="43.51322" lon="6.77298">
        <ele>79.3</ele>
        <time>2014-04-21T11:25:17Z</time>
      </trkpt>
      <trkpt lat="43.51328" lon="6.7731">
        <ele>78.3</ele>
        <time>2014-04-21T11:25:20Z</time>
      </trkpt>
      <trkpt lat="43.51336" lon="6.77331">
        <ele>77.3</ele>
        <time>2014-04-21T11:25:23Z</time>
      </trkpt>
      <trkpt lat="43.51342" lon="6.77341">
        <ele>77.3</ele>
        <time>2014-04-21T11:25:25Z</time>
      </trkpt>
      <trkpt lat="43.51348" lon="6.77351">
        <ele>77.3</ele>
        <time>2014-04-21T11:25:27Z</time>
      </trkpt>
      <trkpt lat="43.51356" lon="6.77359">
        <ele>76.3</ele>
        <time>2014-04-21T11:25:29Z</time>
      </trkpt>
      <trkpt lat="43.51363" lon="6.77369">
        <ele>77.3</ele>
        <time>2014-04-21T11:25:31Z</time>
      </trkpt>
      <trkpt lat="43.51369" lon="6.77382">
        <ele>75.3</ele>
        <time>2014-04-21T11:25:33Z</time>
      </trkpt>
      <trkpt lat="43.51374" lon="6.77398">
        <ele>74.3</ele>
        <time>2014-04-21T11:25:35Z</time>
      </trkpt>
      <trkpt lat="43.51378" lon="6.77416">
        <ele>76.3</ele>
        <time>2014-04-21T11:25:37Z</time>
      </trkpt>
      <trkpt lat="43.51384" lon="6.77435">
        <ele>74.3</ele>
        <time>2014-04-21T11:25:39Z</time>
      </trkpt>
      <trkpt lat="43.51387" lon="6.77452">
        <ele>74.3</ele>
        <time>2014-04-21T11:25:41Z</time>
      </trkpt>
      <trkpt lat="43.51386" lon="6.77469">
        <ele>71.3</ele>
        <time>2014-04-21T11:25:43Z</time>
      </trkpt>
      <trkpt lat="43.51383" lon="6.77489">
        <ele>70.3</ele>
        <time>2014-04-21T11:25:45Z</time>
      </trkpt>
      <trkpt lat="43.51378" lon="6.775">
        <ele>70.3</ele>
        <time>2014-04-21T11:25:47Z</time>
      </trkpt>
      <trkpt lat="43.51368" lon="6.7751">
        <ele>70.3</ele>
        <time>2014-04-21T11:25:50Z</time>
      </trkpt>
      <trkpt lat="43.51358" lon="6.77535">
        <ele>81.3</ele>
        <time>2014-04-21T11:26:00Z</time>
      </trkpt>
      <trkpt lat="43.51362" lon="6.77547">
        <ele>81.3</ele>
        <time>2014-04-21T11:26:05Z</time>
      </trkpt>
      <trkpt lat="43.51367" lon="6.77559">
        <ele>86.3</ele>
        <time>2014-04-21T11:26:11Z</time>
      </trkpt>
      <trkpt lat="43.51376" lon="6.77559">
        <ele>87.3</ele>
        <time>2014-04-21T11:27:16Z</time>
      </trkpt>
      <trkpt lat="43.51391" lon="6.77541">
        <ele>85.3</ele>
        <time>2014-04-21T11:27:27Z</time>
      </trkpt>
      <trkpt lat="43.51398" lon="6.77531">
        <ele>85.3</ele>
        <time>2014-04-21T11:27:33Z</time>
      </trkpt>
      <trkpt lat="43.51405" lon="6.77523">
        <ele>82.3</ele>
        <time>2014-04-21T11:27:38Z</time>
      </trkpt>
      <trkpt lat="43.51415" lon="6.77515">
        <ele>83.3</ele>
        <time>2014-04-21T11:27:44Z</time>
      </trkpt>
      <trkpt lat="43.51423" lon="6.77509">
        <ele>84.3</ele>
        <time>2014-04-21T11:27:49Z</time>
      </trkpt>
      <trkpt lat="43.51432" lon="6.77504">
        <ele>87.3</ele>
        <time>2014-04-21T11:27:54Z</time>
      </trkpt>
      <trkpt lat="43.51441" lon="6.77502">
        <ele>88.3</ele>
        <time>2014-04-21T11:27:59Z</time>
      </trkpt>
      <trkpt lat="43.5145" lon="6.77496">
        <ele>89.3</ele>
        <time>2014-04-21T11:28:05Z</time>
      </trkpt>
      <trkpt lat="43.51459" lon="6.77494">
        <ele>89.3</ele>
        <time>2014-04-21T11:28:10Z</time>
      </trkpt>
      <trkpt lat="43.51469" lon="6.77494">
        <ele>91.3</ele>
        <time>2014-04-21T11:28:15Z</time>
      </trkpt>
      <trkpt lat="43.51479" lon="6.77493">
        <ele>92.3</ele>
        <time>2014-04-21T11:28:20Z</time>
      </trkpt>
      <trkpt lat="43.51498" lon="6.7749">
        <ele>92.3</ele>
        <time>2014-04-21T11:28:28Z</time>
      </trkpt>
      <trkpt lat="43.51506" lon="6.77486">
        <ele>93.3</ele>
        <time>2014-04-21T11:28:32Z</time>
      </trkpt>
      <trkpt lat="43.51516" lon="6.77484">
        <ele>93.3</ele>
        <time>2014-04-21T11:28:36Z</time>
      </trkpt>
      <trkpt lat="43.51526" lon="6.77484">
        <ele>92.3</ele>
        <time>2014-04-21T11:28:40Z</time>
      </trkpt>
      <trkpt lat="43.51537" lon="6.77487">
        <ele>92.3</ele>
        <time>2014-04-21T11:28:44Z</time>
      </trkpt>
      <trkpt lat="43.51548" lon="6.7749">
        <ele>93.3</ele>
        <time>2014-04-21T11:28:47Z</time>
      </trkpt>
      <trkpt lat="43.51559" lon="6.77494">
        <ele>93.3</ele>
        <time>2014-04-21T11:28:50Z</time>
      </trkpt>
      <trkpt lat="43.51575" lon="6.77496">
        <ele>94.3</ele>
        <time>2014-04-21T11:28:53Z</time>
      </trkpt>
      <trkpt lat="43.51584" lon="6.77493">
        <ele>94.3</ele>
        <time>2014-04-21T11:28:55Z</time>
      </trkpt>
      <trkpt lat="43.51593" lon="6.77487">
        <ele>91.3</ele>
        <time>2014-04-21T11:28:57Z</time>
      </trkpt>
      <trkpt lat="43.51602" lon="6.77483">
        <ele>91.3</ele>
        <time>2014-04-21T11:28:59Z</time>
      </trkpt>
      <trkpt lat="43.51613" lon="6.77479">
        <ele>92.3</ele>
        <time>2014-04-21T11:29:02Z</time>
      </trkpt>
      <trkpt lat="43.51623" lon="6.77476">
        <ele>93.3</ele>
        <time>2014-04-21T11:29:05Z</time>
      </trkpt>
      <trkpt lat="43.51632" lon="6.77474">
        <ele>91.3</ele>
        <time>2014-04-21T11:29:08Z</time>
      </trkpt>
      <trkpt lat="43.51635" lon="6.7746">
        <ele>91.3</ele>
        <time>2014-04-21T11:29:12Z</time>
      </trkpt>
      <trkpt lat="43.51629" lon="6.77446">
        <ele>92.3</ele>
        <time>2014-04-21T11:29:16Z</time>
      </trkpt>
      <trkpt lat="43.51621" lon="6.7744">
        <ele>93.3</ele>
        <time>2014-04-21T11:29:19Z</time>
      </trkpt>
      <trkpt lat="43.51613" lon="6.7743">
        <ele>93.3</ele>
        <time>2014-04-21T11:29:23Z</time>
      </trkpt>
      <trkpt lat="43.51602" lon="6.77406">
        <ele>94.3</ele>
        <time>2014-04-21T11:29:31Z</time>
      </trkpt>
      <trkpt lat="43.51599" lon="6.77392">
        <ele>94.3</ele>
        <time>2014-04-21T11:29:36Z</time>
      </trkpt>
      <trkpt lat="43.51607" lon="6.77384">
        <ele>95.3</ele>
        <time>2014-04-21T11:29:43Z</time>
      </trkpt>
      <trkpt lat="43.51619" lon="6.77384">
        <ele>98.3</ele>
        <time>2014-04-21T11:29:48Z</time>
      </trkpt>
      <trkpt lat="43.51629" lon="6.77382">
        <ele>98.3</ele>
        <time>2014-04-21T11:29:52Z</time>
      </trkpt>
      <trkpt lat="43.51641" lon="6.77377">
        <ele>98.3</ele>
        <time>2014-04-21T11:29:56Z</time>
      </trkpt>
      <trkpt lat="43.5165" lon="6.77373">
        <ele>98.3</ele>
        <time>2014-04-21T11:29:59Z</time>
      </trkpt>
      <trkpt lat="43.51659" lon="6.77369">
        <ele>99.3</ele>
        <time>2014-04-21T11:30:02Z</time>
      </trkpt>
      <trkpt lat="43.51668" lon="6.77365">
        <ele>100.3</ele>
        <time>2014-04-21T11:30:05Z</time>
      </trkpt>
      <trkpt lat="43.51675" lon="6.77357">
        <ele>99.3</ele>
        <time>2014-04-21T11:30:08Z</time>
      </trkpt>
      <trkpt lat="43.51683" lon="6.77347">
        <ele>100.3</ele>
        <time>2014-04-21T11:30:12Z</time>
      </trkpt>
      <trkpt lat="43.51689" lon="6.77337">
        <ele>101.3</ele>
        <time>2014-04-21T11:30:16Z</time>
      </trkpt>
      <trkpt lat="43.51698" lon="6.77332">
        <ele>100.3</ele>
        <time>2014-04-21T11:30:20Z</time>
      </trkpt>
      <trkpt lat="43.51704" lon="6.77342">
        <ele>102.3</ele>
        <time>2014-04-21T11:30:25Z</time>
      </trkpt>
      <trkpt lat="43.517" lon="6.77368">
        <ele>103.3</ele>
        <time>2014-04-21T11:30:34Z</time>
      </trkpt>
      <trkpt lat="43.51696" lon="6.77381">
        <ele>103.3</ele>
        <time>2014-04-21T11:30:39Z</time>
      </trkpt>
      <trkpt lat="43.51695" lon="6.77394">
        <ele>103.3</ele>
        <time>2014-04-21T11:30:44Z</time>
      </trkpt>
      <trkpt lat="43.51694" lon="6.77408">
        <ele>105.3</ele>
        <time>2014-04-21T11:30:49Z</time>
      </trkpt>
      <trkpt lat="43.51694" lon="6.77422">
        <ele>106.3</ele>
        <time>2014-04-21T11:30:54Z</time>
      </trkpt>
      <trkpt lat="43.51696" lon="6.77435">
        <ele>107.3</ele>
        <time>2014-04-21T11:30:59Z</time>
      </trkpt>
      <trkpt lat="43.51703" lon="6.77445">
        <ele>110.3</ele>
        <time>2014-04-21T11:31:04Z</time>
      </trkpt>
      <trkpt lat="43.51711" lon="6.77439">
        <ele>114.3</ele>
        <time>2014-04-21T11:31:09Z</time>
      </trkpt>
      <trkpt lat="43.51712" lon="6.77426">
        <ele>113.3</ele>
        <time>2014-04-21T11:31:13Z</time>
      </trkpt>
      <trkpt lat="43.51715" lon="6.77414">
        <ele>115.3</ele>
        <time>2014-04-21T11:31:17Z</time>
      </trkpt>
      <trkpt lat="43.51721" lon="6.77403">
        <ele>116.3</ele>
        <time>2014-04-21T11:31:22Z</time>
      </trkpt>
      <trkpt lat="43.51727" lon="6.77392">
        <ele>116.3</ele>
        <time>2014-04-21T11:31:27Z</time>
      </trkpt>
      <trkpt lat="43.51737" lon="6.77368">
        <ele>114.3</ele>
        <time>2014-04-21T11:31:35Z</time>
      </trkpt>
      <trkpt lat="43.51742" lon="6.77357">
        <ele>116.3</ele>
        <time>2014-04-21T11:31:39Z</time>
      </trkpt>
      <trkpt lat="43.51749" lon="6.77348">
        <ele>117.3</ele>
        <time>2014-04-21T11:31:43Z</time>
      </trkpt>
      <trkpt lat="43.51758" lon="6.77338">
        <ele>120.3</ele>
        <time>2014-04-21T11:31:48Z</time>
      </trkpt>
      <trkpt lat="43.51764" lon="6.77328">
        <ele>120.3</ele>
        <time>2014-04-21T11:31:53Z</time>
      </trkpt>
      <trkpt lat="43.51773" lon="6.77324">
        <ele>122.3</ele>
        <time>2014-04-21T11:31:58Z</time>
      </trkpt>
      <trkpt lat="43.51777" lon="6.77338">
        <ele>124.3</ele>
        <time>2014-04-21T11:32:03Z</time>
      </trkpt>
      <trkpt lat="43.51771" lon="6.77348">
        <ele>125.3</ele>
        <time>2014-04-21T11:32:07Z</time>
      </trkpt>
      <trkpt lat="43.51763" lon="6.77356">
        <ele>126.3</ele>
        <time>2014-04-21T11:32:11Z</time>
      </trkpt>
      <trkpt lat="43.51757" lon="6.77366">
        <ele>126.3</ele>
        <time>2014-04-21T11:32:15Z</time>
      </trkpt>
      <trkpt lat="43.51755" lon="6.77379">
        <ele>127.3</ele>
        <time>2014-04-21T11:32:19Z</time>
      </trkpt>
      <trkpt lat="43.51755" lon="6.77394">
        <ele>129.3</ele>
        <time>2014-04-21T11:32:24Z</time>
      </trkpt>
      <trkpt lat="43.51756" lon="6.77407">
        <ele>130.3</ele>
        <time>2014-04-21T11:32:28Z</time>
      </trkpt>
      <trkpt lat="43.51762" lon="6.77433">
        <ele>132.3</ele>
        <time>2014-04-21T11:32:37Z</time>
      </trkpt>
      <trkpt lat="43.51761" lon="6.77445">
        <ele>133.3</ele>
        <time>2014-04-21T11:32:41Z</time>
      </trkpt>
      <trkpt lat="43.51757" lon="6.77459">
        <ele>137.3</ele>
        <time>2014-04-21T11:32:46Z</time>
      </trkpt>
      <trkpt lat="43.51755" lon="6.77474">
        <ele>139.3</ele>
        <time>2014-04-21T11:32:51Z</time>
      </trkpt>
      <trkpt lat="43.51756" lon="6.77489">
        <ele>140.3</ele>
        <time>2014-04-21T11:32:56Z</time>
      </trkpt>
      <trkpt lat="43.5176" lon="6.77503">
        <ele>141.3</ele>
        <time>2014-04-21T11:33:01Z</time>
      </trkpt>
      <trkpt lat="43.51764" lon="6.77515">
        <ele>143.3</ele>
        <time>2014-04-21T11:33:05Z</time>
      </trkpt>
      <trkpt lat="43.51768" lon="6.77526">
        <ele>144.3</ele>
        <time>2014-04-21T11:33:09Z</time>
      </trkpt>
      <trkpt lat="43.51775" lon="6.77537">
        <ele>143.3</ele>
        <time>2014-04-21T11:33:14Z</time>
      </trkpt>
      <trkpt lat="43.51783" lon="6.77547">
        <ele>145.3</ele>
        <time>2014-04-21T11:33:19Z</time>
      </trkpt>
      <trkpt lat="43.51793" lon="6.77554">
        <ele>148.3</ele>
        <time>2014-04-21T11:33:24Z</time>
      </trkpt>
      <trkpt lat="43.51803" lon="6.77556">
        <ele>148.3</ele>
        <time>2014-04-21T11:33:28Z</time>
      </trkpt>
      <trkpt lat="43.51812" lon="6.77555">
        <ele>151.3</ele>
        <time>2014-04-21T11:33:32Z</time>
      </trkpt>
      <trkpt lat="43.51831" lon="6.77549">
        <ele>152.3</ele>
        <time>2014-04-21T11:33:42Z</time>
      </trkpt>
      <trkpt lat="43.51841" lon="6.77548">
        <ele>155.3</ele>
        <time>2014-04-21T11:33:47Z</time>
      </trkpt>
      <trkpt lat="43.51849" lon="6.77554">
        <ele>153.3</ele>
        <time>2014-04-21T11:33:53Z</time>
      </trkpt>
      <trkpt lat="43.51854" lon="6.77566">
        <ele>153.3</ele>
        <time>2014-04-21T11:33:58Z</time>
      </trkpt>
      <trkpt lat="43.51857" lon="6.7758">
        <ele>156.3</ele>
        <time>2014-04-21T11:34:03Z</time>
      </trkpt>
      <trkpt lat="43.51863" lon="6.77593">
        <ele>158.3</ele>
        <time>2014-04-21T11:34:08Z</time>
      </trkpt>
      <trkpt lat="43.51869" lon="6.77603">
        <ele>158.3</ele>
        <time>2014-04-21T11:34:12Z</time>
      </trkpt>
      <trkpt lat="43.51876" lon="6.77611">
        <ele>159.3</ele>
        <time>2014-04-21T11:34:16Z</time>
      </trkpt>
      <trkpt lat="43.51886" lon="6.77608">
        <ele>158.3</ele>
        <time>2014-04-21T11:34:21Z</time>
      </trkpt>
      <trkpt lat="43.51887" lon="6.77596">
        <ele>159.3</ele>
        <time>2014-04-21T11:34:25Z</time>
      </trkpt>
      <trkpt lat="43.51884" lon="6.77583">
        <ele>161.3</ele>
        <time>2014-04-21T11:34:29Z</time>
      </trkpt>
      <trkpt lat="43.51885" lon="6.77569">
        <ele>160.3</ele>
        <time>2014-04-21T11:34:34Z</time>
      </trkpt>
      <trkpt lat="43.51903" lon="6.7758">
        <ele>163.3</ele>
        <time>2014-04-21T11:34:44Z</time>
      </trkpt>
      <trkpt lat="43.51904" lon="6.77595">
        <ele>165.3</ele>
        <time>2014-04-21T11:34:49Z</time>
      </trkpt>
      <trkpt lat="43.51904" lon="6.77608">
        <ele>166.3</ele>
        <time>2014-04-21T11:34:54Z</time>
      </trkpt>
      <trkpt lat="43.51906" lon="6.77623">
        <ele>168.3</ele>
        <time>2014-04-21T11:34:59Z</time>
      </trkpt>
      <trkpt lat="43.5191" lon="6.77634">
        <ele>168.3</ele>
        <time>2014-04-21T11:35:03Z</time>
      </trkpt>
      <trkpt lat="43.51917" lon="6.77645">
        <ele>168.3</ele>
        <time>2014-04-21T11:35:07Z</time>
      </trkpt>
      <trkpt lat="43.51923" lon="6.77655">
        <ele>169.3</ele>
        <time>2014-04-21T11:35:11Z</time>
      </trkpt>
      <trkpt lat="43.51928" lon="6.77667">
        <ele>169.3</ele>
        <time>2014-04-21T11:35:15Z</time>
      </trkpt>
      <trkpt lat="43.51934" lon="6.77679">
        <ele>168.3</ele>
        <time>2014-04-21T11:35:19Z</time>
      </trkpt>
      <trkpt lat="43.51939" lon="6.77693">
        <ele>167.3</ele>
        <time>2014-04-21T11:35:23Z</time>
      </trkpt>
      <trkpt lat="43.51945" lon="6.77707">
        <ele>168.3</ele>
        <time>2014-04-21T11:35:27Z</time>
      </trkpt>
      <trkpt lat="43.51948" lon="6.77722">
        <ele>169.3</ele>
        <time>2014-04-21T11:35:31Z</time>
      </trkpt>
      <trkpt lat="43.51949" lon="6.77737">
        <ele>172.3</ele>
        <time>2014-04-21T11:35:35Z</time>
      </trkpt>
      <trkpt lat="43.5195" lon="6.77763">
        <ele>172.3</ele>
        <time>2014-04-21T11:35:43Z</time>
      </trkpt>
      <trkpt lat="43.51952" lon="6.77778">
        <ele>175.3</ele>
        <time>2014-04-21T11:35:48Z</time>
      </trkpt>
      <trkpt lat="43.51954" lon="6.77793">
        <ele>178.3</ele>
        <time>2014-04-21T11:35:53Z</time>
      </trkpt>
      <trkpt lat="43.51958" lon="6.77803">
        <ele>181.3</ele>
        <time>2014-04-21T11:35:57Z</time>
      </trkpt>
      <trkpt lat="43.51965" lon="6.77813">
        <ele>183.3</ele>
        <time>2014-04-21T11:36:01Z</time>
      </trkpt>
      <trkpt lat="43.51974" lon="6.77817">
        <ele>182.3</ele>
        <time>2014-04-21T11:36:05Z</time>
      </trkpt>
      <trkpt lat="43.51986" lon="6.77818">
        <ele>184.3</ele>
        <time>2014-04-21T11:36:09Z</time>
      </trkpt>
      <trkpt lat="43.51995" lon="6.77816">
        <ele>184.3</ele>
        <time>2014-04-21T11:36:13Z</time>
      </trkpt>
      <trkpt lat="43.52005" lon="6.7781">
        <ele>181.3</ele>
        <time>2014-04-21T11:36:18Z</time>
      </trkpt>
      <trkpt lat="43.52014" lon="6.77807">
        <ele>183.3</ele>
        <time>2014-04-21T11:36:22Z</time>
      </trkpt>
      <trkpt lat="43.52024" lon="6.77804">
        <ele>185.3</ele>
        <time>2014-04-21T11:36:26Z</time>
      </trkpt>
      <trkpt lat="43.52033" lon="6.77801">
        <ele>185.3</ele>
        <time>2014-04-21T11:36:30Z</time>
      </trkpt>
      <trkpt lat="43.52043" lon="6.77799">
        <ele>186.3</ele>
        <time>2014-04-21T11:36:34Z</time>
      </trkpt>
      <trkpt lat="43.52054" lon="6.77797">
        <ele>187.3</ele>
        <time>2014-04-21T11:36:39Z</time>
      </trkpt>
      <trkpt lat="43.52074" lon="6.77797">
        <ele>188.3</ele>
        <time>2014-04-21T11:36:49Z</time>
      </trkpt>
      <trkpt lat="43.52085" lon="6.77799">
        <ele>191.3</ele>
        <time>2014-04-21T11:36:53Z</time>
      </trkpt>
      <trkpt lat="43.52095" lon="6.77799">
        <ele>193.3</ele>
        <time>2014-04-21T11:36:57Z</time>
      </trkpt>
      <trkpt lat="43.52105" lon="6.778">
        <ele>194.3</ele>
        <time>2014-04-21T11:37:01Z</time>
      </trkpt>
      <trkpt lat="43.52115" lon="6.77799">
        <ele>192.3</ele>
        <time>2014-04-21T11:37:05Z</time>
      </trkpt>
      <trkpt lat="43.52126" lon="6.77796">
        <ele>192.3</ele>
        <time>2014-04-21T11:37:09Z</time>
      </trkpt>
      <trkpt lat="43.52134" lon="6.77788">
        <ele>194.3</ele>
        <time>2014-04-21T11:37:13Z</time>
      </trkpt>
      <trkpt lat="43.52142" lon="6.77777">
        <ele>193.3</ele>
        <time>2014-04-21T11:37:17Z</time>
      </trkpt>
      <trkpt lat="43.52149" lon="6.77763">
        <ele>194.3</ele>
        <time>2014-04-21T11:37:21Z</time>
      </trkpt>
      <trkpt lat="43.52159" lon="6.77756">
        <ele>194.3</ele>
        <time>2014-04-21T11:37:25Z</time>
      </trkpt>
      <trkpt lat="43.52168" lon="6.77765">
        <ele>196.3</ele>
        <time>2014-04-21T11:37:29Z</time>
      </trkpt>
      <trkpt lat="43.52174" lon="6.77778">
        <ele>195.3</ele>
        <time>2014-04-21T11:37:33Z</time>
      </trkpt>
      <trkpt lat="43.52177" lon="6.7779">
        <ele>195.3</ele>
        <time>2014-04-21T11:37:36Z</time>
      </trkpt>
      <trkpt lat="43.5218" lon="6.77805">
        <ele>196.3</ele>
        <time>2014-04-21T11:37:39Z</time>
      </trkpt>
      <trkpt lat="43.52184" lon="6.77821">
        <ele>197.3</ele>
        <time>2014-04-21T11:37:42Z</time>
      </trkpt>
      <trkpt lat="43.52189" lon="6.77851">
        <ele>195.3</ele>
        <time>2014-04-21T11:37:47Z</time>
      </trkpt>
      <trkpt lat="43.52191" lon="6.77868">
        <ele>195.3</ele>
        <time>2014-04-21T11:37:50Z</time>
      </trkpt>
      <trkpt lat="43.52188" lon="6.77887">
        <ele>194.3</ele>
        <time>2014-04-21T11:37:53Z</time>
      </trkpt>
      <trkpt lat="43.52187" lon="6.77901">
        <ele>194.3</ele>
        <time>2014-04-21T11:37:55Z</time>
      </trkpt>
      <trkpt lat="43.52186" lon="6.77914">
        <ele>194.3</ele>
        <time>2014-04-21T11:37:57Z</time>
      </trkpt>
      <trkpt lat="43.52186" lon="6.77929">
        <ele>193.3</ele>
        <time>2014-04-21T11:37:59Z</time>
      </trkpt>
      <trkpt lat="43.52186" lon="6.77941">
        <ele>193.3</ele>
        <time>2014-04-21T11:38:01Z</time>
      </trkpt>
      <trkpt lat="43.52186" lon="6.77959">
        <ele>192.3</ele>
        <time>2014-04-21T11:38:04Z</time>
      </trkpt>
      <trkpt lat="43.52187" lon="6.77974">
        <ele>192.3</ele>
        <time>2014-04-21T11:38:07Z</time>
      </trkpt>
      <trkpt lat="43.52185" lon="6.7799">
        <ele>193.3</ele>
        <time>2014-04-21T11:38:10Z</time>
      </trkpt>
      <trkpt lat="43.52182" lon="6.78005">
        <ele>194.3</ele>
        <time>2014-04-21T11:38:13Z</time>
      </trkpt>
      <trkpt lat="43.52179" lon="6.78021">
        <ele>193.3</ele>
        <time>2014-04-21T11:38:16Z</time>
      </trkpt>
      <trkpt lat="43.52178" lon="6.78042">
        <ele>192.3</ele>
        <time>2014-04-21T11:38:19Z</time>
      </trkpt>
      <trkpt lat="43.52178" lon="6.78056">
        <ele>192.3</ele>
        <time>2014-04-21T11:38:21Z</time>
      </trkpt>
      <trkpt lat="43.52181" lon="6.78074">
        <ele>192.3</ele>
        <time>2014-04-21T11:38:24Z</time>
      </trkpt>
      <trkpt lat="43.52187" lon="6.78086">
        <ele>192.3</ele>
        <time>2014-04-21T11:38:26Z</time>
      </trkpt>
      <trkpt lat="43.52192" lon="6.78097">
        <ele>192.3</ele>
        <time>2014-04-21T11:38:28Z</time>
      </trkpt>
      <trkpt lat="43.52198" lon="6.78106">
        <ele>193.3</ele>
        <time>2014-04-21T11:38:30Z</time>
      </trkpt>
      <trkpt lat="43.52205" lon="6.78116">
        <ele>194.3</ele>
        <time>2014-04-21T11:38:32Z</time>
      </trkpt>
      <trkpt lat="43.52211" lon="6.78124">
        <ele>193.3</ele>
        <time>2014-04-21T11:38:34Z</time>
      </trkpt>
      <trkpt lat="43.52218" lon="6.78134">
        <ele>193.3</ele>
        <time>2014-04-21T11:38:36Z</time>
      </trkpt>
      <trkpt lat="43.52224" lon="6.78142">
        <ele>194.3</ele>
        <time>2014-04-21T11:38:38Z</time>
      </trkpt>
      <trkpt lat="43.52235" lon="6.78154">
        <ele>194.3</ele>
        <time>2014-04-21T11:38:41Z</time>
      </trkpt>
      <trkpt lat="43.52244" lon="6.78161">
        <ele>196.3</ele>
        <time>2014-04-21T11:38:44Z</time>
      </trkpt>
      <trkpt lat="43.52253" lon="6.78182">
        <ele>195.3</ele>
        <time>2014-04-21T11:38:53Z</time>
      </trkpt>
      <trkpt lat="43.52248" lon="6.78194">
        <ele>189.3</ele>
        <time>2014-04-21T11:48:54Z</time>
      </trkpt>
      <trkpt lat="43.52234" lon="6.78214">
        <ele>194.3</ele>
        <time>2014-04-21T11:49:07Z</time>
      </trkpt>
      <trkpt lat="43.52226" lon="6.78223">
        <ele>195.3</ele>
        <time>2014-04-21T11:49:13Z</time>
      </trkpt>
      <trkpt lat="43.52218" lon="6.7823">
        <ele>195.3</ele>
        <time>2014-04-21T11:49:19Z</time>
      </trkpt>
      <trkpt lat="43.52209" lon="6.78233">
        <ele>195.3</ele>
        <time>2014-04-21T11:49:24Z</time>
      </trkpt>
      <trkpt lat="43.52199" lon="6.78234">
        <ele>198.3</ele>
        <time>2014-04-21T11:49:30Z</time>
      </trkpt>
      <trkpt lat="43.5219" lon="6.78234">
        <ele>198.3</ele>
        <time>2014-04-21T11:49:35Z</time>
      </trkpt>
      <trkpt lat="43.52179" lon="6.78234">
        <ele>199.3</ele>
        <time>2014-04-21T11:49:41Z</time>
      </trkpt>
      <trkpt lat="43.52168" lon="6.78236">
        <ele>201.3</ele>
        <time>2014-04-21T11:49:47Z</time>
      </trkpt>
      <trkpt lat="43.52159" lon="6.78237">
        <ele>202.3</ele>
        <time>2014-04-21T11:49:52Z</time>
      </trkpt>
      <trkpt lat="43.52149" lon="6.78239">
        <ele>202.3</ele>
        <time>2014-04-21T11:49:57Z</time>
      </trkpt>
      <trkpt lat="43.52129" lon="6.78243">
        <ele>202.3</ele>
        <time>2014-04-21T11:50:07Z</time>
      </trkpt>
      <trkpt lat="43.52119" lon="6.78246">
        <ele>205.3</ele>
        <time>2014-04-21T11:50:12Z</time>
      </trkpt>
      <trkpt lat="43.5211" lon="6.7825">
        <ele>205.3</ele>
        <time>2014-04-21T11:50:17Z</time>
      </trkpt>
      <trkpt lat="43.52101" lon="6.78252">
        <ele>206.3</ele>
        <time>2014-04-21T11:50:22Z</time>
      </trkpt>
      <trkpt lat="43.52092" lon="6.7825">
        <ele>208.3</ele>
        <time>2014-04-21T11:50:27Z</time>
      </trkpt>
      <trkpt lat="43.52083" lon="6.78243">
        <ele>208.3</ele>
        <time>2014-04-21T11:50:32Z</time>
      </trkpt>
      <trkpt lat="43.52075" lon="6.78235">
        <ele>209.3</ele>
        <time>2014-04-21T11:50:37Z</time>
      </trkpt>
      <trkpt lat="43.52067" lon="6.78226">
        <ele>208.3</ele>
        <time>2014-04-21T11:50:42Z</time>
      </trkpt>
      <trkpt lat="43.52058" lon="6.78215">
        <ele>207.3</ele>
        <time>2014-04-21T11:50:46Z</time>
      </trkpt>
      <trkpt lat="43.52051" lon="6.78204">
        <ele>208.3</ele>
        <time>2014-04-21T11:50:50Z</time>
      </trkpt>
      <trkpt lat="43.52043" lon="6.78193">
        <ele>211.3</ele>
        <time>2014-04-21T11:50:54Z</time>
      </trkpt>
      <trkpt lat="43.52033" lon="6.78186">
        <ele>212.3</ele>
        <time>2014-04-21T11:50:58Z</time>
      </trkpt>
      <trkpt lat="43.52013" lon="6.78186">
        <ele>212.3</ele>
        <time>2014-04-21T11:51:06Z</time>
      </trkpt>
      <trkpt lat="43.52004" lon="6.7819">
        <ele>212.3</ele>
        <time>2014-04-21T11:51:10Z</time>
      </trkpt>
      <trkpt lat="43.51994" lon="6.78196">
        <ele>214.3</ele>
        <time>2014-04-21T11:51:15Z</time>
      </trkpt>
      <trkpt lat="43.51985" lon="6.78201">
        <ele>215.3</ele>
        <time>2014-04-21T11:51:19Z</time>
      </trkpt>
      <trkpt lat="43.51977" lon="6.78207">
        <ele>213.3</ele>
        <time>2014-04-21T11:51:23Z</time>
      </trkpt>
      <trkpt lat="43.51968" lon="6.78213">
        <ele>212.3</ele>
        <time>2014-04-21T11:51:27Z</time>
      </trkpt>
      <trkpt lat="43.51959" lon="6.78215">
        <ele>215.3</ele>
        <time>2014-04-21T11:51:31Z</time>
      </trkpt>
      <trkpt lat="43.5195" lon="6.78218">
        <ele>216.3</ele>
        <time>2014-04-21T11:51:35Z</time>
      </trkpt>
      <trkpt lat="43.51939" lon="6.78223">
        <ele>216.3</ele>
        <time>2014-04-21T11:51:40Z</time>
      </trkpt>
      <trkpt lat="43.51937" lon="6.78237">
        <ele>216.3</ele>
        <time>2014-04-21T11:51:45Z</time>
      </trkpt>
      <trkpt lat="43.51946" lon="6.78243">
        <ele>218.3</ele>
        <time>2014-04-21T11:51:49Z</time>
      </trkpt>
      <trkpt lat="43.51957" lon="6.78239">
        <ele>220.3</ele>
        <time>2014-04-21T11:51:53Z</time>
      </trkpt>
      <trkpt lat="43.51967" lon="6.78234">
        <ele>222.3</ele>
        <time>2014-04-21T11:51:57Z</time>
      </trkpt>
      <trkpt lat="43.51978" lon="6.7823">
        <ele>222.3</ele>
        <time>2014-04-21T11:52:01Z</time>
      </trkpt>
      <trkpt lat="43.52" lon="6.78227">
        <ele>225.3</ele>
        <time>2014-04-21T11:52:08Z</time>
      </trkpt>
      <trkpt lat="43.52009" lon="6.78229">
        <ele>224.3</ele>
        <time>2014-04-21T11:52:11Z</time>
      </trkpt>
      <trkpt lat="43.52019" lon="6.78234">
        <ele>224.3</ele>
        <time>2014-04-21T11:52:14Z</time>
      </trkpt>
      <trkpt lat="43.52027" lon="6.78241">
        <ele>225.3</ele>
        <time>2014-04-21T11:52:17Z</time>
      </trkpt>
      <trkpt lat="43.52034" lon="6.78252">
        <ele>228.3</ele>
        <time>2014-04-21T11:52:21Z</time>
      </trkpt>
      <trkpt lat="43.52037" lon="6.78265">
        <ele>231.3</ele>
        <time>2014-04-21T11:52:25Z</time>
      </trkpt>
      <trkpt lat="43.52039" lon="6.78278">
        <ele>230.3</ele>
        <time>2014-04-21T11:52:29Z</time>
      </trkpt>
      <trkpt lat="43.52036" lon="6.7829">
        <ele>232.3</ele>
        <time>2014-04-21T11:52:33Z</time>
      </trkpt>
      <trkpt lat="43.52028" lon="6.78296">
        <ele>230.3</ele>
        <time>2014-04-21T11:52:37Z</time>
      </trkpt>
      <trkpt lat="43.52022" lon="6.78284">
        <ele>230.3</ele>
        <time>2014-04-21T11:52:41Z</time>
      </trkpt>
      <trkpt lat="43.52021" lon="6.78269">
        <ele>228.3</ele>
        <time>2014-04-21T11:52:45Z</time>
      </trkpt>
      <trkpt lat="43.52018" lon="6.78256">
        <ele>229.3</ele>
        <time>2014-04-21T11:52:49Z</time>
      </trkpt>
      <trkpt lat="43.52012" lon="6.78246">
        <ele>228.3</ele>
        <time>2014-04-21T11:52:53Z</time>
      </trkpt>
      <trkpt lat="43.52004" lon="6.78239">
        <ele>230.3</ele>
        <time>2014-04-21T11:52:57Z</time>
      </trkpt>
      <trkpt lat="43.51994" lon="6.7824">
        <ele>229.3</ele>
        <time>2014-04-21T11:53:01Z</time>
      </trkpt>
      <trkpt lat="43.51978" lon="6.78256">
        <ele>230.3</ele>
        <time>2014-04-21T11:53:10Z</time>
      </trkpt>
      <trkpt lat="43.51972" lon="6.78266">
        <ele>235.3</ele>
        <time>2014-04-21T11:53:15Z</time>
      </trkpt>
      <trkpt lat="43.51967" lon="6.78277">
        <ele>238.3</ele>
        <time>2014-04-21T11:53:20Z</time>
      </trkpt>
      <trkpt lat="43.51966" lon="6.78291">
        <ele>236.3</ele>
        <time>2014-04-21T11:53:25Z</time>
      </trkpt>
      <trkpt lat="43.51966" lon="6.78305">
        <ele>236.3</ele>
        <time>2014-04-21T11:53:30Z</time>
      </trkpt>
      <trkpt lat="43.51962" lon="6.78318">
        <ele>236.3</ele>
        <time>2014-04-21T11:53:35Z</time>
      </trkpt>
      <trkpt lat="43.51957" lon="6.78328">
        <ele>239.3</ele>
        <time>2014-04-21T11:53:39Z</time>
      </trkpt>
      <trkpt lat="43.51946" lon="6.78333">
        <ele>240.3</ele>
        <time>2014-04-21T11:53:44Z</time>
      </trkpt>
      <trkpt lat="43.51937" lon="6.78334">
        <ele>242.3</ele>
        <time>2014-04-21T11:53:48Z</time>
      </trkpt>
      <trkpt lat="43.51927" lon="6.78336">
        <ele>243.3</ele>
        <time>2014-04-21T11:53:52Z</time>
      </trkpt>
      <trkpt lat="43.51917" lon="6.78342">
        <ele>243.3</ele>
        <time>2014-04-21T11:53:57Z</time>
      </trkpt>
      <trkpt lat="43.51908" lon="6.78349">
        <ele>242.3</ele>
        <time>2014-04-21T11:54:02Z</time>
      </trkpt>
      <trkpt lat="43.51894" lon="6.78367">
        <ele>243.3</ele>
        <time>2014-04-21T11:54:10Z</time>
      </trkpt>
      <trkpt lat="43.51886" lon="6.78377">
        <ele>245.3</ele>
        <time>2014-04-21T11:54:15Z</time>
      </trkpt>
      <trkpt lat="43.51877" lon="6.78385">
        <ele>247.3</ele>
        <time>2014-04-21T11:54:20Z</time>
      </trkpt>
      <trkpt lat="43.51866" lon="6.78386">
        <ele>248.3</ele>
        <time>2014-04-21T11:54:25Z</time>
      </trkpt>
      <trkpt lat="43.51856" lon="6.78382">
        <ele>247.3</ele>
        <time>2014-04-21T11:54:29Z</time>
      </trkpt>
      <trkpt lat="43.51847" lon="6.78376">
        <ele>246.3</ele>
        <time>2014-04-21T11:54:33Z</time>
      </trkpt>
      <trkpt lat="43.51837" lon="6.78374">
        <ele>249.3</ele>
        <time>2014-04-21T11:54:37Z</time>
      </trkpt>
      <trkpt lat="43.51827" lon="6.78379">
        <ele>250.3</ele>
        <time>2014-04-21T11:54:41Z</time>
      </trkpt>
      <trkpt lat="43.51816" lon="6.78387">
        <ele>252.3</ele>
        <time>2014-04-21T11:54:45Z</time>
      </trkpt>
      <trkpt lat="43.51808" lon="6.78396">
        <ele>253.3</ele>
        <time>2014-04-21T11:54:48Z</time>
      </trkpt>
      <trkpt lat="43.518" lon="6.78406">
        <ele>253.3</ele>
        <time>2014-04-21T11:54:51Z</time>
      </trkpt>
      <trkpt lat="43.51792" lon="6.78417">
        <ele>254.3</ele>
        <time>2014-04-21T11:54:54Z</time>
      </trkpt>
      <trkpt lat="43.51784" lon="6.78427">
        <ele>255.3</ele>
        <time>2014-04-21T11:54:57Z</time>
      </trkpt>
      <trkpt lat="43.51778" lon="6.78438">
        <ele>254.3</ele>
        <time>2014-04-21T11:55:00Z</time>
      </trkpt>
      <trkpt lat="43.51771" lon="6.78449">
        <ele>254.3</ele>
        <time>2014-04-21T11:55:03Z</time>
      </trkpt>
      <trkpt lat="43.51753" lon="6.78458">
        <ele>255.3</ele>
        <time>2014-04-21T11:55:09Z</time>
      </trkpt>
      <trkpt lat="43.51745" lon="6.7845">
        <ele>256.3</ele>
        <time>2014-04-21T11:55:12Z</time>
      </trkpt>
      <trkpt lat="43.51737" lon="6.78438">
        <ele>257.3</ele>
        <time>2014-04-21T11:55:16Z</time>
      </trkpt>
      <trkpt lat="43.51729" lon="6.7843">
        <ele>256.3</ele>
        <time>2014-04-21T11:55:21Z</time>
      </trkpt>
      <trkpt lat="43.5172" lon="6.78434">
        <ele>255.3</ele>
        <time>2014-04-21T11:55:25Z</time>
      </trkpt>
      <trkpt lat="43.51713" lon="6.78446">
        <ele>258.3</ele>
        <time>2014-04-21T11:55:29Z</time>
      </trkpt>
      <trkpt lat="43.51708" lon="6.7846">
        <ele>260.3</ele>
        <time>2014-04-21T11:55:33Z</time>
      </trkpt>
      <trkpt lat="43.51704" lon="6.78474">
        <ele>261.3</ele>
        <time>2014-04-21T11:55:37Z</time>
      </trkpt>
      <trkpt lat="43.51702" lon="6.78489">
        <ele>263.3</ele>
        <time>2014-04-21T11:55:41Z</time>
      </trkpt>
      <trkpt lat="43.51702" lon="6.78503">
        <ele>265.3</ele>
        <time>2014-04-21T11:55:45Z</time>
      </trkpt>
      <trkpt lat="43.51704" lon="6.78517">
        <ele>266.3</ele>
        <time>2014-04-21T11:55:49Z</time>
      </trkpt>
      <trkpt lat="43.5171" lon="6.7853">
        <ele>267.3</ele>
        <time>2014-04-21T11:55:53Z</time>
      </trkpt>
      <trkpt lat="43.51715" lon="6.7854">
        <ele>268.3</ele>
        <time>2014-04-21T11:55:56Z</time>
      </trkpt>
      <trkpt lat="43.51722" lon="6.7855">
        <ele>268.3</ele>
        <time>2014-04-21T11:55:59Z</time>
      </trkpt>
      <trkpt lat="43.51727" lon="6.78561">
        <ele>268.3</ele>
        <time>2014-04-21T11:56:02Z</time>
      </trkpt>
      <trkpt lat="43.5173" lon="6.78575">
        <ele>269.3</ele>
        <time>2014-04-21T11:56:05Z</time>
      </trkpt>
      <trkpt lat="43.5173" lon="6.78602">
        <ele>271.3</ele>
        <time>2014-04-21T11:56:11Z</time>
      </trkpt>
      <trkpt lat="43.5173" lon="6.78616">
        <ele>272.3</ele>
        <time>2014-04-21T11:56:15Z</time>
      </trkpt>
      <trkpt lat="43.51733" lon="6.78627">
        <ele>276.3</ele>
        <time>2014-04-21T11:56:22Z</time>
      </trkpt>
      <trkpt lat="43.51739" lon="6.78637">
        <ele>278.3</ele>
        <time>2014-04-21T11:56:31Z</time>
      </trkpt>
      <trkpt lat="43.51732" lon="6.78628">
        <ele>275.3</ele>
        <time>2014-04-21T11:56:44Z</time>
      </trkpt>
      <trkpt lat="43.51721" lon="6.78625">
        <ele>273.3</ele>
        <time>2014-04-21T11:56:47Z</time>
      </trkpt>
      <trkpt lat="43.51709" lon="6.78618">
        <ele>271.3</ele>
        <time>2014-04-21T11:56:50Z</time>
      </trkpt>
      <trkpt lat="43.51712" lon="6.78604">
        <ele>271.3</ele>
        <time>2014-04-21T11:56:53Z</time>
      </trkpt>
      <trkpt lat="43.51721" lon="6.78598">
        <ele>272.3</ele>
        <time>2014-04-21T11:56:56Z</time>
      </trkpt>
      <trkpt lat="43.51731" lon="6.78596">
        <ele>273.3</ele>
        <time>2014-04-21T11:57:03Z</time>
      </trkpt>
      <trkpt lat="43.5173" lon="6.7861">
        <ele>274.3</ele>
        <time>2014-04-21T11:57:08Z</time>
      </trkpt>
      <trkpt lat="43.51738" lon="6.78629">
        <ele>276.3</ele>
        <time>2014-04-21T11:57:22Z</time>
      </trkpt>
      <trkpt lat="43.51742" lon="6.78618">
        <ele>277.3</ele>
        <time>2014-04-21T11:57:30Z</time>
      </trkpt>
      <trkpt lat="43.51747" lon="6.78607">
        <ele>275.3</ele>
        <time>2014-04-21T12:01:01Z</time>
      </trkpt>
      <trkpt lat="43.51763" lon="6.78588">
        <ele>272.3</ele>
        <time>2014-04-21T12:01:10Z</time>
      </trkpt>
      <trkpt lat="43.51772" lon="6.78581">
        <ele>273.3</ele>
        <time>2014-04-21T12:01:15Z</time>
      </trkpt>
      <trkpt lat="43.51781" lon="6.78576">
        <ele>275.3</ele>
        <time>2014-04-21T12:01:19Z</time>
      </trkpt>
      <trkpt lat="43.51789" lon="6.7857">
        <ele>276.3</ele>
        <time>2014-04-21T12:01:23Z</time>
      </trkpt>
      <trkpt lat="43.51798" lon="6.78564">
        <ele>277.3</ele>
        <time>2014-04-21T12:01:27Z</time>
      </trkpt>
      <trkpt lat="43.51806" lon="6.78557">
        <ele>277.3</ele>
        <time>2014-04-21T12:01:31Z</time>
      </trkpt>
      <trkpt lat="43.51814" lon="6.78549">
        <ele>278.3</ele>
        <time>2014-04-21T12:01:35Z</time>
      </trkpt>
      <trkpt lat="43.51821" lon="6.78539">
        <ele>278.3</ele>
        <time>2014-04-21T12:01:39Z</time>
      </trkpt>
      <trkpt lat="43.51826" lon="6.78528">
        <ele>279.3</ele>
        <time>2014-04-21T12:01:43Z</time>
      </trkpt>
      <trkpt lat="43.51831" lon="6.78518">
        <ele>278.3</ele>
        <time>2014-04-21T12:01:47Z</time>
      </trkpt>
      <trkpt lat="43.5184" lon="6.78512">
        <ele>279.3</ele>
        <time>2014-04-21T12:01:52Z</time>
      </trkpt>
      <trkpt lat="43.51844" lon="6.78522">
        <ele>279.3</ele>
        <time>2014-04-21T12:02:00Z</time>
      </trkpt>
      <trkpt lat="43.51842" lon="6.78535">
        <ele>281.3</ele>
        <time>2014-04-21T12:02:59Z</time>
      </trkpt>
      <trkpt lat="43.5185" lon="6.7856">
        <ele>283.3</ele>
        <time>2014-04-21T12:03:10Z</time>
      </trkpt>
      <trkpt lat="43.51856" lon="6.7857">
        <ele>281.3</ele>
        <time>2014-04-21T12:05:13Z</time>
      </trkpt>
      <trkpt lat="43.51873" lon="6.78591">
        <ele>285.3</ele>
        <time>2014-04-21T12:05:19Z</time>
      </trkpt>
      <trkpt lat="43.51878" lon="6.78601">
        <ele>284.3</ele>
        <time>2014-04-21T12:05:21Z</time>
      </trkpt>
      <trkpt lat="43.51886" lon="6.78617">
        <ele>281.3</ele>
        <time>2014-04-21T12:05:23Z</time>
      </trkpt>
      <trkpt lat="43.51888" lon="6.78634">
        <ele>279.3</ele>
        <time>2014-04-21T12:05:25Z</time>
      </trkpt>
      <trkpt lat="43.51888" lon="6.78649">
        <ele>279.3</ele>
        <time>2014-04-21T12:05:27Z</time>
      </trkpt>
      <trkpt lat="43.51897" lon="6.78661">
        <ele>279.3</ele>
        <time>2014-04-21T12:05:29Z</time>
      </trkpt>
      <trkpt lat="43.51907" lon="6.7867">
        <ele>279.3</ele>
        <time>2014-04-21T12:05:31Z</time>
      </trkpt>
      <trkpt lat="43.51915" lon="6.78657">
        <ele>277.3</ele>
        <time>2014-04-21T12:05:32Z</time>
      </trkpt>
      <trkpt lat="43.51924" lon="6.78654">
        <ele>278.3</ele>
        <time>2014-04-21T12:05:33Z</time>
      </trkpt>
      <trkpt lat="43.51939" lon="6.78647">
        <ele>277.3</ele>
        <time>2014-04-21T12:05:35Z</time>
      </trkpt>
      <trkpt lat="43.51952" lon="6.78641">
        <ele>277.3</ele>
        <time>2014-04-21T12:05:37Z</time>
      </trkpt>
      <trkpt lat="43.51961" lon="6.78633">
        <ele>278.3</ele>
        <time>2014-04-21T12:05:38Z</time>
      </trkpt>
      <trkpt lat="43.51974" lon="6.78618">
        <ele>275.3</ele>
        <time>2014-04-21T12:05:40Z</time>
      </trkpt>
      <trkpt lat="43.51988" lon="6.78607">
        <ele>273.3</ele>
        <time>2014-04-21T12:05:42Z</time>
      </trkpt>
      <trkpt lat="43.52004" lon="6.78599">
        <ele>271.3</ele>
        <time>2014-04-21T12:05:44Z</time>
      </trkpt>
      <trkpt lat="43.52021" lon="6.78593">
        <ele>269.3</ele>
        <time>2014-04-21T12:05:46Z</time>
      </trkpt>
      <trkpt lat="43.52035" lon="6.78592">
        <ele>269.3</ele>
        <time>2014-04-21T12:05:48Z</time>
      </trkpt>
      <trkpt lat="43.52052" lon="6.78593">
        <ele>268.3</ele>
        <time>2014-04-21T12:05:50Z</time>
      </trkpt>
      <trkpt lat="43.52065" lon="6.78589">
        <ele>267.3</ele>
        <time>2014-04-21T12:05:52Z</time>
      </trkpt>
      <trkpt lat="43.52078" lon="6.7858">
        <ele>266.3</ele>
        <time>2014-04-21T12:05:54Z</time>
      </trkpt>
      <trkpt lat="43.5209" lon="6.78568">
        <ele>266.3</ele>
        <time>2014-04-21T12:05:56Z</time>
      </trkpt>
      <trkpt lat="43.521" lon="6.78554">
        <ele>264.3</ele>
        <time>2014-04-21T12:05:58Z</time>
      </trkpt>
      <trkpt lat="43.52114" lon="6.78545">
        <ele>262.3</ele>
        <time>2014-04-21T12:06:00Z</time>
      </trkpt>
      <trkpt lat="43.52123" lon="6.78529">
        <ele>262.3</ele>
        <time>2014-04-21T12:06:02Z</time>
      </trkpt>
      <trkpt lat="43.5212" lon="6.78513">
        <ele>262.3</ele>
        <time>2014-04-21T12:06:04Z</time>
      </trkpt>
      <trkpt lat="43.52118" lon="6.78494">
        <ele>260.3</ele>
        <time>2014-04-21T12:06:06Z</time>
      </trkpt>
      <trkpt lat="43.52124" lon="6.78482">
        <ele>262.3</ele>
        <time>2014-04-21T12:06:08Z</time>
      </trkpt>
      <trkpt lat="43.52133" lon="6.78475">
        <ele>261.3</ele>
        <time>2014-04-21T12:06:10Z</time>
      </trkpt>
      <trkpt lat="43.52144" lon="6.78471">
        <ele>260.3</ele>
        <time>2014-04-21T12:06:12Z</time>
      </trkpt>
      <trkpt lat="43.52153" lon="6.78467">
        <ele>260.3</ele>
        <time>2014-04-21T12:06:14Z</time>
      </trkpt>
      <trkpt lat="43.52175" lon="6.78458">
        <ele>256.3</ele>
        <time>2014-04-21T12:06:18Z</time>
      </trkpt>
      <trkpt lat="43.52192" lon="6.78453">
        <ele>253.3</ele>
        <time>2014-04-21T12:06:20Z</time>
      </trkpt>
      <trkpt lat="43.52207" lon="6.78457">
        <ele>253.3</ele>
        <time>2014-04-21T12:06:22Z</time>
      </trkpt>
      <trkpt lat="43.52216" lon="6.78457">
        <ele>251.3</ele>
        <time>2014-04-21T12:06:23Z</time>
      </trkpt>
      <trkpt lat="43.52231" lon="6.78464">
        <ele>251.3</ele>
        <time>2014-04-21T12:06:25Z</time>
      </trkpt>
      <trkpt lat="43.52245" lon="6.78471">
        <ele>251.3</ele>
        <time>2014-04-21T12:06:27Z</time>
      </trkpt>
      <trkpt lat="43.52259" lon="6.78474">
        <ele>250.3</ele>
        <time>2014-04-21T12:06:29Z</time>
      </trkpt>
      <trkpt lat="43.52273" lon="6.78467">
        <ele>253.3</ele>
        <time>2014-04-21T12:06:31Z</time>
      </trkpt>
      <trkpt lat="43.52281" lon="6.7846">
        <ele>252.3</ele>
        <time>2014-04-21T12:06:32Z</time>
      </trkpt>
      <trkpt lat="43.52294" lon="6.78449">
        <ele>249.3</ele>
        <time>2014-04-21T12:06:34Z</time>
      </trkpt>
      <trkpt lat="43.52308" lon="6.78442">
        <ele>249.3</ele>
        <time>2014-04-21T12:06:36Z</time>
      </trkpt>
      <trkpt lat="43.52322" lon="6.78444">
        <ele>247.3</ele>
        <time>2014-04-21T12:06:38Z</time>
      </trkpt>
      <trkpt lat="43.52338" lon="6.78445">
        <ele>246.3</ele>
        <time>2014-04-21T12:06:40Z</time>
      </trkpt>
      <trkpt lat="43.52355" lon="6.7845">
        <ele>243.3</ele>
        <time>2014-04-21T12:06:42Z</time>
      </trkpt>
      <trkpt lat="43.52366" lon="6.78457">
        <ele>244.3</ele>
        <time>2014-04-21T12:06:44Z</time>
      </trkpt>
      <trkpt lat="43.52375" lon="6.78467">
        <ele>241.3</ele>
        <time>2014-04-21T12:06:47Z</time>
      </trkpt>
      <trkpt lat="43.52373" lon="6.78485">
        <ele>240.3</ele>
        <time>2014-04-21T12:06:50Z</time>
      </trkpt>
      <trkpt lat="43.52376" lon="6.78499">
        <ele>240.3</ele>
        <time>2014-04-21T12:06:52Z</time>
      </trkpt>
      <trkpt lat="43.52385" lon="6.78502">
        <ele>240.3</ele>
        <time>2014-04-21T12:06:55Z</time>
      </trkpt>
      <trkpt lat="43.52399" lon="6.78493">
        <ele>238.3</ele>
        <time>2014-04-21T12:06:57Z</time>
      </trkpt>
      <trkpt lat="43.52413" lon="6.78487">
        <ele>237.3</ele>
        <time>2014-04-21T12:06:59Z</time>
      </trkpt>
      <trkpt lat="43.52422" lon="6.78483">
        <ele>236.3</ele>
        <time>2014-04-21T12:07:00Z</time>
      </trkpt>
      <trkpt lat="43.52431" lon="6.7848">
        <ele>234.3</ele>
        <time>2014-04-21T12:07:01Z</time>
      </trkpt>
      <trkpt lat="43.52448" lon="6.78474">
        <ele>232.3</ele>
        <time>2014-04-21T12:07:03Z</time>
      </trkpt>
      <trkpt lat="43.52465" lon="6.78471">
        <ele>232.3</ele>
        <time>2014-04-21T12:07:05Z</time>
      </trkpt>
      <trkpt lat="43.52481" lon="6.78475">
        <ele>232.3</ele>
        <time>2014-04-21T12:07:07Z</time>
      </trkpt>
      <trkpt lat="43.52498" lon="6.7848">
        <ele>231.3</ele>
        <time>2014-04-21T12:07:09Z</time>
      </trkpt>
      <trkpt lat="43.52511" lon="6.78492">
        <ele>232.3</ele>
        <time>2014-04-21T12:07:11Z</time>
      </trkpt>
      <trkpt lat="43.52526" lon="6.78508">
        <ele>232.3</ele>
        <time>2014-04-21T12:07:13Z</time>
      </trkpt>
      <trkpt lat="43.52543" lon="6.78517">
        <ele>229.3</ele>
        <time>2014-04-21T12:07:15Z</time>
      </trkpt>
      <trkpt lat="43.5256" lon="6.78528">
        <ele>229.3</ele>
        <time>2014-04-21T12:07:17Z</time>
      </trkpt>
      <trkpt lat="43.52576" lon="6.78539">
        <ele>228.3</ele>
        <time>2014-04-21T12:07:19Z</time>
      </trkpt>
      <trkpt lat="43.52592" lon="6.78548">
        <ele>227.3</ele>
        <time>2014-04-21T12:07:21Z</time>
      </trkpt>
      <trkpt lat="43.52601" lon="6.78553">
        <ele>227.3</ele>
        <time>2014-04-21T12:07:22Z</time>
      </trkpt>
      <trkpt lat="43.5261" lon="6.78557">
        <ele>225.3</ele>
        <time>2014-04-21T12:07:23Z</time>
      </trkpt>
      <trkpt lat="43.52624" lon="6.78569">
        <ele>224.3</ele>
        <time>2014-04-21T12:07:25Z</time>
      </trkpt>
      <trkpt lat="43.52635" lon="6.7858">
        <ele>222.3</ele>
        <time>2014-04-21T12:07:27Z</time>
      </trkpt>
      <trkpt lat="43.52641" lon="6.7859">
        <ele>220.3</ele>
        <time>2014-04-21T12:07:29Z</time>
      </trkpt>
      <trkpt lat="43.52647" lon="6.78601">
        <ele>218.3</ele>
        <time>2014-04-21T12:07:33Z</time>
      </trkpt>
      <trkpt lat="43.52644" lon="6.78614">
        <ele>212.3</ele>
        <time>2014-04-21T12:09:12Z</time>
      </trkpt>
      <trkpt lat="43.52629" lon="6.78635">
        <ele>218.3</ele>
        <time>2014-04-21T12:09:21Z</time>
      </trkpt>
      <trkpt lat="43.52621" lon="6.78647">
        <ele>218.3</ele>
        <time>2014-04-21T12:09:25Z</time>
      </trkpt>
      <trkpt lat="43.52614" lon="6.78659">
        <ele>216.3</ele>
        <time>2014-04-21T12:09:29Z</time>
      </trkpt>
      <trkpt lat="43.52609" lon="6.78673">
        <ele>218.3</ele>
        <time>2014-04-21T12:09:33Z</time>
      </trkpt>
      <trkpt lat="43.52603" lon="6.78686">
        <ele>219.3</ele>
        <time>2014-04-21T12:09:37Z</time>
      </trkpt>
      <trkpt lat="43.52599" lon="6.787">
        <ele>217.3</ele>
        <time>2014-04-21T12:09:41Z</time>
      </trkpt>
      <trkpt lat="43.52594" lon="6.78714">
        <ele>222.3</ele>
        <time>2014-04-21T12:09:45Z</time>
      </trkpt>
      <trkpt lat="43.52591" lon="6.78727">
        <ele>226.3</ele>
        <time>2014-04-21T12:09:49Z</time>
      </trkpt>
      <trkpt lat="43.52588" lon="6.78741">
        <ele>226.3</ele>
        <time>2014-04-21T12:09:53Z</time>
      </trkpt>
      <trkpt lat="43.52581" lon="6.78753">
        <ele>224.3</ele>
        <time>2014-04-21T12:09:57Z</time>
      </trkpt>
      <trkpt lat="43.52572" lon="6.78761">
        <ele>224.3</ele>
        <time>2014-04-21T12:10:01Z</time>
      </trkpt>
      <trkpt lat="43.52562" lon="6.78766">
        <ele>227.3</ele>
        <time>2014-04-21T12:10:05Z</time>
      </trkpt>
      <trkpt lat="43.52552" lon="6.7877">
        <ele>227.3</ele>
        <time>2014-04-21T12:10:09Z</time>
      </trkpt>
      <trkpt lat="43.52541" lon="6.78777">
        <ele>224.3</ele>
        <time>2014-04-21T12:10:13Z</time>
      </trkpt>
      <trkpt lat="43.52524" lon="6.78793">
        <ele>223.3</ele>
        <time>2014-04-21T12:10:19Z</time>
      </trkpt>
      <trkpt lat="43.52527" lon="6.78808">
        <ele>234.3</ele>
        <time>2014-04-21T12:10:23Z</time>
      </trkpt>
      <trkpt lat="43.52538" lon="6.78815">
        <ele>240.3</ele>
        <time>2014-04-21T12:10:25Z</time>
      </trkpt>
      <trkpt lat="43.52547" lon="6.78825">
        <ele>245.3</ele>
        <time>2014-04-21T12:10:28Z</time>
      </trkpt>
      <trkpt lat="43.52554" lon="6.78835">
        <ele>244.3</ele>
        <time>2014-04-21T12:10:31Z</time>
      </trkpt>
      <trkpt lat="43.52558" lon="6.78847">
        <ele>244.3</ele>
        <time>2014-04-21T12:10:34Z</time>
      </trkpt>
      <trkpt lat="43.52559" lon="6.78863">
        <ele>241.3</ele>
        <time>2014-04-21T12:10:38Z</time>
      </trkpt>
      <trkpt lat="43.52557" lon="6.78879">
        <ele>239.3</ele>
        <time>2014-04-21T12:10:42Z</time>
      </trkpt>
      <trkpt lat="43.52551" lon="6.78892">
        <ele>237.3</ele>
        <time>2014-04-21T12:10:46Z</time>
      </trkpt>
      <trkpt lat="43.52543" lon="6.78903">
        <ele>236.3</ele>
        <time>2014-04-21T12:10:50Z</time>
      </trkpt>
      <trkpt lat="43.52536" lon="6.78914">
        <ele>237.3</ele>
        <time>2014-04-21T12:10:54Z</time>
      </trkpt>
      <trkpt lat="43.52529" lon="6.78926">
        <ele>238.3</ele>
        <time>2014-04-21T12:10:58Z</time>
      </trkpt>
      <trkpt lat="43.52525" lon="6.7894">
        <ele>233.3</ele>
        <time>2014-04-21T12:11:02Z</time>
      </trkpt>
      <trkpt lat="43.52532" lon="6.78954">
        <ele>234.3</ele>
        <time>2014-04-21T12:11:07Z</time>
      </trkpt>
      <trkpt lat="43.52544" lon="6.78964">
        <ele>238.3</ele>
        <time>2014-04-21T12:11:10Z</time>
      </trkpt>
      <trkpt lat="43.5255" lon="6.78973">
        <ele>242.3</ele>
        <time>2014-04-21T12:11:13Z</time>
      </trkpt>
      <trkpt lat="43.52555" lon="6.78983">
        <ele>244.3</ele>
        <time>2014-04-21T12:11:16Z</time>
      </trkpt>
      <trkpt lat="43.52565" lon="6.79009">
        <ele>242.3</ele>
        <time>2014-04-21T12:11:23Z</time>
      </trkpt>
      <trkpt lat="43.52568" lon="6.79021">
        <ele>241.3</ele>
        <time>2014-04-21T12:11:26Z</time>
      </trkpt>
      <trkpt lat="43.52569" lon="6.79036">
        <ele>239.3</ele>
        <time>2014-04-21T12:11:29Z</time>
      </trkpt>
      <trkpt lat="43.52564" lon="6.79049">
        <ele>239.3</ele>
        <time>2014-04-21T12:11:32Z</time>
      </trkpt>
      <trkpt lat="43.52556" lon="6.79059">
        <ele>239.3</ele>
        <time>2014-04-21T12:11:35Z</time>
      </trkpt>
      <trkpt lat="43.52549" lon="6.79068">
        <ele>239.3</ele>
        <time>2014-04-21T12:11:38Z</time>
      </trkpt>
      <trkpt lat="43.52543" lon="6.7908">
        <ele>240.3</ele>
        <time>2014-04-21T12:11:42Z</time>
      </trkpt>
      <trkpt lat="43.52536" lon="6.79089">
        <ele>242.3</ele>
        <time>2014-04-21T12:11:46Z</time>
      </trkpt>
      <trkpt lat="43.5253" lon="6.79102">
        <ele>243.3</ele>
        <time>2014-04-21T12:11:51Z</time>
      </trkpt>
      <trkpt lat="43.52525" lon="6.79118">
        <ele>249.3</ele>
        <time>2014-04-21T12:11:55Z</time>
      </trkpt>
      <trkpt lat="43.52523" lon="6.79133">
        <ele>249.3</ele>
        <time>2014-04-21T12:11:59Z</time>
      </trkpt>
      <trkpt lat="43.5252" lon="6.79147">
        <ele>247.3</ele>
        <time>2014-04-21T12:12:03Z</time>
      </trkpt>
      <trkpt lat="43.52515" lon="6.79159">
        <ele>249.3</ele>
        <time>2014-04-21T12:12:07Z</time>
      </trkpt>
      <trkpt lat="43.52512" lon="6.79171">
        <ele>247.3</ele>
        <time>2014-04-21T12:12:11Z</time>
      </trkpt>
      <trkpt lat="43.52507" lon="6.79183">
        <ele>245.3</ele>
        <time>2014-04-21T12:12:14Z</time>
      </trkpt>
      <trkpt lat="43.52504" lon="6.79195">
        <ele>243.3</ele>
        <time>2014-04-21T12:12:17Z</time>
      </trkpt>
      <trkpt lat="43.52506" lon="6.79226">
        <ele>245.3</ele>
        <time>2014-04-21T12:12:25Z</time>
      </trkpt>
      <trkpt lat="43.52505" lon="6.79241">
        <ele>246.3</ele>
        <time>2014-04-21T12:12:29Z</time>
      </trkpt>
      <trkpt lat="43.52509" lon="6.79254">
        <ele>252.3</ele>
        <time>2014-04-21T12:12:33Z</time>
      </trkpt>
      <trkpt lat="43.52509" lon="6.79267">
        <ele>251.3</ele>
        <time>2014-04-21T12:12:37Z</time>
      </trkpt>
      <trkpt lat="43.52505" lon="6.79279">
        <ele>249.3</ele>
        <time>2014-04-21T12:12:40Z</time>
      </trkpt>
      <trkpt lat="43.52502" lon="6.79293">
        <ele>246.3</ele>
        <time>2014-04-21T12:12:43Z</time>
      </trkpt>
      <trkpt lat="43.52499" lon="6.79308">
        <ele>249.3</ele>
        <time>2014-04-21T12:12:47Z</time>
      </trkpt>
      <trkpt lat="43.52496" lon="6.7932">
        <ele>254.3</ele>
        <time>2014-04-21T12:12:51Z</time>
      </trkpt>
      <trkpt lat="43.52494" lon="6.79333">
        <ele>254.3</ele>
        <time>2014-04-21T12:12:55Z</time>
      </trkpt>
      <trkpt lat="43.52488" lon="6.79344">
        <ele>254.3</ele>
        <time>2014-04-21T12:12:59Z</time>
      </trkpt>
      <trkpt lat="43.52482" lon="6.79358">
        <ele>255.3</ele>
        <time>2014-04-21T12:13:03Z</time>
      </trkpt>
      <trkpt lat="43.52478" lon="6.79373">
        <ele>255.3</ele>
        <time>2014-04-21T12:13:07Z</time>
      </trkpt>
      <trkpt lat="43.52471" lon="6.79385">
        <ele>257.3</ele>
        <time>2014-04-21T12:13:11Z</time>
      </trkpt>
      <trkpt lat="43.52465" lon="6.79396">
        <ele>257.3</ele>
        <time>2014-04-21T12:13:15Z</time>
      </trkpt>
      <trkpt lat="43.52463" lon="6.79409">
        <ele>260.3</ele>
        <time>2014-04-21T12:13:19Z</time>
      </trkpt>
      <trkpt lat="43.52467" lon="6.79438">
        <ele>261.3</ele>
        <time>2014-04-21T12:13:25Z</time>
      </trkpt>
      <trkpt lat="43.52463" lon="6.79451">
        <ele>261.3</ele>
        <time>2014-04-21T12:13:28Z</time>
      </trkpt>
      <trkpt lat="43.52457" lon="6.79463">
        <ele>259.3</ele>
        <time>2014-04-21T12:13:31Z</time>
      </trkpt>
      <trkpt lat="43.52451" lon="6.79475">
        <ele>255.3</ele>
        <time>2014-04-21T12:13:34Z</time>
      </trkpt>
      <trkpt lat="43.52443" lon="6.79486">
        <ele>255.3</ele>
        <time>2014-04-21T12:13:37Z</time>
      </trkpt>
      <trkpt lat="43.52435" lon="6.79493">
        <ele>256.3</ele>
        <time>2014-04-21T12:13:40Z</time>
      </trkpt>
      <trkpt lat="43.52424" lon="6.795">
        <ele>257.3</ele>
        <time>2014-04-21T12:13:44Z</time>
      </trkpt>
      <trkpt lat="43.52415" lon="6.79503">
        <ele>257.3</ele>
        <time>2014-04-21T12:13:47Z</time>
      </trkpt>
      <trkpt lat="43.52405" lon="6.79503">
        <ele>257.3</ele>
        <time>2014-04-21T12:13:50Z</time>
      </trkpt>
      <trkpt lat="43.52393" lon="6.79502">
        <ele>257.3</ele>
        <time>2014-04-21T12:13:53Z</time>
      </trkpt>
      <trkpt lat="43.52383" lon="6.79503">
        <ele>257.3</ele>
        <time>2014-04-21T12:13:56Z</time>
      </trkpt>
      <trkpt lat="43.52375" lon="6.79513">
        <ele>259.3</ele>
        <time>2014-04-21T12:13:59Z</time>
      </trkpt>
      <trkpt lat="43.52376" lon="6.79528">
        <ele>260.3</ele>
        <time>2014-04-21T12:14:02Z</time>
      </trkpt>
      <trkpt lat="43.5238" lon="6.79543">
        <ele>262.3</ele>
        <time>2014-04-21T12:14:05Z</time>
      </trkpt>
      <trkpt lat="43.52381" lon="6.79557">
        <ele>258.3</ele>
        <time>2014-04-21T12:14:08Z</time>
      </trkpt>
      <trkpt lat="43.52379" lon="6.79571">
        <ele>258.3</ele>
        <time>2014-04-21T12:14:11Z</time>
      </trkpt>
      <trkpt lat="43.52373" lon="6.79582">
        <ele>256.3</ele>
        <time>2014-04-21T12:14:14Z</time>
      </trkpt>
      <trkpt lat="43.52364" lon="6.79592">
        <ele>254.3</ele>
        <time>2014-04-21T12:14:17Z</time>
      </trkpt>
      <trkpt lat="43.52355" lon="6.79603">
        <ele>253.3</ele>
        <time>2014-04-21T12:14:20Z</time>
      </trkpt>
      <trkpt lat="43.52342" lon="6.79626">
        <ele>254.3</ele>
        <time>2014-04-21T12:14:26Z</time>
      </trkpt>
      <trkpt lat="43.52335" lon="6.79637">
        <ele>255.3</ele>
        <time>2014-04-21T12:14:29Z</time>
      </trkpt>
      <trkpt lat="43.52327" lon="6.79647">
        <ele>254.3</ele>
        <time>2014-04-21T12:14:32Z</time>
      </trkpt>
      <trkpt lat="43.5232" lon="6.79659">
        <ele>255.3</ele>
        <time>2014-04-21T12:14:35Z</time>
      </trkpt>
      <trkpt lat="43.52312" lon="6.79669">
        <ele>255.3</ele>
        <time>2014-04-21T12:14:38Z</time>
      </trkpt>
      <trkpt lat="43.52304" lon="6.79677">
        <ele>255.3</ele>
        <time>2014-04-21T12:14:41Z</time>
      </trkpt>
      <trkpt lat="43.52295" lon="6.79684">
        <ele>256.3</ele>
        <time>2014-04-21T12:14:44Z</time>
      </trkpt>
      <trkpt lat="43.52286" lon="6.79688">
        <ele>255.3</ele>
        <time>2014-04-21T12:14:48Z</time>
      </trkpt>
      <trkpt lat="43.52276" lon="6.79688">
        <ele>255.3</ele>
        <time>2014-04-21T12:14:52Z</time>
      </trkpt>
      <trkpt lat="43.52267" lon="6.7969">
        <ele>257.3</ele>
        <time>2014-04-21T12:14:55Z</time>
      </trkpt>
      <trkpt lat="43.52257" lon="6.79694">
        <ele>258.3</ele>
        <time>2014-04-21T12:14:59Z</time>
      </trkpt>
      <trkpt lat="43.52248" lon="6.79695">
        <ele>258.3</ele>
        <time>2014-04-21T12:15:02Z</time>
      </trkpt>
      <trkpt lat="43.52236" lon="6.79695">
        <ele>257.3</ele>
        <time>2014-04-21T12:15:05Z</time>
      </trkpt>
      <trkpt lat="43.52225" lon="6.79695">
        <ele>258.3</ele>
        <time>2014-04-21T12:15:08Z</time>
      </trkpt>
      <trkpt lat="43.52215" lon="6.79695">
        <ele>259.3</ele>
        <time>2014-04-21T12:15:11Z</time>
      </trkpt>
      <trkpt lat="43.52205" lon="6.79695">
        <ele>261.3</ele>
        <time>2014-04-21T12:15:14Z</time>
      </trkpt>
      <trkpt lat="43.52195" lon="6.79695">
        <ele>261.3</ele>
        <time>2014-04-21T12:15:17Z</time>
      </trkpt>
      <trkpt lat="43.52186" lon="6.79695">
        <ele>262.3</ele>
        <time>2014-04-21T12:15:20Z</time>
      </trkpt>
      <trkpt lat="43.52174" lon="6.79696">
        <ele>264.3</ele>
        <time>2014-04-21T12:15:24Z</time>
      </trkpt>
      <trkpt lat="43.52154" lon="6.79709">
        <ele>269.3</ele>
        <time>2014-04-21T12:15:31Z</time>
      </trkpt>
      <trkpt lat="43.52146" lon="6.79719">
        <ele>268.3</ele>
        <time>2014-04-21T12:15:34Z</time>
      </trkpt>
      <trkpt lat="43.52138" lon="6.7973">
        <ele>269.3</ele>
        <time>2014-04-21T12:15:37Z</time>
      </trkpt>
      <trkpt lat="43.52128" lon="6.79739">
        <ele>271.3</ele>
        <time>2014-04-21T12:15:40Z</time>
      </trkpt>
      <trkpt lat="43.52119" lon="6.79748">
        <ele>268.3</ele>
        <time>2014-04-21T12:15:43Z</time>
      </trkpt>
      <trkpt lat="43.52109" lon="6.79754">
        <ele>266.3</ele>
        <time>2014-04-21T12:15:46Z</time>
      </trkpt>
      <trkpt lat="43.52098" lon="6.79756">
        <ele>264.3</ele>
        <time>2014-04-21T12:15:49Z</time>
      </trkpt>
      <trkpt lat="43.52089" lon="6.79754">
        <ele>262.3</ele>
        <time>2014-04-21T12:15:52Z</time>
      </trkpt>
      <trkpt lat="43.5208" lon="6.7975">
        <ele>261.3</ele>
        <time>2014-04-21T12:15:55Z</time>
      </trkpt>
      <trkpt lat="43.52073" lon="6.79741">
        <ele>261.3</ele>
        <time>2014-04-21T12:15:58Z</time>
      </trkpt>
      <trkpt lat="43.52067" lon="6.7973">
        <ele>261.3</ele>
        <time>2014-04-21T12:16:01Z</time>
      </trkpt>
      <trkpt lat="43.52059" lon="6.79725">
        <ele>261.3</ele>
        <time>2014-04-21T12:16:04Z</time>
      </trkpt>
      <trkpt lat="43.52048" lon="6.79729">
        <ele>262.3</ele>
        <time>2014-04-21T12:16:09Z</time>
      </trkpt>
      <trkpt lat="43.52039" lon="6.7973">
        <ele>263.3</ele>
        <time>2014-04-21T12:16:13Z</time>
      </trkpt>
      <trkpt lat="43.52028" lon="6.79728">
        <ele>262.3</ele>
        <time>2014-04-21T12:16:17Z</time>
      </trkpt>
      <trkpt lat="43.52019" lon="6.79734">
        <ele>262.3</ele>
        <time>2014-04-21T12:16:20Z</time>
      </trkpt>
      <trkpt lat="43.52012" lon="6.79744">
        <ele>262.3</ele>
        <time>2014-04-21T12:16:23Z</time>
      </trkpt>
      <trkpt lat="43.52003" lon="6.79749">
        <ele>263.3</ele>
        <time>2014-04-21T12:16:26Z</time>
      </trkpt>
      <trkpt lat="43.51985" lon="6.79745">
        <ele>262.3</ele>
        <time>2014-04-21T12:16:32Z</time>
      </trkpt>
      <trkpt lat="43.51977" lon="6.79737">
        <ele>262.3</ele>
        <time>2014-04-21T12:16:35Z</time>
      </trkpt>
      <trkpt lat="43.51969" lon="6.7973">
        <ele>261.3</ele>
        <time>2014-04-21T12:16:38Z</time>
      </trkpt>
      <trkpt lat="43.51958" lon="6.79733">
        <ele>263.3</ele>
        <time>2014-04-21T12:16:41Z</time>
      </trkpt>
      <trkpt lat="43.51951" lon="6.79744">
        <ele>263.3</ele>
        <time>2014-04-21T12:16:44Z</time>
      </trkpt>
      <trkpt lat="43.51943" lon="6.79753">
        <ele>264.3</ele>
        <time>2014-04-21T12:16:47Z</time>
      </trkpt>
      <trkpt lat="43.51935" lon="6.7976">
        <ele>264.3</ele>
        <time>2014-04-21T12:16:50Z</time>
      </trkpt>
      <trkpt lat="43.51926" lon="6.79768">
        <ele>264.3</ele>
        <time>2014-04-21T12:16:53Z</time>
      </trkpt>
      <trkpt lat="43.51921" lon="6.79779">
        <ele>265.3</ele>
        <time>2014-04-21T12:16:56Z</time>
      </trkpt>
      <trkpt lat="43.5192" lon="6.79792">
        <ele>266.3</ele>
        <time>2014-04-21T12:16:59Z</time>
      </trkpt>
      <trkpt lat="43.51924" lon="6.79807">
        <ele>267.3</ele>
        <time>2014-04-21T12:17:03Z</time>
      </trkpt>
      <trkpt lat="43.51928" lon="6.79818">
        <ele>268.3</ele>
        <time>2014-04-21T12:17:07Z</time>
      </trkpt>
      <trkpt lat="43.51937" lon="6.79821">
        <ele>267.3</ele>
        <time>2014-04-21T12:17:14Z</time>
      </trkpt>
      <trkpt lat="43.51937" lon="6.79834">
        <ele>266.3</ele>
        <time>2014-04-21T12:20:33Z</time>
      </trkpt>
      <trkpt lat="43.51939" lon="6.79862">
        <ele>267.3</ele>
        <time>2014-04-21T12:20:41Z</time>
      </trkpt>
      <trkpt lat="43.51938" lon="6.79875">
        <ele>269.3</ele>
        <time>2014-04-21T12:20:45Z</time>
      </trkpt>
      <trkpt lat="43.51937" lon="6.79889">
        <ele>271.3</ele>
        <time>2014-04-21T12:20:49Z</time>
      </trkpt>
      <trkpt lat="43.51935" lon="6.79902">
        <ele>274.3</ele>
        <time>2014-04-21T12:20:53Z</time>
      </trkpt>
      <trkpt lat="43.51933" lon="6.79916">
        <ele>275.3</ele>
        <time>2014-04-21T12:20:57Z</time>
      </trkpt>
      <trkpt lat="43.51931" lon="6.7993">
        <ele>275.3</ele>
        <time>2014-04-21T12:21:01Z</time>
      </trkpt>
      <trkpt lat="43.51927" lon="6.79945">
        <ele>276.3</ele>
        <time>2014-04-21T12:21:05Z</time>
      </trkpt>
      <trkpt lat="43.51921" lon="6.79955">
        <ele>276.3</ele>
        <time>2014-04-21T12:21:08Z</time>
      </trkpt>
      <trkpt lat="43.51913" lon="6.79966">
        <ele>275.3</ele>
        <time>2014-04-21T12:21:12Z</time>
      </trkpt>
      <trkpt lat="43.51906" lon="6.79979">
        <ele>276.3</ele>
        <time>2014-04-21T12:21:16Z</time>
      </trkpt>
      <trkpt lat="43.51903" lon="6.79994">
        <ele>276.3</ele>
        <time>2014-04-21T12:21:20Z</time>
      </trkpt>
      <trkpt lat="43.51898" lon="6.80008">
        <ele>277.3</ele>
        <time>2014-04-21T12:21:24Z</time>
      </trkpt>
      <trkpt lat="43.51891" lon="6.80018">
        <ele>277.3</ele>
        <time>2014-04-21T12:21:28Z</time>
      </trkpt>
      <trkpt lat="43.51881" lon="6.80023">
        <ele>277.3</ele>
        <time>2014-04-21T12:21:32Z</time>
      </trkpt>
      <trkpt lat="43.5187" lon="6.80027">
        <ele>277.3</ele>
        <time>2014-04-21T12:21:36Z</time>
      </trkpt>
      <trkpt lat="43.51852" lon="6.80041">
        <ele>278.3</ele>
        <time>2014-04-21T12:21:42Z</time>
      </trkpt>
      <trkpt lat="43.51845" lon="6.8005">
        <ele>279.3</ele>
        <time>2014-04-21T12:21:45Z</time>
      </trkpt>
      <trkpt lat="43.51838" lon="6.80061">
        <ele>279.3</ele>
        <time>2014-04-21T12:21:48Z</time>
      </trkpt>
      <trkpt lat="43.5183" lon="6.80073">
        <ele>279.3</ele>
        <time>2014-04-21T12:21:51Z</time>
      </trkpt>
      <trkpt lat="43.51821" lon="6.80085">
        <ele>280.3</ele>
        <time>2014-04-21T12:21:54Z</time>
      </trkpt>
      <trkpt lat="43.51814" lon="6.80099">
        <ele>281.3</ele>
        <time>2014-04-21T12:21:57Z</time>
      </trkpt>
      <trkpt lat="43.51807" lon="6.80111">
        <ele>281.3</ele>
        <time>2014-04-21T12:22:00Z</time>
      </trkpt>
      <trkpt lat="43.518" lon="6.80123">
        <ele>284.3</ele>
        <time>2014-04-21T12:22:03Z</time>
      </trkpt>
      <trkpt lat="43.51793" lon="6.80135">
        <ele>284.3</ele>
        <time>2014-04-21T12:22:06Z</time>
      </trkpt>
      <trkpt lat="43.51789" lon="6.80146">
        <ele>285.3</ele>
        <time>2014-04-21T12:22:08Z</time>
      </trkpt>
      <trkpt lat="43.51783" lon="6.8016">
        <ele>286.3</ele>
        <time>2014-04-21T12:22:11Z</time>
      </trkpt>
      <trkpt lat="43.51779" lon="6.80177">
        <ele>286.3</ele>
        <time>2014-04-21T12:22:14Z</time>
      </trkpt>
      <trkpt lat="43.51777" lon="6.80194">
        <ele>286.3</ele>
        <time>2014-04-21T12:22:17Z</time>
      </trkpt>
      <trkpt lat="43.51776" lon="6.8021">
        <ele>288.3</ele>
        <time>2014-04-21T12:22:20Z</time>
      </trkpt>
      <trkpt lat="43.51775" lon="6.80226">
        <ele>288.3</ele>
        <time>2014-04-21T12:22:23Z</time>
      </trkpt>
      <trkpt lat="43.51774" lon="6.80242">
        <ele>289.3</ele>
        <time>2014-04-21T12:22:26Z</time>
      </trkpt>
      <trkpt lat="43.51771" lon="6.80257">
        <ele>290.3</ele>
        <time>2014-04-21T12:22:29Z</time>
      </trkpt>
      <trkpt lat="43.51767" lon="6.80273">
        <ele>291.3</ele>
        <time>2014-04-21T12:22:32Z</time>
      </trkpt>
      <trkpt lat="43.51763" lon="6.80287">
        <ele>292.3</ele>
        <time>2014-04-21T12:22:35Z</time>
      </trkpt>
      <trkpt lat="43.51761" lon="6.80299">
        <ele>292.3</ele>
        <time>2014-04-21T12:22:38Z</time>
      </trkpt>
      <trkpt lat="43.51756" lon="6.80325">
        <ele>293.3</ele>
        <time>2014-04-21T12:22:44Z</time>
      </trkpt>
      <trkpt lat="43.51753" lon="6.8034">
        <ele>294.3</ele>
        <time>2014-04-21T12:22:48Z</time>
      </trkpt>
      <trkpt lat="43.51745" lon="6.8035">
        <ele>294.3</ele>
        <time>2014-04-21T12:22:52Z</time>
      </trkpt>
      <trkpt lat="43.51735" lon="6.80348">
        <ele>295.3</ele>
        <time>2014-04-21T12:22:55Z</time>
      </trkpt>
      <trkpt lat="43.51727" lon="6.8034">
        <ele>296.3</ele>
        <time>2014-04-21T12:22:58Z</time>
      </trkpt>
      <trkpt lat="43.51719" lon="6.80335">
        <ele>296.3</ele>
        <time>2014-04-21T12:23:01Z</time>
      </trkpt>
      <trkpt lat="43.5171" lon="6.80338">
        <ele>295.3</ele>
        <time>2014-04-21T12:23:04Z</time>
      </trkpt>
      <trkpt lat="43.51703" lon="6.8035">
        <ele>295.3</ele>
        <time>2014-04-21T12:23:07Z</time>
      </trkpt>
      <trkpt lat="43.51698" lon="6.80365">
        <ele>295.3</ele>
        <time>2014-04-21T12:23:10Z</time>
      </trkpt>
      <trkpt lat="43.51692" lon="6.80377">
        <ele>295.3</ele>
        <time>2014-04-21T12:23:13Z</time>
      </trkpt>
      <trkpt lat="43.51685" lon="6.80388">
        <ele>296.3</ele>
        <time>2014-04-21T12:23:16Z</time>
      </trkpt>
      <trkpt lat="43.51678" lon="6.80396">
        <ele>296.3</ele>
        <time>2014-04-21T12:23:19Z</time>
      </trkpt>
      <trkpt lat="43.51671" lon="6.80404">
        <ele>296.3</ele>
        <time>2014-04-21T12:23:22Z</time>
      </trkpt>
      <trkpt lat="43.51661" lon="6.80409">
        <ele>296.3</ele>
        <time>2014-04-21T12:23:25Z</time>
      </trkpt>
      <trkpt lat="43.51652" lon="6.80412">
        <ele>296.3</ele>
        <time>2014-04-21T12:23:28Z</time>
      </trkpt>
      <trkpt lat="43.51643" lon="6.80418">
        <ele>297.3</ele>
        <time>2014-04-21T12:23:31Z</time>
      </trkpt>
      <trkpt lat="43.51635" lon="6.80427">
        <ele>297.3</ele>
        <time>2014-04-21T12:23:34Z</time>
      </trkpt>
      <trkpt lat="43.51629" lon="6.80436">
        <ele>298.3</ele>
        <time>2014-04-21T12:23:37Z</time>
      </trkpt>
      <trkpt lat="43.51622" lon="6.80445">
        <ele>298.3</ele>
        <time>2014-04-21T12:23:40Z</time>
      </trkpt>
      <trkpt lat="43.5161" lon="6.80469">
        <ele>299.3</ele>
        <time>2014-04-21T12:23:46Z</time>
      </trkpt>
      <trkpt lat="43.51604" lon="6.80483">
        <ele>300.3</ele>
        <time>2014-04-21T12:23:49Z</time>
      </trkpt>
      <trkpt lat="43.51599" lon="6.80497">
        <ele>301.3</ele>
        <time>2014-04-21T12:23:52Z</time>
      </trkpt>
      <trkpt lat="43.51594" lon="6.80511">
        <ele>301.3</ele>
        <time>2014-04-21T12:23:55Z</time>
      </trkpt>
      <trkpt lat="43.5159" lon="6.80523">
        <ele>302.3</ele>
        <time>2014-04-21T12:23:58Z</time>
      </trkpt>
      <trkpt lat="43.51585" lon="6.80533">
        <ele>303.3</ele>
        <time>2014-04-21T12:24:01Z</time>
      </trkpt>
      <trkpt lat="43.51578" lon="6.80544">
        <ele>303.3</ele>
        <time>2014-04-21T12:24:04Z</time>
      </trkpt>
      <trkpt lat="43.51569" lon="6.80553">
        <ele>302.3</ele>
        <time>2014-04-21T12:24:07Z</time>
      </trkpt>
      <trkpt lat="43.51559" lon="6.80558">
        <ele>303.3</ele>
        <time>2014-04-21T12:24:10Z</time>
      </trkpt>
      <trkpt lat="43.51549" lon="6.80561">
        <ele>303.3</ele>
        <time>2014-04-21T12:24:13Z</time>
      </trkpt>
      <trkpt lat="43.51539" lon="6.80561">
        <ele>303.3</ele>
        <time>2014-04-21T12:24:16Z</time>
      </trkpt>
      <trkpt lat="43.5153" lon="6.8056">
        <ele>304.3</ele>
        <time>2014-04-21T12:24:19Z</time>
      </trkpt>
      <trkpt lat="43.51518" lon="6.80559">
        <ele>305.3</ele>
        <time>2014-04-21T12:24:23Z</time>
      </trkpt>
      <trkpt lat="43.51507" lon="6.80556">
        <ele>306.3</ele>
        <time>2014-04-21T12:24:27Z</time>
      </trkpt>
      <trkpt lat="43.51501" lon="6.80547">
        <ele>306.3</ele>
        <time>2014-04-21T12:24:48Z</time>
      </trkpt>
      <trkpt lat="43.51507" lon="6.80559">
        <ele>306.3</ele>
        <time>2014-04-21T12:24:57Z</time>
      </trkpt>
      <trkpt lat="43.51503" lon="6.80547">
        <ele>306.3</ele>
        <time>2014-04-21T12:25:02Z</time>
      </trkpt>
      <trkpt lat="43.51497" lon="6.80558">
        <ele>306.3</ele>
        <time>2014-04-21T12:25:07Z</time>
      </trkpt>
      <trkpt lat="43.51507" lon="6.80559">
        <ele>306.3</ele>
        <time>2014-04-21T12:25:11Z</time>
      </trkpt>
      <trkpt lat="43.51504" lon="6.80547">
        <ele>306.3</ele>
        <time>2014-04-21T12:25:17Z</time>
      </trkpt>
      <trkpt lat="43.515" lon="6.80558">
        <ele>306.3</ele>
        <time>2014-04-21T12:25:27Z</time>
      </trkpt>
      <trkpt lat="43.51508" lon="6.80561">
        <ele>306.3</ele>
        <time>2014-04-21T12:25:33Z</time>
      </trkpt>
      <trkpt lat="43.51501" lon="6.80553">
        <ele>306.3</ele>
        <time>2014-04-21T12:25:40Z</time>
      </trkpt>
      <trkpt lat="43.51506" lon="6.80563">
        <ele>306.3</ele>
        <time>2014-04-21T12:25:55Z</time>
      </trkpt>
      <trkpt lat="43.51494" lon="6.80555">
        <ele>304.3</ele>
        <time>2014-04-21T12:27:34Z</time>
      </trkpt>
      <trkpt lat="43.51476" lon="6.80564">
        <ele>304.3</ele>
        <time>2014-04-21T12:27:43Z</time>
      </trkpt>
      <trkpt lat="43.51466" lon="6.80567">
        <ele>305.3</ele>
        <time>2014-04-21T12:27:48Z</time>
      </trkpt>
      <trkpt lat="43.51455" lon="6.8057">
        <ele>306.3</ele>
        <time>2014-04-21T12:27:53Z</time>
      </trkpt>
      <trkpt lat="43.51444" lon="6.80573">
        <ele>306.3</ele>
        <time>2014-04-21T12:27:58Z</time>
      </trkpt>
      <trkpt lat="43.51434" lon="6.80574">
        <ele>306.3</ele>
        <time>2014-04-21T12:28:02Z</time>
      </trkpt>
      <trkpt lat="43.51423" lon="6.80576">
        <ele>305.3</ele>
        <time>2014-04-21T12:28:06Z</time>
      </trkpt>
      <trkpt lat="43.51414" lon="6.80579">
        <ele>305.3</ele>
        <time>2014-04-21T12:28:09Z</time>
      </trkpt>
      <trkpt lat="43.51403" lon="6.80586">
        <ele>304.3</ele>
        <time>2014-04-21T12:28:12Z</time>
      </trkpt>
      <trkpt lat="43.51395" lon="6.80592">
        <ele>303.3</ele>
        <time>2014-04-21T12:28:14Z</time>
      </trkpt>
      <trkpt lat="43.51385" lon="6.80601">
        <ele>303.3</ele>
        <time>2014-04-21T12:28:16Z</time>
      </trkpt>
      <trkpt lat="43.51378" lon="6.80608">
        <ele>303.3</ele>
        <time>2014-04-21T12:28:18Z</time>
      </trkpt>
      <trkpt lat="43.51368" lon="6.80618">
        <ele>303.3</ele>
        <time>2014-04-21T12:28:21Z</time>
      </trkpt>
      <trkpt lat="43.51359" lon="6.80631">
        <ele>303.3</ele>
        <time>2014-04-21T12:28:24Z</time>
      </trkpt>
      <trkpt lat="43.51351" lon="6.80645">
        <ele>305.3</ele>
        <time>2014-04-21T12:28:27Z</time>
      </trkpt>
      <trkpt lat="43.51345" lon="6.80656">
        <ele>306.3</ele>
        <time>2014-04-21T12:28:30Z</time>
      </trkpt>
      <trkpt lat="43.51338" lon="6.80666">
        <ele>306.3</ele>
        <time>2014-04-21T12:28:33Z</time>
      </trkpt>
      <trkpt lat="43.51329" lon="6.80679">
        <ele>306.3</ele>
        <time>2014-04-21T12:28:37Z</time>
      </trkpt>
      <trkpt lat="43.51314" lon="6.80704">
        <ele>305.3</ele>
        <time>2014-04-21T12:28:43Z</time>
      </trkpt>
      <trkpt lat="43.51308" lon="6.8072">
        <ele>304.3</ele>
        <time>2014-04-21T12:28:46Z</time>
      </trkpt>
      <trkpt lat="43.51302" lon="6.80736">
        <ele>304.3</ele>
        <time>2014-04-21T12:28:49Z</time>
      </trkpt>
      <trkpt lat="43.51296" lon="6.80753">
        <ele>305.3</ele>
        <time>2014-04-21T12:28:52Z</time>
      </trkpt>
      <trkpt lat="43.51293" lon="6.80769">
        <ele>305.3</ele>
        <time>2014-04-21T12:28:55Z</time>
      </trkpt>
      <trkpt lat="43.51291" lon="6.80786">
        <ele>305.3</ele>
        <time>2014-04-21T12:28:58Z</time>
      </trkpt>
      <trkpt lat="43.51293" lon="6.80803">
        <ele>304.3</ele>
        <time>2014-04-21T12:29:01Z</time>
      </trkpt>
      <trkpt lat="43.51296" lon="6.8082">
        <ele>304.3</ele>
        <time>2014-04-21T12:29:04Z</time>
      </trkpt>
      <trkpt lat="43.513" lon="6.80836">
        <ele>304.3</ele>
        <time>2014-04-21T12:29:07Z</time>
      </trkpt>
      <trkpt lat="43.51302" lon="6.80848">
        <ele>304.3</ele>
        <time>2014-04-21T12:29:11Z</time>
      </trkpt>
      <trkpt lat="43.51289" lon="6.80842">
        <ele>301.3</ele>
        <time>2014-04-21T12:29:19Z</time>
      </trkpt>
      <trkpt lat="43.51277" lon="6.80829">
        <ele>299.3</ele>
        <time>2014-04-21T12:29:21Z</time>
      </trkpt>
      <trkpt lat="43.51263" lon="6.80816">
        <ele>296.3</ele>
        <time>2014-04-21T12:29:23Z</time>
      </trkpt>
      <trkpt lat="43.51256" lon="6.80808">
        <ele>295.3</ele>
        <time>2014-04-21T12:29:24Z</time>
      </trkpt>
      <trkpt lat="43.51249" lon="6.80797">
        <ele>294.3</ele>
        <time>2014-04-21T12:29:25Z</time>
      </trkpt>
      <trkpt lat="43.51241" lon="6.80786">
        <ele>293.3</ele>
        <time>2014-04-21T12:29:26Z</time>
      </trkpt>
      <trkpt lat="43.51234" lon="6.80776">
        <ele>292.3</ele>
        <time>2014-04-21T12:29:27Z</time>
      </trkpt>
      <trkpt lat="43.51226" lon="6.80765">
        <ele>290.3</ele>
        <time>2014-04-21T12:29:28Z</time>
      </trkpt>
      <trkpt lat="43.51218" lon="6.80756">
        <ele>289.3</ele>
        <time>2014-04-21T12:29:29Z</time>
      </trkpt>
      <trkpt lat="43.5121" lon="6.80747">
        <ele>288.3</ele>
        <time>2014-04-21T12:29:30Z</time>
      </trkpt>
      <trkpt lat="43.51199" lon="6.80729">
        <ele>286.3</ele>
        <time>2014-04-21T12:29:32Z</time>
      </trkpt>
      <trkpt lat="43.51188" lon="6.80713">
        <ele>284.3</ele>
        <time>2014-04-21T12:29:34Z</time>
      </trkpt>
      <trkpt lat="43.51177" lon="6.80701">
        <ele>283.3</ele>
        <time>2014-04-21T12:29:36Z</time>
      </trkpt>
      <trkpt lat="43.51166" lon="6.80698">
        <ele>281.3</ele>
        <time>2014-04-21T12:29:38Z</time>
      </trkpt>
      <trkpt lat="43.5114" lon="6.8071">
        <ele>278.3</ele>
        <time>2014-04-21T12:29:42Z</time>
      </trkpt>
      <trkpt lat="43.51123" lon="6.80704">
        <ele>276.3</ele>
        <time>2014-04-21T12:29:44Z</time>
      </trkpt>
      <trkpt lat="43.51109" lon="6.80688">
        <ele>275.3</ele>
        <time>2014-04-21T12:29:46Z</time>
      </trkpt>
      <trkpt lat="43.51103" lon="6.80678">
        <ele>273.3</ele>
        <time>2014-04-21T12:29:47Z</time>
      </trkpt>
      <trkpt lat="43.51098" lon="6.80666">
        <ele>272.3</ele>
        <time>2014-04-21T12:29:48Z</time>
      </trkpt>
      <trkpt lat="43.51094" lon="6.80654">
        <ele>271.3</ele>
        <time>2014-04-21T12:29:49Z</time>
      </trkpt>
      <trkpt lat="43.51089" lon="6.80632">
        <ele>269.3</ele>
        <time>2014-04-21T12:29:51Z</time>
      </trkpt>
      <trkpt lat="43.51086" lon="6.80617">
        <ele>268.3</ele>
        <time>2014-04-21T12:29:53Z</time>
      </trkpt>
      <trkpt lat="43.51086" lon="6.80604">
        <ele>266.3</ele>
        <time>2014-04-21T12:29:56Z</time>
      </trkpt>
      <trkpt lat="43.5109" lon="6.80591">
        <ele>266.3</ele>
        <time>2014-04-21T12:30:00Z</time>
      </trkpt>
      <trkpt lat="43.51096" lon="6.8058">
        <ele>266.3</ele>
        <time>2014-04-21T12:30:04Z</time>
      </trkpt>
      <trkpt lat="43.51102" lon="6.80569">
        <ele>265.3</ele>
        <time>2014-04-21T12:30:07Z</time>
      </trkpt>
      <trkpt lat="43.51113" lon="6.80562">
        <ele>264.3</ele>
        <time>2014-04-21T12:30:09Z</time>
      </trkpt>
      <trkpt lat="43.51125" lon="6.80561">
        <ele>263.3</ele>
        <time>2014-04-21T12:30:11Z</time>
      </trkpt>
      <trkpt lat="43.51137" lon="6.80561">
        <ele>261.3</ele>
        <time>2014-04-21T12:30:13Z</time>
      </trkpt>
      <trkpt lat="43.51147" lon="6.80553">
        <ele>260.3</ele>
        <time>2014-04-21T12:30:15Z</time>
      </trkpt>
      <trkpt lat="43.51147" lon="6.80539">
        <ele>259.3</ele>
        <time>2014-04-21T12:30:17Z</time>
      </trkpt>
      <trkpt lat="43.51144" lon="6.80522">
        <ele>258.3</ele>
        <time>2014-04-21T12:30:19Z</time>
      </trkpt>
      <trkpt lat="43.51148" lon="6.80505">
        <ele>256.3</ele>
        <time>2014-04-21T12:30:21Z</time>
      </trkpt>
      <trkpt lat="43.51158" lon="6.80498">
        <ele>255.3</ele>
        <time>2014-04-21T12:30:23Z</time>
      </trkpt>
      <trkpt lat="43.51169" lon="6.80502">
        <ele>254.3</ele>
        <time>2014-04-21T12:30:25Z</time>
      </trkpt>
      <trkpt lat="43.51179" lon="6.80506">
        <ele>255.3</ele>
        <time>2014-04-21T12:30:27Z</time>
      </trkpt>
      <trkpt lat="43.51185" lon="6.80492">
        <ele>253.3</ele>
        <time>2014-04-21T12:30:30Z</time>
      </trkpt>
      <trkpt lat="43.51181" lon="6.80479">
        <ele>252.3</ele>
        <time>2014-04-21T12:30:32Z</time>
      </trkpt>
      <trkpt lat="43.51175" lon="6.80466">
        <ele>250.3</ele>
        <time>2014-04-21T12:30:34Z</time>
      </trkpt>
      <trkpt lat="43.51168" lon="6.80451">
        <ele>249.3</ele>
        <time>2014-04-21T12:30:36Z</time>
      </trkpt>
      <trkpt lat="43.51162" lon="6.80439">
        <ele>247.3</ele>
        <time>2014-04-21T12:30:38Z</time>
      </trkpt>
      <trkpt lat="43.51155" lon="6.80425">
        <ele>246.3</ele>
        <time>2014-04-21T12:30:40Z</time>
      </trkpt>
      <trkpt lat="43.51132" lon="6.80395">
        <ele>241.3</ele>
        <time>2014-04-21T12:30:44Z</time>
      </trkpt>
      <trkpt lat="43.51124" lon="6.80387">
        <ele>240.3</ele>
        <time>2014-04-21T12:30:45Z</time>
      </trkpt>
      <trkpt lat="43.51116" lon="6.8038">
        <ele>239.3</ele>
        <time>2014-04-21T12:30:46Z</time>
      </trkpt>
      <trkpt lat="43.51107" lon="6.80374">
        <ele>238.3</ele>
        <time>2014-04-21T12:30:47Z</time>
      </trkpt>
      <trkpt lat="43.51094" lon="6.80366">
        <ele>236.3</ele>
        <time>2014-04-21T12:30:49Z</time>
      </trkpt>
      <trkpt lat="43.51085" lon="6.80354">
        <ele>234.3</ele>
        <time>2014-04-21T12:30:51Z</time>
      </trkpt>
      <trkpt lat="43.51081" lon="6.80337">
        <ele>232.3</ele>
        <time>2014-04-21T12:30:53Z</time>
      </trkpt>
      <trkpt lat="43.51083" lon="6.80321">
        <ele>230.3</ele>
        <time>2014-04-21T12:30:55Z</time>
      </trkpt>
      <trkpt lat="43.5109" lon="6.80309">
        <ele>228.3</ele>
        <time>2014-04-21T12:30:57Z</time>
      </trkpt>
      <trkpt lat="43.51092" lon="6.80296">
        <ele>227.3</ele>
        <time>2014-04-21T12:30:59Z</time>
      </trkpt>
      <trkpt lat="43.51088" lon="6.80282">
        <ele>226.3</ele>
        <time>2014-04-21T12:31:02Z</time>
      </trkpt>
      <trkpt lat="43.51082" lon="6.80272">
        <ele>225.3</ele>
        <time>2014-04-21T12:31:04Z</time>
      </trkpt>
      <trkpt lat="43.51075" lon="6.80258">
        <ele>223.3</ele>
        <time>2014-04-21T12:31:06Z</time>
      </trkpt>
      <trkpt lat="43.51069" lon="6.8024">
        <ele>222.3</ele>
        <time>2014-04-21T12:31:08Z</time>
      </trkpt>
      <trkpt lat="43.51063" lon="6.80218">
        <ele>220.3</ele>
        <time>2014-04-21T12:31:10Z</time>
      </trkpt>
      <trkpt lat="43.5106" lon="6.80194">
        <ele>217.3</ele>
        <time>2014-04-21T12:31:12Z</time>
      </trkpt>
      <trkpt lat="43.5106" lon="6.8018">
        <ele>216.3</ele>
        <time>2014-04-21T12:31:13Z</time>
      </trkpt>
      <trkpt lat="43.51061" lon="6.80167">
        <ele>215.3</ele>
        <time>2014-04-21T12:31:14Z</time>
      </trkpt>
      <trkpt lat="43.51063" lon="6.80144">
        <ele>213.3</ele>
        <time>2014-04-21T12:31:16Z</time>
      </trkpt>
      <trkpt lat="43.51066" lon="6.80124">
        <ele>210.3</ele>
        <time>2014-04-21T12:31:18Z</time>
      </trkpt>
      <trkpt lat="43.51071" lon="6.80105">
        <ele>208.3</ele>
        <time>2014-04-21T12:31:20Z</time>
      </trkpt>
      <trkpt lat="43.51076" lon="6.8009">
        <ele>206.3</ele>
        <time>2014-04-21T12:31:22Z</time>
      </trkpt>
      <trkpt lat="43.5108" lon="6.80077">
        <ele>205.3</ele>
        <time>2014-04-21T12:31:24Z</time>
      </trkpt>
      <trkpt lat="43.51085" lon="6.80063">
        <ele>204.3</ele>
        <time>2014-04-21T12:31:26Z</time>
      </trkpt>
      <trkpt lat="43.51088" lon="6.80049">
        <ele>202.3</ele>
        <time>2014-04-21T12:31:28Z</time>
      </trkpt>
      <trkpt lat="43.5109" lon="6.80035">
        <ele>199.3</ele>
        <time>2014-04-21T12:31:30Z</time>
      </trkpt>
      <trkpt lat="43.51088" lon="6.80019">
        <ele>197.3</ele>
        <time>2014-04-21T12:31:32Z</time>
      </trkpt>
      <trkpt lat="43.51082" lon="6.80003">
        <ele>196.3</ele>
        <time>2014-04-21T12:31:34Z</time>
      </trkpt>
      <trkpt lat="43.51074" lon="6.79988">
        <ele>194.3</ele>
        <time>2014-04-21T12:31:36Z</time>
      </trkpt>
      <trkpt lat="43.51066" lon="6.79973">
        <ele>192.3</ele>
        <time>2014-04-21T12:31:38Z</time>
      </trkpt>
      <trkpt lat="43.51061" lon="6.79955">
        <ele>190.3</ele>
        <time>2014-04-21T12:31:40Z</time>
      </trkpt>
      <trkpt lat="43.51062" lon="6.79937">
        <ele>188.3</ele>
        <time>2014-04-21T12:31:42Z</time>
      </trkpt>
      <trkpt lat="43.51082" lon="6.79911">
        <ele>187.3</ele>
        <time>2014-04-21T12:31:46Z</time>
      </trkpt>
      <trkpt lat="43.51096" lon="6.79903">
        <ele>187.3</ele>
        <time>2014-04-21T12:31:48Z</time>
      </trkpt>
      <trkpt lat="43.51105" lon="6.7989">
        <ele>188.3</ele>
        <time>2014-04-21T12:31:50Z</time>
      </trkpt>
      <trkpt lat="43.51111" lon="6.79875">
        <ele>188.3</ele>
        <time>2014-04-21T12:31:52Z</time>
      </trkpt>
      <trkpt lat="43.51116" lon="6.79858">
        <ele>187.3</ele>
        <time>2014-04-21T12:31:54Z</time>
      </trkpt>
      <trkpt lat="43.51121" lon="6.79841">
        <ele>186.3</ele>
        <time>2014-04-21T12:31:56Z</time>
      </trkpt>
      <trkpt lat="43.51125" lon="6.79823">
        <ele>186.3</ele>
        <time>2014-04-21T12:31:58Z</time>
      </trkpt>
      <trkpt lat="43.5113" lon="6.79801">
        <ele>184.3</ele>
        <time>2014-04-21T12:32:00Z</time>
      </trkpt>
      <trkpt lat="43.51132" lon="6.79777">
        <ele>182.3</ele>
        <time>2014-04-21T12:32:02Z</time>
      </trkpt>
      <trkpt lat="43.5113" lon="6.79764">
        <ele>182.3</ele>
        <time>2014-04-21T12:32:03Z</time>
      </trkpt>
      <trkpt lat="43.51126" lon="6.79752">
        <ele>181.3</ele>
        <time>2014-04-21T12:32:04Z</time>
      </trkpt>
      <trkpt lat="43.51118" lon="6.79734">
        <ele>179.3</ele>
        <time>2014-04-21T12:32:06Z</time>
      </trkpt>
      <trkpt lat="43.51111" lon="6.79723">
        <ele>178.3</ele>
        <time>2014-04-21T12:32:08Z</time>
      </trkpt>
      <trkpt lat="43.51103" lon="6.79711">
        <ele>176.3</ele>
        <time>2014-04-21T12:32:11Z</time>
      </trkpt>
      <trkpt lat="43.51096" lon="6.79703">
        <ele>175.3</ele>
        <time>2014-04-21T12:32:16Z</time>
      </trkpt>
      <trkpt lat="43.51115" lon="6.79713">
        <ele>189.3</ele>
        <time>2014-04-21T12:38:28Z</time>
      </trkpt>
      <trkpt lat="43.51112" lon="6.79711">
        <ele>184.3</ele>
        <time>2014-04-21T12:38:32Z</time>
      </trkpt>
      <trkpt lat="43.51123" lon="6.79719">
        <ele>182.3</ele>
        <time>2014-04-21T12:38:37Z</time>
      </trkpt>
      <trkpt lat="43.51128" lon="6.7973">
        <ele>181.3</ele>
        <time>2014-04-21T12:38:40Z</time>
      </trkpt>
      <trkpt lat="43.51136" lon="6.79737">
        <ele>181.3</ele>
        <time>2014-04-21T12:38:43Z</time>
      </trkpt>
      <trkpt lat="43.51144" lon="6.79727">
        <ele>181.3</ele>
        <time>2014-04-21T12:38:46Z</time>
      </trkpt>
      <trkpt lat="43.51145" lon="6.79709">
        <ele>180.3</ele>
        <time>2014-04-21T12:38:49Z</time>
      </trkpt>
      <trkpt lat="43.51146" lon="6.79696">
        <ele>180.3</ele>
        <time>2014-04-21T12:38:51Z</time>
      </trkpt>
      <trkpt lat="43.5115" lon="6.79678">
        <ele>180.3</ele>
        <time>2014-04-21T12:38:54Z</time>
      </trkpt>
      <trkpt lat="43.51157" lon="6.79664">
        <ele>181.3</ele>
        <time>2014-04-21T12:38:57Z</time>
      </trkpt>
      <trkpt lat="43.51164" lon="6.79654">
        <ele>180.3</ele>
        <time>2014-04-21T12:39:00Z</time>
      </trkpt>
      <trkpt lat="43.51171" lon="6.79642">
        <ele>181.3</ele>
        <time>2014-04-21T12:39:04Z</time>
      </trkpt>
      <trkpt lat="43.5118" lon="6.79631">
        <ele>182.3</ele>
        <time>2014-04-21T12:39:08Z</time>
      </trkpt>
      <trkpt lat="43.51191" lon="6.79633">
        <ele>182.3</ele>
        <time>2014-04-21T12:39:12Z</time>
      </trkpt>
      <trkpt lat="43.51202" lon="6.79635">
        <ele>182.3</ele>
        <time>2014-04-21T12:39:15Z</time>
      </trkpt>
      <trkpt lat="43.51214" lon="6.79626">
        <ele>181.3</ele>
        <time>2014-04-21T12:39:18Z</time>
      </trkpt>
      <trkpt lat="43.51214" lon="6.79609">
        <ele>181.3</ele>
        <time>2014-04-21T12:39:20Z</time>
      </trkpt>
      <trkpt lat="43.51212" lon="6.79596">
        <ele>180.3</ele>
        <time>2014-04-21T12:39:22Z</time>
      </trkpt>
      <trkpt lat="43.51209" lon="6.79578">
        <ele>180.3</ele>
        <time>2014-04-21T12:39:25Z</time>
      </trkpt>
      <trkpt lat="43.51207" lon="6.79561">
        <ele>181.3</ele>
        <time>2014-04-21T12:39:28Z</time>
      </trkpt>
      <trkpt lat="43.51206" lon="6.79545">
        <ele>180.3</ele>
        <time>2014-04-21T12:39:31Z</time>
      </trkpt>
      <trkpt lat="43.51212" lon="6.79516">
        <ele>178.3</ele>
        <time>2014-04-21T12:39:36Z</time>
      </trkpt>
      <trkpt lat="43.51217" lon="6.79505">
        <ele>178.3</ele>
        <time>2014-04-21T12:39:38Z</time>
      </trkpt>
      <trkpt lat="43.51229" lon="6.79496">
        <ele>177.3</ele>
        <time>2014-04-21T12:39:41Z</time>
      </trkpt>
      <trkpt lat="43.5124" lon="6.79491">
        <ele>176.3</ele>
        <time>2014-04-21T12:39:44Z</time>
      </trkpt>
      <trkpt lat="43.5125" lon="6.79486">
        <ele>177.3</ele>
        <time>2014-04-21T12:39:47Z</time>
      </trkpt>
      <trkpt lat="43.51254" lon="6.79472">
        <ele>178.3</ele>
        <time>2014-04-21T12:39:50Z</time>
      </trkpt>
      <trkpt lat="43.51247" lon="6.79461">
        <ele>176.3</ele>
        <time>2014-04-21T12:39:53Z</time>
      </trkpt>
      <trkpt lat="43.51237" lon="6.79452">
        <ele>176.3</ele>
        <time>2014-04-21T12:39:56Z</time>
      </trkpt>
      <trkpt lat="43.51233" lon="6.7944">
        <ele>177.3</ele>
        <time>2014-04-21T12:39:58Z</time>
      </trkpt>
      <trkpt lat="43.51232" lon="6.79424">
        <ele>177.3</ele>
        <time>2014-04-21T12:40:00Z</time>
      </trkpt>
      <trkpt lat="43.51231" lon="6.79411">
        <ele>177.3</ele>
        <time>2014-04-21T12:40:02Z</time>
      </trkpt>
      <trkpt lat="43.5123" lon="6.79397">
        <ele>176.3</ele>
        <time>2014-04-21T12:40:04Z</time>
      </trkpt>
      <trkpt lat="43.51228" lon="6.79383">
        <ele>177.3</ele>
        <time>2014-04-21T12:40:06Z</time>
      </trkpt>
      <trkpt lat="43.51226" lon="6.79366">
        <ele>177.3</ele>
        <time>2014-04-21T12:40:09Z</time>
      </trkpt>
      <trkpt lat="43.51226" lon="6.79349">
        <ele>177.3</ele>
        <time>2014-04-21T12:40:12Z</time>
      </trkpt>
      <trkpt lat="43.51227" lon="6.79332">
        <ele>177.3</ele>
        <time>2014-04-21T12:40:15Z</time>
      </trkpt>
      <trkpt lat="43.5123" lon="6.79313">
        <ele>177.3</ele>
        <time>2014-04-21T12:40:18Z</time>
      </trkpt>
      <trkpt lat="43.51233" lon="6.79302">
        <ele>176.3</ele>
        <time>2014-04-21T12:40:20Z</time>
      </trkpt>
      <trkpt lat="43.51237" lon="6.7929">
        <ele>176.3</ele>
        <time>2014-04-21T12:40:22Z</time>
      </trkpt>
      <trkpt lat="43.51245" lon="6.79275">
        <ele>177.3</ele>
        <time>2014-04-21T12:40:25Z</time>
      </trkpt>
      <trkpt lat="43.5125" lon="6.79264">
        <ele>176.3</ele>
        <time>2014-04-21T12:40:27Z</time>
      </trkpt>
      <trkpt lat="43.51256" lon="6.79249">
        <ele>177.3</ele>
        <time>2014-04-21T12:40:30Z</time>
      </trkpt>
      <trkpt lat="43.51263" lon="6.79235">
        <ele>176.3</ele>
        <time>2014-04-21T12:40:33Z</time>
      </trkpt>
      <trkpt lat="43.51284" lon="6.79226">
        <ele>177.3</ele>
        <time>2014-04-21T12:40:38Z</time>
      </trkpt>
      <trkpt lat="43.51294" lon="6.79228">
        <ele>177.3</ele>
        <time>2014-04-21T12:40:40Z</time>
      </trkpt>
      <trkpt lat="43.51303" lon="6.79233">
        <ele>178.3</ele>
        <time>2014-04-21T12:40:42Z</time>
      </trkpt>
      <trkpt lat="43.51312" lon="6.79239">
        <ele>179.3</ele>
        <time>2014-04-21T12:40:44Z</time>
      </trkpt>
      <trkpt lat="43.51323" lon="6.79245">
        <ele>179.3</ele>
        <time>2014-04-21T12:40:46Z</time>
      </trkpt>
      <trkpt lat="43.51334" lon="6.79249">
        <ele>179.3</ele>
        <time>2014-04-21T12:40:48Z</time>
      </trkpt>
      <trkpt lat="43.51343" lon="6.79254">
        <ele>179.3</ele>
        <time>2014-04-21T12:40:50Z</time>
      </trkpt>
      <trkpt lat="43.51356" lon="6.79264">
        <ele>178.3</ele>
        <time>2014-04-21T12:40:53Z</time>
      </trkpt>
      <trkpt lat="43.51366" lon="6.79269">
        <ele>178.3</ele>
        <time>2014-04-21T12:40:55Z</time>
      </trkpt>
      <trkpt lat="43.51376" lon="6.79278">
        <ele>178.3</ele>
        <time>2014-04-21T12:40:57Z</time>
      </trkpt>
      <trkpt lat="43.51385" lon="6.79283">
        <ele>178.3</ele>
        <time>2014-04-21T12:40:59Z</time>
      </trkpt>
      <trkpt lat="43.51397" lon="6.79287">
        <ele>179.3</ele>
        <time>2014-04-21T12:41:01Z</time>
      </trkpt>
      <trkpt lat="43.51407" lon="6.7929">
        <ele>180.3</ele>
        <time>2014-04-21T12:41:03Z</time>
      </trkpt>
      <trkpt lat="43.51418" lon="6.79292">
        <ele>181.3</ele>
        <time>2014-04-21T12:41:06Z</time>
      </trkpt>
      <trkpt lat="43.51428" lon="6.79294">
        <ele>182.3</ele>
        <time>2014-04-21T12:41:09Z</time>
      </trkpt>
      <trkpt lat="43.51438" lon="6.79299">
        <ele>184.3</ele>
        <time>2014-04-21T12:41:13Z</time>
      </trkpt>
      <trkpt lat="43.51448" lon="6.79308">
        <ele>187.3</ele>
        <time>2014-04-21T12:41:17Z</time>
      </trkpt>
      <trkpt lat="43.51453" lon="6.7932">
        <ele>190.3</ele>
        <time>2014-04-21T12:41:21Z</time>
      </trkpt>
      <trkpt lat="43.51455" lon="6.79332">
        <ele>187.3</ele>
        <time>2014-04-21T12:41:25Z</time>
      </trkpt>
      <trkpt lat="43.51461" lon="6.79345">
        <ele>187.3</ele>
        <time>2014-04-21T12:41:29Z</time>
      </trkpt>
      <trkpt lat="43.51467" lon="6.79355">
        <ele>185.3</ele>
        <time>2014-04-21T12:41:32Z</time>
      </trkpt>
      <trkpt lat="43.51475" lon="6.79366">
        <ele>183.3</ele>
        <time>2014-04-21T12:41:35Z</time>
      </trkpt>
      <trkpt lat="43.51496" lon="6.79388">
        <ele>180.3</ele>
        <time>2014-04-21T12:41:41Z</time>
      </trkpt>
      <trkpt lat="43.51508" lon="6.79393">
        <ele>179.3</ele>
        <time>2014-04-21T12:41:43Z</time>
      </trkpt>
      <trkpt lat="43.51519" lon="6.79388">
        <ele>178.3</ele>
        <time>2014-04-21T12:41:45Z</time>
      </trkpt>
      <trkpt lat="43.51526" lon="6.79379">
        <ele>178.3</ele>
        <time>2014-04-21T12:41:47Z</time>
      </trkpt>
      <trkpt lat="43.51531" lon="6.79367">
        <ele>177.3</ele>
        <time>2014-04-21T12:41:49Z</time>
      </trkpt>
      <trkpt lat="43.51534" lon="6.79355">
        <ele>177.3</ele>
        <time>2014-04-21T12:41:51Z</time>
      </trkpt>
      <trkpt lat="43.51538" lon="6.79338">
        <ele>177.3</ele>
        <time>2014-04-21T12:41:54Z</time>
      </trkpt>
      <trkpt lat="43.51541" lon="6.79325">
        <ele>178.3</ele>
        <time>2014-04-21T12:41:57Z</time>
      </trkpt>
      <trkpt lat="43.51544" lon="6.7931">
        <ele>180.3</ele>
        <time>2014-04-21T12:42:01Z</time>
      </trkpt>
      <trkpt lat="43.51548" lon="6.79296">
        <ele>180.3</ele>
        <time>2014-04-21T12:42:05Z</time>
      </trkpt>
      <trkpt lat="43.51552" lon="6.79281">
        <ele>180.3</ele>
        <time>2014-04-21T12:42:09Z</time>
      </trkpt>
      <trkpt lat="43.5156" lon="6.79267">
        <ele>179.3</ele>
        <time>2014-04-21T12:42:13Z</time>
      </trkpt>
      <trkpt lat="43.51568" lon="6.79254">
        <ele>179.3</ele>
        <time>2014-04-21T12:42:16Z</time>
      </trkpt>
      <trkpt lat="43.51572" lon="6.79237">
        <ele>179.3</ele>
        <time>2014-04-21T12:42:19Z</time>
      </trkpt>
      <trkpt lat="43.51573" lon="6.7922">
        <ele>180.3</ele>
        <time>2014-04-21T12:42:22Z</time>
      </trkpt>
      <trkpt lat="43.51564" lon="6.79211">
        <ele>179.3</ele>
        <time>2014-04-21T12:42:26Z</time>
      </trkpt>
      <trkpt lat="43.51554" lon="6.7922">
        <ele>178.3</ele>
        <time>2014-04-21T12:42:29Z</time>
      </trkpt>
      <trkpt lat="43.51545" lon="6.79223">
        <ele>178.3</ele>
        <time>2014-04-21T12:42:31Z</time>
      </trkpt>
      <trkpt lat="43.51536" lon="6.79218">
        <ele>178.3</ele>
        <time>2014-04-21T12:42:33Z</time>
      </trkpt>
      <trkpt lat="43.51524" lon="6.79214">
        <ele>178.3</ele>
        <time>2014-04-21T12:42:36Z</time>
      </trkpt>
      <trkpt lat="43.51504" lon="6.79231">
        <ele>179.3</ele>
        <time>2014-04-21T12:42:41Z</time>
      </trkpt>
      <trkpt lat="43.51495" lon="6.79234">
        <ele>179.3</ele>
        <time>2014-04-21T12:42:43Z</time>
      </trkpt>
      <trkpt lat="43.51481" lon="6.79234">
        <ele>179.3</ele>
        <time>2014-04-21T12:42:46Z</time>
      </trkpt>
      <trkpt lat="43.51468" lon="6.7923">
        <ele>180.3</ele>
        <time>2014-04-21T12:42:49Z</time>
      </trkpt>
      <trkpt lat="43.51458" lon="6.79225">
        <ele>179.3</ele>
        <time>2014-04-21T12:42:51Z</time>
      </trkpt>
      <trkpt lat="43.51449" lon="6.79221">
        <ele>180.3</ele>
        <time>2014-04-21T12:42:53Z</time>
      </trkpt>
      <trkpt lat="43.5144" lon="6.79218">
        <ele>180.3</ele>
        <time>2014-04-21T12:42:55Z</time>
      </trkpt>
      <trkpt lat="43.51431" lon="6.79216">
        <ele>180.3</ele>
        <time>2014-04-21T12:42:57Z</time>
      </trkpt>
      <trkpt lat="43.51417" lon="6.7921">
        <ele>180.3</ele>
        <time>2014-04-21T12:43:00Z</time>
      </trkpt>
      <trkpt lat="43.51408" lon="6.79204">
        <ele>180.3</ele>
        <time>2014-04-21T12:43:02Z</time>
      </trkpt>
      <trkpt lat="43.514" lon="6.79197">
        <ele>180.3</ele>
        <time>2014-04-21T12:43:04Z</time>
      </trkpt>
      <trkpt lat="43.51391" lon="6.79189">
        <ele>180.3</ele>
        <time>2014-04-21T12:43:06Z</time>
      </trkpt>
      <trkpt lat="43.51383" lon="6.79179">
        <ele>180.3</ele>
        <time>2014-04-21T12:43:08Z</time>
      </trkpt>
      <trkpt lat="43.51374" lon="6.7917">
        <ele>180.3</ele>
        <time>2014-04-21T12:43:10Z</time>
      </trkpt>
      <trkpt lat="43.51366" lon="6.79162">
        <ele>180.3</ele>
        <time>2014-04-21T12:43:12Z</time>
      </trkpt>
      <trkpt lat="43.51359" lon="6.79155">
        <ele>180.3</ele>
        <time>2014-04-21T12:43:14Z</time>
      </trkpt>
      <trkpt lat="43.51347" lon="6.79144">
        <ele>181.3</ele>
        <time>2014-04-21T12:43:17Z</time>
      </trkpt>
      <trkpt lat="43.51339" lon="6.79137">
        <ele>180.3</ele>
        <time>2014-04-21T12:43:19Z</time>
      </trkpt>
      <trkpt lat="43.51327" lon="6.79129">
        <ele>178.3</ele>
        <time>2014-04-21T12:43:22Z</time>
      </trkpt>
      <trkpt lat="43.51318" lon="6.79125">
        <ele>178.3</ele>
        <time>2014-04-21T12:43:24Z</time>
      </trkpt>
      <trkpt lat="43.51308" lon="6.79119">
        <ele>177.3</ele>
        <time>2014-04-21T12:43:26Z</time>
      </trkpt>
      <trkpt lat="43.513" lon="6.79112">
        <ele>177.3</ele>
        <time>2014-04-21T12:43:28Z</time>
      </trkpt>
      <trkpt lat="43.51291" lon="6.79104">
        <ele>177.3</ele>
        <time>2014-04-21T12:43:30Z</time>
      </trkpt>
      <trkpt lat="43.51283" lon="6.79095">
        <ele>177.3</ele>
        <time>2014-04-21T12:43:32Z</time>
      </trkpt>
      <trkpt lat="43.51276" lon="6.79087">
        <ele>177.3</ele>
        <time>2014-04-21T12:43:34Z</time>
      </trkpt>
      <trkpt lat="43.51266" lon="6.79075">
        <ele>176.3</ele>
        <time>2014-04-21T12:43:37Z</time>
      </trkpt>
      <trkpt lat="43.5125" lon="6.79053">
        <ele>177.3</ele>
        <time>2014-04-21T12:43:43Z</time>
      </trkpt>
      <trkpt lat="43.51243" lon="6.7904">
        <ele>176.3</ele>
        <time>2014-04-21T12:43:48Z</time>
      </trkpt>
      <trkpt lat="43.51235" lon="6.79033">
        <ele>175.3</ele>
        <time>2014-04-21T12:43:51Z</time>
      </trkpt>
      <trkpt lat="43.51226" lon="6.79039">
        <ele>176.3</ele>
        <time>2014-04-21T12:43:56Z</time>
      </trkpt>
      <trkpt lat="43.5122" lon="6.7905">
        <ele>177.3</ele>
        <time>2014-04-21T12:44:03Z</time>
      </trkpt>
      <trkpt lat="43.51211" lon="6.79057">
        <ele>176.3</ele>
        <time>2014-04-21T12:44:10Z</time>
      </trkpt>
      <trkpt lat="43.51202" lon="6.79059">
        <ele>176.3</ele>
        <time>2014-04-21T12:44:16Z</time>
      </trkpt>
      <trkpt lat="43.51193" lon="6.79063">
        <ele>176.3</ele>
        <time>2014-04-21T12:44:22Z</time>
      </trkpt>
      <trkpt lat="43.51185" lon="6.79067">
        <ele>177.3</ele>
        <time>2014-04-21T12:44:28Z</time>
      </trkpt>
      <trkpt lat="43.51176" lon="6.79072">
        <ele>180.3</ele>
        <time>2014-04-21T12:44:38Z</time>
      </trkpt>
      <trkpt lat="43.51158" lon="6.79079">
        <ele>178.3</ele>
        <time>2014-04-21T12:47:14Z</time>
      </trkpt>
      <trkpt lat="43.51129" lon="6.79085">
        <ele>179.3</ele>
        <time>2014-04-21T12:48:37Z</time>
      </trkpt>
      <trkpt lat="43.51118" lon="6.79084">
        <ele>179.3</ele>
        <time>2014-04-21T12:48:41Z</time>
      </trkpt>
      <trkpt lat="43.5111" lon="6.79092">
        <ele>179.3</ele>
        <time>2014-04-21T12:48:45Z</time>
      </trkpt>
      <trkpt lat="43.51104" lon="6.79102">
        <ele>179.3</ele>
        <time>2014-04-21T12:48:49Z</time>
      </trkpt>
      <trkpt lat="43.51096" lon="6.79112">
        <ele>178.3</ele>
        <time>2014-04-21T12:48:53Z</time>
      </trkpt>
      <trkpt lat="43.51089" lon="6.79119">
        <ele>180.3</ele>
        <time>2014-04-21T12:48:57Z</time>
      </trkpt>
      <trkpt lat="43.51085" lon="6.79131">
        <ele>182.3</ele>
        <time>2014-04-21T12:49:03Z</time>
      </trkpt>
      <trkpt lat="43.51077" lon="6.79138">
        <ele>183.3</ele>
        <time>2014-04-21T12:49:08Z</time>
      </trkpt>
      <trkpt lat="43.51069" lon="6.79148">
        <ele>185.3</ele>
        <time>2014-04-21T12:49:13Z</time>
      </trkpt>
      <trkpt lat="43.51061" lon="6.79155">
        <ele>186.3</ele>
        <time>2014-04-21T12:49:17Z</time>
      </trkpt>
      <trkpt lat="43.51052" lon="6.79162">
        <ele>186.3</ele>
        <time>2014-04-21T12:49:21Z</time>
      </trkpt>
      <trkpt lat="43.51042" lon="6.79167">
        <ele>187.3</ele>
        <time>2014-04-21T12:49:25Z</time>
      </trkpt>
      <trkpt lat="43.51033" lon="6.79173">
        <ele>187.3</ele>
        <time>2014-04-21T12:49:29Z</time>
      </trkpt>
      <trkpt lat="43.51017" lon="6.79193">
        <ele>188.3</ele>
        <time>2014-04-21T12:49:37Z</time>
      </trkpt>
      <trkpt lat="43.51009" lon="6.79202">
        <ele>189.3</ele>
        <time>2014-04-21T12:49:41Z</time>
      </trkpt>
      <trkpt lat="43.51" lon="6.79209">
        <ele>190.3</ele>
        <time>2014-04-21T12:49:45Z</time>
      </trkpt>
      <trkpt lat="43.50992" lon="6.79219">
        <ele>190.3</ele>
        <time>2014-04-21T12:49:49Z</time>
      </trkpt>
      <trkpt lat="43.50984" lon="6.79229">
        <ele>190.3</ele>
        <time>2014-04-21T12:49:53Z</time>
      </trkpt>
      <trkpt lat="43.50977" lon="6.7924">
        <ele>191.3</ele>
        <time>2014-04-21T12:49:57Z</time>
      </trkpt>
      <trkpt lat="43.50969" lon="6.7925">
        <ele>192.3</ele>
        <time>2014-04-21T12:50:01Z</time>
      </trkpt>
      <trkpt lat="43.50962" lon="6.7926">
        <ele>194.3</ele>
        <time>2014-04-21T12:50:05Z</time>
      </trkpt>
      <trkpt lat="43.50955" lon="6.79269">
        <ele>194.3</ele>
        <time>2014-04-21T12:50:09Z</time>
      </trkpt>
      <trkpt lat="43.50948" lon="6.79281">
        <ele>195.3</ele>
        <time>2014-04-21T12:50:13Z</time>
      </trkpt>
      <trkpt lat="43.5094" lon="6.79293">
        <ele>195.3</ele>
        <time>2014-04-21T12:50:17Z</time>
      </trkpt>
      <trkpt lat="43.50932" lon="6.79304">
        <ele>196.3</ele>
        <time>2014-04-21T12:50:21Z</time>
      </trkpt>
      <trkpt lat="43.50923" lon="6.79312">
        <ele>196.3</ele>
        <time>2014-04-21T12:50:25Z</time>
      </trkpt>
      <trkpt lat="43.50912" lon="6.79318">
        <ele>197.3</ele>
        <time>2014-04-21T12:50:29Z</time>
      </trkpt>
      <trkpt lat="43.50902" lon="6.7932">
        <ele>198.3</ele>
        <time>2014-04-21T12:50:33Z</time>
      </trkpt>
      <trkpt lat="43.50882" lon="6.79306">
        <ele>199.3</ele>
        <time>2014-04-21T12:50:41Z</time>
      </trkpt>
      <trkpt lat="43.50875" lon="6.79295">
        <ele>199.3</ele>
        <time>2014-04-21T12:50:45Z</time>
      </trkpt>
      <trkpt lat="43.50867" lon="6.79283">
        <ele>200.3</ele>
        <time>2014-04-21T12:50:50Z</time>
      </trkpt>
      <trkpt lat="43.50861" lon="6.79274">
        <ele>200.3</ele>
        <time>2014-04-21T12:50:54Z</time>
      </trkpt>
      <trkpt lat="43.50857" lon="6.79262">
        <ele>200.3</ele>
        <time>2014-04-21T12:50:59Z</time>
      </trkpt>
      <trkpt lat="43.50855" lon="6.79249">
        <ele>203.3</ele>
        <time>2014-04-21T12:51:04Z</time>
      </trkpt>
      <trkpt lat="43.50851" lon="6.79238">
        <ele>203.3</ele>
        <time>2014-04-21T12:51:08Z</time>
      </trkpt>
      <trkpt lat="43.50846" lon="6.79225">
        <ele>205.3</ele>
        <time>2014-04-21T12:51:12Z</time>
      </trkpt>
      <trkpt lat="43.5084" lon="6.79213">
        <ele>205.3</ele>
        <time>2014-04-21T12:51:16Z</time>
      </trkpt>
      <trkpt lat="43.50831" lon="6.79204">
        <ele>206.3</ele>
        <time>2014-04-21T12:51:20Z</time>
      </trkpt>
      <trkpt lat="43.50823" lon="6.79197">
        <ele>206.3</ele>
        <time>2014-04-21T12:51:24Z</time>
      </trkpt>
      <trkpt lat="43.50813" lon="6.79192">
        <ele>206.3</ele>
        <time>2014-04-21T12:51:28Z</time>
      </trkpt>
      <trkpt lat="43.50804" lon="6.79187">
        <ele>206.3</ele>
        <time>2014-04-21T12:51:32Z</time>
      </trkpt>
      <trkpt lat="43.50793" lon="6.79184">
        <ele>207.3</ele>
        <time>2014-04-21T12:51:36Z</time>
      </trkpt>
      <trkpt lat="43.50773" lon="6.79181">
        <ele>208.3</ele>
        <time>2014-04-21T12:51:44Z</time>
      </trkpt>
      <trkpt lat="43.50763" lon="6.79183">
        <ele>206.3</ele>
        <time>2014-04-21T12:51:48Z</time>
      </trkpt>
      <trkpt lat="43.5076" lon="6.79196">
        <ele>205.3</ele>
        <time>2014-04-21T12:51:53Z</time>
      </trkpt>
      <trkpt lat="43.50767" lon="6.79204">
        <ele>205.3</ele>
        <time>2014-04-21T12:51:57Z</time>
      </trkpt>
      <trkpt lat="43.50776" lon="6.79212">
        <ele>205.3</ele>
        <time>2014-04-21T12:52:01Z</time>
      </trkpt>
      <trkpt lat="43.50784" lon="6.79222">
        <ele>206.3</ele>
        <time>2014-04-21T12:52:05Z</time>
      </trkpt>
      <trkpt lat="43.50789" lon="6.79234">
        <ele>209.3</ele>
        <time>2014-04-21T12:52:09Z</time>
      </trkpt>
      <trkpt lat="43.50792" lon="6.79246">
        <ele>211.3</ele>
        <time>2014-04-21T12:52:13Z</time>
      </trkpt>
      <trkpt lat="43.50794" lon="6.79259">
        <ele>215.3</ele>
        <time>2014-04-21T12:52:18Z</time>
      </trkpt>
      <trkpt lat="43.50795" lon="6.79273">
        <ele>216.3</ele>
        <time>2014-04-21T12:52:23Z</time>
      </trkpt>
      <trkpt lat="43.50793" lon="6.79286">
        <ele>217.3</ele>
        <time>2014-04-21T12:52:28Z</time>
      </trkpt>
      <trkpt lat="43.5079" lon="6.793">
        <ele>217.3</ele>
        <time>2014-04-21T12:52:33Z</time>
      </trkpt>
      <trkpt lat="43.50785" lon="6.79313">
        <ele>219.3</ele>
        <time>2014-04-21T12:52:38Z</time>
      </trkpt>
      <trkpt lat="43.50769" lon="6.79329">
        <ele>222.3</ele>
        <time>2014-04-21T12:52:48Z</time>
      </trkpt>
      <trkpt lat="43.50761" lon="6.79334">
        <ele>224.3</ele>
        <time>2014-04-21T12:52:53Z</time>
      </trkpt>
      <trkpt lat="43.50754" lon="6.79343">
        <ele>225.3</ele>
        <time>2014-04-21T12:52:58Z</time>
      </trkpt>
      <trkpt lat="43.50752" lon="6.79356">
        <ele>225.3</ele>
        <time>2014-04-21T12:53:02Z</time>
      </trkpt>
      <trkpt lat="43.50756" lon="6.79368">
        <ele>225.3</ele>
        <time>2014-04-21T12:53:06Z</time>
      </trkpt>
      <trkpt lat="43.50761" lon="6.7938">
        <ele>226.3</ele>
        <time>2014-04-21T12:53:10Z</time>
      </trkpt>
      <trkpt lat="43.50765" lon="6.79391">
        <ele>226.3</ele>
        <time>2014-04-21T12:53:13Z</time>
      </trkpt>
      <trkpt lat="43.50769" lon="6.79405">
        <ele>225.3</ele>
        <time>2014-04-21T12:53:17Z</time>
      </trkpt>
      <trkpt lat="43.5077" lon="6.79419">
        <ele>225.3</ele>
        <time>2014-04-21T12:53:21Z</time>
      </trkpt>
      <trkpt lat="43.50771" lon="6.79431">
        <ele>227.3</ele>
        <time>2014-04-21T12:53:25Z</time>
      </trkpt>
      <trkpt lat="43.50768" lon="6.79446">
        <ele>229.3</ele>
        <time>2014-04-21T12:53:30Z</time>
      </trkpt>
      <trkpt lat="43.50764" lon="6.79458">
        <ele>231.3</ele>
        <time>2014-04-21T12:53:34Z</time>
      </trkpt>
      <trkpt lat="43.50758" lon="6.7947">
        <ele>232.3</ele>
        <time>2014-04-21T12:53:38Z</time>
      </trkpt>
      <trkpt lat="43.50751" lon="6.7948">
        <ele>232.3</ele>
        <time>2014-04-21T12:53:42Z</time>
      </trkpt>
      <trkpt lat="43.50738" lon="6.79502">
        <ele>236.3</ele>
        <time>2014-04-21T12:53:50Z</time>
      </trkpt>
      <trkpt lat="43.50735" lon="6.79516">
        <ele>237.3</ele>
        <time>2014-04-21T12:53:54Z</time>
      </trkpt>
      <trkpt lat="43.50732" lon="6.79528">
        <ele>239.3</ele>
        <time>2014-04-21T12:53:58Z</time>
      </trkpt>
      <trkpt lat="43.50727" lon="6.79539">
        <ele>242.3</ele>
        <time>2014-04-21T12:54:02Z</time>
      </trkpt>
      <trkpt lat="43.50719" lon="6.79549">
        <ele>241.3</ele>
        <time>2014-04-21T12:54:07Z</time>
      </trkpt>
      <trkpt lat="43.50708" lon="6.79552">
        <ele>239.3</ele>
        <time>2014-04-21T12:54:12Z</time>
      </trkpt>
      <trkpt lat="43.50699" lon="6.79545">
        <ele>242.3</ele>
        <time>2014-04-21T12:54:17Z</time>
      </trkpt>
      <trkpt lat="43.50689" lon="6.79538">
        <ele>243.3</ele>
        <time>2014-04-21T12:54:21Z</time>
      </trkpt>
      <trkpt lat="43.50681" lon="6.79532">
        <ele>243.3</ele>
        <time>2014-04-21T12:54:25Z</time>
      </trkpt>
      <trkpt lat="43.50672" lon="6.79523">
        <ele>242.3</ele>
        <time>2014-04-21T12:54:30Z</time>
      </trkpt>
      <trkpt lat="43.50664" lon="6.79513">
        <ele>241.3</ele>
        <time>2014-04-21T12:54:34Z</time>
      </trkpt>
      <trkpt lat="43.50658" lon="6.79505">
        <ele>243.3</ele>
        <time>2014-04-21T12:54:37Z</time>
      </trkpt>
      <trkpt lat="43.50652" lon="6.79494">
        <ele>245.3</ele>
        <time>2014-04-21T12:54:40Z</time>
      </trkpt>
      <trkpt lat="43.50646" lon="6.7948">
        <ele>247.3</ele>
        <time>2014-04-21T12:54:44Z</time>
      </trkpt>
      <trkpt lat="43.50636" lon="6.79455">
        <ele>249.3</ele>
        <time>2014-04-21T12:54:51Z</time>
      </trkpt>
      <trkpt lat="43.50629" lon="6.79442">
        <ele>249.3</ele>
        <time>2014-04-21T12:54:55Z</time>
      </trkpt>
      <trkpt lat="43.50622" lon="6.79433">
        <ele>249.3</ele>
        <time>2014-04-21T12:54:58Z</time>
      </trkpt>
      <trkpt lat="43.50616" lon="6.79425">
        <ele>250.3</ele>
        <time>2014-04-21T12:55:01Z</time>
      </trkpt>
      <trkpt lat="43.50607" lon="6.79415">
        <ele>249.3</ele>
        <time>2014-04-21T12:55:05Z</time>
      </trkpt>
      <trkpt lat="43.50596" lon="6.7941">
        <ele>251.3</ele>
        <time>2014-04-21T12:55:09Z</time>
      </trkpt>
      <trkpt lat="43.50584" lon="6.7941">
        <ele>253.3</ele>
        <time>2014-04-21T12:55:13Z</time>
      </trkpt>
      <trkpt lat="43.50572" lon="6.79414">
        <ele>254.3</ele>
        <time>2014-04-21T12:55:17Z</time>
      </trkpt>
      <trkpt lat="43.50563" lon="6.79418">
        <ele>254.3</ele>
        <time>2014-04-21T12:55:20Z</time>
      </trkpt>
      <trkpt lat="43.50553" lon="6.79424">
        <ele>256.3</ele>
        <time>2014-04-21T12:55:24Z</time>
      </trkpt>
      <trkpt lat="43.50544" lon="6.79429">
        <ele>255.3</ele>
        <time>2014-04-21T12:55:27Z</time>
      </trkpt>
      <trkpt lat="43.50537" lon="6.79437">
        <ele>255.3</ele>
        <time>2014-04-21T12:55:30Z</time>
      </trkpt>
      <trkpt lat="43.50529" lon="6.79447">
        <ele>258.3</ele>
        <time>2014-04-21T12:55:34Z</time>
      </trkpt>
      <trkpt lat="43.50521" lon="6.79457">
        <ele>258.3</ele>
        <time>2014-04-21T12:55:38Z</time>
      </trkpt>
      <trkpt lat="43.50514" lon="6.79468">
        <ele>261.3</ele>
        <time>2014-04-21T12:55:42Z</time>
      </trkpt>
      <trkpt lat="43.50509" lon="6.79481">
        <ele>263.3</ele>
        <time>2014-04-21T12:55:46Z</time>
      </trkpt>
      <trkpt lat="43.50498" lon="6.79505">
        <ele>265.3</ele>
        <time>2014-04-21T12:55:54Z</time>
      </trkpt>
      <trkpt lat="43.5049" lon="6.79513">
        <ele>265.3</ele>
        <time>2014-04-21T12:55:58Z</time>
      </trkpt>
      <trkpt lat="43.50481" lon="6.79521">
        <ele>266.3</ele>
        <time>2014-04-21T12:56:02Z</time>
      </trkpt>
      <trkpt lat="43.50471" lon="6.79529">
        <ele>266.3</ele>
        <time>2014-04-21T12:56:06Z</time>
      </trkpt>
      <trkpt lat="43.50462" lon="6.79538">
        <ele>266.3</ele>
        <time>2014-04-21T12:56:10Z</time>
      </trkpt>
      <trkpt lat="43.50453" lon="6.79547">
        <ele>266.3</ele>
        <time>2014-04-21T12:56:14Z</time>
      </trkpt>
      <trkpt lat="43.50446" lon="6.79557">
        <ele>267.3</ele>
        <time>2014-04-21T12:56:18Z</time>
      </trkpt>
      <trkpt lat="43.50435" lon="6.79555">
        <ele>268.3</ele>
        <time>2014-04-21T12:56:22Z</time>
      </trkpt>
      <trkpt lat="43.50435" lon="6.7954">
        <ele>268.3</ele>
        <time>2014-04-21T12:56:26Z</time>
      </trkpt>
      <trkpt lat="43.50442" lon="6.79532">
        <ele>268.3</ele>
        <time>2014-04-21T12:56:29Z</time>
      </trkpt>
      <trkpt lat="43.50448" lon="6.79522">
        <ele>267.3</ele>
        <time>2014-04-21T12:56:32Z</time>
      </trkpt>
      <trkpt lat="43.50447" lon="6.79507">
        <ele>269.3</ele>
        <time>2014-04-21T12:56:36Z</time>
      </trkpt>
      <trkpt lat="43.50436" lon="6.79503">
        <ele>267.3</ele>
        <time>2014-04-21T12:56:40Z</time>
      </trkpt>
      <trkpt lat="43.50429" lon="6.79511">
        <ele>269.3</ele>
        <time>2014-04-21T12:56:43Z</time>
      </trkpt>
      <trkpt lat="43.50425" lon="6.79525">
        <ele>272.3</ele>
        <time>2014-04-21T12:56:47Z</time>
      </trkpt>
      <trkpt lat="43.50412" lon="6.79543">
        <ele>275.3</ele>
        <time>2014-04-21T12:56:55Z</time>
      </trkpt>
      <trkpt lat="43.50403" lon="6.79549">
        <ele>275.3</ele>
        <time>2014-04-21T12:56:59Z</time>
      </trkpt>
      <trkpt lat="43.50395" lon="6.79558">
        <ele>275.3</ele>
        <time>2014-04-21T12:57:03Z</time>
      </trkpt>
      <trkpt lat="43.50387" lon="6.79568">
        <ele>276.3</ele>
        <time>2014-04-21T12:57:07Z</time>
      </trkpt>
      <trkpt lat="43.50379" lon="6.79578">
        <ele>279.3</ele>
        <time>2014-04-21T12:57:11Z</time>
      </trkpt>
      <trkpt lat="43.50372" lon="6.79587">
        <ele>279.3</ele>
        <time>2014-04-21T12:57:15Z</time>
      </trkpt>
      <trkpt lat="43.50365" lon="6.79597">
        <ele>279.3</ele>
        <time>2014-04-21T12:57:19Z</time>
      </trkpt>
      <trkpt lat="43.50355" lon="6.79596">
        <ele>279.3</ele>
        <time>2014-04-21T12:57:24Z</time>
      </trkpt>
      <trkpt lat="43.50358" lon="6.79581">
        <ele>279.3</ele>
        <time>2014-04-21T12:57:28Z</time>
      </trkpt>
      <trkpt lat="43.50366" lon="6.7957">
        <ele>280.3</ele>
        <time>2014-04-21T12:57:32Z</time>
      </trkpt>
      <trkpt lat="43.50369" lon="6.79557">
        <ele>282.3</ele>
        <time>2014-04-21T12:57:36Z</time>
      </trkpt>
      <trkpt lat="43.50367" lon="6.79543">
        <ele>282.3</ele>
        <time>2014-04-21T12:57:40Z</time>
      </trkpt>
      <trkpt lat="43.50361" lon="6.79532">
        <ele>284.3</ele>
        <time>2014-04-21T12:57:44Z</time>
      </trkpt>
      <trkpt lat="43.50354" lon="6.79523">
        <ele>285.3</ele>
        <time>2014-04-21T12:57:48Z</time>
      </trkpt>
      <trkpt lat="43.50337" lon="6.79513">
        <ele>287.3</ele>
        <time>2014-04-21T12:57:56Z</time>
      </trkpt>
      <trkpt lat="43.5033" lon="6.79522">
        <ele>285.3</ele>
        <time>2014-04-21T12:58:00Z</time>
      </trkpt>
      <trkpt lat="43.50334" lon="6.79534">
        <ele>286.3</ele>
        <time>2014-04-21T12:58:04Z</time>
      </trkpt>
      <trkpt lat="43.5034" lon="6.79545">
        <ele>287.3</ele>
        <time>2014-04-21T12:58:08Z</time>
      </trkpt>
      <trkpt lat="43.50345" lon="6.79555">
        <ele>285.3</ele>
        <time>2014-04-21T12:58:12Z</time>
      </trkpt>
      <trkpt lat="43.50343" lon="6.79568">
        <ele>289.3</ele>
        <time>2014-04-21T12:58:17Z</time>
      </trkpt>
      <trkpt lat="43.50332" lon="6.7957">
        <ele>290.3</ele>
        <time>2014-04-21T12:58:22Z</time>
      </trkpt>
      <trkpt lat="43.50326" lon="6.79561">
        <ele>290.3</ele>
        <time>2014-04-21T12:58:25Z</time>
      </trkpt>
      <trkpt lat="43.50323" lon="6.79545">
        <ele>291.3</ele>
        <time>2014-04-21T12:58:29Z</time>
      </trkpt>
      <trkpt lat="43.50317" lon="6.79534">
        <ele>291.3</ele>
        <time>2014-04-21T12:58:33Z</time>
      </trkpt>
      <trkpt lat="43.50308" lon="6.79526">
        <ele>292.3</ele>
        <time>2014-04-21T12:58:37Z</time>
      </trkpt>
      <trkpt lat="43.50299" lon="6.79522">
        <ele>292.3</ele>
        <time>2014-04-21T12:58:41Z</time>
      </trkpt>
      <trkpt lat="43.50288" lon="6.7952">
        <ele>293.3</ele>
        <time>2014-04-21T12:58:45Z</time>
      </trkpt>
      <trkpt lat="43.50278" lon="6.79522">
        <ele>293.3</ele>
        <time>2014-04-21T12:58:49Z</time>
      </trkpt>
      <trkpt lat="43.5026" lon="6.79534">
        <ele>296.3</ele>
        <time>2014-04-21T12:58:57Z</time>
      </trkpt>
      <trkpt lat="43.50251" lon="6.79536">
        <ele>297.3</ele>
        <time>2014-04-21T12:59:01Z</time>
      </trkpt>
      <trkpt lat="43.50241" lon="6.79532">
        <ele>298.3</ele>
        <time>2014-04-21T12:59:05Z</time>
      </trkpt>
      <trkpt lat="43.50232" lon="6.79524">
        <ele>298.3</ele>
        <time>2014-04-21T12:59:09Z</time>
      </trkpt>
      <trkpt lat="43.50224" lon="6.79515">
        <ele>298.3</ele>
        <time>2014-04-21T12:59:13Z</time>
      </trkpt>
      <trkpt lat="43.50219" lon="6.79503">
        <ele>299.3</ele>
        <time>2014-04-21T12:59:17Z</time>
      </trkpt>
      <trkpt lat="43.50218" lon="6.7949">
        <ele>303.3</ele>
        <time>2014-04-21T12:59:21Z</time>
      </trkpt>
      <trkpt lat="43.5022" lon="6.79475">
        <ele>303.3</ele>
        <time>2014-04-21T12:59:25Z</time>
      </trkpt>
      <trkpt lat="43.5022" lon="6.79461">
        <ele>307.3</ele>
        <time>2014-04-21T12:59:29Z</time>
      </trkpt>
      <trkpt lat="43.50218" lon="6.79447">
        <ele>308.3</ele>
        <time>2014-04-21T12:59:33Z</time>
      </trkpt>
      <trkpt lat="43.50215" lon="6.79432">
        <ele>310.3</ele>
        <time>2014-04-21T12:59:37Z</time>
      </trkpt>
      <trkpt lat="43.5021" lon="6.7942">
        <ele>310.3</ele>
        <time>2014-04-21T12:59:41Z</time>
      </trkpt>
      <trkpt lat="43.50208" lon="6.79407">
        <ele>311.3</ele>
        <time>2014-04-21T12:59:45Z</time>
      </trkpt>
      <trkpt lat="43.50212" lon="6.79392">
        <ele>313.3</ele>
        <time>2014-04-21T12:59:50Z</time>
      </trkpt>
      <trkpt lat="43.50224" lon="6.79372">
        <ele>314.3</ele>
        <time>2014-04-21T12:59:58Z</time>
      </trkpt>
      <trkpt lat="43.50222" lon="6.79357">
        <ele>314.3</ele>
        <time>2014-04-21T13:00:02Z</time>
      </trkpt>
      <trkpt lat="43.5021" lon="6.79353">
        <ele>314.3</ele>
        <time>2014-04-21T13:00:06Z</time>
      </trkpt>
      <trkpt lat="43.50202" lon="6.79359">
        <ele>314.3</ele>
        <time>2014-04-21T13:00:09Z</time>
      </trkpt>
      <trkpt lat="43.50196" lon="6.7937">
        <ele>315.3</ele>
        <time>2014-04-21T13:00:12Z</time>
      </trkpt>
      <trkpt lat="43.50192" lon="6.79382">
        <ele>315.3</ele>
        <time>2014-04-21T13:00:15Z</time>
      </trkpt>
      <trkpt lat="43.50187" lon="6.79395">
        <ele>316.3</ele>
        <time>2014-04-21T13:00:19Z</time>
      </trkpt>
      <trkpt lat="43.50182" lon="6.79407">
        <ele>316.3</ele>
        <time>2014-04-21T13:00:24Z</time>
      </trkpt>
      <trkpt lat="43.50173" lon="6.79407">
        <ele>316.3</ele>
        <time>2014-04-21T13:00:29Z</time>
      </trkpt>
      <trkpt lat="43.5018" lon="6.79415">
        <ele>317.3</ele>
        <time>2014-04-21T13:01:45Z</time>
      </trkpt>
      <trkpt lat="43.50198" lon="6.79387">
        <ele>316.3</ele>
        <time>2014-04-21T13:03:00Z</time>
      </trkpt>
      <trkpt lat="43.50202" lon="6.79375">
        <ele>317.3</ele>
        <time>2014-04-21T13:03:03Z</time>
      </trkpt>
      <trkpt lat="43.50207" lon="6.79365">
        <ele>316.3</ele>
        <time>2014-04-21T13:03:06Z</time>
      </trkpt>
      <trkpt lat="43.50212" lon="6.79354">
        <ele>316.3</ele>
        <time>2014-04-21T13:03:09Z</time>
      </trkpt>
      <trkpt lat="43.50216" lon="6.79339">
        <ele>317.3</ele>
        <time>2014-04-21T13:03:13Z</time>
      </trkpt>
      <trkpt lat="43.5021" lon="6.79328">
        <ele>317.3</ele>
        <time>2014-04-21T13:03:18Z</time>
      </trkpt>
      <trkpt lat="43.50216" lon="6.79317">
        <ele>315.3</ele>
        <time>2014-04-21T13:11:40Z</time>
      </trkpt>
      <trkpt lat="43.50238" lon="6.79304">
        <ele>314.3</ele>
        <time>2014-04-21T13:11:47Z</time>
      </trkpt>
      <trkpt lat="43.50246" lon="6.79289">
        <ele>314.3</ele>
        <time>2014-04-21T13:11:49Z</time>
      </trkpt>
      <trkpt lat="43.50254" lon="6.79278">
        <ele>313.3</ele>
        <time>2014-04-21T13:11:51Z</time>
      </trkpt>
      <trkpt lat="43.50265" lon="6.79277">
        <ele>313.3</ele>
        <time>2014-04-21T13:11:53Z</time>
      </trkpt>
      <trkpt lat="43.50278" lon="6.7928">
        <ele>314.3</ele>
        <time>2014-04-21T13:11:55Z</time>
      </trkpt>
      <trkpt lat="43.5029" lon="6.79286">
        <ele>314.3</ele>
        <time>2014-04-21T13:11:57Z</time>
      </trkpt>
      <trkpt lat="43.50305" lon="6.79288">
        <ele>312.3</ele>
        <time>2014-04-21T13:11:59Z</time>
      </trkpt>
      <trkpt lat="43.50319" lon="6.79286">
        <ele>311.3</ele>
        <time>2014-04-21T13:12:01Z</time>
      </trkpt>
      <trkpt lat="43.50333" lon="6.79279">
        <ele>310.3</ele>
        <time>2014-04-21T13:12:03Z</time>
      </trkpt>
      <trkpt lat="43.50346" lon="6.79267">
        <ele>310.3</ele>
        <time>2014-04-21T13:12:05Z</time>
      </trkpt>
      <trkpt lat="43.50357" lon="6.79252">
        <ele>308.3</ele>
        <time>2014-04-21T13:12:07Z</time>
      </trkpt>
      <trkpt lat="43.5037" lon="6.7924">
        <ele>311.3</ele>
        <time>2014-04-21T13:12:09Z</time>
      </trkpt>
      <trkpt lat="43.5038" lon="6.79222">
        <ele>311.3</ele>
        <time>2014-04-21T13:12:11Z</time>
      </trkpt>
      <trkpt lat="43.50383" lon="6.79201">
        <ele>310.3</ele>
        <time>2014-04-21T13:12:13Z</time>
      </trkpt>
      <trkpt lat="43.50384" lon="6.7918">
        <ele>309.3</ele>
        <time>2014-04-21T13:12:15Z</time>
      </trkpt>
      <trkpt lat="43.50388" lon="6.79161">
        <ele>308.3</ele>
        <time>2014-04-21T13:12:17Z</time>
      </trkpt>
      <trkpt lat="43.50395" lon="6.79149">
        <ele>306.3</ele>
        <time>2014-04-21T13:12:18Z</time>
      </trkpt>
      <trkpt lat="43.50405" lon="6.79131">
        <ele>304.3</ele>
        <time>2014-04-21T13:12:20Z</time>
      </trkpt>
      <trkpt lat="43.50416" lon="6.79117">
        <ele>303.3</ele>
        <time>2014-04-21T13:12:22Z</time>
      </trkpt>
      <trkpt lat="43.50422" lon="6.79099">
        <ele>302.3</ele>
        <time>2014-04-21T13:12:24Z</time>
      </trkpt>
      <trkpt lat="43.5042" lon="6.79077">
        <ele>300.3</ele>
        <time>2014-04-21T13:12:26Z</time>
      </trkpt>
      <trkpt lat="43.50417" lon="6.79059">
        <ele>298.3</ele>
        <time>2014-04-21T13:12:28Z</time>
      </trkpt>
      <trkpt lat="43.50422" lon="6.79047">
        <ele>297.3</ele>
        <time>2014-04-21T13:12:30Z</time>
      </trkpt>
      <trkpt lat="43.50432" lon="6.79046">
        <ele>296.3</ele>
        <time>2014-04-21T13:12:32Z</time>
      </trkpt>
      <trkpt lat="43.50442" lon="6.79053">
        <ele>297.3</ele>
        <time>2014-04-21T13:12:34Z</time>
      </trkpt>
      <trkpt lat="43.50453" lon="6.79059">
        <ele>295.3</ele>
        <time>2014-04-21T13:12:36Z</time>
      </trkpt>
      <trkpt lat="43.50467" lon="6.79061">
        <ele>294.3</ele>
        <time>2014-04-21T13:12:38Z</time>
      </trkpt>
      <trkpt lat="43.50481" lon="6.79069">
        <ele>292.3</ele>
        <time>2014-04-21T13:12:40Z</time>
      </trkpt>
      <trkpt lat="43.50494" lon="6.7908">
        <ele>292.3</ele>
        <time>2014-04-21T13:12:42Z</time>
      </trkpt>
      <trkpt lat="43.50521" lon="6.79075">
        <ele>291.3</ele>
        <time>2014-04-21T13:12:46Z</time>
      </trkpt>
      <trkpt lat="43.50528" lon="6.79064">
        <ele>290.3</ele>
        <time>2014-04-21T13:12:48Z</time>
      </trkpt>
      <trkpt lat="43.50534" lon="6.79053">
        <ele>286.3</ele>
        <time>2014-04-21T13:12:52Z</time>
      </trkpt>
      <trkpt lat="43.50542" lon="6.79043">
        <ele>284.3</ele>
        <time>2014-04-21T13:14:18Z</time>
      </trkpt>
      <trkpt lat="43.50556" lon="6.79011">
        <ele>286.3</ele>
        <time>2014-04-21T13:14:23Z</time>
      </trkpt>
      <trkpt lat="43.50561" lon="6.78997">
        <ele>286.3</ele>
        <time>2014-04-21T13:14:25Z</time>
      </trkpt>
      <trkpt lat="43.50566" lon="6.78986">
        <ele>286.3</ele>
        <time>2014-04-21T13:14:27Z</time>
      </trkpt>
      <trkpt lat="43.50571" lon="6.78972">
        <ele>288.3</ele>
        <time>2014-04-21T13:14:29Z</time>
      </trkpt>
      <trkpt lat="43.50574" lon="6.78958">
        <ele>289.3</ele>
        <time>2014-04-21T13:14:31Z</time>
      </trkpt>
      <trkpt lat="43.50573" lon="6.78942">
        <ele>289.3</ele>
        <time>2014-04-21T13:14:33Z</time>
      </trkpt>
      <trkpt lat="43.50569" lon="6.78924">
        <ele>287.3</ele>
        <time>2014-04-21T13:14:35Z</time>
      </trkpt>
      <trkpt lat="43.50565" lon="6.7891">
        <ele>286.3</ele>
        <time>2014-04-21T13:14:37Z</time>
      </trkpt>
      <trkpt lat="43.50555" lon="6.78899">
        <ele>286.3</ele>
        <time>2014-04-21T13:14:39Z</time>
      </trkpt>
      <trkpt lat="43.50544" lon="6.78889">
        <ele>286.3</ele>
        <time>2014-04-21T13:14:41Z</time>
      </trkpt>
      <trkpt lat="43.50537" lon="6.78875">
        <ele>285.3</ele>
        <time>2014-04-21T13:14:43Z</time>
      </trkpt>
      <trkpt lat="43.50533" lon="6.7886">
        <ele>284.3</ele>
        <time>2014-04-21T13:14:45Z</time>
      </trkpt>
      <trkpt lat="43.50534" lon="6.78845">
        <ele>282.3</ele>
        <time>2014-04-21T13:14:47Z</time>
      </trkpt>
      <trkpt lat="43.50537" lon="6.78828">
        <ele>281.3</ele>
        <time>2014-04-21T13:14:49Z</time>
      </trkpt>
      <trkpt lat="43.50542" lon="6.78811">
        <ele>279.3</ele>
        <time>2014-04-21T13:14:51Z</time>
      </trkpt>
      <trkpt lat="43.50551" lon="6.78796">
        <ele>279.3</ele>
        <time>2014-04-21T13:14:53Z</time>
      </trkpt>
      <trkpt lat="43.50564" lon="6.78785">
        <ele>278.3</ele>
        <time>2014-04-21T13:14:55Z</time>
      </trkpt>
      <trkpt lat="43.50574" lon="6.7877">
        <ele>277.3</ele>
        <time>2014-04-21T13:14:57Z</time>
      </trkpt>
      <trkpt lat="43.50579" lon="6.78751">
        <ele>276.3</ele>
        <time>2014-04-21T13:14:59Z</time>
      </trkpt>
      <trkpt lat="43.50582" lon="6.78728">
        <ele>277.3</ele>
        <time>2014-04-21T13:15:01Z</time>
      </trkpt>
      <trkpt lat="43.50582" lon="6.78709">
        <ele>278.3</ele>
        <time>2014-04-21T13:15:03Z</time>
      </trkpt>
      <trkpt lat="43.50578" lon="6.78688">
        <ele>277.3</ele>
        <time>2014-04-21T13:15:05Z</time>
      </trkpt>
      <trkpt lat="43.50572" lon="6.7867">
        <ele>277.3</ele>
        <time>2014-04-21T13:15:07Z</time>
      </trkpt>
      <trkpt lat="43.50564" lon="6.78654">
        <ele>277.3</ele>
        <time>2014-04-21T13:15:09Z</time>
      </trkpt>
      <trkpt lat="43.50559" lon="6.78638">
        <ele>278.3</ele>
        <time>2014-04-21T13:15:11Z</time>
      </trkpt>
      <trkpt lat="43.50554" lon="6.78621">
        <ele>278.3</ele>
        <time>2014-04-21T13:15:13Z</time>
      </trkpt>
      <trkpt lat="43.50553" lon="6.78608">
        <ele>277.3</ele>
        <time>2014-04-21T13:15:15Z</time>
      </trkpt>
      <trkpt lat="43.5055" lon="6.78592">
        <ele>276.3</ele>
        <time>2014-04-21T13:15:17Z</time>
      </trkpt>
      <trkpt lat="43.50547" lon="6.78575">
        <ele>276.3</ele>
        <time>2014-04-21T13:15:19Z</time>
      </trkpt>
      <trkpt lat="43.50559" lon="6.7855">
        <ele>274.3</ele>
        <time>2014-04-21T13:15:24Z</time>
      </trkpt>
      <trkpt lat="43.50564" lon="6.7856">
        <ele>273.3</ele>
        <time>2014-04-21T13:15:25Z</time>
      </trkpt>
      <trkpt lat="43.50576" lon="6.78567">
        <ele>276.3</ele>
        <time>2014-04-21T13:15:27Z</time>
      </trkpt>
      <trkpt lat="43.50585" lon="6.78574">
        <ele>274.3</ele>
        <time>2014-04-21T13:15:29Z</time>
      </trkpt>
      <trkpt lat="43.50596" lon="6.78583">
        <ele>274.3</ele>
        <time>2014-04-21T13:15:31Z</time>
      </trkpt>
      <trkpt lat="43.5061" lon="6.78589">
        <ele>274.3</ele>
        <time>2014-04-21T13:15:33Z</time>
      </trkpt>
      <trkpt lat="43.50624" lon="6.7859">
        <ele>273.3</ele>
        <time>2014-04-21T13:15:35Z</time>
      </trkpt>
      <trkpt lat="43.50638" lon="6.78586">
        <ele>269.3</ele>
        <time>2014-04-21T13:15:37Z</time>
      </trkpt>
      <trkpt lat="43.50653" lon="6.78585">
        <ele>269.3</ele>
        <time>2014-04-21T13:15:39Z</time>
      </trkpt>
      <trkpt lat="43.50669" lon="6.78588">
        <ele>270.3</ele>
        <time>2014-04-21T13:15:41Z</time>
      </trkpt>
      <trkpt lat="43.50685" lon="6.7859">
        <ele>270.3</ele>
        <time>2014-04-21T13:15:43Z</time>
      </trkpt>
      <trkpt lat="43.507" lon="6.78592">
        <ele>270.3</ele>
        <time>2014-04-21T13:15:45Z</time>
      </trkpt>
      <trkpt lat="43.50716" lon="6.78598">
        <ele>271.3</ele>
        <time>2014-04-21T13:15:47Z</time>
      </trkpt>
      <trkpt lat="43.50729" lon="6.78608">
        <ele>271.3</ele>
        <time>2014-04-21T13:15:49Z</time>
      </trkpt>
      <trkpt lat="43.50743" lon="6.78615">
        <ele>271.3</ele>
        <time>2014-04-21T13:15:51Z</time>
      </trkpt>
      <trkpt lat="43.50757" lon="6.78614">
        <ele>268.3</ele>
        <time>2014-04-21T13:15:53Z</time>
      </trkpt>
      <trkpt lat="43.50772" lon="6.78609">
        <ele>269.3</ele>
        <time>2014-04-21T13:15:55Z</time>
      </trkpt>
      <trkpt lat="43.50785" lon="6.78598">
        <ele>270.3</ele>
        <time>2014-04-21T13:15:57Z</time>
      </trkpt>
      <trkpt lat="43.50796" lon="6.78587">
        <ele>270.3</ele>
        <time>2014-04-21T13:15:59Z</time>
      </trkpt>
      <trkpt lat="43.50807" lon="6.78577">
        <ele>270.3</ele>
        <time>2014-04-21T13:16:01Z</time>
      </trkpt>
      <trkpt lat="43.50819" lon="6.78565">
        <ele>268.3</ele>
        <time>2014-04-21T13:16:03Z</time>
      </trkpt>
      <trkpt lat="43.50831" lon="6.7856">
        <ele>268.3</ele>
        <time>2014-04-21T13:16:05Z</time>
      </trkpt>
      <trkpt lat="43.50844" lon="6.78555">
        <ele>268.3</ele>
        <time>2014-04-21T13:16:07Z</time>
      </trkpt>
      <trkpt lat="43.50856" lon="6.78547">
        <ele>266.3</ele>
        <time>2014-04-21T13:16:09Z</time>
      </trkpt>
      <trkpt lat="43.5087" lon="6.78544">
        <ele>265.3</ele>
        <time>2014-04-21T13:16:11Z</time>
      </trkpt>
      <trkpt lat="43.50883" lon="6.78539">
        <ele>263.3</ele>
        <time>2014-04-21T13:16:13Z</time>
      </trkpt>
      <trkpt lat="43.50896" lon="6.78537">
        <ele>263.3</ele>
        <time>2014-04-21T13:16:15Z</time>
      </trkpt>
      <trkpt lat="43.50907" lon="6.78535">
        <ele>265.3</ele>
        <time>2014-04-21T13:16:17Z</time>
      </trkpt>
      <trkpt lat="43.50918" lon="6.78528">
        <ele>266.3</ele>
        <time>2014-04-21T13:16:19Z</time>
      </trkpt>
      <trkpt lat="43.50924" lon="6.78518">
        <ele>267.3</ele>
        <time>2014-04-21T13:16:21Z</time>
      </trkpt>
      <trkpt lat="43.5092" lon="6.7849">
        <ele>263.3</ele>
        <time>2014-04-21T13:16:25Z</time>
      </trkpt>
      <trkpt lat="43.50911" lon="6.78477">
        <ele>262.3</ele>
        <time>2014-04-21T13:16:27Z</time>
      </trkpt>
      <trkpt lat="43.50901" lon="6.78466">
        <ele>261.3</ele>
        <time>2014-04-21T13:16:29Z</time>
      </trkpt>
      <trkpt lat="43.50891" lon="6.78454">
        <ele>259.3</ele>
        <time>2014-04-21T13:16:31Z</time>
      </trkpt>
      <trkpt lat="43.50884" lon="6.78439">
        <ele>259.3</ele>
        <time>2014-04-21T13:16:33Z</time>
      </trkpt>
      <trkpt lat="43.50877" lon="6.78425">
        <ele>259.3</ele>
        <time>2014-04-21T13:16:35Z</time>
      </trkpt>
      <trkpt lat="43.50869" lon="6.7841">
        <ele>259.3</ele>
        <time>2014-04-21T13:16:37Z</time>
      </trkpt>
      <trkpt lat="43.50864" lon="6.78394">
        <ele>258.3</ele>
        <time>2014-04-21T13:16:39Z</time>
      </trkpt>
      <trkpt lat="43.50866" lon="6.78377">
        <ele>259.3</ele>
        <time>2014-04-21T13:16:41Z</time>
      </trkpt>
      <trkpt lat="43.50873" lon="6.78363">
        <ele>259.3</ele>
        <time>2014-04-21T13:16:43Z</time>
      </trkpt>
      <trkpt lat="43.50881" lon="6.78349">
        <ele>259.3</ele>
        <time>2014-04-21T13:16:45Z</time>
      </trkpt>
      <trkpt lat="43.5089" lon="6.78335">
        <ele>259.3</ele>
        <time>2014-04-21T13:16:47Z</time>
      </trkpt>
      <trkpt lat="43.50901" lon="6.7832">
        <ele>261.3</ele>
        <time>2014-04-21T13:16:49Z</time>
      </trkpt>
      <trkpt lat="43.50908" lon="6.7831">
        <ele>258.3</ele>
        <time>2014-04-21T13:16:50Z</time>
      </trkpt>
      <trkpt lat="43.50918" lon="6.78296">
        <ele>255.3</ele>
        <time>2014-04-21T13:16:52Z</time>
      </trkpt>
      <trkpt lat="43.50929" lon="6.78281">
        <ele>255.3</ele>
        <time>2014-04-21T13:16:54Z</time>
      </trkpt>
      <trkpt lat="43.50939" lon="6.78268">
        <ele>256.3</ele>
        <time>2014-04-21T13:16:56Z</time>
      </trkpt>
      <trkpt lat="43.5095" lon="6.78255">
        <ele>255.3</ele>
        <time>2014-04-21T13:16:58Z</time>
      </trkpt>
      <trkpt lat="43.50962" lon="6.78246">
        <ele>256.3</ele>
        <time>2014-04-21T13:17:00Z</time>
      </trkpt>
      <trkpt lat="43.50973" lon="6.78238">
        <ele>255.3</ele>
        <time>2014-04-21T13:17:02Z</time>
      </trkpt>
      <trkpt lat="43.50984" lon="6.78228">
        <ele>254.3</ele>
        <time>2014-04-21T13:17:04Z</time>
      </trkpt>
      <trkpt lat="43.50997" lon="6.78222">
        <ele>252.3</ele>
        <time>2014-04-21T13:17:06Z</time>
      </trkpt>
      <trkpt lat="43.51012" lon="6.78212">
        <ele>248.3</ele>
        <time>2014-04-21T13:17:08Z</time>
      </trkpt>
      <trkpt lat="43.51027" lon="6.78204">
        <ele>246.3</ele>
        <time>2014-04-21T13:17:10Z</time>
      </trkpt>
      <trkpt lat="43.51042" lon="6.782">
        <ele>245.3</ele>
        <time>2014-04-21T13:17:12Z</time>
      </trkpt>
      <trkpt lat="43.51056" lon="6.78189">
        <ele>242.3</ele>
        <time>2014-04-21T13:17:14Z</time>
      </trkpt>
      <trkpt lat="43.51063" lon="6.7818">
        <ele>239.3</ele>
        <time>2014-04-21T13:17:15Z</time>
      </trkpt>
      <trkpt lat="43.51075" lon="6.78167">
        <ele>241.3</ele>
        <time>2014-04-21T13:17:17Z</time>
      </trkpt>
      <trkpt lat="43.51082" lon="6.78152">
        <ele>242.3</ele>
        <time>2014-04-21T13:17:19Z</time>
      </trkpt>
      <trkpt lat="43.51085" lon="6.78134">
        <ele>243.3</ele>
        <time>2014-04-21T13:17:21Z</time>
      </trkpt>
      <trkpt lat="43.51086" lon="6.78118">
        <ele>244.3</ele>
        <time>2014-04-21T13:17:23Z</time>
      </trkpt>
      <trkpt lat="43.51095" lon="6.78087">
        <ele>244.3</ele>
        <time>2014-04-21T13:17:27Z</time>
      </trkpt>
      <trkpt lat="43.51099" lon="6.7807">
        <ele>244.3</ele>
        <time>2014-04-21T13:17:29Z</time>
      </trkpt>
      <trkpt lat="43.51104" lon="6.78054">
        <ele>244.3</ele>
        <time>2014-04-21T13:17:31Z</time>
      </trkpt>
      <trkpt lat="43.51109" lon="6.78038">
        <ele>244.3</ele>
        <time>2014-04-21T13:17:33Z</time>
      </trkpt>
      <trkpt lat="43.51112" lon="6.78019">
        <ele>244.3</ele>
        <time>2014-04-21T13:17:35Z</time>
      </trkpt>
      <trkpt lat="43.51113" lon="6.78001">
        <ele>244.3</ele>
        <time>2014-04-21T13:17:37Z</time>
      </trkpt>
      <trkpt lat="43.51114" lon="6.77983">
        <ele>244.3</ele>
        <time>2014-04-21T13:17:39Z</time>
      </trkpt>
      <trkpt lat="43.51114" lon="6.77964">
        <ele>243.3</ele>
        <time>2014-04-21T13:17:41Z</time>
      </trkpt>
      <trkpt lat="43.51117" lon="6.77944">
        <ele>243.3</ele>
        <time>2014-04-21T13:17:43Z</time>
      </trkpt>
      <trkpt lat="43.51124" lon="6.77923">
        <ele>241.3</ele>
        <time>2014-04-21T13:17:45Z</time>
      </trkpt>
      <trkpt lat="43.51128" lon="6.77904">
        <ele>240.3</ele>
        <time>2014-04-21T13:17:47Z</time>
      </trkpt>
      <trkpt lat="43.51131" lon="6.77889">
        <ele>239.3</ele>
        <time>2014-04-21T13:17:49Z</time>
      </trkpt>
      <trkpt lat="43.51131" lon="6.77875">
        <ele>239.3</ele>
        <time>2014-04-21T13:17:51Z</time>
      </trkpt>
      <trkpt lat="43.51123" lon="6.77863">
        <ele>237.3</ele>
        <time>2014-04-21T13:17:53Z</time>
      </trkpt>
      <trkpt lat="43.51111" lon="6.77854">
        <ele>236.3</ele>
        <time>2014-04-21T13:17:55Z</time>
      </trkpt>
      <trkpt lat="43.51097" lon="6.77849">
        <ele>234.3</ele>
        <time>2014-04-21T13:17:57Z</time>
      </trkpt>
      <trkpt lat="43.5108" lon="6.77847">
        <ele>233.3</ele>
        <time>2014-04-21T13:17:59Z</time>
      </trkpt>
      <trkpt lat="43.51063" lon="6.77847">
        <ele>231.3</ele>
        <time>2014-04-21T13:18:01Z</time>
      </trkpt>
      <trkpt lat="43.51048" lon="6.77849">
        <ele>231.3</ele>
        <time>2014-04-21T13:18:03Z</time>
      </trkpt>
      <trkpt lat="43.51032" lon="6.77853">
        <ele>230.3</ele>
        <time>2014-04-21T13:18:05Z</time>
      </trkpt>
      <trkpt lat="43.51023" lon="6.77855">
        <ele>230.3</ele>
        <time>2014-04-21T13:18:06Z</time>
      </trkpt>
      <trkpt lat="43.51013" lon="6.77858">
        <ele>229.3</ele>
        <time>2014-04-21T13:18:07Z</time>
      </trkpt>
      <trkpt lat="43.51002" lon="6.77861">
        <ele>229.3</ele>
        <time>2014-04-21T13:18:08Z</time>
      </trkpt>
      <trkpt lat="43.50993" lon="6.77863">
        <ele>229.3</ele>
        <time>2014-04-21T13:18:09Z</time>
      </trkpt>
      <trkpt lat="43.50977" lon="6.77868">
        <ele>227.3</ele>
        <time>2014-04-21T13:18:11Z</time>
      </trkpt>
      <trkpt lat="43.50961" lon="6.77866">
        <ele>225.3</ele>
        <time>2014-04-21T13:18:13Z</time>
      </trkpt>
      <trkpt lat="43.50944" lon="6.77857">
        <ele>222.3</ele>
        <time>2014-04-21T13:18:15Z</time>
      </trkpt>
      <trkpt lat="43.50926" lon="6.77849">
        <ele>220.3</ele>
        <time>2014-04-21T13:18:17Z</time>
      </trkpt>
      <trkpt lat="43.50917" lon="6.77846">
        <ele>219.3</ele>
        <time>2014-04-21T13:18:18Z</time>
      </trkpt>
      <trkpt lat="43.50906" lon="6.77844">
        <ele>218.3</ele>
        <time>2014-04-21T13:18:19Z</time>
      </trkpt>
      <trkpt lat="43.50896" lon="6.77843">
        <ele>217.3</ele>
        <time>2014-04-21T13:18:20Z</time>
      </trkpt>
      <trkpt lat="43.50886" lon="6.77841">
        <ele>216.3</ele>
        <time>2014-04-21T13:18:21Z</time>
      </trkpt>
      <trkpt lat="43.50876" lon="6.77839">
        <ele>215.3</ele>
        <time>2014-04-21T13:18:22Z</time>
      </trkpt>
      <trkpt lat="43.50867" lon="6.77838">
        <ele>214.3</ele>
        <time>2014-04-21T13:18:23Z</time>
      </trkpt>
      <trkpt lat="43.50848" lon="6.77835">
        <ele>214.3</ele>
        <time>2014-04-21T13:18:25Z</time>
      </trkpt>
      <trkpt lat="43.50828" lon="6.77833">
        <ele>212.3</ele>
        <time>2014-04-21T13:18:27Z</time>
      </trkpt>
      <trkpt lat="43.50818" lon="6.77833">
        <ele>210.3</ele>
        <time>2014-04-21T13:18:28Z</time>
      </trkpt>
      <trkpt lat="43.50808" lon="6.77831">
        <ele>209.3</ele>
        <time>2014-04-21T13:18:29Z</time>
      </trkpt>
      <trkpt lat="43.50792" lon="6.77829">
        <ele>208.3</ele>
        <time>2014-04-21T13:18:31Z</time>
      </trkpt>
      <trkpt lat="43.50776" lon="6.77818">
        <ele>205.3</ele>
        <time>2014-04-21T13:18:33Z</time>
      </trkpt>
      <trkpt lat="43.50767" lon="6.77814">
        <ele>205.3</ele>
        <time>2014-04-21T13:18:34Z</time>
      </trkpt>
      <trkpt lat="43.5075" lon="6.77807">
        <ele>203.3</ele>
        <time>2014-04-21T13:18:36Z</time>
      </trkpt>
      <trkpt lat="43.50742" lon="6.77803">
        <ele>203.3</ele>
        <time>2014-04-21T13:18:38Z</time>
      </trkpt>
      <trkpt lat="43.50737" lon="6.77791">
        <ele>206.3</ele>
        <time>2014-04-21T13:18:44Z</time>
      </trkpt>
      <trkpt lat="43.50731" lon="6.77778">
        <ele>201.3</ele>
        <time>2014-04-21T13:19:37Z</time>
      </trkpt>
      <trkpt lat="43.50752" lon="6.7775">
        <ele>198.3</ele>
        <time>2014-04-21T13:19:42Z</time>
      </trkpt>
      <trkpt lat="43.50765" lon="6.77735">
        <ele>197.3</ele>
        <time>2014-04-21T13:19:44Z</time>
      </trkpt>
      <trkpt lat="43.50773" lon="6.77716">
        <ele>197.3</ele>
        <time>2014-04-21T13:19:46Z</time>
      </trkpt>
      <trkpt lat="43.50772" lon="6.77694">
        <ele>196.3</ele>
        <time>2014-04-21T13:19:48Z</time>
      </trkpt>
      <trkpt lat="43.50762" lon="6.77678">
        <ele>195.3</ele>
        <time>2014-04-21T13:19:50Z</time>
      </trkpt>
      <trkpt lat="43.5075" lon="6.77669">
        <ele>196.3</ele>
        <time>2014-04-21T13:19:52Z</time>
      </trkpt>
      <trkpt lat="43.50736" lon="6.77661">
        <ele>194.3</ele>
        <time>2014-04-21T13:19:54Z</time>
      </trkpt>
      <trkpt lat="43.50723" lon="6.77649">
        <ele>194.3</ele>
        <time>2014-04-21T13:19:56Z</time>
      </trkpt>
      <trkpt lat="43.50715" lon="6.77641">
        <ele>191.3</ele>
        <time>2014-04-21T13:19:57Z</time>
      </trkpt>
      <trkpt lat="43.50708" lon="6.77631">
        <ele>189.3</ele>
        <time>2014-04-21T13:19:58Z</time>
      </trkpt>
      <trkpt lat="43.50696" lon="6.77613">
        <ele>187.3</ele>
        <time>2014-04-21T13:20:00Z</time>
      </trkpt>
      <trkpt lat="43.50695" lon="6.77599">
        <ele>186.3</ele>
        <time>2014-04-21T13:20:01Z</time>
      </trkpt>
      <trkpt lat="43.50694" lon="6.77579">
        <ele>184.3</ele>
        <time>2014-04-21T13:20:03Z</time>
      </trkpt>
      <trkpt lat="43.50696" lon="6.77557">
        <ele>182.3</ele>
        <time>2014-04-21T13:20:05Z</time>
      </trkpt>
      <trkpt lat="43.50701" lon="6.77536">
        <ele>180.3</ele>
        <time>2014-04-21T13:20:07Z</time>
      </trkpt>
      <trkpt lat="43.50705" lon="6.77516">
        <ele>183.3</ele>
        <time>2014-04-21T13:20:09Z</time>
      </trkpt>
      <trkpt lat="43.50707" lon="6.77495">
        <ele>182.3</ele>
        <time>2014-04-21T13:20:11Z</time>
      </trkpt>
      <trkpt lat="43.50705" lon="6.77478">
        <ele>179.3</ele>
        <time>2014-04-21T13:20:13Z</time>
      </trkpt>
      <trkpt lat="43.507" lon="6.77464">
        <ele>178.3</ele>
        <time>2014-04-21T13:20:15Z</time>
      </trkpt>
      <trkpt lat="43.50699" lon="6.77451">
        <ele>175.3</ele>
        <time>2014-04-21T13:20:18Z</time>
      </trkpt>
      <trkpt lat="43.507" lon="6.77438">
        <ele>174.3</ele>
        <time>2014-04-21T13:20:27Z</time>
      </trkpt>
      <trkpt lat="43.50704" lon="6.77425">
        <ele>174.3</ele>
        <time>2014-04-21T13:20:30Z</time>
      </trkpt>
      <trkpt lat="43.50709" lon="6.77409">
        <ele>172.3</ele>
        <time>2014-04-21T13:20:31Z</time>
      </trkpt>
      <trkpt lat="43.50715" lon="6.77387">
        <ele>169.3</ele>
        <time>2014-04-21T13:20:33Z</time>
      </trkpt>
      <trkpt lat="43.50716" lon="6.77367">
        <ele>168.3</ele>
        <time>2014-04-21T13:20:35Z</time>
      </trkpt>
      <trkpt lat="43.50715" lon="6.77348">
        <ele>167.3</ele>
        <time>2014-04-21T13:20:37Z</time>
      </trkpt>
      <trkpt lat="43.50718" lon="6.77312">
        <ele>161.3</ele>
        <time>2014-04-21T13:20:41Z</time>
      </trkpt>
      <trkpt lat="43.5073" lon="6.77297">
        <ele>160.3</ele>
        <time>2014-04-21T13:20:43Z</time>
      </trkpt>
      <trkpt lat="43.50745" lon="6.77285">
        <ele>157.3</ele>
        <time>2014-04-21T13:20:45Z</time>
      </trkpt>
      <trkpt lat="43.50754" lon="6.7728">
        <ele>156.3</ele>
        <time>2014-04-21T13:20:46Z</time>
      </trkpt>
      <trkpt lat="43.50763" lon="6.77274">
        <ele>155.3</ele>
        <time>2014-04-21T13:20:47Z</time>
      </trkpt>
      <trkpt lat="43.50778" lon="6.77266">
        <ele>151.3</ele>
        <time>2014-04-21T13:20:49Z</time>
      </trkpt>
      <trkpt lat="43.50795" lon="6.77265">
        <ele>149.3</ele>
        <time>2014-04-21T13:20:51Z</time>
      </trkpt>
      <trkpt lat="43.50809" lon="6.77271">
        <ele>147.3</ele>
        <time>2014-04-21T13:20:53Z</time>
      </trkpt>
      <trkpt lat="43.50822" lon="6.77275">
        <ele>146.3</ele>
        <time>2014-04-21T13:20:55Z</time>
      </trkpt>
      <trkpt lat="43.50834" lon="6.77268">
        <ele>146.3</ele>
        <time>2014-04-21T13:20:57Z</time>
      </trkpt>
      <trkpt lat="43.50845" lon="6.77253">
        <ele>148.3</ele>
        <time>2014-04-21T13:20:59Z</time>
      </trkpt>
      <trkpt lat="43.50859" lon="6.77239">
        <ele>148.3</ele>
        <time>2014-04-21T13:21:01Z</time>
      </trkpt>
      <trkpt lat="43.50869" lon="6.77224">
        <ele>144.3</ele>
        <time>2014-04-21T13:21:03Z</time>
      </trkpt>
      <trkpt lat="43.50872" lon="6.77209">
        <ele>143.3</ele>
        <time>2014-04-21T13:21:05Z</time>
      </trkpt>
      <trkpt lat="43.50866" lon="6.77197">
        <ele>141.3</ele>
        <time>2014-04-21T13:21:07Z</time>
      </trkpt>
      <trkpt lat="43.50859" lon="6.77186">
        <ele>140.3</ele>
        <time>2014-04-21T13:21:09Z</time>
      </trkpt>
      <trkpt lat="43.50855" lon="6.77173">
        <ele>137.3</ele>
        <time>2014-04-21T13:21:11Z</time>
      </trkpt>
      <trkpt lat="43.50854" lon="6.77156">
        <ele>136.3</ele>
        <time>2014-04-21T13:21:13Z</time>
      </trkpt>
      <trkpt lat="43.50848" lon="6.7714">
        <ele>135.3</ele>
        <time>2014-04-21T13:21:15Z</time>
      </trkpt>
      <trkpt lat="43.50837" lon="6.77129">
        <ele>130.3</ele>
        <time>2014-04-21T13:21:17Z</time>
      </trkpt>
      <trkpt lat="43.50826" lon="6.7712">
        <ele>128.3</ele>
        <time>2014-04-21T13:21:19Z</time>
      </trkpt>
      <trkpt lat="43.50816" lon="6.77112">
        <ele>127.3</ele>
        <time>2014-04-21T13:21:21Z</time>
      </trkpt>
      <trkpt lat="43.50811" lon="6.77096">
        <ele>124.3</ele>
        <time>2014-04-21T13:21:23Z</time>
      </trkpt>
      <trkpt lat="43.50809" lon="6.77076">
        <ele>121.3</ele>
        <time>2014-04-21T13:21:25Z</time>
      </trkpt>
      <trkpt lat="43.5081" lon="6.77052">
        <ele>116.3</ele>
        <time>2014-04-21T13:21:27Z</time>
      </trkpt>
      <trkpt lat="43.50812" lon="6.77032">
        <ele>114.3</ele>
        <time>2014-04-21T13:21:29Z</time>
      </trkpt>
      <trkpt lat="43.50815" lon="6.7702">
        <ele>113.3</ele>
        <time>2014-04-21T13:21:31Z</time>
      </trkpt>
      <trkpt lat="43.50826" lon="6.77017">
        <ele>111.3</ele>
        <time>2014-04-21T13:21:34Z</time>
      </trkpt>
      <trkpt lat="43.50834" lon="6.77024">
        <ele>112.3</ele>
        <time>2014-04-21T13:21:36Z</time>
      </trkpt>
      <trkpt lat="43.50843" lon="6.7702">
        <ele>109.3</ele>
        <time>2014-04-21T13:21:39Z</time>
      </trkpt>
      <trkpt lat="43.50839" lon="6.76991">
        <ele>105.3</ele>
        <time>2014-04-21T13:21:43Z</time>
      </trkpt>
      <trkpt lat="43.50839" lon="6.76971">
        <ele>103.3</ele>
        <time>2014-04-21T13:21:45Z</time>
      </trkpt>
      <trkpt lat="43.50838" lon="6.76949">
        <ele>102.3</ele>
        <time>2014-04-21T13:21:47Z</time>
      </trkpt>
      <trkpt lat="43.50834" lon="6.7693">
        <ele>101.3</ele>
        <time>2014-04-21T13:21:49Z</time>
      </trkpt>
      <trkpt lat="43.50829" lon="6.76919">
        <ele>99.3</ele>
        <time>2014-04-21T13:21:50Z</time>
      </trkpt>
      <trkpt lat="43.5082" lon="6.76899">
        <ele>97.3</ele>
        <time>2014-04-21T13:21:52Z</time>
      </trkpt>
      <trkpt lat="43.50808" lon="6.76886">
        <ele>96.3</ele>
        <time>2014-04-21T13:21:54Z</time>
      </trkpt>
      <trkpt lat="43.50794" lon="6.7688">
        <ele>94.3</ele>
        <time>2014-04-21T13:21:56Z</time>
      </trkpt>
      <trkpt lat="43.50778" lon="6.76881">
        <ele>92.3</ele>
        <time>2014-04-21T13:21:58Z</time>
      </trkpt>
      <trkpt lat="43.50764" lon="6.76894">
        <ele>90.3</ele>
        <time>2014-04-21T13:22:00Z</time>
      </trkpt>
      <trkpt lat="43.50753" lon="6.76913">
        <ele>88.3</ele>
        <time>2014-04-21T13:22:02Z</time>
      </trkpt>
      <trkpt lat="43.50746" lon="6.76934">
        <ele>88.3</ele>
        <time>2014-04-21T13:22:04Z</time>
      </trkpt>
      <trkpt lat="43.50741" lon="6.76949">
        <ele>87.3</ele>
        <time>2014-04-21T13:22:06Z</time>
      </trkpt>
      <trkpt lat="43.50732" lon="6.76945">
        <ele>85.3</ele>
        <time>2014-04-21T13:22:11Z</time>
      </trkpt>
      <trkpt lat="43.50735" lon="6.76929">
        <ele>85.3</ele>
        <time>2014-04-21T13:22:14Z</time>
      </trkpt>
      <trkpt lat="43.50734" lon="6.76913">
        <ele>84.3</ele>
        <time>2014-04-21T13:22:18Z</time>
      </trkpt>
      <trkpt lat="43.50734" lon="6.76899">
        <ele>85.3</ele>
        <time>2014-04-21T13:22:22Z</time>
      </trkpt>
      <trkpt lat="43.50733" lon="6.76886">
        <ele>86.3</ele>
        <time>2014-04-21T13:22:26Z</time>
      </trkpt>
      <trkpt lat="43.50734" lon="6.76872">
        <ele>85.3</ele>
        <time>2014-04-21T13:22:33Z</time>
      </trkpt>
      <trkpt lat="43.50735" lon="6.76859">
        <ele>81.3</ele>
        <time>2014-04-21T13:22:40Z</time>
      </trkpt>
      <trkpt lat="43.50749" lon="6.76837">
        <ele>82.3</ele>
        <time>2014-04-21T13:23:37Z</time>
      </trkpt>
      <trkpt lat="43.50761" lon="6.76823">
        <ele>81.3</ele>
        <time>2014-04-21T13:23:40Z</time>
      </trkpt>
      <trkpt lat="43.50766" lon="6.7681">
        <ele>80.3</ele>
        <time>2014-04-21T13:23:42Z</time>
      </trkpt>
      <trkpt lat="43.50776" lon="6.76774">
        <ele>78.3</ele>
        <time>2014-04-21T13:23:46Z</time>
      </trkpt>
      <trkpt lat="43.5078" lon="6.76754">
        <ele>77.3</ele>
        <time>2014-04-21T13:23:48Z</time>
      </trkpt>
      <trkpt lat="43.50776" lon="6.76732">
        <ele>77.3</ele>
        <time>2014-04-21T13:23:50Z</time>
      </trkpt>
      <trkpt lat="43.50771" lon="6.76714">
        <ele>75.3</ele>
        <time>2014-04-21T13:23:52Z</time>
      </trkpt>
      <trkpt lat="43.50771" lon="6.76699">
        <ele>72.3</ele>
        <time>2014-04-21T13:23:54Z</time>
      </trkpt>
      <trkpt lat="43.50778" lon="6.76689">
        <ele>70.3</ele>
        <time>2014-04-21T13:23:56Z</time>
      </trkpt>
      <trkpt lat="43.50789" lon="6.76682">
        <ele>67.3</ele>
        <time>2014-04-21T13:23:58Z</time>
      </trkpt>
      <trkpt lat="43.50801" lon="6.76672">
        <ele>69.3</ele>
        <time>2014-04-21T13:24:00Z</time>
      </trkpt>
      <trkpt lat="43.50808" lon="6.76656">
        <ele>69.3</ele>
        <time>2014-04-21T13:24:02Z</time>
      </trkpt>
      <trkpt lat="43.50814" lon="6.76639">
        <ele>68.3</ele>
        <time>2014-04-21T13:24:04Z</time>
      </trkpt>
      <trkpt lat="43.50816" lon="6.76623">
        <ele>67.3</ele>
        <time>2014-04-21T13:24:06Z</time>
      </trkpt>
      <trkpt lat="43.50816" lon="6.76607">
        <ele>66.3</ele>
        <time>2014-04-21T13:24:08Z</time>
      </trkpt>
      <trkpt lat="43.50817" lon="6.76594">
        <ele>68.3</ele>
        <time>2014-04-21T13:24:10Z</time>
      </trkpt>
      <trkpt lat="43.50817" lon="6.76582">
        <ele>69.3</ele>
        <time>2014-04-21T13:24:12Z</time>
      </trkpt>
      <trkpt lat="43.50813" lon="6.76569">
        <ele>69.3</ele>
        <time>2014-04-21T13:24:15Z</time>
      </trkpt>
      <trkpt lat="43.50808" lon="6.76557">
        <ele>69.3</ele>
        <time>2014-04-21T13:24:19Z</time>
      </trkpt>
      <trkpt lat="43.50802" lon="6.76546">
        <ele>72.3</ele>
        <time>2014-04-21T13:24:23Z</time>
      </trkpt>
      <trkpt lat="43.50796" lon="6.76534">
        <ele>72.3</ele>
        <time>2014-04-21T13:24:27Z</time>
      </trkpt>
      <trkpt lat="43.50791" lon="6.76523">
        <ele>73.3</ele>
        <time>2014-04-21T13:24:30Z</time>
      </trkpt>
      <trkpt lat="43.50789" lon="6.76508">
        <ele>78.3</ele>
        <time>2014-04-21T13:24:34Z</time>
      </trkpt>
      <trkpt lat="43.50788" lon="6.76495">
        <ele>78.3</ele>
        <time>2014-04-21T13:24:38Z</time>
      </trkpt>
      <trkpt lat="43.50787" lon="6.76482">
        <ele>78.3</ele>
        <time>2014-04-21T13:24:43Z</time>
      </trkpt>
      <trkpt lat="43.50775" lon="6.76458">
        <ele>76.3</ele>
        <time>2014-04-21T13:24:52Z</time>
      </trkpt>
      <trkpt lat="43.50766" lon="6.76448">
        <ele>77.3</ele>
        <time>2014-04-21T13:24:56Z</time>
      </trkpt>
      <trkpt lat="43.50757" lon="6.76438">
        <ele>77.3</ele>
        <time>2014-04-21T13:25:00Z</time>
      </trkpt>
      <trkpt lat="43.50751" lon="6.76426">
        <ele>77.3</ele>
        <time>2014-04-21T13:25:04Z</time>
      </trkpt>
      <trkpt lat="43.50743" lon="6.76418">
        <ele>77.3</ele>
        <time>2014-04-21T13:25:07Z</time>
      </trkpt>
      <trkpt lat="43.50731" lon="6.76409">
        <ele>77.3</ele>
        <time>2014-04-21T13:25:09Z</time>
      </trkpt>
      <trkpt lat="43.5072" lon="6.76402">
        <ele>76.3</ele>
        <time>2014-04-21T13:25:11Z</time>
      </trkpt>
      <trkpt lat="43.50709" lon="6.76394">
        <ele>76.3</ele>
        <time>2014-04-21T13:25:13Z</time>
      </trkpt>
      <trkpt lat="43.507" lon="6.76387">
        <ele>76.3</ele>
        <time>2014-04-21T13:25:15Z</time>
      </trkpt>
      <trkpt lat="43.50688" lon="6.76382">
        <ele>75.3</ele>
        <time>2014-04-21T13:25:17Z</time>
      </trkpt>
      <trkpt lat="43.50679" lon="6.76375">
        <ele>76.3</ele>
        <time>2014-04-21T13:25:19Z</time>
      </trkpt>
      <trkpt lat="43.50669" lon="6.76369">
        <ele>75.3</ele>
        <time>2014-04-21T13:25:21Z</time>
      </trkpt>
      <trkpt lat="43.50657" lon="6.76366">
        <ele>75.3</ele>
        <time>2014-04-21T13:25:23Z</time>
      </trkpt>
      <trkpt lat="43.50646" lon="6.76362">
        <ele>75.3</ele>
        <time>2014-04-21T13:25:25Z</time>
      </trkpt>
      <trkpt lat="43.50634" lon="6.76358">
        <ele>75.3</ele>
        <time>2014-04-21T13:25:27Z</time>
      </trkpt>
      <trkpt lat="43.50621" lon="6.76351">
        <ele>74.3</ele>
        <time>2014-04-21T13:25:29Z</time>
      </trkpt>
      <trkpt lat="43.50614" lon="6.76343">
        <ele>73.3</ele>
        <time>2014-04-21T13:25:31Z</time>
      </trkpt>
      <trkpt lat="43.50609" lon="6.76326">
        <ele>74.3</ele>
        <time>2014-04-21T13:25:33Z</time>
      </trkpt>
      <trkpt lat="43.50607" lon="6.76306">
        <ele>72.3</ele>
        <time>2014-04-21T13:25:35Z</time>
      </trkpt>
      <trkpt lat="43.50604" lon="6.76281">
        <ele>69.3</ele>
        <time>2014-04-21T13:25:37Z</time>
      </trkpt>
      <trkpt lat="43.50603" lon="6.76268">
        <ele>68.3</ele>
        <time>2014-04-21T13:25:38Z</time>
      </trkpt>
      <trkpt lat="43.506" lon="6.76256">
        <ele>68.3</ele>
        <time>2014-04-21T13:25:39Z</time>
      </trkpt>
      <trkpt lat="43.50592" lon="6.76239">
        <ele>67.3</ele>
        <time>2014-04-21T13:25:41Z</time>
      </trkpt>
      <trkpt lat="43.5058" lon="6.76224">
        <ele>64.3</ele>
        <time>2014-04-21T13:25:43Z</time>
      </trkpt>
      <trkpt lat="43.50569" lon="6.76206">
        <ele>63.3</ele>
        <time>2014-04-21T13:25:45Z</time>
      </trkpt>
      <trkpt lat="43.50554" lon="6.76167">
        <ele>63.3</ele>
        <time>2014-04-21T13:25:49Z</time>
      </trkpt>
      <trkpt lat="43.5055" lon="6.76146">
        <ele>62.3</ele>
        <time>2014-04-21T13:25:51Z</time>
      </trkpt>
      <trkpt lat="43.50548" lon="6.76129">
        <ele>63.3</ele>
        <time>2014-04-21T13:25:53Z</time>
      </trkpt>
      <trkpt lat="43.50543" lon="6.7611">
        <ele>62.3</ele>
        <time>2014-04-21T13:25:55Z</time>
      </trkpt>
      <trkpt lat="43.50539" lon="6.76092">
        <ele>61.3</ele>
        <time>2014-04-21T13:25:57Z</time>
      </trkpt>
      <trkpt lat="43.50533" lon="6.76075">
        <ele>60.3</ele>
        <time>2014-04-21T13:25:59Z</time>
      </trkpt>
      <trkpt lat="43.50528" lon="6.76058">
        <ele>59.3</ele>
        <time>2014-04-21T13:26:01Z</time>
      </trkpt>
      <trkpt lat="43.50527" lon="6.76043">
        <ele>61.3</ele>
        <time>2014-04-21T13:26:03Z</time>
      </trkpt>
      <trkpt lat="43.50518" lon="6.76034">
        <ele>58.3</ele>
        <time>2014-04-21T13:26:04Z</time>
      </trkpt>
      <trkpt lat="43.50506" lon="6.76021">
        <ele>57.3</ele>
        <time>2014-04-21T13:26:06Z</time>
      </trkpt>
      <trkpt lat="43.50497" lon="6.76016">
        <ele>56.3</ele>
        <time>2014-04-21T13:26:07Z</time>
      </trkpt>
      <trkpt lat="43.50488" lon="6.76012">
        <ele>56.3</ele>
        <time>2014-04-21T13:26:08Z</time>
      </trkpt>
      <trkpt lat="43.50478" lon="6.76009">
        <ele>55.3</ele>
        <time>2014-04-21T13:26:09Z</time>
      </trkpt>
      <trkpt lat="43.50463" lon="6.75998">
        <ele>54.3</ele>
        <time>2014-04-21T13:26:11Z</time>
      </trkpt>
      <trkpt lat="43.50451" lon="6.75983">
        <ele>53.3</ele>
        <time>2014-04-21T13:26:13Z</time>
      </trkpt>
      <trkpt lat="43.50444" lon="6.75974">
        <ele>52.3</ele>
        <time>2014-04-21T13:26:14Z</time>
      </trkpt>
      <trkpt lat="43.50433" lon="6.75955">
        <ele>51.3</ele>
        <time>2014-04-21T13:26:16Z</time>
      </trkpt>
      <trkpt lat="43.50428" lon="6.7594">
        <ele>48.3</ele>
        <time>2014-04-21T13:26:18Z</time>
      </trkpt>
      <trkpt lat="43.50428" lon="6.75924">
        <ele>47.3</ele>
        <time>2014-04-21T13:26:20Z</time>
      </trkpt>
      <trkpt lat="43.50431" lon="6.75909">
        <ele>46.3</ele>
        <time>2014-04-21T13:26:22Z</time>
      </trkpt>
      <trkpt lat="43.50442" lon="6.75896">
        <ele>45.3</ele>
        <time>2014-04-21T13:26:24Z</time>
      </trkpt>
      <trkpt lat="43.50449" lon="6.75882">
        <ele>43.3</ele>
        <time>2014-04-21T13:26:26Z</time>
      </trkpt>
      <trkpt lat="43.50458" lon="6.75865">
        <ele>44.3</ele>
        <time>2014-04-21T13:26:28Z</time>
      </trkpt>
      <trkpt lat="43.50463" lon="6.75853">
        <ele>45.3</ele>
        <time>2014-04-21T13:26:30Z</time>
      </trkpt>
      <trkpt lat="43.50464" lon="6.7584">
        <ele>47.3</ele>
        <time>2014-04-21T13:26:34Z</time>
      </trkpt>
      <trkpt lat="43.50463" lon="6.75827">
        <ele>45.3</ele>
        <time>2014-04-21T13:26:40Z</time>
      </trkpt>
      <trkpt lat="43.50465" lon="6.75812">
        <ele>53.3</ele>
        <time>2014-04-21T13:28:17Z</time>
      </trkpt>
      <trkpt lat="43.50471" lon="6.75784">
        <ele>47.3</ele>
        <time>2014-04-21T13:28:24Z</time>
      </trkpt>
      <trkpt lat="43.50474" lon="6.75771">
        <ele>46.3</ele>
        <time>2014-04-21T13:28:28Z</time>
      </trkpt>
      <trkpt lat="43.50476" lon="6.75756">
        <ele>45.3</ele>
        <time>2014-04-21T13:28:33Z</time>
      </trkpt>
      <trkpt lat="43.50482" lon="6.75743">
        <ele>44.3</ele>
        <time>2014-04-21T13:28:38Z</time>
      </trkpt>
      <trkpt lat="43.50489" lon="6.7573">
        <ele>45.3</ele>
        <time>2014-04-21T13:28:43Z</time>
      </trkpt>
      <trkpt lat="43.50498" lon="6.75721">
        <ele>44.3</ele>
        <time>2014-04-21T13:28:47Z</time>
      </trkpt>
      <trkpt lat="43.50506" lon="6.75711">
        <ele>43.3</ele>
        <time>2014-04-21T13:28:51Z</time>
      </trkpt>
      <trkpt lat="43.50514" lon="6.75701">
        <ele>44.3</ele>
        <time>2014-04-21T13:28:55Z</time>
      </trkpt>
      <trkpt lat="43.50522" lon="6.75691">
        <ele>43.3</ele>
        <time>2014-04-21T13:28:59Z</time>
      </trkpt>
      <trkpt lat="43.50531" lon="6.75683">
        <ele>43.3</ele>
        <time>2014-04-21T13:29:03Z</time>
      </trkpt>
      <trkpt lat="43.50541" lon="6.75675">
        <ele>43.3</ele>
        <time>2014-04-21T13:29:07Z</time>
      </trkpt>
      <trkpt lat="43.50549" lon="6.75667">
        <ele>42.3</ele>
        <time>2014-04-21T13:29:11Z</time>
      </trkpt>
      <trkpt lat="43.50558" lon="6.75657">
        <ele>43.3</ele>
        <time>2014-04-21T13:29:15Z</time>
      </trkpt>
      <trkpt lat="43.50567" lon="6.75648">
        <ele>44.3</ele>
        <time>2014-04-21T13:29:19Z</time>
      </trkpt>
      <trkpt lat="43.50589" lon="6.75653">
        <ele>47.3</ele>
        <time>2014-04-21T13:29:28Z</time>
      </trkpt>
      <trkpt lat="43.50594" lon="6.75665">
        <ele>47.3</ele>
        <time>2014-04-21T13:29:32Z</time>
      </trkpt>
      <trkpt lat="43.5059" lon="6.75678">
        <ele>48.3</ele>
        <time>2014-04-21T13:29:37Z</time>
      </trkpt>
      <trkpt lat="43.50583" lon="6.75685">
        <ele>47.3</ele>
        <time>2014-04-21T13:29:42Z</time>
      </trkpt>
      <trkpt lat="43.50575" lon="6.75695">
        <ele>49.3</ele>
        <time>2014-04-21T13:29:48Z</time>
      </trkpt>
      <trkpt lat="43.5057" lon="6.75707">
        <ele>52.3</ele>
        <time>2014-04-21T13:29:53Z</time>
      </trkpt>
      <trkpt lat="43.50564" lon="6.75716">
        <ele>54.3</ele>
        <time>2014-04-21T13:29:58Z</time>
      </trkpt>
      <trkpt lat="43.50556" lon="6.75723">
        <ele>55.3</ele>
        <time>2014-04-21T13:30:04Z</time>
      </trkpt>
      <trkpt lat="43.50548" lon="6.7573">
        <ele>56.3</ele>
        <time>2014-04-21T13:30:10Z</time>
      </trkpt>
      <trkpt lat="43.50541" lon="6.75738">
        <ele>58.3</ele>
        <time>2014-04-21T13:30:15Z</time>
      </trkpt>
      <trkpt lat="43.50536" lon="6.75749">
        <ele>59.3</ele>
        <time>2014-04-21T13:30:20Z</time>
      </trkpt>
      <trkpt lat="43.5054" lon="6.75776">
        <ele>58.3</ele>
        <time>2014-04-21T13:30:30Z</time>
      </trkpt>
      <trkpt lat="43.50547" lon="6.75787">
        <ele>59.3</ele>
        <time>2014-04-21T13:30:35Z</time>
      </trkpt>
      <trkpt lat="43.50555" lon="6.75795">
        <ele>59.3</ele>
        <time>2014-04-21T13:30:40Z</time>
      </trkpt>
      <trkpt lat="43.50565" lon="6.75799">
        <ele>61.3</ele>
        <time>2014-04-21T13:30:45Z</time>
      </trkpt>
      <trkpt lat="43.50575" lon="6.75804">
        <ele>62.3</ele>
        <time>2014-04-21T13:30:51Z</time>
      </trkpt>
      <trkpt lat="43.50583" lon="6.75811">
        <ele>64.3</ele>
        <time>2014-04-21T13:30:55Z</time>
      </trkpt>
      <trkpt lat="43.5059" lon="6.75818">
        <ele>66.3</ele>
        <time>2014-04-21T13:30:59Z</time>
      </trkpt>
      <trkpt lat="43.50598" lon="6.75826">
        <ele>67.3</ele>
        <time>2014-04-21T13:31:03Z</time>
      </trkpt>
      <trkpt lat="43.50607" lon="6.75833">
        <ele>68.3</ele>
        <time>2014-04-21T13:31:07Z</time>
      </trkpt>
      <trkpt lat="43.50616" lon="6.7584">
        <ele>67.3</ele>
        <time>2014-04-21T13:31:11Z</time>
      </trkpt>
      <trkpt lat="43.50626" lon="6.75845">
        <ele>68.3</ele>
        <time>2014-04-21T13:31:15Z</time>
      </trkpt>
      <trkpt lat="43.50634" lon="6.75849">
        <ele>66.3</ele>
        <time>2014-04-21T13:31:19Z</time>
      </trkpt>
      <trkpt lat="43.50643" lon="6.75852">
        <ele>68.3</ele>
        <time>2014-04-21T13:31:23Z</time>
      </trkpt>
      <trkpt lat="43.50665" lon="6.7586">
        <ele>70.3</ele>
        <time>2014-04-21T13:31:33Z</time>
      </trkpt>
      <trkpt lat="43.50675" lon="6.75861">
        <ele>70.3</ele>
        <time>2014-04-21T13:31:37Z</time>
      </trkpt>
      <trkpt lat="43.50684" lon="6.75862">
        <ele>70.3</ele>
        <time>2014-04-21T13:31:41Z</time>
      </trkpt>
      <trkpt lat="43.50696" lon="6.7586">
        <ele>69.3</ele>
        <time>2014-04-21T13:31:46Z</time>
      </trkpt>
      <trkpt lat="43.50707" lon="6.75861">
        <ele>70.3</ele>
        <time>2014-04-21T13:31:51Z</time>
      </trkpt>
      <trkpt lat="43.50717" lon="6.75865">
        <ele>70.3</ele>
        <time>2014-04-21T13:31:55Z</time>
      </trkpt>
      <trkpt lat="43.50728" lon="6.75868">
        <ele>75.3</ele>
        <time>2014-04-21T13:31:59Z</time>
      </trkpt>
      <trkpt lat="43.50738" lon="6.75869">
        <ele>78.3</ele>
        <time>2014-04-21T13:32:03Z</time>
      </trkpt>
      <trkpt lat="43.50748" lon="6.7587">
        <ele>80.3</ele>
        <time>2014-04-21T13:32:07Z</time>
      </trkpt>
      <trkpt lat="43.50758" lon="6.75873">
        <ele>84.3</ele>
        <time>2014-04-21T13:32:11Z</time>
      </trkpt>
      <trkpt lat="43.50768" lon="6.75877">
        <ele>88.3</ele>
        <time>2014-04-21T13:32:15Z</time>
      </trkpt>
      <trkpt lat="43.50776" lon="6.75882">
        <ele>88.3</ele>
        <time>2014-04-21T13:32:19Z</time>
      </trkpt>
      <trkpt lat="43.50785" lon="6.75886">
        <ele>91.3</ele>
        <time>2014-04-21T13:32:25Z</time>
      </trkpt>
      <trkpt lat="43.50783" lon="6.75882">
        <ele>92.3</ele>
        <time>2014-04-21T13:35:22Z</time>
      </trkpt>
      <trkpt lat="43.50794" lon="6.75904">
        <ele>94.3</ele>
        <time>2014-04-21T13:35:32Z</time>
      </trkpt>
      <trkpt lat="43.50803" lon="6.7591">
        <ele>96.3</ele>
        <time>2014-04-21T13:35:37Z</time>
      </trkpt>
      <trkpt lat="43.50814" lon="6.75912">
        <ele>99.3</ele>
        <time>2014-04-21T13:35:42Z</time>
      </trkpt>
      <trkpt lat="43.50823" lon="6.75913">
        <ele>99.3</ele>
        <time>2014-04-21T13:35:47Z</time>
      </trkpt>
      <trkpt lat="43.50833" lon="6.75918">
        <ele>102.3</ele>
        <time>2014-04-21T13:35:53Z</time>
      </trkpt>
      <trkpt lat="43.50842" lon="6.75917">
        <ele>104.3</ele>
        <time>2014-04-21T13:35:59Z</time>
      </trkpt>
      <trkpt lat="43.50851" lon="6.75923">
        <ele>104.3</ele>
        <time>2014-04-21T13:36:06Z</time>
      </trkpt>
      <trkpt lat="43.5086" lon="6.75928">
        <ele>105.3</ele>
        <time>2014-04-21T13:36:13Z</time>
      </trkpt>
      <trkpt lat="43.50869" lon="6.75933">
        <ele>108.3</ele>
        <time>2014-04-21T13:36:21Z</time>
      </trkpt>
      <trkpt lat="43.50878" lon="6.75939">
        <ele>111.3</ele>
        <time>2014-04-21T13:36:28Z</time>
      </trkpt>
      <trkpt lat="43.50892" lon="6.75958">
        <ele>116.3</ele>
        <time>2014-04-21T13:36:44Z</time>
      </trkpt>
      <trkpt lat="43.50901" lon="6.75964">
        <ele>117.3</ele>
        <time>2014-04-21T13:36:52Z</time>
      </trkpt>
      <trkpt lat="43.5091" lon="6.75966">
        <ele>117.3</ele>
        <time>2014-04-21T13:36:59Z</time>
      </trkpt>
      <trkpt lat="43.5092" lon="6.75965">
        <ele>117.3</ele>
        <time>2014-04-21T13:37:06Z</time>
      </trkpt>
      <trkpt lat="43.5093" lon="6.75963">
        <ele>118.3</ele>
        <time>2014-04-21T13:37:13Z</time>
      </trkpt>
      <trkpt lat="43.5094" lon="6.75967">
        <ele>120.3</ele>
        <time>2014-04-21T13:37:20Z</time>
      </trkpt>
      <trkpt lat="43.50948" lon="6.75974">
        <ele>120.3</ele>
        <time>2014-04-21T13:37:26Z</time>
      </trkpt>
      <trkpt lat="43.50957" lon="6.75977">
        <ele>122.3</ele>
        <time>2014-04-21T13:37:32Z</time>
      </trkpt>
      <trkpt lat="43.50977" lon="6.75976">
        <ele>128.3</ele>
        <time>2014-04-21T13:37:44Z</time>
      </trkpt>
      <trkpt lat="43.50986" lon="6.75979">
        <ele>130.3</ele>
        <time>2014-04-21T13:37:50Z</time>
      </trkpt>
      <trkpt lat="43.50994" lon="6.75987">
        <ele>129.3</ele>
        <time>2014-04-21T13:37:57Z</time>
      </trkpt>
      <trkpt lat="43.51003" lon="6.75991">
        <ele>130.3</ele>
        <time>2014-04-21T13:38:03Z</time>
      </trkpt>
      <trkpt lat="43.51014" lon="6.75993">
        <ele>130.3</ele>
        <time>2014-04-21T13:38:09Z</time>
      </trkpt>
      <trkpt lat="43.51023" lon="6.75991">
        <ele>130.3</ele>
        <time>2014-04-21T13:38:15Z</time>
      </trkpt>
      <trkpt lat="43.51032" lon="6.75985">
        <ele>133.3</ele>
        <time>2014-04-21T13:38:21Z</time>
      </trkpt>
      <trkpt lat="43.51043" lon="6.75981">
        <ele>134.3</ele>
        <time>2014-04-21T13:38:28Z</time>
      </trkpt>
      <trkpt lat="43.51051" lon="6.75978">
        <ele>136.3</ele>
        <time>2014-04-21T13:38:33Z</time>
      </trkpt>
      <trkpt lat="43.51069" lon="6.75971">
        <ele>138.3</ele>
        <time>2014-04-21T13:38:48Z</time>
      </trkpt>
      <trkpt lat="43.51079" lon="6.75968">
        <ele>137.3</ele>
        <time>2014-04-21T13:38:57Z</time>
      </trkpt>
      <trkpt lat="43.51089" lon="6.75966">
        <ele>134.3</ele>
        <time>2014-04-21T13:39:04Z</time>
      </trkpt>
      <trkpt lat="43.51094" lon="6.75955">
        <ele>134.3</ele>
        <time>2014-04-21T13:39:29Z</time>
      </trkpt>
      <trkpt lat="43.51104" lon="6.75943">
        <ele>135.3</ele>
        <time>2014-04-21T13:39:31Z</time>
      </trkpt>
      <trkpt lat="43.51111" lon="6.75931">
        <ele>135.3</ele>
        <time>2014-04-21T13:39:33Z</time>
      </trkpt>
      <trkpt lat="43.51115" lon="6.75917">
        <ele>134.3</ele>
        <time>2014-04-21T13:39:35Z</time>
      </trkpt>
      <trkpt lat="43.51126" lon="6.75897">
        <ele>127.3</ele>
        <time>2014-04-21T13:45:33Z</time>
      </trkpt>
      <trkpt lat="43.51145" lon="6.75894">
        <ele>129.3</ele>
        <time>2014-04-21T13:45:44Z</time>
      </trkpt>
      <trkpt lat="43.51154" lon="6.75892">
        <ele>130.3</ele>
        <time>2014-04-21T13:45:49Z</time>
      </trkpt>
      <trkpt lat="43.51164" lon="6.7589">
        <ele>132.3</ele>
        <time>2014-04-21T13:45:55Z</time>
      </trkpt>
      <trkpt lat="43.51173" lon="6.75892">
        <ele>129.3</ele>
        <time>2014-04-21T13:46:47Z</time>
      </trkpt>
      <trkpt lat="43.51194" lon="6.75911">
        <ele>128.3</ele>
        <time>2014-04-21T13:46:53Z</time>
      </trkpt>
      <trkpt lat="43.51203" lon="6.75923">
        <ele>129.3</ele>
        <time>2014-04-21T13:46:55Z</time>
      </trkpt>
      <trkpt lat="43.51208" lon="6.75934">
        <ele>128.3</ele>
        <time>2014-04-21T13:46:57Z</time>
      </trkpt>
      <trkpt lat="43.51215" lon="6.75949">
        <ele>124.3</ele>
        <time>2014-04-21T13:47:00Z</time>
      </trkpt>
      <trkpt lat="43.5122" lon="6.75962">
        <ele>124.3</ele>
        <time>2014-04-21T13:47:02Z</time>
      </trkpt>
      <trkpt lat="43.51227" lon="6.75971">
        <ele>125.3</ele>
        <time>2014-04-21T13:47:04Z</time>
      </trkpt>
      <trkpt lat="43.51237" lon="6.75978">
        <ele>124.3</ele>
        <time>2014-04-21T13:47:06Z</time>
      </trkpt>
      <trkpt lat="43.51247" lon="6.75982">
        <ele>123.3</ele>
        <time>2014-04-21T13:47:08Z</time>
      </trkpt>
      <trkpt lat="43.51259" lon="6.7599">
        <ele>123.3</ele>
        <time>2014-04-21T13:47:11Z</time>
      </trkpt>
      <trkpt lat="43.51271" lon="6.75991">
        <ele>123.3</ele>
        <time>2014-04-21T13:47:14Z</time>
      </trkpt>
      <trkpt lat="43.51277" lon="6.7598">
        <ele>124.3</ele>
        <time>2014-04-21T13:47:17Z</time>
      </trkpt>
      <trkpt lat="43.51278" lon="6.75962">
        <ele>123.3</ele>
        <time>2014-04-21T13:47:20Z</time>
      </trkpt>
      <trkpt lat="43.51282" lon="6.75945">
        <ele>122.3</ele>
        <time>2014-04-21T13:47:23Z</time>
      </trkpt>
      <trkpt lat="43.5129" lon="6.75932">
        <ele>123.3</ele>
        <time>2014-04-21T13:47:26Z</time>
      </trkpt>
      <trkpt lat="43.51302" lon="6.75927">
        <ele>124.3</ele>
        <time>2014-04-21T13:47:29Z</time>
      </trkpt>
      <trkpt lat="43.51315" lon="6.75928">
        <ele>124.3</ele>
        <time>2014-04-21T13:47:32Z</time>
      </trkpt>
      <trkpt lat="43.51324" lon="6.75938">
        <ele>125.3</ele>
        <time>2014-04-21T13:47:34Z</time>
      </trkpt>
      <trkpt lat="43.51334" lon="6.75942">
        <ele>125.3</ele>
        <time>2014-04-21T13:47:36Z</time>
      </trkpt>
      <trkpt lat="43.51342" lon="6.75947">
        <ele>126.3</ele>
        <time>2014-04-21T13:47:38Z</time>
      </trkpt>
      <trkpt lat="43.5135" lon="6.75954">
        <ele>126.3</ele>
        <time>2014-04-21T13:47:40Z</time>
      </trkpt>
      <trkpt lat="43.51356" lon="6.75964">
        <ele>128.3</ele>
        <time>2014-04-21T13:47:42Z</time>
      </trkpt>
      <trkpt lat="43.51358" lon="6.75977">
        <ele>127.3</ele>
        <time>2014-04-21T13:47:44Z</time>
      </trkpt>
      <trkpt lat="43.51364" lon="6.75994">
        <ele>130.3</ele>
        <time>2014-04-21T13:47:47Z</time>
      </trkpt>
      <trkpt lat="43.51369" lon="6.76008">
        <ele>130.3</ele>
        <time>2014-04-21T13:47:49Z</time>
      </trkpt>
      <trkpt lat="43.51379" lon="6.76032">
        <ele>129.3</ele>
        <time>2014-04-21T13:47:53Z</time>
      </trkpt>
      <trkpt lat="43.51385" lon="6.76043">
        <ele>128.3</ele>
        <time>2014-04-21T13:47:55Z</time>
      </trkpt>
      <trkpt lat="43.51393" lon="6.76056">
        <ele>128.3</ele>
        <time>2014-04-21T13:47:58Z</time>
      </trkpt>
      <trkpt lat="43.51404" lon="6.76065">
        <ele>127.3</ele>
        <time>2014-04-21T13:48:01Z</time>
      </trkpt>
      <trkpt lat="43.51413" lon="6.76067">
        <ele>129.3</ele>
        <time>2014-04-21T13:48:03Z</time>
      </trkpt>
      <trkpt lat="43.51426" lon="6.76066">
        <ele>129.3</ele>
        <time>2014-04-21T13:48:06Z</time>
      </trkpt>
      <trkpt lat="43.51438" lon="6.76066">
        <ele>129.3</ele>
        <time>2014-04-21T13:48:09Z</time>
      </trkpt>
      <trkpt lat="43.51448" lon="6.76056">
        <ele>130.3</ele>
        <time>2014-04-21T13:48:12Z</time>
      </trkpt>
      <trkpt lat="43.51458" lon="6.76049">
        <ele>128.3</ele>
        <time>2014-04-21T13:48:15Z</time>
      </trkpt>
      <trkpt lat="43.51469" lon="6.76061">
        <ele>126.3</ele>
        <time>2014-04-21T13:48:18Z</time>
      </trkpt>
      <trkpt lat="43.51476" lon="6.76071">
        <ele>126.3</ele>
        <time>2014-04-21T13:48:20Z</time>
      </trkpt>
      <trkpt lat="43.51482" lon="6.76082">
        <ele>125.3</ele>
        <time>2014-04-21T13:48:22Z</time>
      </trkpt>
      <trkpt lat="43.51487" lon="6.76093">
        <ele>125.3</ele>
        <time>2014-04-21T13:48:24Z</time>
      </trkpt>
      <trkpt lat="43.5149" lon="6.76107">
        <ele>124.3</ele>
        <time>2014-04-21T13:48:27Z</time>
      </trkpt>
      <trkpt lat="43.51495" lon="6.76118">
        <ele>125.3</ele>
        <time>2014-04-21T13:48:29Z</time>
      </trkpt>
      <trkpt lat="43.51504" lon="6.76127">
        <ele>126.3</ele>
        <time>2014-04-21T13:48:31Z</time>
      </trkpt>
      <trkpt lat="43.51514" lon="6.76134">
        <ele>125.3</ele>
        <time>2014-04-21T13:48:34Z</time>
      </trkpt>
      <trkpt lat="43.51523" lon="6.76142">
        <ele>124.3</ele>
        <time>2014-04-21T13:48:36Z</time>
      </trkpt>
      <trkpt lat="43.5153" lon="6.76152">
        <ele>123.3</ele>
        <time>2014-04-21T13:48:38Z</time>
      </trkpt>
      <trkpt lat="43.51537" lon="6.7616">
        <ele>124.3</ele>
        <time>2014-04-21T13:48:40Z</time>
      </trkpt>
      <trkpt lat="43.51545" lon="6.76169">
        <ele>123.3</ele>
        <time>2014-04-21T13:48:42Z</time>
      </trkpt>
      <trkpt lat="43.51552" lon="6.76179">
        <ele>124.3</ele>
        <time>2014-04-21T13:48:44Z</time>
      </trkpt>
      <trkpt lat="43.51555" lon="6.76196">
        <ele>125.3</ele>
        <time>2014-04-21T13:48:47Z</time>
      </trkpt>
      <trkpt lat="43.5156" lon="6.76207">
        <ele>126.3</ele>
        <time>2014-04-21T13:48:49Z</time>
      </trkpt>
      <trkpt lat="43.51561" lon="6.76224">
        <ele>127.3</ele>
        <time>2014-04-21T13:48:52Z</time>
      </trkpt>
      <trkpt lat="43.51576" lon="6.76252">
        <ele>126.3</ele>
        <time>2014-04-21T13:48:58Z</time>
      </trkpt>
      <trkpt lat="43.51585" lon="6.76258">
        <ele>127.3</ele>
        <time>2014-04-21T13:49:00Z</time>
      </trkpt>
      <trkpt lat="43.51593" lon="6.76265">
        <ele>127.3</ele>
        <time>2014-04-21T13:49:02Z</time>
      </trkpt>
      <trkpt lat="43.51596" lon="6.76282">
        <ele>128.3</ele>
        <time>2014-04-21T13:49:05Z</time>
      </trkpt>
      <trkpt lat="43.51593" lon="6.76302">
        <ele>128.3</ele>
        <time>2014-04-21T13:49:08Z</time>
      </trkpt>
      <trkpt lat="43.516" lon="6.76316">
        <ele>129.3</ele>
        <time>2014-04-21T13:49:11Z</time>
      </trkpt>
      <trkpt lat="43.51613" lon="6.76318">
        <ele>130.3</ele>
        <time>2014-04-21T13:49:14Z</time>
      </trkpt>
      <trkpt lat="43.51622" lon="6.76325">
        <ele>130.3</ele>
        <time>2014-04-21T13:49:16Z</time>
      </trkpt>
      <trkpt lat="43.5163" lon="6.76336">
        <ele>129.3</ele>
        <time>2014-04-21T13:49:18Z</time>
      </trkpt>
      <trkpt lat="43.51638" lon="6.76349">
        <ele>129.3</ele>
        <time>2014-04-21T13:49:21Z</time>
      </trkpt>
      <trkpt lat="43.51646" lon="6.76357">
        <ele>129.3</ele>
        <time>2014-04-21T13:49:23Z</time>
      </trkpt>
      <trkpt lat="43.5166" lon="6.76361">
        <ele>128.3</ele>
        <time>2014-04-21T13:49:26Z</time>
      </trkpt>
      <trkpt lat="43.5167" lon="6.76362">
        <ele>128.3</ele>
        <time>2014-04-21T13:49:28Z</time>
      </trkpt>
      <trkpt lat="43.5168" lon="6.76366">
        <ele>128.3</ele>
        <time>2014-04-21T13:49:30Z</time>
      </trkpt>
      <trkpt lat="43.51691" lon="6.76374">
        <ele>126.3</ele>
        <time>2014-04-21T13:49:33Z</time>
      </trkpt>
      <trkpt lat="43.51699" lon="6.76384">
        <ele>125.3</ele>
        <time>2014-04-21T13:49:35Z</time>
      </trkpt>
      <trkpt lat="43.51706" lon="6.76396">
        <ele>126.3</ele>
        <time>2014-04-21T13:49:38Z</time>
      </trkpt>
      <trkpt lat="43.5171" lon="6.7641">
        <ele>126.3</ele>
        <time>2014-04-21T13:49:41Z</time>
      </trkpt>
      <trkpt lat="43.51715" lon="6.76426">
        <ele>124.3</ele>
        <time>2014-04-21T13:49:44Z</time>
      </trkpt>
      <trkpt lat="43.51718" lon="6.76441">
        <ele>124.3</ele>
        <time>2014-04-21T13:49:46Z</time>
      </trkpt>
      <trkpt lat="43.51717" lon="6.7646">
        <ele>127.3</ele>
        <time>2014-04-21T13:49:49Z</time>
      </trkpt>
      <trkpt lat="43.51713" lon="6.76473">
        <ele>127.3</ele>
        <time>2014-04-21T13:49:51Z</time>
      </trkpt>
      <trkpt lat="43.51711" lon="6.76486">
        <ele>127.3</ele>
        <time>2014-04-21T13:49:53Z</time>
      </trkpt>
      <trkpt lat="43.51729" lon="6.765">
        <ele>129.3</ele>
        <time>2014-04-21T13:49:58Z</time>
      </trkpt>
      <trkpt lat="43.51737" lon="6.7651">
        <ele>129.3</ele>
        <time>2014-04-21T13:50:00Z</time>
      </trkpt>
      <trkpt lat="43.51738" lon="6.76523">
        <ele>131.3</ele>
        <time>2014-04-21T13:50:02Z</time>
      </trkpt>
      <trkpt lat="43.51734" lon="6.76534">
        <ele>130.3</ele>
        <time>2014-04-21T13:50:04Z</time>
      </trkpt>
      <trkpt lat="43.51728" lon="6.76544">
        <ele>129.3</ele>
        <time>2014-04-21T13:50:06Z</time>
      </trkpt>
      <trkpt lat="43.51724" lon="6.76559">
        <ele>128.3</ele>
        <time>2014-04-21T13:50:09Z</time>
      </trkpt>
      <trkpt lat="43.51732" lon="6.76566">
        <ele>129.3</ele>
        <time>2014-04-21T13:50:11Z</time>
      </trkpt>
      <trkpt lat="43.51739" lon="6.76575">
        <ele>128.3</ele>
        <time>2014-04-21T13:50:13Z</time>
      </trkpt>
      <trkpt lat="43.51745" lon="6.76587">
        <ele>127.3</ele>
        <time>2014-04-21T13:50:15Z</time>
      </trkpt>
      <trkpt lat="43.5175" lon="6.76598">
        <ele>126.3</ele>
        <time>2014-04-21T13:50:17Z</time>
      </trkpt>
      <trkpt lat="43.51758" lon="6.76602">
        <ele>128.3</ele>
        <time>2014-04-21T13:50:19Z</time>
      </trkpt>
      <trkpt lat="43.51772" lon="6.76602">
        <ele>126.3</ele>
        <time>2014-04-21T13:50:22Z</time>
      </trkpt>
      <trkpt lat="43.51782" lon="6.76605">
        <ele>126.3</ele>
        <time>2014-04-21T13:50:24Z</time>
      </trkpt>
      <trkpt lat="43.51792" lon="6.76612">
        <ele>124.3</ele>
        <time>2014-04-21T13:50:26Z</time>
      </trkpt>
      <trkpt lat="43.51799" lon="6.76621">
        <ele>124.3</ele>
        <time>2014-04-21T13:50:28Z</time>
      </trkpt>
      <trkpt lat="43.51806" lon="6.76632">
        <ele>124.3</ele>
        <time>2014-04-21T13:50:30Z</time>
      </trkpt>
      <trkpt lat="43.51812" lon="6.76645">
        <ele>126.3</ele>
        <time>2014-04-21T13:50:32Z</time>
      </trkpt>
      <trkpt lat="43.51818" lon="6.76657">
        <ele>126.3</ele>
        <time>2014-04-21T13:50:34Z</time>
      </trkpt>
      <trkpt lat="43.51824" lon="6.76668">
        <ele>126.3</ele>
        <time>2014-04-21T13:50:36Z</time>
      </trkpt>
      <trkpt lat="43.5183" lon="6.76685">
        <ele>126.3</ele>
        <time>2014-04-21T13:50:39Z</time>
      </trkpt>
      <trkpt lat="43.51833" lon="6.76697">
        <ele>125.3</ele>
        <time>2014-04-21T13:50:41Z</time>
      </trkpt>
      <trkpt lat="43.51837" lon="6.76711">
        <ele>122.3</ele>
        <time>2014-04-21T13:50:43Z</time>
      </trkpt>
      <trkpt lat="43.5184" lon="6.76727">
        <ele>122.3</ele>
        <time>2014-04-21T13:50:46Z</time>
      </trkpt>
      <trkpt lat="43.51842" lon="6.76745">
        <ele>124.3</ele>
        <time>2014-04-21T13:50:49Z</time>
      </trkpt>
      <trkpt lat="43.51844" lon="6.76758">
        <ele>125.3</ele>
        <time>2014-04-21T13:50:51Z</time>
      </trkpt>
      <trkpt lat="43.51848" lon="6.7677">
        <ele>125.3</ele>
        <time>2014-04-21T13:50:53Z</time>
      </trkpt>
      <trkpt lat="43.51853" lon="6.76785">
        <ele>125.3</ele>
        <time>2014-04-21T13:50:56Z</time>
      </trkpt>
      <trkpt lat="43.51867" lon="6.76814">
        <ele>127.3</ele>
        <time>2014-04-21T13:51:02Z</time>
      </trkpt>
      <trkpt lat="43.51874" lon="6.7683">
        <ele>124.3</ele>
        <time>2014-04-21T13:51:05Z</time>
      </trkpt>
      <trkpt lat="43.51878" lon="6.76844">
        <ele>125.3</ele>
        <time>2014-04-21T13:51:07Z</time>
      </trkpt>
      <trkpt lat="43.51881" lon="6.76857">
        <ele>126.3</ele>
        <time>2014-04-21T13:51:09Z</time>
      </trkpt>
      <trkpt lat="43.51883" lon="6.76873">
        <ele>126.3</ele>
        <time>2014-04-21T13:51:11Z</time>
      </trkpt>
      <trkpt lat="43.51884" lon="6.76888">
        <ele>124.3</ele>
        <time>2014-04-21T13:51:13Z</time>
      </trkpt>
      <trkpt lat="43.51885" lon="6.76901">
        <ele>123.3</ele>
        <time>2014-04-21T13:51:15Z</time>
      </trkpt>
      <trkpt lat="43.51886" lon="6.76917">
        <ele>126.3</ele>
        <time>2014-04-21T13:51:17Z</time>
      </trkpt>
      <trkpt lat="43.51885" lon="6.76931">
        <ele>126.3</ele>
        <time>2014-04-21T13:51:19Z</time>
      </trkpt>
      <trkpt lat="43.51885" lon="6.76944">
        <ele>126.3</ele>
        <time>2014-04-21T13:51:21Z</time>
      </trkpt>
      <trkpt lat="43.51881" lon="6.76956">
        <ele>126.3</ele>
        <time>2014-04-21T13:51:23Z</time>
      </trkpt>
      <trkpt lat="43.51881" lon="6.76972">
        <ele>126.3</ele>
        <time>2014-04-21T13:51:25Z</time>
      </trkpt>
      <trkpt lat="43.5188" lon="6.76985">
        <ele>125.3</ele>
        <time>2014-04-21T13:51:27Z</time>
      </trkpt>
      <trkpt lat="43.51879" lon="6.77004">
        <ele>129.3</ele>
        <time>2014-04-21T13:51:30Z</time>
      </trkpt>
      <trkpt lat="43.51876" lon="6.77018">
        <ele>128.3</ele>
        <time>2014-04-21T13:51:32Z</time>
      </trkpt>
      <trkpt lat="43.51875" lon="6.77031">
        <ele>128.3</ele>
        <time>2014-04-21T13:51:34Z</time>
      </trkpt>
      <trkpt lat="43.51874" lon="6.77045">
        <ele>129.3</ele>
        <time>2014-04-21T13:51:36Z</time>
      </trkpt>
      <trkpt lat="43.5187" lon="6.77063">
        <ele>130.3</ele>
        <time>2014-04-21T13:51:39Z</time>
      </trkpt>
      <trkpt lat="43.51867" lon="6.7708">
        <ele>131.3</ele>
        <time>2014-04-21T13:51:42Z</time>
      </trkpt>
      <trkpt lat="43.51869" lon="6.77095">
        <ele>130.3</ele>
        <time>2014-04-21T13:51:45Z</time>
      </trkpt>
      <trkpt lat="43.51879" lon="6.77095">
        <ele>129.3</ele>
        <time>2014-04-21T13:51:47Z</time>
      </trkpt>
      <trkpt lat="43.51891" lon="6.77085">
        <ele>129.3</ele>
        <time>2014-04-21T13:51:50Z</time>
      </trkpt>
      <trkpt lat="43.51899" lon="6.77077">
        <ele>129.3</ele>
        <time>2014-04-21T13:51:52Z</time>
      </trkpt>
      <trkpt lat="43.5191" lon="6.77074">
        <ele>128.3</ele>
        <time>2014-04-21T13:51:54Z</time>
      </trkpt>
      <trkpt lat="43.51918" lon="6.77069">
        <ele>128.3</ele>
        <time>2014-04-21T13:51:56Z</time>
      </trkpt>
      <trkpt lat="43.51936" lon="6.77058">
        <ele>128.3</ele>
        <time>2014-04-21T13:52:00Z</time>
      </trkpt>
      <trkpt lat="43.51944" lon="6.7705">
        <ele>128.3</ele>
        <time>2014-04-21T13:52:02Z</time>
      </trkpt>
      <trkpt lat="43.51955" lon="6.77048">
        <ele>129.3</ele>
        <time>2014-04-21T13:52:05Z</time>
      </trkpt>
      <trkpt lat="43.51965" lon="6.77052">
        <ele>128.3</ele>
        <time>2014-04-21T13:52:08Z</time>
      </trkpt>
      <trkpt lat="43.51972" lon="6.77069">
        <ele>128.3</ele>
        <time>2014-04-21T13:52:10Z</time>
      </trkpt>
      <trkpt lat="43.51983" lon="6.77073">
        <ele>128.3</ele>
        <time>2014-04-21T13:52:12Z</time>
      </trkpt>
      <trkpt lat="43.51992" lon="6.77068">
        <ele>130.3</ele>
        <time>2014-04-21T13:52:26Z</time>
      </trkpt>
      <trkpt lat="43.52" lon="6.77065">
        <ele>130.3</ele>
        <time>2014-04-21T13:52:37Z</time>
      </trkpt>
      <trkpt lat="43.52009" lon="6.77062">
        <ele>129.3</ele>
        <time>2014-04-21T13:52:49Z</time>
      </trkpt>
      <trkpt lat="43.52019" lon="6.77064">
        <ele>129.3</ele>
        <time>2014-04-21T13:54:50Z</time>
      </trkpt>
      <trkpt lat="43.52033" lon="6.77086">
        <ele>129.3</ele>
        <time>2014-04-21T13:54:56Z</time>
      </trkpt>
      <trkpt lat="43.52038" lon="6.77098">
        <ele>131.3</ele>
        <time>2014-04-21T13:54:59Z</time>
      </trkpt>
      <trkpt lat="43.52043" lon="6.77111">
        <ele>132.3</ele>
        <time>2014-04-21T13:55:02Z</time>
      </trkpt>
      <trkpt lat="43.52049" lon="6.77124">
        <ele>131.3</ele>
        <time>2014-04-21T13:55:05Z</time>
      </trkpt>
      <trkpt lat="43.52055" lon="6.77137">
        <ele>129.3</ele>
        <time>2014-04-21T13:55:08Z</time>
      </trkpt>
      <trkpt lat="43.52064" lon="6.7714">
        <ele>129.3</ele>
        <time>2014-04-21T13:55:11Z</time>
      </trkpt>
      <trkpt lat="43.52072" lon="6.77131">
        <ele>127.3</ele>
        <time>2014-04-21T13:55:14Z</time>
      </trkpt>
      <trkpt lat="43.52083" lon="6.7713">
        <ele>129.3</ele>
        <time>2014-04-21T13:55:18Z</time>
      </trkpt>
      <trkpt lat="43.52091" lon="6.7714">
        <ele>129.3</ele>
        <time>2014-04-21T13:55:21Z</time>
      </trkpt>
      <trkpt lat="43.52102" lon="6.77141">
        <ele>129.3</ele>
        <time>2014-04-21T13:55:24Z</time>
      </trkpt>
      <trkpt lat="43.52113" lon="6.77136">
        <ele>129.3</ele>
        <time>2014-04-21T13:55:27Z</time>
      </trkpt>
      <trkpt lat="43.52124" lon="6.7714">
        <ele>129.3</ele>
        <time>2014-04-21T13:55:30Z</time>
      </trkpt>
      <trkpt lat="43.52133" lon="6.7715">
        <ele>129.3</ele>
        <time>2014-04-21T13:55:33Z</time>
      </trkpt>
      <trkpt lat="43.52143" lon="6.77152">
        <ele>127.3</ele>
        <time>2014-04-21T13:55:36Z</time>
      </trkpt>
      <trkpt lat="43.52151" lon="6.7714">
        <ele>128.3</ele>
        <time>2014-04-21T13:55:39Z</time>
      </trkpt>
      <trkpt lat="43.52157" lon="6.77128">
        <ele>128.3</ele>
        <time>2014-04-21T13:55:42Z</time>
      </trkpt>
      <trkpt lat="43.52167" lon="6.77124">
        <ele>126.3</ele>
        <time>2014-04-21T13:55:45Z</time>
      </trkpt>
      <trkpt lat="43.52178" lon="6.77126">
        <ele>125.3</ele>
        <time>2014-04-21T13:55:48Z</time>
      </trkpt>
      <trkpt lat="43.52186" lon="6.77117">
        <ele>126.3</ele>
        <time>2014-04-21T13:55:51Z</time>
      </trkpt>
      <trkpt lat="43.52198" lon="6.77096">
        <ele>127.3</ele>
        <time>2014-04-21T13:55:57Z</time>
      </trkpt>
      <trkpt lat="43.52212" lon="6.77101">
        <ele>126.3</ele>
        <time>2014-04-21T13:55:59Z</time>
      </trkpt>
      <trkpt lat="43.52224" lon="6.77095">
        <ele>125.3</ele>
        <time>2014-04-21T13:56:02Z</time>
      </trkpt>
      <trkpt lat="43.52229" lon="6.77085">
        <ele>124.3</ele>
        <time>2014-04-21T13:56:04Z</time>
      </trkpt>
      <trkpt lat="43.52239" lon="6.77074">
        <ele>123.3</ele>
        <time>2014-04-21T13:56:07Z</time>
      </trkpt>
      <trkpt lat="43.52248" lon="6.77067">
        <ele>121.3</ele>
        <time>2014-04-21T13:56:09Z</time>
      </trkpt>
      <trkpt lat="43.52257" lon="6.77065">
        <ele>124.3</ele>
        <time>2014-04-21T13:56:11Z</time>
      </trkpt>
      <trkpt lat="43.52266" lon="6.77064">
        <ele>124.3</ele>
        <time>2014-04-21T13:56:13Z</time>
      </trkpt>
      <trkpt lat="43.52277" lon="6.77063">
        <ele>126.3</ele>
        <time>2014-04-21T13:56:15Z</time>
      </trkpt>
      <trkpt lat="43.52287" lon="6.7706">
        <ele>127.3</ele>
        <time>2014-04-21T13:56:17Z</time>
      </trkpt>
      <trkpt lat="43.523" lon="6.77056">
        <ele>128.3</ele>
        <time>2014-04-21T13:56:19Z</time>
      </trkpt>
      <trkpt lat="43.5231" lon="6.77054">
        <ele>127.3</ele>
        <time>2014-04-21T13:56:21Z</time>
      </trkpt>
      <trkpt lat="43.52319" lon="6.7705">
        <ele>128.3</ele>
        <time>2014-04-21T13:56:23Z</time>
      </trkpt>
      <trkpt lat="43.5233" lon="6.77041">
        <ele>128.3</ele>
        <time>2014-04-21T13:56:25Z</time>
      </trkpt>
      <trkpt lat="43.5234" lon="6.77034">
        <ele>128.3</ele>
        <time>2014-04-21T13:56:27Z</time>
      </trkpt>
      <trkpt lat="43.52351" lon="6.7703">
        <ele>128.3</ele>
        <time>2014-04-21T13:56:29Z</time>
      </trkpt>
      <trkpt lat="43.52362" lon="6.7703">
        <ele>128.3</ele>
        <time>2014-04-21T13:56:31Z</time>
      </trkpt>
      <trkpt lat="43.52374" lon="6.77031">
        <ele>129.3</ele>
        <time>2014-04-21T13:56:33Z</time>
      </trkpt>
      <trkpt lat="43.52384" lon="6.77037">
        <ele>127.3</ele>
        <time>2014-04-21T13:56:35Z</time>
      </trkpt>
      <trkpt lat="43.52395" lon="6.77045">
        <ele>127.3</ele>
        <time>2014-04-21T13:56:37Z</time>
      </trkpt>
      <trkpt lat="43.52406" lon="6.77051">
        <ele>128.3</ele>
        <time>2014-04-21T13:56:39Z</time>
      </trkpt>
      <trkpt lat="43.52417" lon="6.77056">
        <ele>127.3</ele>
        <time>2014-04-21T13:56:41Z</time>
      </trkpt>
      <trkpt lat="43.52428" lon="6.77058">
        <ele>126.3</ele>
        <time>2014-04-21T13:56:43Z</time>
      </trkpt>
      <trkpt lat="43.52439" lon="6.77054">
        <ele>127.3</ele>
        <time>2014-04-21T13:56:45Z</time>
      </trkpt>
      <trkpt lat="43.52449" lon="6.77047">
        <ele>128.3</ele>
        <time>2014-04-21T13:56:47Z</time>
      </trkpt>
      <trkpt lat="43.52461" lon="6.77051">
        <ele>128.3</ele>
        <time>2014-04-21T13:56:49Z</time>
      </trkpt>
      <trkpt lat="43.52469" lon="6.77059">
        <ele>128.3</ele>
        <time>2014-04-21T13:56:51Z</time>
      </trkpt>
      <trkpt lat="43.52476" lon="6.77069">
        <ele>128.3</ele>
        <time>2014-04-21T13:56:53Z</time>
      </trkpt>
      <trkpt lat="43.52482" lon="6.77105">
        <ele>129.3</ele>
        <time>2014-04-21T13:56:59Z</time>
      </trkpt>
      <trkpt lat="43.52492" lon="6.77115">
        <ele>127.3</ele>
        <time>2014-04-21T13:57:02Z</time>
      </trkpt>
      <trkpt lat="43.52496" lon="6.77132">
        <ele>127.3</ele>
        <time>2014-04-21T13:57:05Z</time>
      </trkpt>
      <trkpt lat="43.52499" lon="6.77145">
        <ele>128.3</ele>
        <time>2014-04-21T13:57:07Z</time>
      </trkpt>
      <trkpt lat="43.52505" lon="6.77156">
        <ele>127.3</ele>
        <time>2014-04-21T13:57:09Z</time>
      </trkpt>
      <trkpt lat="43.52509" lon="6.77167">
        <ele>126.3</ele>
        <time>2014-04-21T13:57:11Z</time>
      </trkpt>
      <trkpt lat="43.52503" lon="6.77179">
        <ele>125.3</ele>
        <time>2014-04-21T13:57:14Z</time>
      </trkpt>
      <trkpt lat="43.52493" lon="6.77187">
        <ele>123.3</ele>
        <time>2014-04-21T13:57:16Z</time>
      </trkpt>
      <trkpt lat="43.52483" lon="6.77187">
        <ele>124.3</ele>
        <time>2014-04-21T13:57:18Z</time>
      </trkpt>
      <trkpt lat="43.52471" lon="6.77193">
        <ele>126.3</ele>
        <time>2014-04-21T13:57:21Z</time>
      </trkpt>
      <trkpt lat="43.52464" lon="6.77203">
        <ele>127.3</ele>
        <time>2014-04-21T13:57:23Z</time>
      </trkpt>
      <trkpt lat="43.52452" lon="6.77209">
        <ele>126.3</ele>
        <time>2014-04-21T13:57:26Z</time>
      </trkpt>
      <trkpt lat="43.52449" lon="6.77222">
        <ele>125.3</ele>
        <time>2014-04-21T13:57:28Z</time>
      </trkpt>
      <trkpt lat="43.52448" lon="6.77237">
        <ele>125.3</ele>
        <time>2014-04-21T13:57:31Z</time>
      </trkpt>
      <trkpt lat="43.52444" lon="6.77252">
        <ele>126.3</ele>
        <time>2014-04-21T13:57:33Z</time>
      </trkpt>
      <trkpt lat="43.52434" lon="6.77262">
        <ele>127.3</ele>
        <time>2014-04-21T13:57:37Z</time>
      </trkpt>
      <trkpt lat="43.52434" lon="6.77278">
        <ele>130.3</ele>
        <time>2014-04-21T13:57:40Z</time>
      </trkpt>
      <trkpt lat="43.52436" lon="6.77291">
        <ele>129.3</ele>
        <time>2014-04-21T13:57:42Z</time>
      </trkpt>
      <trkpt lat="43.5244" lon="6.77311">
        <ele>129.3</ele>
        <time>2014-04-21T13:57:45Z</time>
      </trkpt>
      <trkpt lat="43.52439" lon="6.77323">
        <ele>127.3</ele>
        <time>2014-04-21T13:57:47Z</time>
      </trkpt>
      <trkpt lat="43.52434" lon="6.77336">
        <ele>127.3</ele>
        <time>2014-04-21T13:57:50Z</time>
      </trkpt>
      <trkpt lat="43.52425" lon="6.77343">
        <ele>127.3</ele>
        <time>2014-04-21T13:57:53Z</time>
      </trkpt>
      <trkpt lat="43.52414" lon="6.77344">
        <ele>127.3</ele>
        <time>2014-04-21T13:57:55Z</time>
      </trkpt>
      <trkpt lat="43.52397" lon="6.77358">
        <ele>127.3</ele>
        <time>2014-04-21T13:57:59Z</time>
      </trkpt>
      <trkpt lat="43.5239" lon="6.77368">
        <ele>126.3</ele>
        <time>2014-04-21T13:58:01Z</time>
      </trkpt>
      <trkpt lat="43.52386" lon="6.7738">
        <ele>127.3</ele>
        <time>2014-04-21T13:58:03Z</time>
      </trkpt>
      <trkpt lat="43.52385" lon="6.77396">
        <ele>127.3</ele>
        <time>2014-04-21T13:58:06Z</time>
      </trkpt>
      <trkpt lat="43.52377" lon="6.77409">
        <ele>130.3</ele>
        <time>2014-04-21T13:58:10Z</time>
      </trkpt>
      <trkpt lat="43.52372" lon="6.77419">
        <ele>130.3</ele>
        <time>2014-04-21T13:58:13Z</time>
      </trkpt>
      <trkpt lat="43.52367" lon="6.7743">
        <ele>129.3</ele>
        <time>2014-04-21T13:58:16Z</time>
      </trkpt>
      <trkpt lat="43.52369" lon="6.77443">
        <ele>127.3</ele>
        <time>2014-04-21T13:58:20Z</time>
      </trkpt>
      <trkpt lat="43.52378" lon="6.77449">
        <ele>127.3</ele>
        <time>2014-04-21T13:58:23Z</time>
      </trkpt>
      <trkpt lat="43.52383" lon="6.77461">
        <ele>126.3</ele>
        <time>2014-04-21T13:58:26Z</time>
      </trkpt>
      <trkpt lat="43.52384" lon="6.77474">
        <ele>125.3</ele>
        <time>2014-04-21T13:58:28Z</time>
      </trkpt>
      <trkpt lat="43.52383" lon="6.77487">
        <ele>124.3</ele>
        <time>2014-04-21T13:58:29Z</time>
      </trkpt>
      <trkpt lat="43.52378" lon="6.77499">
        <ele>125.3</ele>
        <time>2014-04-21T13:58:31Z</time>
      </trkpt>
      <trkpt lat="43.52375" lon="6.77513">
        <ele>126.3</ele>
        <time>2014-04-21T13:58:33Z</time>
      </trkpt>
      <trkpt lat="43.52376" lon="6.77526">
        <ele>124.3</ele>
        <time>2014-04-21T13:58:35Z</time>
      </trkpt>
      <trkpt lat="43.52377" lon="6.7754">
        <ele>123.3</ele>
        <time>2014-04-21T13:58:37Z</time>
      </trkpt>
      <trkpt lat="43.52383" lon="6.77554">
        <ele>120.3</ele>
        <time>2014-04-21T13:58:40Z</time>
      </trkpt>
      <trkpt lat="43.52396" lon="6.77558">
        <ele>118.3</ele>
        <time>2014-04-21T13:58:43Z</time>
      </trkpt>
      <trkpt lat="43.52405" lon="6.77562">
        <ele>119.3</ele>
        <time>2014-04-21T13:58:45Z</time>
      </trkpt>
      <trkpt lat="43.52414" lon="6.77563">
        <ele>120.3</ele>
        <time>2014-04-21T13:58:47Z</time>
      </trkpt>
      <trkpt lat="43.52424" lon="6.77563">
        <ele>120.3</ele>
        <time>2014-04-21T13:58:49Z</time>
      </trkpt>
      <trkpt lat="43.52435" lon="6.77559">
        <ele>121.3</ele>
        <time>2014-04-21T13:58:51Z</time>
      </trkpt>
      <trkpt lat="43.52446" lon="6.77555">
        <ele>120.3</ele>
        <time>2014-04-21T13:58:53Z</time>
      </trkpt>
      <trkpt lat="43.52458" lon="6.77559">
        <ele>122.3</ele>
        <time>2014-04-21T13:58:55Z</time>
      </trkpt>
      <trkpt lat="43.52466" lon="6.77569">
        <ele>121.3</ele>
        <time>2014-04-21T13:58:57Z</time>
      </trkpt>
      <trkpt lat="43.52476" lon="6.77594">
        <ele>122.3</ele>
        <time>2014-04-21T13:59:01Z</time>
      </trkpt>
      <trkpt lat="43.52481" lon="6.77606">
        <ele>122.3</ele>
        <time>2014-04-21T13:59:03Z</time>
      </trkpt>
      <trkpt lat="43.52487" lon="6.77615">
        <ele>123.3</ele>
        <time>2014-04-21T13:59:05Z</time>
      </trkpt>
      <trkpt lat="43.52492" lon="6.77627">
        <ele>123.3</ele>
        <time>2014-04-21T13:59:07Z</time>
      </trkpt>
      <trkpt lat="43.52498" lon="6.7764">
        <ele>123.3</ele>
        <time>2014-04-21T13:59:09Z</time>
      </trkpt>
      <trkpt lat="43.52505" lon="6.77653">
        <ele>124.3</ele>
        <time>2014-04-21T13:59:11Z</time>
      </trkpt>
      <trkpt lat="43.5251" lon="6.77667">
        <ele>128.3</ele>
        <time>2014-04-21T13:59:14Z</time>
      </trkpt>
      <trkpt lat="43.52516" lon="6.77681">
        <ele>128.3</ele>
        <time>2014-04-21T13:59:17Z</time>
      </trkpt>
      <trkpt lat="43.52525" lon="6.77683">
        <ele>127.3</ele>
        <time>2014-04-21T13:59:32Z</time>
      </trkpt>
      <trkpt lat="43.52532" lon="6.77674">
        <ele>125.3</ele>
        <time>2014-04-21T13:59:43Z</time>
      </trkpt>
      <trkpt lat="43.52538" lon="6.77664">
        <ele>128.3</ele>
        <time>2014-04-21T13:59:48Z</time>
      </trkpt>
      <trkpt lat="43.52544" lon="6.77653">
        <ele>130.3</ele>
        <time>2014-04-21T13:59:51Z</time>
      </trkpt>
      <trkpt lat="43.52552" lon="6.7764">
        <ele>128.3</ele>
        <time>2014-04-21T13:59:54Z</time>
      </trkpt>
      <trkpt lat="43.52558" lon="6.77625">
        <ele>129.3</ele>
        <time>2014-04-21T13:59:57Z</time>
      </trkpt>
      <trkpt lat="43.52561" lon="6.77608">
        <ele>129.3</ele>
        <time>2014-04-21T14:00:00Z</time>
      </trkpt>
      <trkpt lat="43.52579" lon="6.77586">
        <ele>126.3</ele>
        <time>2014-04-21T14:00:05Z</time>
      </trkpt>
      <trkpt lat="43.52588" lon="6.77591">
        <ele>127.3</ele>
        <time>2014-04-21T14:00:07Z</time>
      </trkpt>
      <trkpt lat="43.52597" lon="6.77597">
        <ele>129.3</ele>
        <time>2014-04-21T14:00:09Z</time>
      </trkpt>
      <trkpt lat="43.52605" lon="6.77604">
        <ele>130.3</ele>
        <time>2014-04-21T14:00:11Z</time>
      </trkpt>
      <trkpt lat="43.52614" lon="6.77615">
        <ele>130.3</ele>
        <time>2014-04-21T14:00:13Z</time>
      </trkpt>
      <trkpt lat="43.52623" lon="6.77621">
        <ele>129.3</ele>
        <time>2014-04-21T14:00:15Z</time>
      </trkpt>
      <trkpt lat="43.52631" lon="6.77625">
        <ele>129.3</ele>
        <time>2014-04-21T14:00:17Z</time>
      </trkpt>
      <trkpt lat="43.52641" lon="6.77634">
        <ele>128.3</ele>
        <time>2014-04-21T14:00:19Z</time>
      </trkpt>
      <trkpt lat="43.5265" lon="6.77641">
        <ele>127.3</ele>
        <time>2014-04-21T14:00:21Z</time>
      </trkpt>
      <trkpt lat="43.52659" lon="6.77649">
        <ele>127.3</ele>
        <time>2014-04-21T14:00:23Z</time>
      </trkpt>
      <trkpt lat="43.52671" lon="6.77652">
        <ele>127.3</ele>
        <time>2014-04-21T14:00:25Z</time>
      </trkpt>
      <trkpt lat="43.52682" lon="6.77652">
        <ele>126.3</ele>
        <time>2014-04-21T14:00:27Z</time>
      </trkpt>
      <trkpt lat="43.52693" lon="6.77649">
        <ele>124.3</ele>
        <time>2014-04-21T14:00:29Z</time>
      </trkpt>
      <trkpt lat="43.52703" lon="6.77646">
        <ele>126.3</ele>
        <time>2014-04-21T14:00:31Z</time>
      </trkpt>
      <trkpt lat="43.52716" lon="6.77651">
        <ele>126.3</ele>
        <time>2014-04-21T14:00:34Z</time>
      </trkpt>
      <trkpt lat="43.52729" lon="6.77646">
        <ele>126.3</ele>
        <time>2014-04-21T14:00:37Z</time>
      </trkpt>
      <trkpt lat="43.52738" lon="6.77644">
        <ele>127.3</ele>
        <time>2014-04-21T14:00:39Z</time>
      </trkpt>
      <trkpt lat="43.52748" lon="6.77644">
        <ele>126.3</ele>
        <time>2014-04-21T14:00:41Z</time>
      </trkpt>
      <trkpt lat="43.52757" lon="6.77644">
        <ele>127.3</ele>
        <time>2014-04-21T14:00:43Z</time>
      </trkpt>
      <trkpt lat="43.52767" lon="6.77647">
        <ele>126.3</ele>
        <time>2014-04-21T14:00:45Z</time>
      </trkpt>
      <trkpt lat="43.52779" lon="6.77648">
        <ele>125.3</ele>
        <time>2014-04-21T14:00:47Z</time>
      </trkpt>
      <trkpt lat="43.52789" lon="6.77649">
        <ele>125.3</ele>
        <time>2014-04-21T14:00:49Z</time>
      </trkpt>
      <trkpt lat="43.52798" lon="6.77653">
        <ele>126.3</ele>
        <time>2014-04-21T14:00:51Z</time>
      </trkpt>
      <trkpt lat="43.52811" lon="6.77658">
        <ele>125.3</ele>
        <time>2014-04-21T14:00:54Z</time>
      </trkpt>
      <trkpt lat="43.5282" lon="6.77664">
        <ele>127.3</ele>
        <time>2014-04-21T14:00:56Z</time>
      </trkpt>
      <trkpt lat="43.52829" lon="6.77675">
        <ele>126.3</ele>
        <time>2014-04-21T14:00:59Z</time>
      </trkpt>
      <trkpt lat="43.52839" lon="6.77684">
        <ele>126.3</ele>
        <time>2014-04-21T14:01:02Z</time>
      </trkpt>
      <trkpt lat="43.52864" lon="6.77691">
        <ele>126.3</ele>
        <time>2014-04-21T14:01:08Z</time>
      </trkpt>
      <trkpt lat="43.52876" lon="6.777">
        <ele>125.3</ele>
        <time>2014-04-21T14:01:11Z</time>
      </trkpt>
      <trkpt lat="43.52885" lon="6.77698">
        <ele>126.3</ele>
        <time>2014-04-21T14:01:13Z</time>
      </trkpt>
      <trkpt lat="43.52895" lon="6.77696">
        <ele>127.3</ele>
        <time>2014-04-21T14:01:15Z</time>
      </trkpt>
      <trkpt lat="43.52904" lon="6.77692">
        <ele>127.3</ele>
        <time>2014-04-21T14:01:17Z</time>
      </trkpt>
      <trkpt lat="43.52914" lon="6.77697">
        <ele>127.3</ele>
        <time>2014-04-21T14:01:20Z</time>
      </trkpt>
      <trkpt lat="43.52922" lon="6.77704">
        <ele>130.3</ele>
        <time>2014-04-21T14:01:25Z</time>
      </trkpt>
      <trkpt lat="43.5293" lon="6.77712">
        <ele>133.3</ele>
        <time>2014-04-21T14:01:32Z</time>
      </trkpt>
      <trkpt lat="43.52925" lon="6.77724">
        <ele>132.3</ele>
        <time>2014-04-21T14:01:44Z</time>
      </trkpt>
      <trkpt lat="43.52923" lon="6.77738">
        <ele>131.3</ele>
        <time>2014-04-21T14:01:49Z</time>
      </trkpt>
      <trkpt lat="43.52922" lon="6.77751">
        <ele>129.3</ele>
        <time>2014-04-21T14:01:53Z</time>
      </trkpt>
      <trkpt lat="43.52917" lon="6.77767">
        <ele>127.3</ele>
        <time>2014-04-21T14:01:57Z</time>
      </trkpt>
      <trkpt lat="43.5291" lon="6.77776">
        <ele>127.3</ele>
        <time>2014-04-21T14:01:59Z</time>
      </trkpt>
      <trkpt lat="43.529" lon="6.77786">
        <ele>126.3</ele>
        <time>2014-04-21T14:02:02Z</time>
      </trkpt>
      <trkpt lat="43.5289" lon="6.77798">
        <ele>126.3</ele>
        <time>2014-04-21T14:02:05Z</time>
      </trkpt>
      <trkpt lat="43.5287" lon="6.77813">
        <ele>126.3</ele>
        <time>2014-04-21T14:02:10Z</time>
      </trkpt>
      <trkpt lat="43.52862" lon="6.77821">
        <ele>126.3</ele>
        <time>2014-04-21T14:02:12Z</time>
      </trkpt>
      <trkpt lat="43.52851" lon="6.77828">
        <ele>127.3</ele>
        <time>2014-04-21T14:02:15Z</time>
      </trkpt>
      <trkpt lat="43.52839" lon="6.77833">
        <ele>128.3</ele>
        <time>2014-04-21T14:02:18Z</time>
      </trkpt>
      <trkpt lat="43.52828" lon="6.77838">
        <ele>129.3</ele>
        <time>2014-04-21T14:02:21Z</time>
      </trkpt>
      <trkpt lat="43.52816" lon="6.77842">
        <ele>130.3</ele>
        <time>2014-04-21T14:02:24Z</time>
      </trkpt>
      <trkpt lat="43.52805" lon="6.77847">
        <ele>131.3</ele>
        <time>2014-04-21T14:02:26Z</time>
      </trkpt>
      <trkpt lat="43.52797" lon="6.77856">
        <ele>129.3</ele>
        <time>2014-04-21T14:02:30Z</time>
      </trkpt>
      <trkpt lat="43.52805" lon="6.77865">
        <ele>128.3</ele>
        <time>2014-04-21T14:02:35Z</time>
      </trkpt>
      <trkpt lat="43.52814" lon="6.7787">
        <ele>128.3</ele>
        <time>2014-04-21T14:02:39Z</time>
      </trkpt>
      <trkpt lat="43.52824" lon="6.77878">
        <ele>127.3</ele>
        <time>2014-04-21T14:02:44Z</time>
      </trkpt>
      <trkpt lat="43.52835" lon="6.77879">
        <ele>128.3</ele>
        <time>2014-04-21T14:02:47Z</time>
      </trkpt>
      <trkpt lat="43.52844" lon="6.77881">
        <ele>127.3</ele>
        <time>2014-04-21T14:02:49Z</time>
      </trkpt>
      <trkpt lat="43.52855" lon="6.77884">
        <ele>127.3</ele>
        <time>2014-04-21T14:02:51Z</time>
      </trkpt>
      <trkpt lat="43.52864" lon="6.77888">
        <ele>127.3</ele>
        <time>2014-04-21T14:02:53Z</time>
      </trkpt>
      <trkpt lat="43.52874" lon="6.77889">
        <ele>128.3</ele>
        <time>2014-04-21T14:02:55Z</time>
      </trkpt>
      <trkpt lat="43.52886" lon="6.77889">
        <ele>129.3</ele>
        <time>2014-04-21T14:02:58Z</time>
      </trkpt>
      <trkpt lat="43.52898" lon="6.7789">
        <ele>128.3</ele>
        <time>2014-04-21T14:03:01Z</time>
      </trkpt>
      <trkpt lat="43.52911" lon="6.77895">
        <ele>127.3</ele>
        <time>2014-04-21T14:03:04Z</time>
      </trkpt>
      <trkpt lat="43.5292" lon="6.77896">
        <ele>127.3</ele>
        <time>2014-04-21T14:03:06Z</time>
      </trkpt>
      <trkpt lat="43.5294" lon="6.77897">
        <ele>127.3</ele>
        <time>2014-04-21T14:03:10Z</time>
      </trkpt>
      <trkpt lat="43.5295" lon="6.77898">
        <ele>127.3</ele>
        <time>2014-04-21T14:03:12Z</time>
      </trkpt>
      <trkpt lat="43.5296" lon="6.77903">
        <ele>128.3</ele>
        <time>2014-04-21T14:03:14Z</time>
      </trkpt>
      <trkpt lat="43.52969" lon="6.7791">
        <ele>128.3</ele>
        <time>2014-04-21T14:03:16Z</time>
      </trkpt>
      <trkpt lat="43.52977" lon="6.77917">
        <ele>128.3</ele>
        <time>2014-04-21T14:03:18Z</time>
      </trkpt>
      <trkpt lat="43.52987" lon="6.77921">
        <ele>129.3</ele>
        <time>2014-04-21T14:03:20Z</time>
      </trkpt>
      <trkpt lat="43.52997" lon="6.77926">
        <ele>129.3</ele>
        <time>2014-04-21T14:03:22Z</time>
      </trkpt>
      <trkpt lat="43.53009" lon="6.77931">
        <ele>129.3</ele>
        <time>2014-04-21T14:03:25Z</time>
      </trkpt>
      <trkpt lat="43.5302" lon="6.77937">
        <ele>128.3</ele>
        <time>2014-04-21T14:03:28Z</time>
      </trkpt>
      <trkpt lat="43.5303" lon="6.77947">
        <ele>127.3</ele>
        <time>2014-04-21T14:03:31Z</time>
      </trkpt>
      <trkpt lat="43.53042" lon="6.77948">
        <ele>127.3</ele>
        <time>2014-04-21T14:03:34Z</time>
      </trkpt>
      <trkpt lat="43.53051" lon="6.77938">
        <ele>127.3</ele>
        <time>2014-04-21T14:03:37Z</time>
      </trkpt>
      <trkpt lat="43.53063" lon="6.77927">
        <ele>128.3</ele>
        <time>2014-04-21T14:03:40Z</time>
      </trkpt>
      <trkpt lat="43.53074" lon="6.7793">
        <ele>128.3</ele>
        <time>2014-04-21T14:03:43Z</time>
      </trkpt>
      <trkpt lat="43.53081" lon="6.77943">
        <ele>128.3</ele>
        <time>2014-04-21T14:03:46Z</time>
      </trkpt>
      <trkpt lat="43.53087" lon="6.77954">
        <ele>129.3</ele>
        <time>2014-04-21T14:03:48Z</time>
      </trkpt>
      <trkpt lat="43.53091" lon="6.77966">
        <ele>127.3</ele>
        <time>2014-04-21T14:03:50Z</time>
      </trkpt>
      <trkpt lat="43.53097" lon="6.77978">
        <ele>127.3</ele>
        <time>2014-04-21T14:03:52Z</time>
      </trkpt>
      <trkpt lat="43.53104" lon="6.77987">
        <ele>128.3</ele>
        <time>2014-04-21T14:03:54Z</time>
      </trkpt>
      <trkpt lat="43.53114" lon="6.77991">
        <ele>129.3</ele>
        <time>2014-04-21T14:03:56Z</time>
      </trkpt>
      <trkpt lat="43.53123" lon="6.7799">
        <ele>130.3</ele>
        <time>2014-04-21T14:03:58Z</time>
      </trkpt>
      <trkpt lat="43.53132" lon="6.77982">
        <ele>131.3</ele>
        <time>2014-04-21T14:04:00Z</time>
      </trkpt>
      <trkpt lat="43.5314" lon="6.7797">
        <ele>131.3</ele>
        <time>2014-04-21T14:04:02Z</time>
      </trkpt>
      <trkpt lat="43.53148" lon="6.77959">
        <ele>131.3</ele>
        <time>2014-04-21T14:04:04Z</time>
      </trkpt>
      <trkpt lat="43.53157" lon="6.7795">
        <ele>131.3</ele>
        <time>2014-04-21T14:04:06Z</time>
      </trkpt>
      <trkpt lat="43.53167" lon="6.7794">
        <ele>131.3</ele>
        <time>2014-04-21T14:04:08Z</time>
      </trkpt>
      <trkpt lat="43.53181" lon="6.77911">
        <ele>130.3</ele>
        <time>2014-04-21T14:04:12Z</time>
      </trkpt>
      <trkpt lat="43.53187" lon="6.77899">
        <ele>129.3</ele>
        <time>2014-04-21T14:04:14Z</time>
      </trkpt>
      <trkpt lat="43.53197" lon="6.7789">
        <ele>128.3</ele>
        <time>2014-04-21T14:04:16Z</time>
      </trkpt>
      <trkpt lat="43.53205" lon="6.7788">
        <ele>126.3</ele>
        <time>2014-04-21T14:04:18Z</time>
      </trkpt>
      <trkpt lat="43.53212" lon="6.77865">
        <ele>123.3</ele>
        <time>2014-04-21T14:04:21Z</time>
      </trkpt>
      <trkpt lat="43.53218" lon="6.77852">
        <ele>121.3</ele>
        <time>2014-04-21T14:04:23Z</time>
      </trkpt>
      <trkpt lat="43.53223" lon="6.77836">
        <ele>120.3</ele>
        <time>2014-04-21T14:04:25Z</time>
      </trkpt>
      <trkpt lat="43.53228" lon="6.77819">
        <ele>119.3</ele>
        <time>2014-04-21T14:04:27Z</time>
      </trkpt>
      <trkpt lat="43.53234" lon="6.77806">
        <ele>119.3</ele>
        <time>2014-04-21T14:04:29Z</time>
      </trkpt>
      <trkpt lat="43.53243" lon="6.77796">
        <ele>119.3</ele>
        <time>2014-04-21T14:04:31Z</time>
      </trkpt>
      <trkpt lat="43.53252" lon="6.77789">
        <ele>119.3</ele>
        <time>2014-04-21T14:04:34Z</time>
      </trkpt>
      <trkpt lat="43.53262" lon="6.77782">
        <ele>120.3</ele>
        <time>2014-04-21T14:04:37Z</time>
      </trkpt>
      <trkpt lat="43.5327" lon="6.77773">
        <ele>122.3</ele>
        <time>2014-04-21T14:04:40Z</time>
      </trkpt>
      <trkpt lat="43.53277" lon="6.7776">
        <ele>121.3</ele>
        <time>2014-04-21T14:04:43Z</time>
      </trkpt>
      <trkpt lat="43.53282" lon="6.77748">
        <ele>120.3</ele>
        <time>2014-04-21T14:04:45Z</time>
      </trkpt>
      <trkpt lat="43.53288" lon="6.77736">
        <ele>119.3</ele>
        <time>2014-04-21T14:04:47Z</time>
      </trkpt>
      <trkpt lat="43.53295" lon="6.77726">
        <ele>118.3</ele>
        <time>2014-04-21T14:04:49Z</time>
      </trkpt>
      <trkpt lat="43.53304" lon="6.77717">
        <ele>117.3</ele>
        <time>2014-04-21T14:04:51Z</time>
      </trkpt>
      <trkpt lat="43.53312" lon="6.77704">
        <ele>116.3</ele>
        <time>2014-04-21T14:04:53Z</time>
      </trkpt>
      <trkpt lat="43.53319" lon="6.77692">
        <ele>116.3</ele>
        <time>2014-04-21T14:04:55Z</time>
      </trkpt>
      <trkpt lat="43.53329" lon="6.77683">
        <ele>114.3</ele>
        <time>2014-04-21T14:04:58Z</time>
      </trkpt>
      <trkpt lat="43.53341" lon="6.77679">
        <ele>111.3</ele>
        <time>2014-04-21T14:05:01Z</time>
      </trkpt>
      <trkpt lat="43.53351" lon="6.77671">
        <ele>109.3</ele>
        <time>2014-04-21T14:05:04Z</time>
      </trkpt>
      <trkpt lat="43.53357" lon="6.7766">
        <ele>106.3</ele>
        <time>2014-04-21T14:05:06Z</time>
      </trkpt>
      <trkpt lat="43.5336" lon="6.77644">
        <ele>104.3</ele>
        <time>2014-04-21T14:05:08Z</time>
      </trkpt>
      <trkpt lat="43.53363" lon="6.77631">
        <ele>103.3</ele>
        <time>2014-04-21T14:05:10Z</time>
      </trkpt>
      <trkpt lat="43.53367" lon="6.77605">
        <ele>99.3</ele>
        <time>2014-04-21T14:05:14Z</time>
      </trkpt>
      <trkpt lat="43.53373" lon="6.77592">
        <ele>97.3</ele>
        <time>2014-04-21T14:05:17Z</time>
      </trkpt>
      <trkpt lat="43.53382" lon="6.7758">
        <ele>94.3</ele>
        <time>2014-04-21T14:05:20Z</time>
      </trkpt>
      <trkpt lat="43.53388" lon="6.77567">
        <ele>92.3</ele>
        <time>2014-04-21T14:05:23Z</time>
      </trkpt>
      <trkpt lat="43.53394" lon="6.77555">
        <ele>90.3</ele>
        <time>2014-04-21T14:05:25Z</time>
      </trkpt>
      <trkpt lat="43.534" lon="6.77539">
        <ele>88.3</ele>
        <time>2014-04-21T14:05:28Z</time>
      </trkpt>
      <trkpt lat="43.53409" lon="6.77527">
        <ele>86.3</ele>
        <time>2014-04-21T14:05:31Z</time>
      </trkpt>
      <trkpt lat="43.53417" lon="6.77514">
        <ele>85.3</ele>
        <time>2014-04-21T14:05:33Z</time>
      </trkpt>
      <trkpt lat="43.53423" lon="6.77498">
        <ele>84.3</ele>
        <time>2014-04-21T14:05:35Z</time>
      </trkpt>
      <trkpt lat="43.53428" lon="6.77483">
        <ele>83.3</ele>
        <time>2014-04-21T14:05:37Z</time>
      </trkpt>
      <trkpt lat="43.53434" lon="6.77471">
        <ele>82.3</ele>
        <time>2014-04-21T14:05:39Z</time>
      </trkpt>
      <trkpt lat="43.53443" lon="6.77468">
        <ele>81.3</ele>
        <time>2014-04-21T14:05:41Z</time>
      </trkpt>
      <trkpt lat="43.53454" lon="6.7747">
        <ele>80.3</ele>
        <time>2014-04-21T14:05:43Z</time>
      </trkpt>
      <trkpt lat="43.53464" lon="6.77472">
        <ele>77.3</ele>
        <time>2014-04-21T14:05:45Z</time>
      </trkpt>
      <trkpt lat="43.53475" lon="6.77473">
        <ele>76.3</ele>
        <time>2014-04-21T14:05:48Z</time>
      </trkpt>
      <trkpt lat="43.53475" lon="6.77459">
        <ele>74.3</ele>
        <time>2014-04-21T14:05:52Z</time>
      </trkpt>
      <trkpt lat="43.53473" lon="6.77446">
        <ele>74.3</ele>
        <time>2014-04-21T14:05:55Z</time>
      </trkpt>
      <trkpt lat="43.53471" lon="6.77434">
        <ele>74.3</ele>
        <time>2014-04-21T14:05:59Z</time>
      </trkpt>
      <trkpt lat="43.53463" lon="6.77429">
        <ele>75.3</ele>
        <time>2014-04-21T14:06:37Z</time>
      </trkpt>
      <trkpt lat="43.53452" lon="6.77414">
        <ele>78.3</ele>
        <time>2014-04-21T14:07:57Z</time>
      </trkpt>
      <trkpt lat="43.53423" lon="6.77393">
        <ele>77.3</ele>
        <time>2014-04-21T14:13:50Z</time>
      </trkpt>
      <trkpt lat="43.53415" lon="6.77385">
        <ele>77.3</ele>
        <time>2014-04-21T14:13:54Z</time>
      </trkpt>
      <trkpt lat="43.53406" lon="6.77377">
        <ele>77.3</ele>
        <time>2014-04-21T14:13:58Z</time>
      </trkpt>
      <trkpt lat="43.53395" lon="6.77368">
        <ele>79.3</ele>
        <time>2014-04-21T14:14:02Z</time>
      </trkpt>
      <trkpt lat="43.53383" lon="6.7736">
        <ele>80.3</ele>
        <time>2014-04-21T14:14:06Z</time>
      </trkpt>
      <trkpt lat="43.53373" lon="6.77355">
        <ele>82.3</ele>
        <time>2014-04-21T14:14:10Z</time>
      </trkpt>
      <trkpt lat="43.53365" lon="6.77348">
        <ele>85.3</ele>
        <time>2014-04-21T14:14:14Z</time>
      </trkpt>
      <trkpt lat="43.53365" lon="6.77334">
        <ele>84.3</ele>
        <time>2014-04-21T14:14:18Z</time>
      </trkpt>
      <trkpt lat="43.53374" lon="6.77335">
        <ele>84.3</ele>
        <time>2014-04-21T14:14:29Z</time>
      </trkpt>
      <trkpt lat="43.53383" lon="6.77338">
        <ele>85.3</ele>
        <time>2014-04-21T14:14:34Z</time>
      </trkpt>
      <trkpt lat="43.53394" lon="6.77341">
        <ele>83.3</ele>
        <time>2014-04-21T14:14:38Z</time>
      </trkpt>
      <trkpt lat="43.53403" lon="6.77343">
        <ele>84.3</ele>
        <time>2014-04-21T14:14:41Z</time>
      </trkpt>
      <trkpt lat="43.53423" lon="6.77344">
        <ele>77.3</ele>
        <time>2014-04-21T14:14:47Z</time>
      </trkpt>
      <trkpt lat="43.53432" lon="6.77347">
        <ele>78.3</ele>
        <time>2014-04-21T14:14:50Z</time>
      </trkpt>
      <trkpt lat="43.53443" lon="6.77351">
        <ele>81.3</ele>
        <time>2014-04-21T14:14:54Z</time>
      </trkpt>
      <trkpt lat="43.53452" lon="6.77353">
        <ele>78.3</ele>
        <time>2014-04-21T14:14:58Z</time>
      </trkpt>
      <trkpt lat="43.53462" lon="6.77354">
        <ele>77.3</ele>
        <time>2014-04-21T14:15:04Z</time>
      </trkpt>
      <trkpt lat="43.53471" lon="6.77358">
        <ele>78.3</ele>
        <time>2014-04-21T14:15:10Z</time>
      </trkpt>
      <trkpt lat="43.53481" lon="6.77361">
        <ele>78.3</ele>
        <time>2014-04-21T14:15:16Z</time>
      </trkpt>
      <trkpt lat="43.53491" lon="6.77362">
        <ele>77.3</ele>
        <time>2014-04-21T14:15:21Z</time>
      </trkpt>
      <trkpt lat="43.53501" lon="6.77366">
        <ele>78.3</ele>
        <time>2014-04-21T14:15:26Z</time>
      </trkpt>
      <trkpt lat="43.5351" lon="6.77369">
        <ele>82.3</ele>
        <time>2014-04-21T14:15:30Z</time>
      </trkpt>
      <trkpt lat="43.53519" lon="6.77374">
        <ele>83.3</ele>
        <time>2014-04-21T14:15:34Z</time>
      </trkpt>
      <trkpt lat="43.53528" lon="6.77378">
        <ele>84.3</ele>
        <time>2014-04-21T14:15:38Z</time>
      </trkpt>
      <trkpt lat="43.53539" lon="6.77383">
        <ele>83.3</ele>
        <time>2014-04-21T14:15:42Z</time>
      </trkpt>
      <trkpt lat="43.53559" lon="6.77391">
        <ele>84.3</ele>
        <time>2014-04-21T14:15:50Z</time>
      </trkpt>
      <trkpt lat="43.5357" lon="6.77396">
        <ele>83.3</ele>
        <time>2014-04-21T14:15:54Z</time>
      </trkpt>
      <trkpt lat="43.5358" lon="6.77402">
        <ele>85.3</ele>
        <time>2014-04-21T14:15:58Z</time>
      </trkpt>
      <trkpt lat="43.53589" lon="6.77406">
        <ele>83.3</ele>
        <time>2014-04-21T14:16:01Z</time>
      </trkpt>
      <trkpt lat="43.53598" lon="6.77409">
        <ele>83.3</ele>
        <time>2014-04-21T14:16:04Z</time>
      </trkpt>
      <trkpt lat="43.53607" lon="6.77414">
        <ele>84.3</ele>
        <time>2014-04-21T14:16:07Z</time>
      </trkpt>
      <trkpt lat="43.53616" lon="6.77419">
        <ele>83.3</ele>
        <time>2014-04-21T14:16:10Z</time>
      </trkpt>
      <trkpt lat="43.53625" lon="6.77424">
        <ele>83.3</ele>
        <time>2014-04-21T14:16:13Z</time>
      </trkpt>
      <trkpt lat="43.53635" lon="6.77429">
        <ele>84.3</ele>
        <time>2014-04-21T14:16:16Z</time>
      </trkpt>
      <trkpt lat="43.53646" lon="6.77434">
        <ele>82.3</ele>
        <time>2014-04-21T14:16:19Z</time>
      </trkpt>
      <trkpt lat="43.53656" lon="6.7744">
        <ele>83.3</ele>
        <time>2014-04-21T14:16:22Z</time>
      </trkpt>
      <trkpt lat="43.53665" lon="6.77446">
        <ele>82.3</ele>
        <time>2014-04-21T14:16:25Z</time>
      </trkpt>
      <trkpt lat="43.53676" lon="6.77453">
        <ele>83.3</ele>
        <time>2014-04-21T14:16:28Z</time>
      </trkpt>
      <trkpt lat="43.53686" lon="6.7746">
        <ele>84.3</ele>
        <time>2014-04-21T14:16:31Z</time>
      </trkpt>
      <trkpt lat="43.53697" lon="6.77466">
        <ele>83.3</ele>
        <time>2014-04-21T14:16:34Z</time>
      </trkpt>
      <trkpt lat="43.53706" lon="6.77472">
        <ele>83.3</ele>
        <time>2014-04-21T14:16:37Z</time>
      </trkpt>
      <trkpt lat="43.53714" lon="6.77478">
        <ele>81.3</ele>
        <time>2014-04-21T14:16:40Z</time>
      </trkpt>
      <trkpt lat="43.53723" lon="6.77486">
        <ele>82.3</ele>
        <time>2014-04-21T14:16:43Z</time>
      </trkpt>
      <trkpt lat="43.53739" lon="6.775">
        <ele>84.3</ele>
        <time>2014-04-21T14:16:49Z</time>
      </trkpt>
      <trkpt lat="43.53748" lon="6.77505">
        <ele>83.3</ele>
        <time>2014-04-21T14:16:52Z</time>
      </trkpt>
      <trkpt lat="43.53757" lon="6.77511">
        <ele>84.3</ele>
        <time>2014-04-21T14:16:55Z</time>
      </trkpt>
      <trkpt lat="43.53765" lon="6.77516">
        <ele>85.3</ele>
        <time>2014-04-21T14:16:58Z</time>
      </trkpt>
      <trkpt lat="43.53774" lon="6.77523">
        <ele>86.3</ele>
        <time>2014-04-21T14:17:01Z</time>
      </trkpt>
      <trkpt lat="43.53783" lon="6.77529">
        <ele>85.3</ele>
        <time>2014-04-21T14:17:04Z</time>
      </trkpt>
      <trkpt lat="43.53791" lon="6.77535">
        <ele>85.3</ele>
        <time>2014-04-21T14:17:07Z</time>
      </trkpt>
      <trkpt lat="43.538" lon="6.77542">
        <ele>85.3</ele>
        <time>2014-04-21T14:17:10Z</time>
      </trkpt>
      <trkpt lat="43.53809" lon="6.77548">
        <ele>84.3</ele>
        <time>2014-04-21T14:17:13Z</time>
      </trkpt>
      <trkpt lat="43.53818" lon="6.77555">
        <ele>85.3</ele>
        <time>2014-04-21T14:17:16Z</time>
      </trkpt>
      <trkpt lat="43.53827" lon="6.77561">
        <ele>84.3</ele>
        <time>2014-04-21T14:17:19Z</time>
      </trkpt>
      <trkpt lat="43.53835" lon="6.77568">
        <ele>85.3</ele>
        <time>2014-04-21T14:17:22Z</time>
      </trkpt>
      <trkpt lat="43.53843" lon="6.77575">
        <ele>85.3</ele>
        <time>2014-04-21T14:17:25Z</time>
      </trkpt>
      <trkpt lat="43.53851" lon="6.77582">
        <ele>85.3</ele>
        <time>2014-04-21T14:17:28Z</time>
      </trkpt>
      <trkpt lat="43.5386" lon="6.77589">
        <ele>85.3</ele>
        <time>2014-04-21T14:17:31Z</time>
      </trkpt>
      <trkpt lat="43.53868" lon="6.77595">
        <ele>84.3</ele>
        <time>2014-04-21T14:17:34Z</time>
      </trkpt>
      <trkpt lat="43.53876" lon="6.77601">
        <ele>85.3</ele>
        <time>2014-04-21T14:17:37Z</time>
      </trkpt>
      <trkpt lat="43.53884" lon="6.77606">
        <ele>84.3</ele>
        <time>2014-04-21T14:17:40Z</time>
      </trkpt>
      <trkpt lat="43.53895" lon="6.77613">
        <ele>84.3</ele>
        <time>2014-04-21T14:17:44Z</time>
      </trkpt>
      <trkpt lat="43.53913" lon="6.77624">
        <ele>82.3</ele>
        <time>2014-04-21T14:17:50Z</time>
      </trkpt>
      <trkpt lat="43.53921" lon="6.7763">
        <ele>82.3</ele>
        <time>2014-04-21T14:17:53Z</time>
      </trkpt>
      <trkpt lat="43.5393" lon="6.77637">
        <ele>83.3</ele>
        <time>2014-04-21T14:17:56Z</time>
      </trkpt>
      <trkpt lat="43.53938" lon="6.77644">
        <ele>84.3</ele>
        <time>2014-04-21T14:17:59Z</time>
      </trkpt>
      <trkpt lat="43.53948" lon="6.7765">
        <ele>85.3</ele>
        <time>2014-04-21T14:18:02Z</time>
      </trkpt>
      <trkpt lat="43.53958" lon="6.77654">
        <ele>85.3</ele>
        <time>2014-04-21T14:18:05Z</time>
      </trkpt>
      <trkpt lat="43.53968" lon="6.77659">
        <ele>89.3</ele>
        <time>2014-04-21T14:18:08Z</time>
      </trkpt>
      <trkpt lat="43.53979" lon="6.77664">
        <ele>88.3</ele>
        <time>2014-04-21T14:18:11Z</time>
      </trkpt>
      <trkpt lat="43.53991" lon="6.77669">
        <ele>89.3</ele>
        <time>2014-04-21T14:18:14Z</time>
      </trkpt>
      <trkpt lat="43.54002" lon="6.77674">
        <ele>89.3</ele>
        <time>2014-04-21T14:18:17Z</time>
      </trkpt>
      <trkpt lat="43.54013" lon="6.77678">
        <ele>89.3</ele>
        <time>2014-04-21T14:18:20Z</time>
      </trkpt>
      <trkpt lat="43.54024" lon="6.77683">
        <ele>88.3</ele>
        <time>2014-04-21T14:18:23Z</time>
      </trkpt>
      <trkpt lat="43.54034" lon="6.77689">
        <ele>88.3</ele>
        <time>2014-04-21T14:18:26Z</time>
      </trkpt>
      <trkpt lat="43.54045" lon="6.77694">
        <ele>89.3</ele>
        <time>2014-04-21T14:18:29Z</time>
      </trkpt>
      <trkpt lat="43.54055" lon="6.77698">
        <ele>88.3</ele>
        <time>2014-04-21T14:18:32Z</time>
      </trkpt>
      <trkpt lat="43.54066" lon="6.777">
        <ele>89.3</ele>
        <time>2014-04-21T14:18:35Z</time>
      </trkpt>
      <trkpt lat="43.5408" lon="6.77695">
        <ele>85.3</ele>
        <time>2014-04-21T14:18:38Z</time>
      </trkpt>
      <trkpt lat="43.54092" lon="6.77693">
        <ele>84.3</ele>
        <time>2014-04-21T14:18:40Z</time>
      </trkpt>
      <trkpt lat="43.54106" lon="6.7769">
        <ele>83.3</ele>
        <time>2014-04-21T14:18:42Z</time>
      </trkpt>
      <trkpt lat="43.54122" lon="6.7769">
        <ele>81.3</ele>
        <time>2014-04-21T14:18:44Z</time>
      </trkpt>
      <trkpt lat="43.54134" lon="6.77691">
        <ele>80.3</ele>
        <time>2014-04-21T14:18:46Z</time>
      </trkpt>
      <trkpt lat="43.54151" lon="6.77708">
        <ele>83.3</ele>
        <time>2014-04-21T14:18:53Z</time>
      </trkpt>
      <trkpt lat="43.54159" lon="6.77716">
        <ele>83.3</ele>
        <time>2014-04-21T14:18:59Z</time>
      </trkpt>
      <trkpt lat="43.54169" lon="6.77716">
        <ele>80.3</ele>
        <time>2014-04-21T14:19:03Z</time>
      </trkpt>
      <trkpt lat="43.54179" lon="6.77716">
        <ele>81.3</ele>
        <time>2014-04-21T14:19:07Z</time>
      </trkpt>
      <trkpt lat="43.54189" lon="6.77715">
        <ele>82.3</ele>
        <time>2014-04-21T14:19:11Z</time>
      </trkpt>
      <trkpt lat="43.54201" lon="6.77713">
        <ele>82.3</ele>
        <time>2014-04-21T14:19:15Z</time>
      </trkpt>
      <trkpt lat="43.5421" lon="6.77712">
        <ele>80.3</ele>
        <time>2014-04-21T14:19:18Z</time>
      </trkpt>
      <trkpt lat="43.5422" lon="6.77712">
        <ele>81.3</ele>
        <time>2014-04-21T14:19:21Z</time>
      </trkpt>
      <trkpt lat="43.54229" lon="6.77714">
        <ele>84.3</ele>
        <time>2014-04-21T14:19:25Z</time>
      </trkpt>
      <trkpt lat="43.54252" lon="6.77718">
        <ele>87.3</ele>
        <time>2014-04-21T14:19:35Z</time>
      </trkpt>
      <trkpt lat="43.54262" lon="6.77718">
        <ele>88.3</ele>
        <time>2014-04-21T14:19:40Z</time>
      </trkpt>
      <trkpt lat="43.54272" lon="6.77718">
        <ele>91.3</ele>
        <time>2014-04-21T14:19:45Z</time>
      </trkpt>
      <trkpt lat="43.54282" lon="6.77718">
        <ele>93.3</ele>
        <time>2014-04-21T14:19:50Z</time>
      </trkpt>
      <trkpt lat="43.543" lon="6.77725">
        <ele>96.3</ele>
        <time>2014-04-21T14:20:00Z</time>
      </trkpt>
      <trkpt lat="43.54309" lon="6.77734">
        <ele>97.3</ele>
        <time>2014-04-21T14:20:05Z</time>
      </trkpt>
      <trkpt lat="43.54318" lon="6.77744">
        <ele>96.3</ele>
        <time>2014-04-21T14:20:10Z</time>
      </trkpt>
      <trkpt lat="43.54327" lon="6.77754">
        <ele>96.3</ele>
        <time>2014-04-21T14:20:15Z</time>
      </trkpt>
      <trkpt lat="43.54336" lon="6.77762">
        <ele>97.3</ele>
        <time>2014-04-21T14:20:20Z</time>
      </trkpt>
      <trkpt lat="43.54344" lon="6.77769">
        <ele>97.3</ele>
        <time>2014-04-21T14:20:24Z</time>
      </trkpt>
      <trkpt lat="43.54356" lon="6.77771">
        <ele>98.3</ele>
        <time>2014-04-21T14:20:28Z</time>
      </trkpt>
      <trkpt lat="43.54367" lon="6.77771">
        <ele>99.3</ele>
        <time>2014-04-21T14:20:32Z</time>
      </trkpt>
      <trkpt lat="43.54379" lon="6.7777">
        <ele>100.3</ele>
        <time>2014-04-21T14:20:36Z</time>
      </trkpt>
      <trkpt lat="43.54391" lon="6.77769">
        <ele>101.3</ele>
        <time>2014-04-21T14:20:40Z</time>
      </trkpt>
      <trkpt lat="43.54401" lon="6.77769">
        <ele>101.3</ele>
        <time>2014-04-21T14:20:43Z</time>
      </trkpt>
      <trkpt lat="43.54411" lon="6.77768">
        <ele>101.3</ele>
        <time>2014-04-21T14:20:46Z</time>
      </trkpt>
      <trkpt lat="43.54421" lon="6.77768">
        <ele>102.3</ele>
        <time>2014-04-21T14:20:49Z</time>
      </trkpt>
      <trkpt lat="43.54431" lon="6.77768">
        <ele>102.3</ele>
        <time>2014-04-21T14:20:52Z</time>
      </trkpt>
      <trkpt lat="43.54453" lon="6.77767">
        <ele>101.3</ele>
        <time>2014-04-21T14:20:58Z</time>
      </trkpt>
      <trkpt lat="43.54463" lon="6.77766">
        <ele>101.3</ele>
        <time>2014-04-21T14:21:01Z</time>
      </trkpt>
      <trkpt lat="43.54474" lon="6.77764">
        <ele>101.3</ele>
        <time>2014-04-21T14:21:04Z</time>
      </trkpt>
      <trkpt lat="43.54485" lon="6.77764">
        <ele>102.3</ele>
        <time>2014-04-21T14:21:07Z</time>
      </trkpt>
      <trkpt lat="43.54496" lon="6.77764">
        <ele>102.3</ele>
        <time>2014-04-21T14:21:10Z</time>
      </trkpt>
      <trkpt lat="43.54507" lon="6.77764">
        <ele>102.3</ele>
        <time>2014-04-21T14:21:13Z</time>
      </trkpt>
      <trkpt lat="43.54517" lon="6.77766">
        <ele>102.3</ele>
        <time>2014-04-21T14:21:16Z</time>
      </trkpt>
      <trkpt lat="43.54528" lon="6.77768">
        <ele>101.3</ele>
        <time>2014-04-21T14:21:19Z</time>
      </trkpt>
      <trkpt lat="43.54538" lon="6.77773">
        <ele>102.3</ele>
        <time>2014-04-21T14:21:22Z</time>
      </trkpt>
      <trkpt lat="43.54547" lon="6.7778">
        <ele>102.3</ele>
        <time>2014-04-21T14:21:25Z</time>
      </trkpt>
      <trkpt lat="43.54556" lon="6.77788">
        <ele>102.3</ele>
        <time>2014-04-21T14:21:28Z</time>
      </trkpt>
      <trkpt lat="43.54565" lon="6.77796">
        <ele>102.3</ele>
        <time>2014-04-21T14:21:31Z</time>
      </trkpt>
      <trkpt lat="43.54574" lon="6.77803">
        <ele>101.3</ele>
        <time>2014-04-21T14:21:34Z</time>
      </trkpt>
      <trkpt lat="43.54584" lon="6.7781">
        <ele>101.3</ele>
        <time>2014-04-21T14:21:37Z</time>
      </trkpt>
      <trkpt lat="43.54594" lon="6.77817">
        <ele>102.3</ele>
        <time>2014-04-21T14:21:40Z</time>
      </trkpt>
      <trkpt lat="43.54604" lon="6.77824">
        <ele>103.3</ele>
        <time>2014-04-21T14:21:43Z</time>
      </trkpt>
      <trkpt lat="43.54614" lon="6.77832">
        <ele>103.3</ele>
        <time>2014-04-21T14:21:46Z</time>
      </trkpt>
      <trkpt lat="43.54625" lon="6.77838">
        <ele>103.3</ele>
        <time>2014-04-21T14:21:49Z</time>
      </trkpt>
      <trkpt lat="43.54635" lon="6.77845">
        <ele>103.3</ele>
        <time>2014-04-21T14:21:52Z</time>
      </trkpt>
      <trkpt lat="43.54655" lon="6.7786">
        <ele>103.3</ele>
        <time>2014-04-21T14:21:58Z</time>
      </trkpt>
      <trkpt lat="43.54666" lon="6.77868">
        <ele>103.3</ele>
        <time>2014-04-21T14:22:01Z</time>
      </trkpt>
      <trkpt lat="43.54676" lon="6.77876">
        <ele>103.3</ele>
        <time>2014-04-21T14:22:04Z</time>
      </trkpt>
      <trkpt lat="43.54684" lon="6.77886">
        <ele>104.3</ele>
        <time>2014-04-21T14:22:07Z</time>
      </trkpt>
      <trkpt lat="43.54692" lon="6.77896">
        <ele>105.3</ele>
        <time>2014-04-21T14:22:10Z</time>
      </trkpt>
      <trkpt lat="43.54698" lon="6.7791">
        <ele>104.3</ele>
        <time>2014-04-21T14:22:13Z</time>
      </trkpt>
      <trkpt lat="43.54703" lon="6.77924">
        <ele>104.3</ele>
        <time>2014-04-21T14:22:16Z</time>
      </trkpt>
      <trkpt lat="43.54709" lon="6.77938">
        <ele>104.3</ele>
        <time>2014-04-21T14:22:19Z</time>
      </trkpt>
      <trkpt lat="43.54715" lon="6.77951">
        <ele>104.3</ele>
        <time>2014-04-21T14:22:22Z</time>
      </trkpt>
      <trkpt lat="43.54722" lon="6.77964">
        <ele>104.3</ele>
        <time>2014-04-21T14:22:25Z</time>
      </trkpt>
      <trkpt lat="43.54729" lon="6.77976">
        <ele>105.3</ele>
        <time>2014-04-21T14:22:28Z</time>
      </trkpt>
      <trkpt lat="43.54735" lon="6.77987">
        <ele>105.3</ele>
        <time>2014-04-21T14:22:31Z</time>
      </trkpt>
      <trkpt lat="43.54741" lon="6.77998">
        <ele>106.3</ele>
        <time>2014-04-21T14:22:34Z</time>
      </trkpt>
      <trkpt lat="43.54747" lon="6.78009">
        <ele>108.3</ele>
        <time>2014-04-21T14:22:37Z</time>
      </trkpt>
      <trkpt lat="43.54756" lon="6.78019">
        <ele>109.3</ele>
        <time>2014-04-21T14:22:41Z</time>
      </trkpt>
      <trkpt lat="43.54764" lon="6.7803">
        <ele>110.3</ele>
        <time>2014-04-21T14:22:45Z</time>
      </trkpt>
      <trkpt lat="43.54772" lon="6.78037">
        <ele>109.3</ele>
        <time>2014-04-21T14:22:48Z</time>
      </trkpt>
      <trkpt lat="43.5478" lon="6.78046">
        <ele>110.3</ele>
        <time>2014-04-21T14:22:51Z</time>
      </trkpt>
      <trkpt lat="43.54788" lon="6.78053">
        <ele>110.3</ele>
        <time>2014-04-21T14:22:54Z</time>
      </trkpt>
      <trkpt lat="43.54804" lon="6.78069">
        <ele>110.3</ele>
        <time>2014-04-21T14:23:00Z</time>
      </trkpt>
      <trkpt lat="43.54811" lon="6.78078">
        <ele>110.3</ele>
        <time>2014-04-21T14:23:03Z</time>
      </trkpt>
      <trkpt lat="43.5482" lon="6.78086">
        <ele>111.3</ele>
        <time>2014-04-21T14:23:06Z</time>
      </trkpt>
      <trkpt lat="43.54828" lon="6.78095">
        <ele>112.3</ele>
        <time>2014-04-21T14:23:09Z</time>
      </trkpt>
      <trkpt lat="43.54837" lon="6.78103">
        <ele>112.3</ele>
        <time>2014-04-21T14:23:12Z</time>
      </trkpt>
      <trkpt lat="43.54846" lon="6.78111">
        <ele>112.3</ele>
        <time>2014-04-21T14:23:15Z</time>
      </trkpt>
      <trkpt lat="43.54857" lon="6.78117">
        <ele>111.3</ele>
        <time>2014-04-21T14:23:18Z</time>
      </trkpt>
      <trkpt lat="43.54867" lon="6.78121">
        <ele>112.3</ele>
        <time>2014-04-21T14:23:21Z</time>
      </trkpt>
      <trkpt lat="43.54878" lon="6.78125">
        <ele>112.3</ele>
        <time>2014-04-21T14:23:24Z</time>
      </trkpt>
      <trkpt lat="43.54888" lon="6.78128">
        <ele>112.3</ele>
        <time>2014-04-21T14:23:27Z</time>
      </trkpt>
      <trkpt lat="43.54898" lon="6.78129">
        <ele>112.3</ele>
        <time>2014-04-21T14:23:30Z</time>
      </trkpt>
      <trkpt lat="43.54908" lon="6.78133">
        <ele>113.3</ele>
        <time>2014-04-21T14:23:33Z</time>
      </trkpt>
      <trkpt lat="43.54916" lon="6.78139">
        <ele>113.3</ele>
        <time>2014-04-21T14:23:36Z</time>
      </trkpt>
      <trkpt lat="43.54923" lon="6.78147">
        <ele>114.3</ele>
        <time>2014-04-21T14:23:39Z</time>
      </trkpt>
      <trkpt lat="43.54932" lon="6.78157">
        <ele>114.3</ele>
        <time>2014-04-21T14:23:43Z</time>
      </trkpt>
      <trkpt lat="43.54939" lon="6.78166">
        <ele>114.3</ele>
        <time>2014-04-21T14:23:46Z</time>
      </trkpt>
      <trkpt lat="43.54946" lon="6.78176">
        <ele>114.3</ele>
        <time>2014-04-21T14:23:49Z</time>
      </trkpt>
      <trkpt lat="43.54953" lon="6.78186">
        <ele>115.3</ele>
        <time>2014-04-21T14:23:52Z</time>
      </trkpt>
      <trkpt lat="43.54959" lon="6.78196">
        <ele>115.3</ele>
        <time>2014-04-21T14:23:55Z</time>
      </trkpt>
      <trkpt lat="43.54973" lon="6.78218">
        <ele>116.3</ele>
        <time>2014-04-21T14:24:01Z</time>
      </trkpt>
      <trkpt lat="43.5498" lon="6.78229">
        <ele>118.3</ele>
        <time>2014-04-21T14:24:04Z</time>
      </trkpt>
      <trkpt lat="43.54987" lon="6.78241">
        <ele>118.3</ele>
        <time>2014-04-21T14:24:07Z</time>
      </trkpt>
      <trkpt lat="43.54994" lon="6.78252">
        <ele>118.3</ele>
        <time>2014-04-21T14:24:10Z</time>
      </trkpt>
      <trkpt lat="43.55003" lon="6.78262">
        <ele>118.3</ele>
        <time>2014-04-21T14:24:13Z</time>
      </trkpt>
      <trkpt lat="43.55012" lon="6.78271">
        <ele>118.3</ele>
        <time>2014-04-21T14:24:16Z</time>
      </trkpt>
      <trkpt lat="43.55021" lon="6.78277">
        <ele>118.3</ele>
        <time>2014-04-21T14:24:19Z</time>
      </trkpt>
      <trkpt lat="43.5503" lon="6.78282">
        <ele>118.3</ele>
        <time>2014-04-21T14:24:22Z</time>
      </trkpt>
      <trkpt lat="43.5504" lon="6.78286">
        <ele>118.3</ele>
        <time>2014-04-21T14:24:25Z</time>
      </trkpt>
      <trkpt lat="43.55049" lon="6.7829">
        <ele>118.3</ele>
        <time>2014-04-21T14:24:28Z</time>
      </trkpt>
      <trkpt lat="43.55059" lon="6.78293">
        <ele>119.3</ele>
        <time>2014-04-21T14:24:33Z</time>
      </trkpt>
      <trkpt lat="43.55068" lon="6.78292">
        <ele>120.3</ele>
        <time>2014-04-21T14:24:39Z</time>
      </trkpt>
      <trkpt lat="43.55066" lon="6.78305">
        <ele>119.3</ele>
        <time>2014-04-21T14:24:44Z</time>
      </trkpt>
      <trkpt lat="43.55062" lon="6.78292">
        <ele>118.3</ele>
        <time>2014-04-21T14:24:47Z</time>
      </trkpt>
      <trkpt lat="43.55071" lon="6.78298">
        <ele>119.3</ele>
        <time>2014-04-21T14:24:50Z</time>
      </trkpt>
      <trkpt lat="43.55062" lon="6.78305">
        <ele>118.3</ele>
        <time>2014-04-21T14:24:53Z</time>
      </trkpt>
      <trkpt lat="43.55064" lon="6.78291">
        <ele>118.3</ele>
        <time>2014-04-21T14:24:56Z</time>
      </trkpt>
      <trkpt lat="43.55059" lon="6.78302">
        <ele>117.3</ele>
        <time>2014-04-21T14:25:02Z</time>
      </trkpt>
      <trkpt lat="43.55072" lon="6.78296">
        <ele>117.3</ele>
        <time>2014-04-21T14:25:05Z</time>
      </trkpt>
      <trkpt lat="43.55062" lon="6.78301">
        <ele>118.3</ele>
        <time>2014-04-21T14:25:09Z</time>
      </trkpt>
      <trkpt lat="43.55066" lon="6.78289">
        <ele>117.3</ele>
        <time>2014-04-21T14:25:12Z</time>
      </trkpt>
      <trkpt lat="43.55068" lon="6.78301">
        <ele>119.3</ele>
        <time>2014-04-21T14:25:16Z</time>
      </trkpt>
      <trkpt lat="43.55059" lon="6.78299">
        <ele>118.3</ele>
        <time>2014-04-21T14:25:20Z</time>
      </trkpt>
      <trkpt lat="43.55068" lon="6.7829">
        <ele>118.3</ele>
        <time>2014-04-21T14:25:23Z</time>
      </trkpt>
      <trkpt lat="43.5507" lon="6.78302">
        <ele>119.3</ele>
        <time>2014-04-21T14:25:26Z</time>
      </trkpt>
      <trkpt lat="43.5506" lon="6.78304">
        <ele>118.3</ele>
        <time>2014-04-21T14:25:29Z</time>
      </trkpt>
      <trkpt lat="43.55063" lon="6.7829">
        <ele>117.3</ele>
        <time>2014-04-21T14:25:32Z</time>
      </trkpt>
      <trkpt lat="43.55071" lon="6.783">
        <ele>118.3</ele>
        <time>2014-04-21T14:25:35Z</time>
      </trkpt>
      <trkpt lat="43.55061" lon="6.78303">
        <ele>117.3</ele>
        <time>2014-04-21T14:25:38Z</time>
      </trkpt>
      <trkpt lat="43.55066" lon="6.78291">
        <ele>118.3</ele>
        <time>2014-04-21T14:25:41Z</time>
      </trkpt>
      <trkpt lat="43.55069" lon="6.78303">
        <ele>118.3</ele>
        <time>2014-04-21T14:25:44Z</time>
      </trkpt>
      <trkpt lat="43.55059" lon="6.78299">
        <ele>117.3</ele>
        <time>2014-04-21T14:25:47Z</time>
      </trkpt>
      <trkpt lat="43.55066" lon="6.7829">
        <ele>117.3</ele>
        <time>2014-04-21T14:25:49Z</time>
      </trkpt>
      <trkpt lat="43.55071" lon="6.78302">
        <ele>117.3</ele>
        <time>2014-04-21T14:25:52Z</time>
      </trkpt>
      <trkpt lat="43.55062" lon="6.78299">
        <ele>117.3</ele>
        <time>2014-04-21T14:25:55Z</time>
      </trkpt>
      <trkpt lat="43.55072" lon="6.78291">
        <ele>117.3</ele>
        <time>2014-04-21T14:25:57Z</time>
      </trkpt>
      <trkpt lat="43.55075" lon="6.78297">
        <ele>116.3</ele>
        <time>2014-04-21T14:26:08Z</time>
      </trkpt>
      <trkpt lat="43.55086" lon="6.78301">
        <ele>117.3</ele>
        <time>2014-04-21T14:26:12Z</time>
      </trkpt>
      <trkpt lat="43.55094" lon="6.78305">
        <ele>118.3</ele>
        <time>2014-04-21T14:26:15Z</time>
      </trkpt>
      <trkpt lat="43.55103" lon="6.7831">
        <ele>118.3</ele>
        <time>2014-04-21T14:26:18Z</time>
      </trkpt>
      <trkpt lat="43.55112" lon="6.78318">
        <ele>118.3</ele>
        <time>2014-04-21T14:26:21Z</time>
      </trkpt>
      <trkpt lat="43.5512" lon="6.78328">
        <ele>119.3</ele>
        <time>2014-04-21T14:26:24Z</time>
      </trkpt>
      <trkpt lat="43.55125" lon="6.78342">
        <ele>119.3</ele>
        <time>2014-04-21T14:26:27Z</time>
      </trkpt>
      <trkpt lat="43.55128" lon="6.78359">
        <ele>119.3</ele>
        <time>2014-04-21T14:26:30Z</time>
      </trkpt>
      <trkpt lat="43.55129" lon="6.78377">
        <ele>120.3</ele>
        <time>2014-04-21T14:26:33Z</time>
      </trkpt>
      <trkpt lat="43.55127" lon="6.78391">
        <ele>120.3</ele>
        <time>2014-04-21T14:26:35Z</time>
      </trkpt>
      <trkpt lat="43.55125" lon="6.78408">
        <ele>119.3</ele>
        <time>2014-04-21T14:26:38Z</time>
      </trkpt>
      <trkpt lat="43.55121" lon="6.78423">
        <ele>120.3</ele>
        <time>2014-04-21T14:26:41Z</time>
      </trkpt>
      <trkpt lat="43.55116" lon="6.78436">
        <ele>119.3</ele>
        <time>2014-04-21T14:26:44Z</time>
      </trkpt>
      <trkpt lat="43.55112" lon="6.78449">
        <ele>120.3</ele>
        <time>2014-04-21T14:26:47Z</time>
      </trkpt>
      <trkpt lat="43.55107" lon="6.78461">
        <ele>120.3</ele>
        <time>2014-04-21T14:26:50Z</time>
      </trkpt>
      <trkpt lat="43.55103" lon="6.78474">
        <ele>122.3</ele>
        <time>2014-04-21T14:26:53Z</time>
      </trkpt>
      <trkpt lat="43.55099" lon="6.78486">
        <ele>123.3</ele>
        <time>2014-04-21T14:26:56Z</time>
      </trkpt>
      <trkpt lat="43.55095" lon="6.78499">
        <ele>124.3</ele>
        <time>2014-04-21T14:26:59Z</time>
      </trkpt>
      <trkpt lat="43.55087" lon="6.78525">
        <ele>125.3</ele>
        <time>2014-04-21T14:27:05Z</time>
      </trkpt>
      <trkpt lat="43.55082" lon="6.78538">
        <ele>125.3</ele>
        <time>2014-04-21T14:27:08Z</time>
      </trkpt>
      <trkpt lat="43.55078" lon="6.78551">
        <ele>126.3</ele>
        <time>2014-04-21T14:27:11Z</time>
      </trkpt>
      <trkpt lat="43.55073" lon="6.78564">
        <ele>127.3</ele>
        <time>2014-04-21T14:27:14Z</time>
      </trkpt>
      <trkpt lat="43.55069" lon="6.78578">
        <ele>127.3</ele>
        <time>2014-04-21T14:27:17Z</time>
      </trkpt>
      <trkpt lat="43.55066" lon="6.78592">
        <ele>127.3</ele>
        <time>2014-04-21T14:27:20Z</time>
      </trkpt>
      <trkpt lat="43.55063" lon="6.78607">
        <ele>129.3</ele>
        <time>2014-04-21T14:27:23Z</time>
      </trkpt>
      <trkpt lat="43.55061" lon="6.78621">
        <ele>128.3</ele>
        <time>2014-04-21T14:27:26Z</time>
      </trkpt>
      <trkpt lat="43.55058" lon="6.78635">
        <ele>129.3</ele>
        <time>2014-04-21T14:27:29Z</time>
      </trkpt>
      <trkpt lat="43.55055" lon="6.7865">
        <ele>129.3</ele>
        <time>2014-04-21T14:27:32Z</time>
      </trkpt>
      <trkpt lat="43.55051" lon="6.78664">
        <ele>129.3</ele>
        <time>2014-04-21T14:27:35Z</time>
      </trkpt>
      <trkpt lat="43.55047" lon="6.78678">
        <ele>130.3</ele>
        <time>2014-04-21T14:27:38Z</time>
      </trkpt>
      <trkpt lat="43.55041" lon="6.7869">
        <ele>130.3</ele>
        <time>2014-04-21T14:27:41Z</time>
      </trkpt>
      <trkpt lat="43.55034" lon="6.78702">
        <ele>130.3</ele>
        <time>2014-04-21T14:27:44Z</time>
      </trkpt>
      <trkpt lat="43.55026" lon="6.78713">
        <ele>131.3</ele>
        <time>2014-04-21T14:27:47Z</time>
      </trkpt>
      <trkpt lat="43.55018" lon="6.78723">
        <ele>132.3</ele>
        <time>2014-04-21T14:27:50Z</time>
      </trkpt>
      <trkpt lat="43.5501" lon="6.78733">
        <ele>131.3</ele>
        <time>2014-04-21T14:27:53Z</time>
      </trkpt>
      <trkpt lat="43.55002" lon="6.78742">
        <ele>131.3</ele>
        <time>2014-04-21T14:27:56Z</time>
      </trkpt>
      <trkpt lat="43.54995" lon="6.78753">
        <ele>131.3</ele>
        <time>2014-04-21T14:27:59Z</time>
      </trkpt>
      <trkpt lat="43.54988" lon="6.78764">
        <ele>131.3</ele>
        <time>2014-04-21T14:28:02Z</time>
      </trkpt>
      <trkpt lat="43.54976" lon="6.78789">
        <ele>131.3</ele>
        <time>2014-04-21T14:28:08Z</time>
      </trkpt>
      <trkpt lat="43.54972" lon="6.78803">
        <ele>132.3</ele>
        <time>2014-04-21T14:28:11Z</time>
      </trkpt>
      <trkpt lat="43.54969" lon="6.78818">
        <ele>133.3</ele>
        <time>2014-04-21T14:28:14Z</time>
      </trkpt>
      <trkpt lat="43.54966" lon="6.78833">
        <ele>133.3</ele>
        <time>2014-04-21T14:28:17Z</time>
      </trkpt>
      <trkpt lat="43.54963" lon="6.78849">
        <ele>133.3</ele>
        <time>2014-04-21T14:28:20Z</time>
      </trkpt>
      <trkpt lat="43.54963" lon="6.78865">
        <ele>134.3</ele>
        <time>2014-04-21T14:28:23Z</time>
      </trkpt>
      <trkpt lat="43.54964" lon="6.78881">
        <ele>134.3</ele>
        <time>2014-04-21T14:28:26Z</time>
      </trkpt>
      <trkpt lat="43.54967" lon="6.78896">
        <ele>134.3</ele>
        <time>2014-04-21T14:28:29Z</time>
      </trkpt>
      <trkpt lat="43.54971" lon="6.78912">
        <ele>134.3</ele>
        <time>2014-04-21T14:28:32Z</time>
      </trkpt>
      <trkpt lat="43.54976" lon="6.78927">
        <ele>135.3</ele>
        <time>2014-04-21T14:28:35Z</time>
      </trkpt>
      <trkpt lat="43.54982" lon="6.78942">
        <ele>135.3</ele>
        <time>2014-04-21T14:28:38Z</time>
      </trkpt>
      <trkpt lat="43.54988" lon="6.78956">
        <ele>136.3</ele>
        <time>2014-04-21T14:28:41Z</time>
      </trkpt>
      <trkpt lat="43.54995" lon="6.7897">
        <ele>137.3</ele>
        <time>2014-04-21T14:28:44Z</time>
      </trkpt>
      <trkpt lat="43.55002" lon="6.78982">
        <ele>138.3</ele>
        <time>2014-04-21T14:28:47Z</time>
      </trkpt>
      <trkpt lat="43.55011" lon="6.78993">
        <ele>138.3</ele>
        <time>2014-04-21T14:28:50Z</time>
      </trkpt>
      <trkpt lat="43.55021" lon="6.79003">
        <ele>138.3</ele>
        <time>2014-04-21T14:28:53Z</time>
      </trkpt>
      <trkpt lat="43.55029" lon="6.79009">
        <ele>138.3</ele>
        <time>2014-04-21T14:28:55Z</time>
      </trkpt>
      <trkpt lat="43.55038" lon="6.79014">
        <ele>137.3</ele>
        <time>2014-04-21T14:28:57Z</time>
      </trkpt>
      <trkpt lat="43.55046" lon="6.79019">
        <ele>137.3</ele>
        <time>2014-04-21T14:28:59Z</time>
      </trkpt>
      <trkpt lat="43.55055" lon="6.79023">
        <ele>137.3</ele>
        <time>2014-04-21T14:29:01Z</time>
      </trkpt>
      <trkpt lat="43.55063" lon="6.79028">
        <ele>136.3</ele>
        <time>2014-04-21T14:29:03Z</time>
      </trkpt>
      <trkpt lat="43.55087" lon="6.79042">
        <ele>137.3</ele>
        <time>2014-04-21T14:29:09Z</time>
      </trkpt>
      <trkpt lat="43.55099" lon="6.79049">
        <ele>138.3</ele>
        <time>2014-04-21T14:29:12Z</time>
      </trkpt>
      <trkpt lat="43.5511" lon="6.79056">
        <ele>138.3</ele>
        <time>2014-04-21T14:29:15Z</time>
      </trkpt>
      <trkpt lat="43.55121" lon="6.79063">
        <ele>138.3</ele>
        <time>2014-04-21T14:29:18Z</time>
      </trkpt>
      <trkpt lat="43.55131" lon="6.7907">
        <ele>139.3</ele>
        <time>2014-04-21T14:29:21Z</time>
      </trkpt>
      <trkpt lat="43.55142" lon="6.79077">
        <ele>140.3</ele>
        <time>2014-04-21T14:29:24Z</time>
      </trkpt>
      <trkpt lat="43.55152" lon="6.79087">
        <ele>140.3</ele>
        <time>2014-04-21T14:29:27Z</time>
      </trkpt>
      <trkpt lat="43.55161" lon="6.79099">
        <ele>141.3</ele>
        <time>2014-04-21T14:29:30Z</time>
      </trkpt>
      <trkpt lat="43.55168" lon="6.79112">
        <ele>142.3</ele>
        <time>2014-04-21T14:29:33Z</time>
      </trkpt>
      <trkpt lat="43.55174" lon="6.79127">
        <ele>142.3</ele>
        <time>2014-04-21T14:29:36Z</time>
      </trkpt>
      <trkpt lat="43.55179" lon="6.79142">
        <ele>143.3</ele>
        <time>2014-04-21T14:29:39Z</time>
      </trkpt>
      <trkpt lat="43.55184" lon="6.79156">
        <ele>144.3</ele>
        <time>2014-04-21T14:29:42Z</time>
      </trkpt>
      <trkpt lat="43.55188" lon="6.7917">
        <ele>145.3</ele>
        <time>2014-04-21T14:29:45Z</time>
      </trkpt>
      <trkpt lat="43.55193" lon="6.79185">
        <ele>145.3</ele>
        <time>2014-04-21T14:29:48Z</time>
      </trkpt>
      <trkpt lat="43.55198" lon="6.79199">
        <ele>146.3</ele>
        <time>2014-04-21T14:29:51Z</time>
      </trkpt>
      <trkpt lat="43.55201" lon="6.79211">
        <ele>147.3</ele>
        <time>2014-04-21T14:29:54Z</time>
      </trkpt>
      <trkpt lat="43.55203" lon="6.79225">
        <ele>148.3</ele>
        <time>2014-04-21T14:29:57Z</time>
      </trkpt>
      <trkpt lat="43.55203" lon="6.79239">
        <ele>149.3</ele>
        <time>2014-04-21T14:30:00Z</time>
      </trkpt>
      <trkpt lat="43.55201" lon="6.79253">
        <ele>149.3</ele>
        <time>2014-04-21T14:30:03Z</time>
      </trkpt>
      <trkpt lat="43.55205" lon="6.79281">
        <ele>150.3</ele>
        <time>2014-04-21T14:30:10Z</time>
      </trkpt>
      <trkpt lat="43.55209" lon="6.79297">
        <ele>151.3</ele>
        <time>2014-04-21T14:30:14Z</time>
      </trkpt>
      <trkpt lat="43.55212" lon="6.79312">
        <ele>152.3</ele>
        <time>2014-04-21T14:30:18Z</time>
      </trkpt>
      <trkpt lat="43.55213" lon="6.79328">
        <ele>153.3</ele>
        <time>2014-04-21T14:30:22Z</time>
      </trkpt>
      <trkpt lat="43.55213" lon="6.79344">
        <ele>155.3</ele>
        <time>2014-04-21T14:30:26Z</time>
      </trkpt>
      <trkpt lat="43.55213" lon="6.79359">
        <ele>156.3</ele>
        <time>2014-04-21T14:30:30Z</time>
      </trkpt>
      <trkpt lat="43.55211" lon="6.79373">
        <ele>157.3</ele>
        <time>2014-04-21T14:30:34Z</time>
      </trkpt>
      <trkpt lat="43.55207" lon="6.79387">
        <ele>157.3</ele>
        <time>2014-04-21T14:30:38Z</time>
      </trkpt>
      <trkpt lat="43.55203" lon="6.79402">
        <ele>158.3</ele>
        <time>2014-04-21T14:30:42Z</time>
      </trkpt>
      <trkpt lat="43.55199" lon="6.79416">
        <ele>158.3</ele>
        <time>2014-04-21T14:30:46Z</time>
      </trkpt>
      <trkpt lat="43.55203" lon="6.79429">
        <ele>158.3</ele>
        <time>2014-04-21T14:30:50Z</time>
      </trkpt>
      <trkpt lat="43.55213" lon="6.79427">
        <ele>158.3</ele>
        <time>2014-04-21T14:30:54Z</time>
      </trkpt>
      <trkpt lat="43.55218" lon="6.79413">
        <ele>159.3</ele>
        <time>2014-04-21T14:30:58Z</time>
      </trkpt>
      <trkpt lat="43.55223" lon="6.79399">
        <ele>160.3</ele>
        <time>2014-04-21T14:31:02Z</time>
      </trkpt>
      <trkpt lat="43.55229" lon="6.79387">
        <ele>162.3</ele>
        <time>2014-04-21T14:31:07Z</time>
      </trkpt>
    </trkseg>
  </trk>
</gpx>